# Wetter Temperatur Luftdruck Luftfeuchtigkeit Sichtweite Windgeschwindigkeit Windrichtung Zeit
1 Clouds 6 1027 49 10000 8.7 360 22:25 24.01.2020
2 Clouds 6 1026 45 10000 7.2 10 21:43 24.01.2020
3 Clouds 6 1026 45 10000 7.2 10 21:21 24.01.2020
4 Clouds 6 1025 45 10000 8.7 360 20:59 24.01.2020
5 Clouds 6 1025 52 10000 8.2 360 20:40 24.01.2020
6 Clouds 6 1025 52 10000 8.2 360 20:20 24.01.2020
7 Clouds 6 1025 52 10000 8.2 10 19:57 24.01.2020
8 Clouds 6 1025 52 10000 8.2 10 19:57 24.01.2020
9 Clouds 6 1024 52 10000 7.2 360 19:38 24.01.2020
10 Clouds 6 1024 52 10000 7.2 360 19:38 24.01.2020
11 Clouds 6 1024 52 10000 7.2 360 19:20 24.01.2020
12 Clouds 6 1024 40 10000 9.8 350 18:43 24.01.2020
13 Clouds 7 1024 40 10000 9.8 350 18:24 24.01.2020
14 Clouds 7 1025 40 10000 9.8 350 17:54 24.01.2020
15 Clouds 7 1024 40 10000 9.3 350 17:36 24.01.2020
16 Clouds 7 1024 43 10000 9.3 350 17:18 24.01.2020
17 Clouds 8 1024 46 10000 10.3 350 16:39 24.01.2020
18 Clouds 8 1024 43 10000 10.8 350 16:20 24.01.2020
19 Rain 8 1024 43 10000 11.3 350 15:43 24.01.2020
20 Rain 9 1024 43 10000 11.3 350 15:22 24.01.2020
21 Rain 9 1024 43 10000 10.8 340 14:58 24.01.2020
22 Clouds 9 1024 43 10000 9.8 340 14:40 24.01.2020
23 Rain 9 1024 40 10000 9.8 340 14:21 24.01.2020
24 Clouds 10 1024 46 10000 7.2 330 13:43 24.01.2020
25 Clouds 10 1024 46 10000 7.2 330 13:23 24.01.2020
26 Clouds 10 1023 71 10000 4.6 310 12:44 24.01.2020
27 Clouds 10 1023 71 10000 4.6 310 12:23 24.01.2020
28 Clouds 11 1023 81 10000 2.6 340 11:57 24.01.2020
29 Clouds 11 1022 81 10000 1 360 11:39 24.01.2020
30 Clouds 11 1022 81 10000 1 360 11:18 24.01.2020
31 Clouds 11 1022 81 10000 1.5 360 10:42 24.01.2020
32 Clouds 11 1022 81 10000 1.5 360 10:42 24.01.2020
33 Clouds 11 1022 81 10000 1.5 360 10:42 24.01.2020
34 Clouds 11 1022 81 10000 1.5 360 10:21 24.01.2020
35 Clouds 12 1021 81 10000 1.5 350 09:55 24.01.2020
36 Clouds 12 1021 81 10000 2.1 360 09:37 24.01.2020
37 Clouds 12 1021 81 10000 2.1 360 09:18 24.01.2020
38 Clouds 13 1021 71 10000 1.73 63 08:39 24.01.2020
39 Clouds 13 1021 71 10000 1.93 89 08:19 24.01.2020
40 Clouds 13 1021 71 10000 1.5 20 07:48 24.01.2020
41 Clouds 13 1020 71 10000 0.5 150 07:22 24.01.2020
42 Clouds 13 1022 71 16093 1.5 200 06:45 24.01.2020
43 Clouds 13 1020 71 10000 1 0 06:24 24.01.2020
44 Clouds 13 1021 66 10000 0.5 0 05:37 24.01.2020
45 Clouds 12 1022 76 10000 2.1 40 03:55 24.01.2020
46 Clouds 11 1022 76 8000 1 0 02:43 24.01.2020
47 Clouds 11 1022 76 8000 1 0 02:23 24.01.2020
48 Clouds 10 1024 87 16093 1.9 21 01:39 24.01.2020
49 Clouds 9 1022 81 8000 1.5 10 00:54 24.01.2020
50 Clouds 8 1022 81 10000 3.6 20 00:19 24.01.2020
51 Clouds 8 1022 81 10000 3.1 20 23:45 23.01.2020
52 Clouds 8 1021 81 10000 2.1 30 23:26 23.01.2020
53 Clouds 8 1022 93 16093 2.57 350 22:59 23.01.2020
54 Clouds 8 1020 81 10000 2.1 10 22:37 23.01.2020
55 Clouds 8 1020 81 10000 2.1 10 22:18 23.01.2020
56 Clouds 8 1020 81 10000 2.6 20 21:56 23.01.2020
57 Clouds 8 1021 93 16093 2.57 350 21:38 23.01.2020
58 Clouds 8 1020 81 10000 1.5 340 21:19 23.01.2020
59 Clouds 8 1020 81 10000 1.5 340 20:57 23.01.2020
60 Clouds 8 1019 87 10000 2.1 360 20:38 23.01.2020
61 Clouds 8 1019 87 10000 2.1 360 20:19 23.01.2020
62 Clouds 8 1020 81 10000 2.6 350 19:44 23.01.2020
63 Clouds 8 1020 81 10000 2.6 350 19:24 23.01.2020
64 Clouds 8 1019 81 10000 3.1 350 18:59 23.01.2020
65 Clouds 8 1019 87 10000 4.1 360 18:40 23.01.2020
66 Clouds 8 1019 87 10000 4.1 360 18:20 23.01.2020
67 Clouds 8 1019 87 10000 4.6 10 17:58 23.01.2020
68 Clouds 8 1019 87 10000 4.6 360 17:39 23.01.2020
69 Clouds 8 1019 87 10000 4.6 360 17:19 23.01.2020
70 Clouds 8 1020 93 16093 2.6 280 16:55 23.01.2020
71 Clouds 8 1018 81 10000 5.7 350 16:36 23.01.2020
72 Clouds 8 1018 81 10000 5.7 350 16:18 23.01.2020
73 Clouds 8 1019 81 10000 6.2 350 15:54 23.01.2020
74 Clouds 8 1018 81 10000 7.2 350 15:36 23.01.2020
75 Clouds 8 1018 81 10000 7.2 350 15:18 23.01.2020
76 Clouds 8 1019 87 8000 6.2 350 14:54 23.01.2020
77 Rain 8 1018 87 8000 6.2 350 14:36 23.01.2020
78 Rain 8 1018 87 8000 6.2 350 14:18 23.01.2020
79 Clouds 8 1018 87 10000 5.1 350 13:38 23.01.2020
80 Clouds 8 1018 87 10000 5.1 350 13:19 23.01.2020
81 Clouds 8 1018 87 10000 5.7 340 12:47 23.01.2020
82 Clouds 8 1018 87 10000 5.1 350 12:25 23.01.2020
83 Clouds 8 1018 87 10000 5.1 350 12:25 23.01.2020
84 Clouds 8 1018 87 10000 5.1 350 12:25 23.01.2020
85 Clouds 7 1018 81 9000 4.1 340 11:59 23.01.2020
86 Clouds 7 1018 87 9000 5.1 350 11:38 23.01.2020
87 Clouds 7 1018 87 9000 5.1 350 11:19 23.01.2020
88 Rain 7 1017 93 5000 4.6 10 10:45 23.01.2020
89 Rain 7 1017 93 5000 4.6 10 10:23 23.01.2020
90 Rain 7 1018 93 3500 4.6 350 09:59 23.01.2020
91 Rain 7 1018 93 1400 2.1 340 09:38 23.01.2020
92 Rain 7 1018 93 1400 2.1 340 09:20 23.01.2020
93 Rain 7 1018 93 2000 4.1 10 08:42 23.01.2020
94 Rain 7 1017 81 9656 2.6 360 08:24 23.01.2020
95 Rain 7 1017 81 9656 2.6 360 08:24 23.01.2020
96 Rain 6 1017 81 9656 2.1 360 07:48 23.01.2020
97 Rain 6 1017 87 6437 1.5 10 07:27 23.01.2020
98 Rain 6 1017 87 4426 1.5 10 06:54 23.01.2020
99 Rain 7 1018 93 2500 1 0 06:23 23.01.2020
100 Rain 7 1019 87 2000 2.1 360 05:58 23.01.2020
101 Rain 7 1019 87 2000 2.1 360 05:58 23.01.2020
102 Rain 7 1020 81 5000 1 0 04:24 23.01.2020
103 Rain 6 1024 81 5000 1.5 360 02:35 23.01.2020
104 Rain 6 1023 80 8047 1.5 30 01:41 23.01.2020
105 Rain 5 1024 81 10000 2.1 350 00:28 23.01.2020
106 Rain 5 1024 65 10000 1 0 23:54 22.01.2020
107 Rain 5 1024 36 10000 2.1 10 23:36 22.01.2020
108 Rain 5 1024 42 10000 2.1 10 23:18 22.01.2020
109 Clouds 5 1023 65 10000 2.6 30 22:41 22.01.2020
110 Clouds 5 1023 65 10000 2.6 30 22:23 22.01.2020
111 Clouds 5 1023 70 10000 2.6 20 21:42 22.01.2020
112 Clouds 5 1023 70 10000 2.6 20 21:22 22.01.2020
113 Clouds 5 1023 70 10000 3.6 20 20:59 22.01.2020
114 Clouds 5 1023 70 10000 3.1 20 20:41 22.01.2020
115 Clouds 5 1023 70 10000 3.1 20 20:23 22.01.2020
116 Clouds 5 1023 70 10000 2.6 10 19:57 22.01.2020
117 Clouds 5 1023 65 10000 2.6 30 19:39 22.01.2020
118 Clouds 5 1024 65 10000 2.1 10 19:19 22.01.2020
119 Clouds 5 1024 65 10000 2.1 10 18:57 22.01.2020
120 Clouds 5 1024 47 10000 1.5 110 18:38 22.01.2020
121 Clouds 5 1024 47 10000 1.5 110 18:20 22.01.2020
122 Clouds 5 1024 47 10000 0.5 0 17:55 22.01.2020
123 Clouds 5 1024 65 10000 1.5 40 17:37 22.01.2020
124 Clouds 5 1024 65 10000 1.5 40 17:19 22.01.2020
125 Clouds 5 1025 53 10000 2.6 320 16:43 22.01.2020
126 Clouds 5 1025 53 10000 2.6 320 16:23 22.01.2020
127 Clouds 5 1025 70 10000 3.1 320 15:59 22.01.2020
128 Clouds 6 1025 53 10000 0.5 0 15:40 22.01.2020
129 Clouds 6 1025 53 10000 0.5 0 15:22 22.01.2020
130 Clouds 6 1025 56 10000 0.5 0 14:58 22.01.2020
131 Clouds 6 1025 56 10000 0.5 0 14:37 22.01.2020
132 Clouds 6 1025 56 10000 0.5 0 14:18 22.01.2020
133 Clouds 6 1026 56 10000 1 0 13:55 22.01.2020
134 Clouds 6 1026 56 10000 1.5 280 13:36 22.01.2020
135 Clouds 6 1026 56 10000 1.5 280 13:36 22.01.2020
136 Clouds 6 1026 56 10000 1.5 280 13:36 22.01.2020
137 Clouds 6 1026 56 10000 1.5 280 13:18 22.01.2020
138 Clouds 6 1026 56 10000 2.1 340 12:55 22.01.2020
139 Clouds 6 1026 56 10000 2.6 320 12:37 22.01.2020
140 Clouds 6 1026 56 10000 2.6 320 12:18 22.01.2020
141 Clouds 6 1026 56 10000 3.1 320 11:56 22.01.2020
142 Clouds 6 1026 56 10000 2.6 10 11:37 22.01.2020
143 Clouds 6 1026 61 10000 2.1 290 11:18 22.01.2020
144 Clouds 6 1026 56 10000 2.6 20 10:44 22.01.2020
145 Clouds 6 1026 56 10000 2.6 20 10:21 22.01.2020
146 Clouds 6 1026 56 10000 4.1 30 09:44 22.01.2020
147 Clouds 7 1026 61 10000 3.6 30 09:26 22.01.2020
148 Clouds 7 1026 56 10000 3.6 20 08:59 22.01.2020
149 Clouds 7 1026 52 10000 3.1 30 08:40 22.01.2020
150 Clouds 7 1026 52 10000 3.1 30 08:21 22.01.2020
151 Clouds 8 1026 56 10000 3.6 30 07:58 22.01.2020
152 Clouds 8 1026 48 10000 3.1 20 07:40 22.01.2020
153 Clouds 8 1026 48 10000 3.1 20 07:21 22.01.2020
154 Clouds 7 1026 56 10000 2.6 30 06:31 22.01.2020
155 Rain 7 1027 60 10000 2.1 360 05:42 22.01.2020
156 Clouds 6 1029 56 10000 3.6 340 04:23 22.01.2020
157 Clouds 6 1030 52 10000 2.6 330 03:26 22.01.2020
158 Clouds 5 1030 48 10000 2.6 360 02:38 22.01.2020
159 Clouds 4 1031 52 10000 4.1 320 00:46 22.01.2020
160 Clouds 4 1031 52 10000 4.1 320 00:27 22.01.2020
161 Clouds 3 1030 48 10000 4.1 360 23:55 21.01.2020
162 Clouds 3 1030 52 10000 4.6 20 23:36 21.01.2020
163 Clouds 3 1030 52 10000 4.6 20 23:18 21.01.2020
164 Clouds 3 1030 52 10000 4.6 20 23:18 21.01.2020
165 Clouds 3 1030 52 10000 4.6 20 23:18 21.01.2020
166 Clouds 3 1029 52 10000 4.1 10 22:40 21.01.2020
167 Clouds 3 1029 52 10000 4.1 10 22:20 21.01.2020
168 Clouds 3 1029 52 10000 4.6 10 21:57 21.01.2020
169 Clouds 3 1029 52 10000 3.6 10 21:38 21.01.2020
170 Clouds 3 1029 52 10000 3.6 10 21:20 21.01.2020
171 Clouds 3 1028 56 10000 3.6 10 20:56 21.01.2020
172 Clouds 2 1028 48 10000 3.1 350 20:37 21.01.2020
173 Clouds 2 1028 48 10000 3.1 350 20:19 21.01.2020
174 Clouds 2 1029 51 10000 3.6 350 19:56 21.01.2020
175 Clouds 2 1028 48 10000 5.1 360 19:38 21.01.2020
176 Clouds 3 1028 52 10000 5.7 360 19:20 21.01.2020
177 Clouds 3 1028 52 10000 5.7 360 18:55 21.01.2020
178 Clouds 3 1028 52 10000 6.2 10 18:37 21.01.2020
179 Clouds 3 1028 52 10000 6.2 10 18:18 21.01.2020
180 Clouds 3 1029 52 10000 6.2 20 17:45 21.01.2020
181 Clouds 3 1028 52 10000 5.1 30 17:20 21.01.2020
182 Clouds 3 1028 48 10000 6.2 20 16:59 21.01.2020
183 Clouds 3 1028 45 10000 5.1 10 16:37 21.01.2020
184 Clouds 3 1028 45 10000 5.1 10 16:37 21.01.2020
185 Clouds 3 1028 45 10000 5.1 10 16:37 21.01.2020
186 Clouds 3 1028 45 10000 5.1 10 16:19 21.01.2020
187 Clouds 4 1028 48 10000 6.2 350 15:56 21.01.2020
188 Clouds 4 1028 48 10000 5.1 360 15:36 21.01.2020
189 Clouds 4 1028 48 10000 5.1 360 15:18 21.01.2020
190 Clouds 4 1027 45 10000 6.2 330 14:38 21.01.2020
191 Clouds 4 1027 45 10000 6.2 330 14:20 21.01.2020
192 Clouds 5 1026 42 10000 7.7 330 13:40 21.01.2020
193 Clouds 5 1026 42 10000 7.7 330 13:19 21.01.2020
194 Clouds 5 1026 42 10000 8.2 340 12:56 21.01.2020
195 Clouds 5 1025 45 10000 8.2 330 12:37 21.01.2020
196 Clouds 6 1025 45 10000 8.2 330 12:19 21.01.2020
197 Clouds 6 1025 39 10000 8.7 350 11:40 21.01.2020
198 Clouds 6 1025 39 10000 8.7 350 11:21 21.01.2020
199 Clouds 7 1024 45 10000 7.7 350 10:57 21.01.2020
200 Clouds 7 1024 45 10000 7.7 350 10:57 21.01.2020
201 Clouds 7 1024 39 10000 7.7 350 10:39 21.01.2020
202 Clouds 7 1024 39 10000 7.7 350 10:20 21.01.2020
203 Clouds 8 1023 39 10000 8.2 350 09:42 21.01.2020
204 Clouds 8 1023 39 10000 8.2 350 09:23 21.01.2020
205 Clouds 9 1022 34 10000 7.7 350 08:54 21.01.2020
206 Clouds 9 1022 29 10000 5.1 330 08:36 21.01.2020
207 Clouds 10 1022 29 10000 5.1 330 08:18 21.01.2020
208 Clouds 10 1020 29 10000 7.2 320 07:41 21.01.2020
209 Clouds 10 1020 29 10000 7.2 320 07:22 21.01.2020
210 Clouds 11 1020 32 10000 8.7 340 06:49 21.01.2020
211 Clouds 11 1020 32 10000 6.2 360 06:30 21.01.2020
212 Clouds 11 1020 40 10000 9.8 350 05:44 21.01.2020
213 Clouds 11 1019 34 10000 6.2 320 04:41 21.01.2020
214 Clouds 10 1019 43 10000 9.3 350 02:58 21.01.2020
215 Clouds 10 1019 43 10000 10.8 350 02:19 21.01.2020
216 Clouds 9 1018 39 10000 5.1 340 01:26 21.01.2020
217 Rain 7 1018 49 10000 11.8 340 00:38 21.01.2020
218 Rain 7 1017 49 10000 10.3 350 23:59 20.01.2020
219 Rain 6 1015 49 10000 11.8 340 23:41 20.01.2020
220 Rain 6 1015 49 10000 11.8 340 23:19 20.01.2020
221 Rain 6 1015 45 10000 9.8 330 22:58 20.01.2020
222 Clouds 5 1014 49 10000 6.7 330 22:38 20.01.2020
223 Clouds 5 1014 49 10000 6.7 330 22:20 20.01.2020
224 Clouds 5 1014 49 10000 6.7 330 22:20 20.01.2020
225 Clouds 4 1014 52 10000 5.7 320 21:58 20.01.2020
226 Clouds 4 1013 56 10000 5.7 330 21:37 20.01.2020
227 Clouds 4 1013 56 10000 5.7 330 21:19 20.01.2020
228 Clouds 3 1013 70 10000 2.6 280 20:57 20.01.2020
229 Clear 3 1012 75 10000 2.1 260 20:38 20.01.2020
230 Clear 3 1012 75 10000 2.1 260 20:19 20.01.2020
231 Clear 3 1011 75 10000 2.1 260 19:56 20.01.2020
232 Clear 3 1011 75 10000 2.1 260 19:56 20.01.2020
233 Clear 3 1011 70 10000 2.1 290 19:38 20.01.2020
234 Clear 3 1011 70 10000 2.1 290 19:18 20.01.2020
235 Clouds 4 1011 100 10000 1.5 290 18:44 20.01.2020
236 Clouds 4 1012 65 10000 2.1 300 18:23 20.01.2020
237 Clouds 4 1011 70 10000 2.6 290 17:59 20.01.2020
238 Clouds 4 1012 75 10000 3.6 290 17:36 20.01.2020
239 Clouds 4 1012 75 10000 3.6 290 17:36 20.01.2020
240 Clouds 4 1012 75 10000 3.6 290 17:18 20.01.2020
241 Clouds 5 1011 65 10000 3.6 280 16:44 20.01.2020
242 Clouds 5 1011 65 10000 3.6 280 16:25 20.01.2020
243 Clouds 5 1011 61 10000 3.1 290 15:58 20.01.2020
244 Clouds 5 1011 57 10000 3.1 300 15:39 20.01.2020
245 Clouds 6 1011 57 10000 3.1 300 15:21 20.01.2020
246 Clouds 6 1011 65 10000 3.6 310 14:55 20.01.2020
247 Clouds 6 1011 61 10000 2.1 320 14:36 20.01.2020
248 Clouds 6 1011 61 10000 2.1 320 14:18 20.01.2020
249 Clouds 6 1012 61 10000 2.1 320 13:41 20.01.2020
250 Clouds 7 1012 61 10000 2.1 320 13:23 20.01.2020
251 Clouds 7 1011 50 10000 2.1 190 12:56 20.01.2020
252 Clouds 7 1012 57 10000 3.1 180 12:38 20.01.2020
253 Clouds 7 1012 57 10000 3.1 180 12:19 20.01.2020
254 Clear 8 1011 61 10000 2.6 150 11:43 20.01.2020
255 Clear 8 1011 61 10000 2.6 150 11:24 20.01.2020
256 Clear 8 1012 61 10000 2.1 140 10:57 20.01.2020
257 Clear 9 1011 53 10000 2.6 170 10:39 20.01.2020
258 Clear 10 1011 53 10000 2.6 170 10:19 20.01.2020
259 Clouds 10 1011 39 10000 2.1 140 09:41 20.01.2020
260 Clouds 10 1011 39 10000 1 160 09:41 20.01.2020
261 Clouds 11 1011 39 10000 2.1 140 09:21 20.01.2020
262 Clouds 12 1011 57 10000 1.5 140 08:49 20.01.2020
263 Clouds 13 1011 46 10000 1.5 160 08:30 20.01.2020
264 Clouds 13 1011 54 10000 1 0 07:54 20.01.2020
265 Clouds 13 1011 58 10000 2.1 140 07:30 20.01.2020
266 Clouds 13 1010 57 10000 1 0 06:59 20.01.2020
267 Clouds 13 1010 57 10000 1 0 06:59 20.01.2020
268 Clouds 13 1010 58 10000 1.5 160 06:34 20.01.2020
269 Clouds 13 1011 62 10000 2.1 140 05:49 20.01.2020
270 Clouds 13 1011 58 10000 3.6 140 05:30 20.01.2020
271 Clouds 12 1011 62 10000 2.6 160 04:58 20.01.2020
272 Clear 12 1013 57 10000 2.1 140 03:30 20.01.2020
273 Clear 8 1013 44 10000 1 0 01:58 20.01.2020
274 Clear 7 1013 65 10000 1.5 0 01:38 20.01.2020
275 Clear 6 1013 45 10000 1.5 350 00:46 20.01.2020
276 Clouds 6 1013 70 10000 2.6 320 00:26 20.01.2020
277 Clouds 4 1013 45 10000 2.6 320 23:54 19.01.2020
278 Clouds 3 1013 45 10000 2.6 310 23:36 19.01.2020
279 Clouds 3 1013 53 10000 2.6 310 23:18 19.01.2020
280 Clouds 3 1013 53 10000 2.6 310 22:54 19.01.2020
281 Clear 3 1012 53 10000 3.1 340 22:36 19.01.2020
282 Clear 3 1012 53 10000 3.1 340 22:18 19.01.2020
283 Clear 3 1012 70 10000 3.1 10 21:54 19.01.2020
284 Clear 3 1011 53 10000 2.6 320 21:36 19.01.2020
285 Clear 3 1011 53 10000 2.6 320 21:18 19.01.2020
286 Clear 3 1011 53 10000 2.6 310 20:54 19.01.2020
287 Clear 3 1011 53 10000 2.6 310 20:36 19.01.2020
288 Clear 3 1011 55 10000 2.6 310 20:18 19.01.2020
289 Clear 4 1012 75 10000 3.1 300 19:54 19.01.2020
290 Clear 3 1011 80 10000 3.1 300 19:36 19.01.2020
291 Clear 4 1011 80 10000 3.1 300 19:18 19.01.2020
292 Clear 4 1011 75 10000 3.1 300 18:54 19.01.2020
293 Clear 4 1011 75 10000 3.1 290 18:36 19.01.2020
294 Clear 4 1011 75 10000 3.1 290 18:36 19.01.2020
295 Clear 4 1011 75 10000 3.1 290 18:18 19.01.2020
296 Clear 5 1012 81 10000 3.1 290 17:55 19.01.2020
297 Clear 5 1012 75 10000 3.6 280 17:37 19.01.2020
298 Clear 5 1012 75 10000 3.6 280 17:18 19.01.2020
299 Clear 6 1012 66 10000 4.1 260 16:54 19.01.2020
300 Clear 6 1011 65 10000 5.7 240 16:36 19.01.2020
301 Clear 6 1011 65 10000 5.7 240 16:18 19.01.2020
302 Clouds 7 1011 81 10000 6.2 170 15:41 19.01.2020
303 Clouds 7 1011 81 10000 6.2 170 15:22 19.01.2020
304 Clouds 7 1012 75 10000 6.7 160 14:59 19.01.2020
305 Clouds 7 1012 75 10000 5.1 150 14:40 19.01.2020
306 Clouds 8 1013 75 10000 4.6 140 14:19 19.01.2020
307 Clouds 8 1013 75 10000 4.6 140 13:58 19.01.2020
308 Clouds 8 1013 61 10000 5.1 150 13:39 19.01.2020
309 Clouds 8 1013 61 10000 5.1 150 13:21 19.01.2020
310 Clouds 8 1014 61 10000 5.1 150 12:59 19.01.2020
311 Clouds 8 1013 61 10000 5.7 150 12:40 19.01.2020
312 Clouds 8 1013 61 10000 5.7 150 12:21 19.01.2020
313 Clouds 8 1014 61 10000 5.7 150 11:57 19.01.2020
314 Clouds 8 1013 57 10000 6.2 150 11:38 19.01.2020
315 Clouds 8 1013 57 10000 6.2 150 11:18 19.01.2020
316 Clouds 8 1014 43 10000 3.6 200 10:40 19.01.2020
317 Clouds 8 1014 45 10000 3.6 160 10:21 19.01.2020
318 Clouds 9 1014 45 10000 3.6 160 09:57 19.01.2020
319 Clouds 9 1014 42 10000 2.6 170 09:38 19.01.2020
320 Clouds 9 1014 42 10000 2.6 170 09:20 19.01.2020
321 Clouds 9 1014 45 10000 1.5 130 08:55 19.01.2020
322 Clouds 9 1013 45 10000 2.6 140 08:33 19.01.2020
323 Clouds 10 1013 45 10000 3.1 110 07:58 19.01.2020
324 Clouds 10 1013 46 10000 4.1 120 07:29 19.01.2020
325 Clouds 10 1014 42 10000 4.1 130 06:55 19.01.2020
326 Clouds 10 1013 49 10000 4.6 150 06:23 19.01.2020
327 Rain 9 1015 37 10000 2.1 70 04:19 19.01.2020
328 Clear 7 1016 56 10000 3.6 30 02:35 19.01.2020
329 Clouds 7 1016 56 10000 4.6 20 01:45 19.01.2020
330 Clouds 6 1016 60 10000 2.6 20 01:22 19.01.2020
331 Clouds 5 1016 60 10000 1 0 00:45 19.01.2020
332 Clouds 4 1015 60 10000 3.6 30 00:25 19.01.2020
333 Clouds 3 1015 60 10000 3.6 30 23:55 18.01.2020
334 Clouds 3 1015 65 10000 4.6 40 23:36 18.01.2020
335 Clouds 2 1015 65 10000 4.6 40 23:18 18.01.2020
336 Clouds 2 1015 55 10000 5.1 30 22:54 18.01.2020
337 Clouds 2 1014 55 10000 5.1 30 22:36 18.01.2020
338 Clouds 2 1014 55 10000 5.1 30 22:36 18.01.2020
339 Clouds 3 1014 55 10000 4.1 30 22:18 18.01.2020
340 Clouds 3 1014 55 10000 4.1 30 21:55 18.01.2020
341 Clouds 3 1014 55 10000 4.6 10 21:36 18.01.2020
342 Clouds 3 1014 55 10000 4.6 10 21:18 18.01.2020
343 Clouds 4 1013 70 10000 5.1 20 20:41 18.01.2020
344 Clouds 4 1014 75 10000 4.6 20 20:19 18.01.2020
345 Clouds 4 1014 75 10000 4.6 20 19:54 18.01.2020
346 Clouds 4 1014 56 10000 5.1 20 19:36 18.01.2020
347 Clouds 4 1014 56 10000 5.1 20 19:18 18.01.2020
348 Clouds 4 1013 60 10000 6.2 330 18:40 18.01.2020
349 Clouds 4 1013 60 10000 6.2 330 18:40 18.01.2020
350 Clouds 4 1013 60 10000 6.2 330 18:21 18.01.2020
351 Clouds 4 1013 75 10000 5.1 340 17:41 18.01.2020
352 Clouds 4 1013 75 10000 5.1 340 17:21 18.01.2020
353 Clouds 4 1013 70 10000 6.2 350 16:59 18.01.2020
354 Clouds 4 1013 75 10000 7.2 360 16:41 18.01.2020
355 Clouds 4 1013 75 10000 7.2 360 16:22 18.01.2020
356 Rain 4 1013 75 10000 8.2 360 15:58 18.01.2020
357 Rain 4 1013 75 10000 8.7 360 15:40 18.01.2020
358 Rain 4 1013 75 10000 8.7 360 15:21 18.01.2020
359 Rain 4 1014 80 10000 9.3 350 14:44 18.01.2020
360 Rain 4 1013 86 10000 9.3 350 14:24 18.01.2020
361 Rain 4 1013 86 10000 8.7 340 13:59 18.01.2020
362 Rain 4 1013 80 10000 8.7 340 13:41 18.01.2020
363 Rain 4 1013 80 10000 8.7 340 13:21 18.01.2020
364 Rain 4 1013 86 10000 9.3 350 12:55 18.01.2020
365 Rain 4 1013 86 10000 9.3 350 12:55 18.01.2020
366 Rain 4 1012 80 10000 7.7 350 12:37 18.01.2020
367 Rain 4 1012 86 12874 3.6 310 12:19 18.01.2020
368 Rain 4 1012 86 12874 3.6 310 11:44 18.01.2020
369 Rain 4 1012 93 9656 4.1 320 11:21 18.01.2020
370 Rain 3 1014 86 16093 2.1 340 10:54 18.01.2020
371 Rain 3 1012 100 9656 3.1 320 10:36 18.01.2020
372 Rain 3 1012 100 9656 3.1 320 10:18 18.01.2020
373 Rain 3 1014 86 16093 3.1 350 09:42 18.01.2020
374 Rain 3 1014 86 16093 3.1 350 09:20 18.01.2020
375 Rain 3 1011 93 9656 3.6 320 08:55 18.01.2020
376 Rain 3 1011 86 8000 5.1 300 08:36 18.01.2020
377 Rain 3 1011 86 8000 5.1 300 08:18 18.01.2020
378 Rain 2 1011 86 8000 6.2 300 07:40 18.01.2020
379 Rain 2 1011 86 8000 6.2 300 07:21 18.01.2020
380 Rain 2 1013 32 12874 4.1 10 06:45 18.01.2020
381 Rain 2 1011 32 2012 4.6 320 05:55 18.01.2020
382 Rain 2 1014 42 8047 4.1 10 04:29 18.01.2020
383 Rain 2 1014 93 3500 5.1 20 02:50 18.01.2020
384 Rain 3 1015 73 4000 4.6 10 01:51 18.01.2020
385 Rain 3 1013 86 8000 4.6 10 01:20 18.01.2020
386 Rain 3 1013 93 9000 9.8 20 00:36 18.01.2020
387 Rain 3 1013 93 9000 9.8 20 00:18 18.01.2020
388 Rain 4 1013 80 9000 9.3 20 23:40 17.01.2020
389 Rain 4 1013 80 9000 9.3 20 23:19 17.01.2020
390 Rain 5 1014 80 10000 9.3 20 22:44 17.01.2020
391 Rain 5 1013 75 10000 8.7 10 22:21 17.01.2020
392 Rain 5 1013 75 10000 8.2 10 21:58 17.01.2020
393 Rain 5 1013 75 10000 8.2 10 21:58 17.01.2020
394 Rain 5 1012 70 10000 8.7 10 21:40 17.01.2020
395 Rain 5 1012 70 10000 8.7 10 21:22 17.01.2020
396 Rain 6 1013 70 10000 9.3 20 20:55 17.01.2020
397 Rain 6 1013 70 10000 8.2 10 20:37 17.01.2020
398 Rain 6 1013 61 10000 8.7 360 20:19 17.01.2020
399 Rain 6 1013 61 10000 8.7 360 19:55 17.01.2020
400 Rain 6 1014 61 10000 7.2 10 19:37 17.01.2020
401 Rain 6 1014 61 10000 7.2 10 19:18 17.01.2020
402 Drizzle 6 1016 80 16093 4.1 10 18:45 17.01.2020
403 Drizzle 6 1016 80 16093 4.1 10 18:27 17.01.2020
404 Rain 6 1017 75 16093 3.6 360 17:56 17.01.2020
405 Rain 6 1015 70 10000 7.7 40 17:38 17.01.2020
406 Rain 7 1017 80 16093 4.1 360 17:20 17.01.2020
407 Rain 7 1017 75 16093 4.6 10 16:42 17.01.2020
408 Rain 6 1017 75 16093 4.6 10 16:20 17.01.2020
409 Rain 7 1016 70 10000 7.7 40 15:49 17.01.2020
410 Rain 7 1016 65 14484 3.6 330 15:28 17.01.2020
411 Rain 8 1017 66 10000 7.2 50 14:59 17.01.2020
412 Rain 8 1016 66 10000 6.7 20 14:40 17.01.2020
413 Rain 8 1016 66 10000 6.7 20 14:22 17.01.2020
414 Clouds 8 1017 61 10000 5.7 30 13:42 17.01.2020
415 Clouds 8 1017 61 10000 5.7 30 13:22 17.01.2020
416 Clouds 8 1017 61 10000 6.7 50 12:46 17.01.2020
417 Clouds 8 1017 66 10000 6.2 50 12:23 17.01.2020
418 Clouds 8 1017 66 10000 6.7 60 11:41 17.01.2020
419 Clouds 8 1017 61 10000 6.7 60 11:20 17.01.2020
420 Clouds 8 1017 61 10000 6.7 60 10:56 17.01.2020
421 Clouds 8 1017 61 10000 6.2 70 10:38 17.01.2020
422 Clouds 8 1017 61 10000 6.2 70 10:20 17.01.2020
423 Clouds 9 1017 57 10000 5.1 70 09:44 17.01.2020
424 Clouds 9 1017 57 10000 5.1 70 09:21 17.01.2020
425 Clouds 9 1017 66 10000 5.1 70 08:58 17.01.2020
426 Clouds 9 1017 61 10000 5.1 80 08:40 17.01.2020
427 Clouds 9 1017 61 10000 5.1 80 08:21 17.01.2020
428 Clouds 10 1018 61 10000 3.6 80 07:48 17.01.2020
429 Clouds 10 1017 57 10000 4.6 80 07:29 17.01.2020
430 Clouds 10 1017 61 10000 3.6 70 06:56 17.01.2020
431 Clouds 10 1016 57 10000 4.1 80 06:36 17.01.2020
432 Clouds 10 1015 63 0 0.89 12 05:19 17.01.2020
433 Clouds 9 1017 55 0 1.34 46 03:38 17.01.2020
434 Clouds 8 1019 62 0 0.89 311 02:42 17.01.2020
435 Clouds 7 1019 66 0 0.89 10 01:45 17.01.2020
436 Clouds 6 1019 67 0 0.89 45 01:27 17.01.2020
437 Clouds 5 1019 72 0 0.45 310 00:43 17.01.2020
438 Clouds 5 1020 56 10000 5.7 360 00:19 17.01.2020
439 Clouds 4 1020 56 10000 5.7 360 23:41 16.01.2020
440 Clouds 4 1020 56 10000 5.7 360 23:41 16.01.2020
441 Clouds 4 1020 56 10000 5.7 360 23:23 16.01.2020
442 Clouds 4 1020 45 10000 5.1 360 22:43 16.01.2020
443 Clouds 4 1020 56 10000 5.1 10 22:22 16.01.2020
444 Clouds 4 1020 56 10000 6.2 350 21:57 16.01.2020
445 Clouds 4 1019 56 10000 5.7 340 21:39 16.01.2020
446 Clouds 4 1019 56 10000 5.7 340 21:19 16.01.2020
447 Clouds 4 1019 56 10000 4.6 330 20:59 16.01.2020
448 Clouds 5 1019 45 10000 6.2 350 20:39 16.01.2020
449 Clouds 5 1019 44 10000 6.2 350 20:20 16.01.2020
450 Rain 5 1020 44 10000 6.2 10 19:57 16.01.2020
451 Clouds 5 1019 65 10000 6.2 360 19:39 16.01.2020
452 Clouds 5 1019 65 10000 6.2 360 19:20 16.01.2020
453 Clouds 5 1019 65 10000 5.1 360 18:56 16.01.2020
454 Clouds 5 1020 44 10000 4.1 360 18:37 16.01.2020
455 Clouds 5 1020 44 10000 4.1 360 18:18 16.01.2020
456 Clouds 5 1020 44 10000 4.1 360 18:18 16.01.2020
457 Clouds 5 1020 44 10000 4.1 360 18:18 16.01.2020
458 Clouds 6 1020 44 10000 4.1 360 17:56 16.01.2020
459 Clouds 6 1019 44 10000 4.1 360 17:38 16.01.2020
460 Clouds 6 1019 55 10000 4.1 360 17:19 16.01.2020
461 Clouds 6 1020 55 10000 4.1 360 16:40 16.01.2020
462 Clouds 5 1020 55 10000 4.1 360 16:21 16.01.2020
463 Clouds 6 1020 55 10000 3.6 10 15:56 16.01.2020
464 Clouds 6 1020 57 10000 3.1 30 15:38 16.01.2020
465 Clouds 6 1020 57 10000 3.1 30 15:19 16.01.2020
466 Clouds 6 1020 57 10000 3.1 80 14:42 16.01.2020
467 Clouds 6 1020 57 10000 3.1 80 14:23 16.01.2020
468 Clouds 6 1020 57 10000 2.6 80 13:47 16.01.2020
469 Clouds 6 1020 57 10000 2.1 80 13:29 16.01.2020
470 Clouds 6 1020 57 10000 2.6 100 12:59 16.01.2020
471 Clouds 6 1020 57 10000 2.6 110 12:40 16.01.2020
472 Clouds 6 1020 75 10000 1 0 12:21 16.01.2020
473 Clouds 7 1021 49 10000 1.5 100 11:43 16.01.2020
474 Clouds 7 1021 49 10000 1.5 100 11:24 16.01.2020
475 Clouds 7 1021 45 10000 2.1 120 10:57 16.01.2020
476 Clouds 7 1021 49 10000 2.1 150 10:38 16.01.2020
477 Clouds 7 1021 49 10000 2.1 150 10:20 16.01.2020
478 Clouds 8 1020 42 10000 1.5 130 09:54 16.01.2020
479 Clouds 9 1020 45 10000 2.1 130 09:36 16.01.2020
480 Clouds 9 1020 45 10000 3.1 130 09:18 16.01.2020
481 Clouds 9 1020 42 10000 3.1 140 08:42 16.01.2020
482 Clouds 9 1020 42 10000 3.1 140 08:23 16.01.2020
483 Clouds 10 1020 45 10000 2.6 110 07:43 16.01.2020
484 Clouds 10 1019 39 10000 3.1 140 07:25 16.01.2020
485 Clouds 10 1020 39 10000 2.1 100 06:56 16.01.2020
486 Clouds 10 1020 34 10000 1.5 20 06:37 16.01.2020
487 Clouds 10 1020 39 10000 1 70 05:56 16.01.2020
488 Clouds 10 1020 34 10000 1.5 20 05:31 16.01.2020
489 Rain 9 1021 36 10000 3.1 40 04:37 16.01.2020
490 Rain 9 1022 34 10000 3.6 30 03:28 16.01.2020
491 Rain 8 1022 36 10000 5.1 330 02:36 16.01.2020
492 Clouds 6 1023 48 10000 5.7 40 00:48 16.01.2020
493 Clouds 5 1023 48 10000 5.7 40 00:24 16.01.2020
494 Clouds 5 1022 42 10000 7.2 350 23:48 15.01.2020
495 Clouds 4 1022 42 10000 7.2 350 23:23 15.01.2020
496 Clouds 4 1021 42 10000 8.2 350 22:57 15.01.2020
497 Clouds 4 1021 42 10000 8.2 350 22:57 15.01.2020
498 Clouds 4 1021 42 10000 8.7 340 22:39 15.01.2020
499 Clouds 4 1021 42 10000 8.7 340 22:19 15.01.2020
500 Clouds 4 1021 45 10000 9.8 340 21:57 15.01.2020
501 Clouds 4 1021 45 10000 9.8 340 21:57 15.01.2020
502 Clouds 5 1020 45 10000 9.3 330 21:38 15.01.2020
503 Clouds 4 1020 45 10000 9.3 330 21:20 15.01.2020
504 Clouds 5 1021 45 10000 8.7 330 20:57 15.01.2020
505 Clouds 5 1021 45 10000 8.7 330 20:57 15.01.2020
506 Clouds 5 1021 45 10000 8.7 330 20:57 15.01.2020
507 Clouds 5 1020 45 10000 7.7 330 20:39 15.01.2020
508 Clouds 5 1020 45 10000 7.7 330 20:20 15.01.2020
509 Clouds 4 1020 48 10000 6.7 330 19:55 15.01.2020
510 Clouds 4 1019 48 10000 6.7 340 19:37 15.01.2020
511 Clouds 4 1019 48 10000 6.7 340 19:19 15.01.2020
512 Clouds 5 1019 45 10000 6.7 340 18:56 15.01.2020
513 Clouds 5 1019 45 10000 6.7 340 18:56 15.01.2020
514 Clouds 5 1019 48 10000 5.1 330 18:38 15.01.2020
515 Clouds 5 1019 48 10000 5.1 330 18:20 15.01.2020
516 Clouds 5 1019 52 10000 7.2 340 17:58 15.01.2020
517 Clouds 5 1019 52 10000 8.7 350 17:38 15.01.2020
518 Clear 5 1019 52 10000 8.7 350 17:20 15.01.2020
519 Clear 6 1019 49 10000 8.2 360 16:42 15.01.2020
520 Clear 5 1019 49 10000 8.2 360 16:23 15.01.2020
521 Clouds 5 1019 52 10000 9.3 340 15:59 15.01.2020
522 Clouds 6 1019 52 10000 7.7 330 15:41 15.01.2020
523 Clouds 6 1019 52 10000 7.7 330 15:20 15.01.2020
524 Clouds 6 1018 56 10000 6.7 330 14:44 15.01.2020
525 Clouds 6 1018 56 10000 6.7 330 14:21 15.01.2020
526 Clouds 7 1018 32 10000 7.2 330 13:56 15.01.2020
527 Clouds 6 1017 32 10000 6.2 330 13:38 15.01.2020
528 Clouds 6 1017 33 10000 6.2 330 13:20 15.01.2020
529 Clouds 6 1018 33 10000 6.2 330 12:54 15.01.2020
530 Clouds 6 1017 57 10000 7.7 340 12:36 15.01.2020
531 Clouds 7 1017 57 10000 7.7 340 12:18 15.01.2020
532 Clouds 7 1017 57 10000 7.7 340 12:18 15.01.2020
533 Clouds 7 1017 66 10000 4.6 310 11:38 15.01.2020
534 Clouds 7 1017 66 10000 4.6 310 11:20 15.01.2020
535 Clouds 7 1016 66 10000 5.1 330 10:47 15.01.2020
536 Clouds 7 1015 70 10000 5.1 330 10:28 15.01.2020
537 Rain 7 1016 66 10000 7.7 310 09:58 15.01.2020
538 Rain 8 1015 81 10000 3.1 360 09:39 15.01.2020
539 Clouds 8 1014 76 10000 3.1 30 09:19 15.01.2020
540 Clouds 9 1014 76 10000 3.1 30 08:44 15.01.2020
541 Clouds 9 1013 70 10000 0.5 0 08:26 15.01.2020
542 Clouds 9 1013 76 10000 2.1 30 07:54 15.01.2020
543 Clouds 9 1013 81 10000 1.5 0 07:33 15.01.2020
544 Clouds 9 1013 81 10000 3.1 20 06:54 15.01.2020
545 Clouds 9 1014 76 16093 1.5 60 06:28 15.01.2020
546 Rain 8 1013 87 10000 6.7 340 04:57 15.01.2020
547 Rain 7 1014 93 7000 2.6 320 03:20 15.01.2020
548 Rain 7 1017 93 3219 3.12 354 01:48 15.01.2020
549 Rain 7 1015 93 5000 2.6 320 01:22 15.01.2020
550 Rain 7 1016 81 6000 3.1 20 00:37 15.01.2020
551 Rain 7 1016 81 6000 3.1 20 00:19 15.01.2020
552 Clouds 7 1015 93 7000 3.6 10 23:46 14.01.2020
553 Clouds 6 1015 93 6000 4.6 10 23:28 14.01.2020
554 Rain 6 1017 100 4828 4.99 345 22:57 14.01.2020
555 Rain 6 1016 93 5000 4.6 360 22:39 14.01.2020
556 Rain 6 1016 93 5000 4.6 360 22:18 14.01.2020
557 Rain 6 1016 93 5000 5.7 10 21:57 14.01.2020
558 Rain 7 1018 100 9656 2.1 10 21:38 14.01.2020
559 Rain 7 1018 100 9656 2.1 10 21:19 14.01.2020
560 Rain 7 1016 93 4500 2.6 30 20:54 14.01.2020
561 Rain 7 1017 93 5000 3.6 300 20:36 14.01.2020
562 Rain 7 1017 93 5000 3.6 300 20:18 14.01.2020
563 Rain 7 1017 93 5000 3.6 300 19:54 14.01.2020
564 Rain 7 1017 93 5000 4.6 300 19:36 14.01.2020
565 Rain 7 1017 93 5000 4.6 300 19:18 14.01.2020
566 Rain 8 1017 87 8000 3.1 20 18:40 14.01.2020
567 Rain 8 1017 87 8000 3.1 20 18:20 14.01.2020
568 Rain 8 1017 87 8000 3.1 20 17:56 14.01.2020
569 Rain 8 1017 87 10000 1.5 20 17:36 14.01.2020
570 Rain 8 1017 87 10000 1.5 20 17:18 14.01.2020
571 Rain 8 1017 87 10000 1.5 0 16:42 14.01.2020
572 Clouds 8 1018 76 10000 1.5 330 16:22 14.01.2020
573 Clouds 8 1019 71 10000 1 290 15:58 14.01.2020
574 Clouds 8 1019 71 10000 1.5 210 15:40 14.01.2020
575 Clouds 8 1019 71 10000 1.5 210 15:19 14.01.2020
576 Clouds 8 1019 71 10000 1 0 14:44 14.01.2020
577 Clouds 8 1019 66 10000 0.5 0 14:21 14.01.2020
578 Clouds 8 1019 66 10000 1 0 13:57 14.01.2020
579 Clouds 8 1019 71 10000 0.5 0 13:38 14.01.2020
580 Clouds 8 1019 71 10000 0.5 0 13:18 14.01.2020
581 Clouds 8 1019 71 10000 0.5 0 13:18 14.01.2020
582 Clouds 8 1019 66 10000 0.5 70 12:42 14.01.2020
583 Clouds 8 1019 66 10000 0.5 70 12:22 14.01.2020
584 Clouds 9 1019 66 10000 1 20 11:56 14.01.2020
585 Clouds 9 1019 62 10000 2.1 300 11:36 14.01.2020
586 Clouds 9 1019 62 10000 2.1 300 11:18 14.01.2020
587 Clouds 10 1019 58 10000 3.1 190 10:40 14.01.2020
588 Clouds 10 1019 58 10000 3.1 190 10:20 14.01.2020
589 Clouds 10 1019 66 10000 3.1 180 09:59 14.01.2020
590 Clouds 10 1019 66 10000 4.1 180 09:40 14.01.2020
591 Clouds 10 1019 66 10000 4.1 180 09:21 14.01.2020
592 Clouds 11 1019 54 10000 4.1 170 08:56 14.01.2020
593 Clouds 12 1019 62 10000 1.5 160 08:38 14.01.2020
594 Clouds 12 1019 62 10000 1.5 160 08:19 14.01.2020
595 Clouds 12 1018 54 10000 1.5 160 07:37 14.01.2020
596 Clouds 13 1019 62 10000 1.5 20 06:59 14.01.2020
597 Clouds 13 1018 54 10000 1.5 150 06:40 14.01.2020
598 Clouds 12 1018 62 10000 2.1 140 05:35 14.01.2020
599 Clouds 11 1019 62 10000 1.5 60 04:23 14.01.2020
600 Clouds 11 1020 62 10000 2.6 20 03:43 14.01.2020
601 Clouds 9 1020 66 10000 3.1 30 02:26 14.01.2020
602 Clouds 8 1020 70 10000 1.5 360 01:18 14.01.2020
603 Clouds 6 1020 70 10000 4.1 10 00:42 14.01.2020
604 Clouds 6 1020 70 10000 4.1 10 00:21 14.01.2020
605 Clouds 5 1020 75 10000 4.1 20 23:42 13.01.2020
606 Clouds 5 1020 75 10000 4.1 20 23:18 13.01.2020
607 Clouds 5 1020 75 10000 3.1 10 22:56 13.01.2020
608 Clouds 5 1019 81 10000 2.6 320 22:37 13.01.2020
609 Clouds 4 1019 81 10000 2.6 320 22:19 13.01.2020
610 Clouds 4 1019 81 10000 2.6 350 21:54 13.01.2020
611 Clouds 5 1018 75 10000 4.1 340 21:36 13.01.2020
612 Clouds 5 1018 81 10000 3.1 310 21:18 13.01.2020
613 Clouds 5 1018 81 10000 5.1 330 20:42 13.01.2020
614 Clouds 6 1018 81 10000 5.1 330 20:23 13.01.2020
615 Clouds 6 1018 81 10000 4.1 330 20:00 13.01.2020
616 Clouds 6 1018 81 10000 4.1 330 19:41 13.01.2020
617 Clouds 6 1018 81 10000 4.1 330 19:20 13.01.2020
618 Clouds 6 1018 81 10000 6.2 340 18:58 13.01.2020
619 Clouds 6 1017 75 10000 5.1 330 18:38 13.01.2020
620 Clouds 6 1017 75 10000 5.1 330 18:38 13.01.2020
621 Clouds 7 1017 75 10000 5.1 330 18:19 13.01.2020
622 Clouds 7 1017 81 10000 5.1 340 17:58 13.01.2020
623 Clouds 7 1017 81 10000 5.7 360 17:39 13.01.2020
624 Clouds 7 1017 81 10000 5.7 360 17:20 13.01.2020
625 Clear 7 1019 80 0 1.34 263 16:43 13.01.2020
626 Clear 7 1015 90 0 0.89 12 16:24 13.01.2020
627 Clear 7 1014 90 0 3.8 15 15:59 13.01.2020
628 Clear 8 1014 89 0 3.8 15 15:41 13.01.2020
629 Clear 8 1015 88 0 3.8 15 15:21 13.01.2020
630 Clear 8 1014 86 0 0.45 225 14:54 13.01.2020
631 Clear 8 1014 86 0 0.89 43 14:36 13.01.2020
632 Clear 8 1014 86 0 0.89 8 14:18 13.01.2020
633 Clear 7 1013 86 0 0.45 56 13:40 13.01.2020
634 Clear 8 1017 79 0 0.89 121 13:22 13.01.2020
635 Clouds 8 1014 71 10000 5.1 110 12:58 13.01.2020
636 Clouds 8 1014 71 10000 5.1 110 12:40 13.01.2020
637 Clouds 9 1014 71 10000 5.1 110 12:21 13.01.2020
638 Clouds 9 1014 71 10000 5.1 110 11:54 13.01.2020
639 Clouds 9 1014 66 10000 4.6 120 11:36 13.01.2020
640 Clouds 9 1014 66 10000 4.6 120 11:18 13.01.2020
641 Clouds 9 1014 66 10000 4.6 120 11:18 13.01.2020
642 Clear 10 1014 66 10000 3.6 110 10:55 13.01.2020
643 Clouds 10 1012 66 10000 3.1 110 10:36 13.01.2020
644 Clouds 10 1012 66 10000 3.1 110 10:18 13.01.2020
645 Clouds 11 1011 66 10000 3.1 100 09:40 13.01.2020
646 Clouds 11 1011 66 10000 3.1 100 09:40 13.01.2020
647 Clouds 11 1011 66 10000 3.1 100 09:22 13.01.2020
648 Clouds 12 1011 58 10000 1.5 130 08:42 13.01.2020
649 Clouds 12 1011 58 10000 1.5 130 08:21 13.01.2020
650 Clouds 12 1012 62 10000 2.6 110 07:54 13.01.2020
651 Clouds 12 1011 54 10000 3.1 160 07:35 13.01.2020
652 Clouds 13 1011 58 10000 2.6 130 06:44 13.01.2020
653 Clouds 13 1010 66 10000 4.1 160 06:22 13.01.2020
654 Clouds 13 1009 58 10000 2.6 150 05:36 13.01.2020
655 Clouds 12 1010 58 10000 1 0 04:25 13.01.2020
656 Clouds 11 1010 53 10000 1 0 03:26 13.01.2020
657 Clouds 10 1011 61 10000 1.5 20 02:47 13.01.2020
658 Clouds 10 1010 57 10000 1.5 0 02:29 13.01.2020
659 Clouds 8 1010 61 10000 2.1 330 01:22 13.01.2020
660 Clouds 8 1010 61 10000 2.1 330 01:22 13.01.2020
661 Clouds 6 1009 75 10000 2.6 320 00:42 13.01.2020
662 Clouds 5 1009 75 10000 2.6 320 00:24 13.01.2020
663 Clouds 5 1009 81 10000 3.1 10 23:55 12.01.2020
664 Clouds 4 1009 75 10000 3.1 320 23:36 12.01.2020
665 Clouds 4 1009 75 10000 3.1 320 23:18 12.01.2020
666 Clouds 4 1009 75 10000 3.1 320 23:18 12.01.2020
667 Clouds 4 1008 81 10000 1.5 290 22:42 12.01.2020
668 Clouds 4 1008 81 10000 1.5 290 22:24 12.01.2020
669 Clouds 4 1008 81 10000 1.5 290 22:24 12.01.2020
670 Clouds 4 1008 75 10000 1.5 310 21:57 12.01.2020
671 Clouds 4 1008 81 10000 3.1 10 21:38 12.01.2020
672 Clouds 4 1008 81 10000 3.1 10 21:19 12.01.2020
673 Clouds 5 1008 75 10000 2.6 20 20:57 12.01.2020
674 Clouds 5 1008 75 10000 3.1 10 20:38 12.01.2020
675 Clouds 5 1008 75 10000 3.1 10 20:20 12.01.2020
676 Clouds 5 1008 75 10000 2.6 10 19:56 12.01.2020
677 Clouds 5 1009 93 16093 1.5 260 19:38 12.01.2020
678 Clouds 5 1009 93 16093 1.5 260 19:19 12.01.2020
679 Clouds 5 1008 75 10000 2.1 30 18:57 12.01.2020
680 Clouds 5 1008 75 10000 2.6 30 18:39 12.01.2020
681 Clouds 5 1008 76 10000 2.6 30 18:21 12.01.2020
682 Clouds 6 1008 76 10000 2.6 30 17:56 12.01.2020
683 Clouds 6 1009 80 16093 1.5 330 17:37 12.01.2020
684 Clouds 6 1009 80 16093 1.5 330 17:18 12.01.2020
685 Clouds 6 1008 75 10000 2.1 20 16:55 12.01.2020
686 Clouds 6 1008 75 10000 2.1 20 16:55 12.01.2020
687 Clouds 6 1008 81 10000 2.6 20 16:37 12.01.2020
688 Clouds 6 1008 81 10000 2.6 20 16:18 12.01.2020
689 Clouds 7 1008 76 10000 2.1 60 15:42 12.01.2020
690 Clouds 7 1008 76 10000 2.1 70 15:24 12.01.2020
691 Clouds 7 1008 76 10000 2.1 70 15:24 12.01.2020
692 Clouds 7 1009 76 10000 1.5 50 14:57 12.01.2020
693 Clouds 7 1011 75 16093 2.91 13 14:38 12.01.2020
694 Clouds 7 1011 75 16093 2.83 6 14:19 12.01.2020
695 Clouds 8 1009 70 10000 4.1 10 13:43 12.01.2020
696 Clouds 8 1009 70 10000 4.1 10 13:24 12.01.2020
697 Clouds 8 1011 70 16093 2.86 347 12:58 12.01.2020
698 Clouds 8 1009 70 10000 3.1 10 12:39 12.01.2020
699 Clouds 8 1011 75 16093 1.5 340 12:20 12.01.2020
700 Clouds 8 1011 75 16093 1.5 340 11:58 12.01.2020
701 Clouds 8 1009 70 10000 2.6 30 11:38 12.01.2020
702 Clouds 8 1009 70 10000 2.6 30 11:19 12.01.2020
703 Clouds 8 1009 70 10000 4.1 10 10:41 12.01.2020
704 Clouds 8 1009 70 10000 4.1 10 10:41 12.01.2020
705 Clouds 8 1009 70 10000 4.1 10 10:22 12.01.2020
706 Clouds 8 1011 70 16093 2.19 9 09:57 12.01.2020
707 Clouds 8 1009 70 10000 4.1 50 09:38 12.01.2020
708 Clouds 8 1009 70 10000 4.1 50 09:19 12.01.2020
709 Rain 9 1009 70 10000 3.1 50 08:45 12.01.2020
710 Rain 9 1009 66 10000 2.1 50 08:20 12.01.2020
711 Rain 9 1009 61 10000 2.6 10 07:41 12.01.2020
712 Rain 10 1009 61 10000 2.6 10 07:23 12.01.2020
713 Clouds 10 1009 61 10000 4.1 20 06:48 12.01.2020
714 Clouds 9 1009 57 10000 2.6 20 06:30 12.01.2020
715 Clouds 9 1009 57 10000 3.1 20 05:37 12.01.2020
716 Clouds 9 1010 57 10000 2.6 10 04:30 12.01.2020
717 Clouds 9 1011 50 10000 2.1 340 03:27 12.01.2020
718 Clouds 8 1013 61 10000 1.5 340 02:34 12.01.2020
719 Clouds 7 1013 61 10000 3.1 360 01:55 12.01.2020
720 Clouds 7 1012 65 10000 2.6 20 01:29 12.01.2020
721 Clouds 5 1012 75 10000 3.1 330 00:42 12.01.2020
722 Clouds 4 1012 75 10000 3.1 330 00:20 12.01.2020
723 Clouds 4 1013 75 10000 3.6 310 23:55 11.01.2020
724 Clouds 4 1012 75 10000 3.6 310 23:37 11.01.2020
725 Clouds 3 1012 75 10000 3.6 310 23:18 11.01.2020
726 Clouds 3 1012 80 10000 2.6 290 22:55 11.01.2020
727 Clouds 3 1012 75 10000 2.1 300 22:37 11.01.2020
728 Clouds 3 1012 75 10000 2.1 300 22:18 11.01.2020
729 Clouds 3 1012 80 10000 3.1 320 21:42 11.01.2020
730 Clouds 3 1012 80 10000 3.1 320 21:18 11.01.2020
731 Clouds 3 1012 80 10000 3.1 300 20:55 11.01.2020
732 Clouds 3 1011 80 10000 3.1 310 20:37 11.01.2020
733 Clouds 3 1011 80 10000 3.1 310 20:18 11.01.2020
734 Clouds 3 1012 75 10000 3.6 350 19:54 11.01.2020
735 Clouds 4 1013 70 10000 4.1 360 19:36 11.01.2020
736 Clouds 4 1013 70 10000 4.1 360 19:18 11.01.2020
737 Clouds 4 1012 70 10000 3.6 350 18:54 11.01.2020
738 Clouds 4 1012 70 10000 3.6 10 18:36 11.01.2020
739 Clouds 4 1013 75 10000 3.6 10 18:18 11.01.2020
740 Clouds 4 1013 75 10000 3.6 10 17:54 11.01.2020
741 Clouds 4 1012 75 10000 5.1 20 17:36 11.01.2020
742 Clouds 4 1012 75 10000 5.1 20 17:18 11.01.2020
743 Clouds 5 1012 70 10000 5.1 20 16:41 11.01.2020
744 Clouds 5 1012 70 10000 5.1 20 16:22 11.01.2020
745 Clouds 5 1012 70 10000 5.1 20 16:22 11.01.2020
746 Clouds 6 1012 65 10000 4.1 360 15:42 11.01.2020
747 Clouds 6 1013 61 10000 3.6 10 15:24 11.01.2020
748 Clouds 6 1013 66 10000 3.1 10 14:58 11.01.2020
749 Clouds 6 1013 70 10000 4.1 360 14:40 11.01.2020
750 Clouds 6 1013 70 10000 4.1 360 14:22 11.01.2020
751 Clouds 6 1012 66 10000 4.1 360 13:55 11.01.2020
752 Clouds 7 1012 66 10000 4.6 10 13:37 11.01.2020
753 Clouds 7 1012 66 10000 4.6 10 13:18 11.01.2020
754 Clouds 7 1012 70 10000 5.7 10 12:44 11.01.2020
755 Clouds 8 1012 70 10000 5.7 10 12:26 11.01.2020
756 Clouds 8 1012 70 10000 5.7 20 11:55 11.01.2020
757 Clouds 8 1012 70 10000 4.6 20 11:37 11.01.2020
758 Clouds 9 1012 70 10000 4.6 340 11:18 11.01.2020
759 Clouds 8 1012 70 10000 4.6 20 11:18 11.01.2020
760 Clouds 9 1012 71 10000 2.1 50 10:43 11.01.2020
761 Clouds 9 1012 71 10000 2.1 50 10:24 11.01.2020
762 Clouds 9 1012 66 10000 1 0 09:40 11.01.2020
763 Clouds 9 1012 66 10000 1 0 09:21 11.01.2020
764 Clouds 10 1012 70 10000 1.5 50 08:43 11.01.2020
765 Clouds 11 1011 61 10000 2.1 100 08:23 11.01.2020
766 Clouds 11 1012 61 10000 2.6 150 07:45 11.01.2020
767 Clouds 11 1012 61 10000 2.6 150 07:26 11.01.2020
768 Clouds 12 1013 66 10000 2.6 80 06:56 11.01.2020
769 Clouds 12 1012 57 10000 1 0 06:28 11.01.2020
770 Clouds 10 1013 57 10000 2.1 30 05:18 11.01.2020
771 Clouds 9 1014 57 10000 1.5 10 04:37 11.01.2020
772 Clouds 9 1014 57 10000 1.5 10 04:19 11.01.2020
773 Clouds 8 1017 65 10000 2.1 30 02:45 11.01.2020
774 Clouds 7 1017 61 10000 1.5 20 01:45 11.01.2020
775 Clouds 6 1017 69 10000 1 0 01:21 11.01.2020
776 Clouds 6 1017 69 10000 1.5 350 00:50 11.01.2020
777 Clouds 6 1017 69 10000 3.1 20 00:21 11.01.2020
778 Clouds 6 1017 69 10000 3.6 20 23:56 10.01.2020
779 Clouds 5 1017 69 10000 3.6 20 23:38 10.01.2020
780 Clouds 5 1017 73 10000 3.6 20 23:20 10.01.2020
781 Clouds 6 1018 73 10000 4.1 20 22:41 10.01.2020
782 Clouds 6 1018 73 10000 4.1 20 22:22 10.01.2020
783 Clouds 6 1017 73 10000 3.6 10 21:58 10.01.2020
784 Clouds 6 1017 65 10000 4.6 10 21:40 10.01.2020
785 Clouds 6 1017 65 10000 4.6 10 21:20 10.01.2020
786 Clouds 6 1017 65 10000 5.1 20 20:56 10.01.2020
787 Clouds 6 1017 65 10000 5.7 20 20:38 10.01.2020
788 Clouds 6 1017 65 10000 5.7 20 20:19 10.01.2020
789 Clouds 6 1017 70 10000 4.6 20 19:40 10.01.2020
790 Clouds 6 1017 70 10000 4.6 20 19:40 10.01.2020
791 Clouds 6 1017 70 10000 4.6 20 19:20 10.01.2020
792 Clouds 6 1018 70 10000 5.1 20 18:55 10.01.2020
793 Clouds 6 1018 75 10000 5.1 20 18:36 10.01.2020
794 Clouds 6 1018 75 10000 5.1 20 18:18 10.01.2020
795 Clouds 6 1019 75 10000 6.2 20 17:56 10.01.2020
796 Clouds 6 1018 75 10000 4.1 10 17:37 10.01.2020
797 Clouds 6 1018 75 10000 4.1 10 17:19 10.01.2020
798 Clouds 6 1017 70 10000 3.1 50 16:41 10.01.2020
799 Clouds 6 1017 70 10000 3.1 50 16:21 10.01.2020
800 Clouds 6 1018 70 10000 4.1 60 15:56 10.01.2020
801 Clouds 6 1018 70 10000 4.1 80 15:38 10.01.2020
802 Clouds 6 1018 70 10000 4.6 80 15:19 10.01.2020
803 Clouds 6 1018 70 10000 4.6 80 14:58 10.01.2020
804 Clouds 6 1018 70 10000 4.6 80 14:40 10.01.2020
805 Clouds 6 1018 70 10000 4.6 80 14:19 10.01.2020
806 Clouds 6 1018 70 10000 5.1 80 13:56 10.01.2020
807 Clouds 7 1017 70 10000 6.7 80 13:37 10.01.2020
808 Clouds 7 1017 70 10000 6.7 80 13:18 10.01.2020
809 Clouds 7 1018 70 10000 5.7 70 12:56 10.01.2020
810 Clouds 7 1017 70 10000 6.2 60 12:38 10.01.2020
811 Clouds 7 1017 70 10000 6.2 60 12:18 10.01.2020
812 Clouds 8 1017 70 10000 7.2 70 11:42 10.01.2020
813 Clouds 8 1017 70 10000 7.2 70 11:22 10.01.2020
814 Clouds 8 1017 66 10000 7.2 70 10:59 10.01.2020
815 Clouds 9 1017 66 10000 6.7 60 10:39 10.01.2020
816 Clouds 9 1017 66 10000 6.7 60 10:21 10.01.2020
817 Clouds 9 1017 66 10000 7.2 60 09:56 10.01.2020
818 Clouds 10 1016 66 10000 6.7 60 09:37 10.01.2020
819 Clouds 10 1016 66 10000 6.7 60 09:19 10.01.2020
820 Clouds 10 1016 62 10000 7.2 70 09:19 10.01.2020
821 Clouds 11 1015 53 10000 7.2 80 08:40 10.01.2020
822 Clouds 11 1015 53 10000 7.2 80 08:22 10.01.2020
823 Clouds 12 1015 57 10000 7.7 60 07:44 10.01.2020
824 Clouds 12 1015 46 10000 4.6 40 07:23 10.01.2020
825 Clouds 12 1015 46 10000 3.6 40 06:45 10.01.2020
826 Clouds 12 1015 46 10000 3.6 40 06:25 10.01.2020
827 Clouds 12 1015 50 10000 4.1 40 05:46 10.01.2020
828 Clouds 11 1016 47 10000 3.6 30 03:37 10.01.2020
829 Clouds 11 1016 47 10000 3.6 30 03:18 10.01.2020
830 Clouds 9 1016 57 10000 3.1 40 02:39 10.01.2020
831 Clouds 8 1016 55 10000 3.6 20 01:38 10.01.2020
832 Clouds 8 1016 59 10000 3.6 20 01:19 10.01.2020
833 Clouds 6 1015 65 10000 6.2 350 00:39 10.01.2020
834 Clouds 6 1015 61 10000 7.2 360 23:58 09.01.2020
835 Clouds 6 1015 61 10000 7.2 350 23:38 09.01.2020
836 Clouds 6 1015 61 10000 7.2 350 23:20 09.01.2020
837 Clouds 6 1014 65 10000 6.2 360 22:57 09.01.2020
838 Clouds 6 1013 61 10000 5.7 360 22:39 09.01.2020
839 Clouds 6 1014 61 10000 6.7 350 22:19 09.01.2020
840 Clouds 6 1014 61 10000 6.7 350 21:57 09.01.2020
841 Clouds 6 1013 61 10000 5.1 350 21:38 09.01.2020
842 Clouds 6 1012 65 10000 4.6 360 21:19 09.01.2020
843 Clouds 6 1012 65 10000 4.6 360 20:57 09.01.2020
844 Clouds 6 1012 57 10000 5.1 360 20:39 09.01.2020
845 Clouds 6 1012 57 10000 5.1 360 20:19 09.01.2020
846 Clouds 6 1012 57 10000 4.6 10 19:57 09.01.2020
847 Clouds 7 1012 57 10000 5.1 10 19:38 09.01.2020
848 Clouds 7 1012 57 10000 5.1 10 19:19 09.01.2020
849 Clouds 7 1012 61 10000 5.7 360 18:55 09.01.2020
850 Clouds 7 1012 61 10000 5.7 360 18:36 09.01.2020
851 Clouds 7 1012 61 10000 5.7 360 18:18 09.01.2020
852 Rain 8 1012 61 10000 5.1 10 17:41 09.01.2020
853 Rain 8 1012 61 10000 4.6 10 17:18 09.01.2020
854 Rain 8 1012 53 10000 3.6 10 16:49 09.01.2020
855 Rain 8 1012 57 10000 4.1 20 16:24 09.01.2020
856 Rain 9 1012 53 10000 4.6 40 15:59 09.01.2020
857 Rain 9 1012 53 10000 4.6 40 15:40 09.01.2020
858 Clouds 9 1012 53 10000 4.6 50 15:19 09.01.2020
859 Clouds 9 1012 57 10000 4.6 40 14:43 09.01.2020
860 Clouds 9 1012 57 10000 3.6 60 14:22 09.01.2020
861 Rain 9 1012 57 10000 5.1 70 13:57 09.01.2020
862 Rain 9 1012 62 10000 4.6 70 13:39 09.01.2020
863 Rain 10 1012 62 10000 4.6 70 13:21 09.01.2020
864 Clouds 10 1012 53 10000 5.7 60 12:59 09.01.2020
865 Clouds 10 1012 36 10000 5.7 30 12:40 09.01.2020
866 Clouds 10 1012 36 10000 5.7 30 12:22 09.01.2020
867 Clouds 11 1012 36 10000 6.2 30 11:57 09.01.2020
868 Clouds 11 1012 36 10000 6.2 30 11:38 09.01.2020
869 Clouds 11 1012 32 10000 6.2 350 11:20 09.01.2020
870 Clouds 11 1012 40 10000 6.2 350 10:44 09.01.2020
871 Clouds 11 1011 40 10000 7.7 350 10:22 09.01.2020
872 Clouds 11 1012 32 10000 7.2 340 09:59 09.01.2020
873 Clouds 12 1011 40 10000 7.2 340 09:39 09.01.2020
874 Clouds 12 1011 40 10000 7.2 340 09:21 09.01.2020
875 Clouds 12 1011 40 10000 7.2 340 09:21 09.01.2020
876 Clouds 12 1011 32 10000 6.2 330 08:55 09.01.2020
877 Clouds 13 1011 32 10000 6.2 330 08:37 09.01.2020
878 Clouds 13 1010 28 10000 4.1 310 08:19 09.01.2020
879 Clouds 14 1010 33 10000 7.2 340 07:42 09.01.2020
880 Clouds 14 1010 33 10000 7.2 340 07:42 09.01.2020
881 Clouds 14 1009 26 10000 5.1 330 07:23 09.01.2020
882 Clouds 15 1009 28 10000 3.6 330 06:39 09.01.2020
883 Clouds 14 1009 28 10000 3.6 330 06:20 09.01.2020
884 Clouds 15 1009 25 10000 9.3 350 05:49 09.01.2020
885 Clouds 15 1009 28 10000 4.6 330 04:44 09.01.2020
886 Clouds 14 1010 33 10000 4.6 310 03:38 09.01.2020
887 Clouds 14 1009 33 10000 9.3 320 02:54 09.01.2020
888 Clouds 13 1010 35 10000 6.2 290 02:28 09.01.2020
889 Clouds 12 1010 40 10000 6.2 340 01:39 09.01.2020
890 Clouds 11 1008 43 10000 1 0 00:43 09.01.2020
891 Clouds 10 1008 40 10000 4.1 330 00:21 09.01.2020
892 Clouds 9 1008 40 10000 3.6 330 23:55 08.01.2020
893 Clouds 9 1007 40 10000 2.6 290 23:37 08.01.2020
894 Clouds 8 1007 40 10000 2.6 290 23:18 08.01.2020
895 Clouds 9 1006 43 10000 3.1 290 22:39 08.01.2020
896 Clear 9 1005 46 10000 3.6 260 22:21 08.01.2020
897 Clear 9 1005 43 10000 4.6 290 21:58 08.01.2020
898 Clear 9 1005 43 10000 4.6 290 21:38 08.01.2020
899 Clouds 9 1004 43 10000 8.7 300 21:20 08.01.2020
900 Clouds 9 1004 43 10000 8.7 300 21:20 08.01.2020
901 Clear 9 1004 40 10000 11.3 320 20:58 08.01.2020
902 Clear 10 1004 40 10000 11.3 320 20:40 08.01.2020
903 Clouds 9 1003 64 10000 12.3 330 20:20 08.01.2020
904 Clear 10 1003 64 10000 10.3 320 19:56 08.01.2020
905 Clear 10 1003 64 10000 10.3 320 19:37 08.01.2020
906 Rain 9 1002 46 10000 11.3 320 19:19 08.01.2020
907 Rain 9 1001 61 10000 4.6 290 18:56 08.01.2020
908 Rain 9 1001 87 10000 3.1 290 18:37 08.01.2020
909 Rain 8 1001 87 10000 3.1 290 18:18 08.01.2020
910 Rain 8 1000 81 10000 2.6 270 17:55 08.01.2020
911 Clear 7 1001 100 16093 2.1 280 17:36 08.01.2020
912 Clear 6 1001 100 16093 2.1 280 17:18 08.01.2020
913 Clear 6 999 93 10000 2.1 310 16:54 08.01.2020
914 Clear 5 998 93 8000 1 0 16:36 08.01.2020
915 Clear 5 998 93 8000 1 0 16:18 08.01.2020
916 Clear 6 998 93 8000 3.1 330 15:40 08.01.2020
917 Clouds 6 997 93 8000 2.1 230 15:20 08.01.2020
918 Clouds 6 997 100 9000 1.5 230 14:56 08.01.2020
919 Clouds 6 996 87 8000 1.5 190 14:38 08.01.2020
920 Clouds 6 996 87 8000 1.5 190 14:19 08.01.2020
921 Clouds 6 997 100 9000 1.5 280 13:40 08.01.2020
922 Clouds 6 997 93 9000 2.6 300 13:19 08.01.2020
923 Clouds 6 996 93 10000 2.6 310 12:42 08.01.2020
924 Clouds 7 996 93 10000 0.5 0 12:19 08.01.2020
925 Clouds 7 996 93 9000 0.5 0 11:55 08.01.2020
926 Clouds 7 996 93 9000 3.6 360 11:37 08.01.2020
927 Clouds 7 996 93 9000 3.6 360 11:19 08.01.2020
928 Clouds 7 996 93 10000 4.1 20 10:55 08.01.2020
929 Clouds 7 996 87 10000 4.6 10 10:37 08.01.2020
930 Clouds 7 996 87 10000 4.6 10 10:18 08.01.2020
931 Rain 7 996 87 10000 4.6 20 09:41 08.01.2020
932 Rain 7 996 87 10000 2.6 360 09:19 08.01.2020
933 Clouds 8 995 93 10000 0.5 0 08:56 08.01.2020
934 Clouds 8 995 93 10000 0.5 0 08:37 08.01.2020
935 Clouds 8 995 87 10000 1 0 08:19 08.01.2020
936 Clouds 8 995 87 10000 1.5 360 07:48 08.01.2020
937 Clouds 8 996 87 10000 1.5 320 07:29 08.01.2020
938 Clouds 8 996 93 10000 1.5 10 06:45 08.01.2020
939 Clouds 7 996 87 10000 2.6 290 06:24 08.01.2020
940 Rain 7 997 93 10000 4.6 330 05:41 08.01.2020
941 Rain 6 997 93 10000 7.7 20 04:57 08.01.2020
942 Rain 5 1000 93 2000 4.6 330 04:25 08.01.2020
943 Rain 5 1005 93 2500 2.6 330 02:45 08.01.2020
944 Rain 5 1005 93 2500 2.6 330 02:22 08.01.2020
945 Rain 5 1006 93 4000 3.1 360 01:48 08.01.2020
946 Mist 5 1006 93 3000 1.5 10 01:19 08.01.2020
947 Mist 5 1007 93 3000 1.5 20 00:38 08.01.2020
948 Rain 4 1008 93 4000 1 0 00:20 08.01.2020
949 Rain 4 1009 93 4000 2.1 360 23:43 07.01.2020
950 Rain 4 1009 93 4500 2.1 350 23:20 07.01.2020
951 Rain 4 1009 93 4500 2.1 350 23:20 07.01.2020
952 Mist 4 1010 100 4000 1.5 320 22:40 07.01.2020
953 Mist 4 1010 100 4000 1.5 320 22:20 07.01.2020
954 Rain 4 1011 93 3500 1.5 320 21:57 07.01.2020
955 Rain 4 1011 93 2800 0.5 300 21:38 07.01.2020
956 Rain 4 1011 93 2800 0.5 300 21:38 07.01.2020
957 Rain 4 1011 93 2800 0.5 300 21:20 07.01.2020
958 Rain 4 1013 93 3800 2.1 310 20:56 07.01.2020
959 Rain 4 1013 93 3800 2.1 310 20:38 07.01.2020
960 Rain 4 1013 93 4000 2.6 300 20:19 07.01.2020
961 Rain 4 1014 93 4000 2.6 310 19:55 07.01.2020
962 Rain 4 1015 93 4500 3.1 330 19:36 07.01.2020
963 Rain 4 1015 93 4500 3.1 330 19:18 07.01.2020
964 Rain 4 1015 93 4500 3.6 350 18:55 07.01.2020
965 Rain 4 1015 93 4500 3.6 350 18:36 07.01.2020
966 Rain 4 1016 93 7000 3.1 350 18:18 07.01.2020
967 Rain 4 1017 93 7000 4.1 350 17:40 07.01.2020
968 Rain 4 1017 100 6000 5.1 10 17:22 07.01.2020
969 Rain 4 1017 100 4500 4.1 350 16:57 07.01.2020
970 Rain 4 1018 100 4000 4.6 340 16:38 07.01.2020
971 Rain 4 1018 100 4000 4.6 340 16:19 07.01.2020
972 Rain 4 1019 100 4000 4.1 340 15:59 07.01.2020
973 Rain 4 1020 100 4000 4.6 350 15:40 07.01.2020
974 Rain 4 1020 100 4000 4.6 350 15:22 07.01.2020
975 Rain 4 1021 100 4000 5.1 350 14:55 07.01.2020
976 Rain 4 1020 100 2500 4.6 340 14:37 07.01.2020
977 Rain 5 1021 93 4800 5.1 360 14:18 07.01.2020
978 Rain 5 1021 93 4500 5.1 360 13:40 07.01.2020
979 Rain 5 1022 93 4500 5.1 360 13:19 07.01.2020
980 Rain 5 1023 93 4500 4.6 360 12:42 07.01.2020
981 Rain 5 1023 93 4500 4.6 360 12:21 07.01.2020
982 Rain 6 1023 87 4500 4.6 10 11:59 07.01.2020
983 Rain 6 1023 87 4500 4.6 10 11:40 07.01.2020
984 Rain 6 1023 87 10000 5.1 10 11:21 07.01.2020
985 Rain 6 1023 87 10000 5.1 10 10:42 07.01.2020
986 Rain 6 1023 87 10000 5.1 10 10:42 07.01.2020
987 Rain 6 1023 87 10000 4.6 10 10:24 07.01.2020
988 Rain 6 1024 87 10000 4.6 10 09:59 07.01.2020
989 Rain 7 1024 87 10000 4.6 10 09:38 07.01.2020
990 Rain 6 1024 81 10000 4.1 10 09:20 07.01.2020
991 Rain 7 1024 81 10000 4.6 10 08:47 07.01.2020
992 Rain 7 1024 81 8000 1.5 10 08:27 07.01.2020
993 Rain 8 1024 70 10000 4.1 10 07:55 07.01.2020
994 Rain 8 1024 70 10000 2.6 30 07:34 07.01.2020
995 Rain 8 1024 70 10000 3.6 10 06:54 07.01.2020
996 Rain 8 1024 65 10000 1.5 350 06:35 07.01.2020
997 Rain 8 1024 65 10000 4.1 360 05:58 07.01.2020
998 Clouds 9 1024 52 10000 2.6 10 05:38 07.01.2020
999 Clouds 8 1025 43 10000 4.6 10 03:44 07.01.2020
1000 Clouds 7 1027 48 10000 2.6 360 02:25 07.01.2020
1001 Clouds 7 1027 52 10000 5.1 340 01:59 07.01.2020
1002 Clouds 7 1026 48 10000 2.6 360 01:35 07.01.2020
1003 Clouds 6 1026 48 10000 2.1 10 00:51 07.01.2020
1004 Clouds 6 1027 52 10000 4.1 320 00:20 07.01.2020
1005 Clouds 5 1026 56 10000 4.1 330 23:56 06.01.2020
1006 Clouds 5 1026 52 10000 4.1 320 23:37 06.01.2020
1007 Clouds 5 1026 52 10000 4.1 320 23:19 06.01.2020
1008 Clouds 5 1026 52 10000 4.1 330 22:43 06.01.2020
1009 Clouds 5 1025 56 10000 4.6 340 22:24 06.01.2020
1010 Clouds 5 1025 56 10000 4.6 340 22:24 06.01.2020
1011 Clouds 5 1025 52 10000 5.1 360 21:58 06.01.2020
1012 Clouds 5 1025 52 10000 5.1 360 21:58 06.01.2020
1013 Clouds 5 1025 56 10000 5.7 360 21:39 06.01.2020
1014 Clouds 5 1025 56 10000 5.7 360 21:20 06.01.2020
1015 Clouds 5 1025 56 10000 5.7 360 21:20 06.01.2020
1016 Clouds 5 1025 56 10000 5.7 360 21:20 06.01.2020
1017 Clouds 5 1025 52 10000 5.7 360 20:57 06.01.2020
1018 Clouds 5 1026 56 10000 6.7 360 20:38 06.01.2020
1019 Clouds 5 1026 56 10000 6.7 360 20:20 06.01.2020
1020 Clouds 5 1026 56 10000 6.7 20 19:57 06.01.2020
1021 Clouds 6 1026 56 10000 5.7 10 19:38 06.01.2020
1022 Clouds 6 1026 56 10000 5.7 10 19:20 06.01.2020
1023 Clouds 6 1026 56 10000 5.1 10 18:48 06.01.2020
1024 Clouds 6 1026 56 10000 6.2 20 18:23 06.01.2020
1025 Clouds 6 1026 45 10000 6.2 20 17:59 06.01.2020
1026 Clouds 6 1026 52 10000 5.7 30 17:38 06.01.2020
1027 Clouds 7 1026 52 10000 5.7 30 17:19 06.01.2020
1028 Clouds 6 1025 52 10000 5.7 10 16:47 06.01.2020
1029 Clouds 6 1025 52 10000 5.7 10 16:27 06.01.2020
1030 Clouds 7 1026 52 10000 7.2 360 15:59 06.01.2020
1031 Clouds 7 1026 52 10000 7.2 360 15:41 06.01.2020
1032 Clouds 7 1025 45 10000 5.7 20 15:20 06.01.2020
1033 Clouds 7 1025 45 10000 5.1 20 14:58 06.01.2020
1034 Clouds 8 1025 45 10000 5.1 20 14:40 06.01.2020
1035 Clouds 8 1025 45 10000 5.7 10 14:20 06.01.2020
1036 Clouds 8 1025 49 10000 7.2 350 13:57 06.01.2020
1037 Clouds 8 1025 49 10000 6.7 350 13:37 06.01.2020
1038 Clouds 8 1025 49 10000 6.7 350 13:19 06.01.2020
1039 Clouds 8 1025 45 10000 5.1 330 12:43 06.01.2020
1040 Clouds 8 1025 45 10000 5.1 330 12:21 06.01.2020
1041 Clouds 8 1025 45 10000 4.6 330 11:58 06.01.2020
1042 Clouds 8 1025 45 10000 4.6 330 11:39 06.01.2020
1043 Clouds 8 1025 43 10000 4.1 330 11:21 06.01.2020
1044 Clouds 8 1024 46 10000 5.7 340 10:57 06.01.2020
1045 Clouds 9 1024 46 10000 5.1 360 10:39 06.01.2020
1046 Clouds 9 1024 46 10000 5.1 360 10:20 06.01.2020
1047 Clouds 10 1024 46 10000 3.6 330 09:38 06.01.2020
1048 Clouds 10 1023 43 10000 4.6 340 09:19 06.01.2020
1049 Clouds 11 1024 43 10000 4.6 340 08:46 06.01.2020
1050 Clouds 11 1023 34 10000 2.6 310 08:26 06.01.2020
1051 Clouds 11 1024 40 10000 4.1 350 07:53 06.01.2020
1052 Clouds 11 1023 30 10000 3.6 300 07:32 06.01.2020
1053 Clouds 12 1024 30 10000 4.1 330 06:46 06.01.2020
1054 Clouds 12 1023 30 10000 4.1 290 06:23 06.01.2020
1055 Clouds 12 1023 34 10000 5.1 340 05:45 06.01.2020
1056 Clouds 11 1024 40 10000 4.6 350 04:52 06.01.2020
1057 Clouds 11 1024 32 10000 4.6 310 04:19 06.01.2020
1058 Clouds 9 1025 43 10000 5.1 350 02:56 06.01.2020
1059 Clouds 8 1026 39 10000 4.1 340 02:24 06.01.2020
1060 Clouds 7 1026 45 10000 7.2 340 01:45 06.01.2020
1061 Clouds 6 1026 52 10000 1.5 360 01:26 06.01.2020
1062 Clouds 6 1026 52 10000 2.1 20 00:42 06.01.2020
1063 Clouds 4 1026 56 10000 5.1 20 00:23 06.01.2020
1064 Clouds 2 1025 45 10000 9.3 350 23:43 05.01.2020
1065 Clouds 2 1025 45 10000 9.3 350 23:23 05.01.2020
1066 Clouds 2 1025 45 10000 10.8 340 22:57 05.01.2020
1067 Clouds 2 1025 45 10000 10.8 340 22:38 05.01.2020
1068 Clouds 2 1025 42 10000 9.8 340 22:20 05.01.2020
1069 Clear 2 1025 39 10000 8.7 330 21:55 05.01.2020
1070 Clear 2 1025 39 10000 7.7 320 21:37 05.01.2020
1071 Clear 2 1025 39 10000 7.7 320 21:19 05.01.2020
1072 Clear 2 1025 39 10000 7.7 320 21:19 05.01.2020
1073 Clear 2 1025 39 10000 6.2 320 20:55 05.01.2020
1074 Clear 3 1025 41 10000 6.7 330 20:37 05.01.2020
1075 Clear 2 1025 41 10000 6.7 330 20:19 05.01.2020
1076 Clear 3 1025 39 10000 9.8 340 19:56 05.01.2020
1077 Clear 2 1025 39 10000 8.7 330 19:37 05.01.2020
1078 Clear 3 1025 39 10000 8.7 330 19:19 05.01.2020
1079 Clear 2 1026 51 10000 5.1 290 18:54 05.01.2020
1080 Clear 2 1026 51 10000 5.1 290 18:36 05.01.2020
1081 Clear 2 1025 52 10000 5.7 280 18:18 05.01.2020
1082 Clear 3 1025 39 10000 7.2 310 17:55 05.01.2020
1083 Clear 3 1025 39 10000 7.2 310 17:55 05.01.2020
1084 Clear 3 1025 42 10000 8.2 330 17:37 05.01.2020
1085 Clear 3 1025 42 10000 8.2 330 17:18 05.01.2020
1086 Clouds 3 1025 39 10000 6.2 320 16:55 05.01.2020
1087 Clouds 3 1025 45 10000 5.7 330 16:36 05.01.2020
1088 Clouds 3 1025 45 10000 5.7 330 16:18 05.01.2020
1089 Clouds 4 1025 45 10000 5.7 320 15:36 05.01.2020
1090 Clouds 4 1025 45 10000 5.7 320 15:36 05.01.2020
1091 Clear 4 1025 42 10000 6.7 340 15:18 05.01.2020
1092 Clear 3 1025 48 10000 7.7 350 14:54 05.01.2020
1093 Clouds 4 1025 45 10000 6.2 330 14:36 05.01.2020
1094 Clouds 4 1025 45 10000 6.2 330 14:18 05.01.2020
1095 Clouds 5 1025 48 10000 7.7 340 13:40 05.01.2020
1096 Clouds 5 1025 52 10000 7.2 350 13:21 05.01.2020
1097 Clouds 4 1025 48 10000 6.2 350 12:57 05.01.2020
1098 Clouds 5 1025 48 10000 6.2 350 12:39 05.01.2020
1099 Clouds 5 1024 52 10000 5.1 10 12:21 05.01.2020
1100 Clouds 6 1024 48 10000 6.7 360 11:55 05.01.2020
1101 Clouds 6 1023 52 10000 7.7 350 11:37 05.01.2020
1102 Clouds 6 1023 52 10000 7.7 350 11:19 05.01.2020
1103 Clouds 6 1024 49 10000 6.2 20 10:56 05.01.2020
1104 Clouds 6 1023 52 10000 7.2 10 10:36 05.01.2020
1105 Clouds 6 1023 52 10000 7.2 10 10:36 05.01.2020
1106 Clouds 6 1023 52 10000 7.2 10 10:18 05.01.2020
1107 Clouds 8 1022 42 10000 7.2 360 09:41 05.01.2020
1108 Clouds 8 1022 42 10000 7.2 360 09:21 05.01.2020
1109 Clouds 8 1022 42 10000 10.8 350 08:46 05.01.2020
1110 Clouds 9 1022 34 10000 4.1 320 08:27 05.01.2020
1111 Clouds 10 1021 39 10000 6.2 350 07:55 05.01.2020
1112 Clouds 10 1021 39 10000 6.2 350 07:36 05.01.2020
1113 Clouds 10 1021 34 10000 7.7 350 06:59 05.01.2020
1114 Clouds 10 1020 37 10000 8.2 340 05:58 05.01.2020
1115 Clouds 10 1020 34 10000 6.7 320 05:30 05.01.2020
1116 Rain 9 1020 43 10000 8.7 350 04:43 05.01.2020
1117 Rain 9 1021 36 10000 6.2 340 03:52 05.01.2020
1118 Clouds 8 1022 42 10000 6.7 340 02:46 05.01.2020
1119 Clouds 7 1021 48 10000 5.7 300 02:23 05.01.2020
1120 Clouds 6 1022 52 10000 6.2 330 01:48 05.01.2020
1121 Clouds 6 1021 56 10000 4.1 310 01:18 05.01.2020
1122 Clouds 4 1020 65 10000 5.1 320 00:41 05.01.2020
1123 Clouds 4 1020 65 10000 5.1 320 00:23 05.01.2020
1124 Clouds 3 1020 65 10000 5.7 330 23:59 04.01.2020
1125 Clouds 3 1020 65 10000 5.7 330 23:59 04.01.2020
1126 Clouds 2 1019 64 10000 6.2 330 23:39 04.01.2020
1127 Clouds 2 1019 64 10000 6.2 330 23:19 04.01.2020
1128 Clouds 2 1018 65 10000 7.2 330 22:40 04.01.2020
1129 Clouds 2 1018 42 10000 1.5 280 22:40 04.01.2020
1130 Clouds 2 1018 65 10000 7.2 330 22:21 04.01.2020
1131 Clouds 2 1017 65 10000 7.2 330 21:57 04.01.2020
1132 Clouds 2 1017 65 10000 7.2 330 21:57 04.01.2020
1133 Clouds 2 1017 69 10000 6.2 330 21:39 04.01.2020
1134 Clouds 2 1017 69 10000 6.2 330 21:20 04.01.2020
1135 Clouds 2 1017 69 10000 6.2 330 21:20 04.01.2020
1136 Clouds 2 1017 65 10000 7.7 330 20:58 04.01.2020
1137 Clouds 2 1016 42 10000 8.7 330 20:39 04.01.2020
1138 Clouds 2 1016 61 10000 8.7 330 20:21 04.01.2020
1139 Clouds 2 1016 65 10000 5.1 350 19:56 04.01.2020
1140 Clouds 2 1016 80 10000 3.1 10 19:38 04.01.2020
1141 Clouds 2 1016 80 10000 3.1 10 19:19 04.01.2020
1142 Rain 3 1015 80 10000 4.6 360 18:54 04.01.2020
1143 Rain 3 1016 80 10000 4.1 10 18:36 04.01.2020
1144 Rain 3 1016 80 10000 4.1 10 18:18 04.01.2020
1145 Clouds 3 1016 86 10000 6.7 360 17:41 04.01.2020
1146 Rain 3 1015 86 10000 7.7 10 17:23 04.01.2020
1147 Rain 3 1015 86 10000 10.3 360 16:57 04.01.2020
1148 Rain 4 1015 80 10000 11.3 360 16:39 04.01.2020
1149 Rain 4 1015 80 10000 11.3 360 16:21 04.01.2020
1150 Rain 5 1014 60 10000 10.3 360 15:43 04.01.2020
1151 Clouds 6 1012 57 10000 7.2 10 15:20 04.01.2020
1152 Rain 6 1013 75 10000 3.6 20 14:59 04.01.2020
1153 Clouds 6 1012 57 10000 2.1 120 14:41 04.01.2020
1154 Clouds 6 1012 46 10000 3.1 140 14:20 04.01.2020
1155 Clouds 6 1013 46 10000 4.1 140 13:59 04.01.2020
1156 Clouds 6 1013 46 10000 4.1 140 13:38 04.01.2020
1157 Clouds 6 1012 61 10000 4.1 140 13:19 04.01.2020
1158 Clouds 6 1012 48 10000 5.7 150 12:57 04.01.2020
1159 Rain 6 1012 52 10000 4.6 140 12:38 04.01.2020
1160 Rain 7 1012 52 10000 4.6 140 12:18 04.01.2020
1161 Rain 7 1013 43 10000 2.6 100 11:55 04.01.2020
1162 Rain 8 1012 49 10000 2.6 120 11:36 04.01.2020
1163 Rain 8 1012 49 10000 2.6 120 11:18 04.01.2020
1164 Rain 9 1012 40 10000 2.6 110 10:40 04.01.2020
1165 Rain 9 1012 40 10000 2.6 110 10:21 04.01.2020
1166 Rain 9 1013 40 10000 2.6 70 09:47 04.01.2020
1167 Rain 10 1013 40 10000 4.1 50 09:26 04.01.2020
1168 Rain 10 1013 40 10000 2.6 20 08:49 04.01.2020
1169 Clouds 10 1012 34 10000 1.5 10 08:29 04.01.2020
1170 Clouds 11 1013 40 10000 4.1 30 07:57 04.01.2020
1171 Clouds 11 1013 40 10000 4.1 30 07:38 04.01.2020
1172 Clouds 11 1013 43 10000 4.1 20 06:44 04.01.2020
1173 Clouds 12 1012 37 10000 3.6 360 05:59 04.01.2020
1174 Clouds 11 1013 40 10000 5.1 360 04:52 04.01.2020
1175 Clouds 11 1013 34 10000 4.6 330 04:31 04.01.2020
1176 Clouds 10 1014 37 10000 4.1 330 03:30 04.01.2020
1177 Clouds 9 1015 46 10000 8.7 350 02:52 04.01.2020
1178 Clouds 8 1015 39 10000 5.1 320 02:18 04.01.2020
1179 Clouds 7 1015 48 10000 9.8 350 01:45 04.01.2020
1180 Clouds 7 1015 45 10000 4.6 320 01:27 04.01.2020
1181 Clouds 6 1015 52 10000 3.6 330 00:29 04.01.2020
1182 Clouds 4 1015 52 10000 5.7 340 23:59 03.01.2020
1183 Clouds 3 1014 56 10000 6.2 330 23:37 03.01.2020
1184 Clouds 4 1014 56 10000 6.2 330 23:19 03.01.2020
1185 Clouds 3 1015 56 10000 6.2 340 22:41 03.01.2020
1186 Clouds 3 1015 54 10000 5.7 350 22:19 03.01.2020
1187 Clear 3 1014 60 10000 4.1 320 21:58 03.01.2020
1188 Clear 3 1014 60 10000 4.1 320 21:38 03.01.2020
1189 Clear 3 1014 60 10000 4.1 320 21:19 03.01.2020
1190 Clear 3 1014 54 10000 4.6 350 20:57 03.01.2020
1191 Clear 3 1014 54 10000 2.6 10 20:39 03.01.2020
1192 Clear 3 1014 54 10000 2.6 10 20:18 03.01.2020
1193 Clear 3 1014 55 10000 2.6 20 19:55 03.01.2020
1194 Clear 3 1014 55 10000 2.6 20 19:55 03.01.2020
1195 Clear 3 1014 70 10000 3.1 20 19:37 03.01.2020
1196 Clear 3 1014 70 10000 3.1 20 19:18 03.01.2020
1197 Clear 4 1014 75 10000 4.1 20 18:43 03.01.2020
1198 Clear 4 1014 65 10000 4.1 10 18:24 03.01.2020
1199 Clouds 5 1014 65 10000 6.2 340 17:55 03.01.2020
1200 Clouds 4 1014 61 10000 3.1 10 17:36 03.01.2020
1201 Clouds 4 1014 61 10000 3.1 10 17:18 03.01.2020
1202 Clouds 5 1014 57 10000 4.6 350 16:42 03.01.2020
1203 Clouds 4 1014 55 10000 2.6 310 16:22 03.01.2020
1204 Clear 5 1014 65 10000 2.1 290 15:44 03.01.2020
1205 Clear 5 1015 70 10000 3.1 310 15:19 03.01.2020
1206 Clear 5 1014 65 10000 3.6 310 14:59 03.01.2020
1207 Clouds 5 1014 70 10000 3.1 310 14:38 03.01.2020
1208 Clouds 5 1014 70 10000 3.1 310 14:19 03.01.2020
1209 Clear 5 1014 61 10000 3.1 310 13:44 03.01.2020
1210 Clouds 5 1014 61 10000 2.1 310 13:24 03.01.2020
1211 Clouds 6 1014 66 10000 2.1 280 12:59 03.01.2020
1212 Clouds 6 1014 66 10000 2.1 280 12:39 03.01.2020
1213 Clouds 6 1014 66 10000 1.5 240 12:21 03.01.2020
1214 Clouds 7 1014 66 10000 1.5 140 11:45 03.01.2020
1215 Clouds 6 1014 66 10000 1 130 11:23 03.01.2020
1216 Clouds 7 1014 70 10000 1.5 110 10:46 03.01.2020
1217 Clouds 8 1014 70 10000 1.5 120 10:27 03.01.2020
1218 Clouds 8 1015 61 10000 0.5 0 09:58 03.01.2020
1219 Clouds 9 1015 61 10000 0.5 0 09:40 03.01.2020
1220 Clouds 9 1014 42 10000 0.5 50 09:22 03.01.2020
1221 Clouds 11 1014 53 10000 1 350 08:57 03.01.2020
1222 Clouds 11 1014 57 10000 1 160 08:38 03.01.2020
1223 Clouds 11 1014 57 10000 1 160 08:19 03.01.2020
1224 Clouds 12 1014 57 10000 1 0 07:40 03.01.2020
1225 Clouds 11 1014 46 10000 1.5 0 07:19 03.01.2020
1226 Clouds 11 1014 57 10000 1 0 06:51 03.01.2020
1227 Clouds 12 1014 53 10000 2.1 130 06:33 03.01.2020
1228 Clouds 11 1014 37 10000 1.5 50 05:46 03.01.2020
1229 Clouds 11 1015 49 10000 1.5 50 04:27 03.01.2020
1230 Clouds 9 1017 40 10000 2.6 20 02:59 03.01.2020
1231 Clouds 9 1017 40 10000 2.6 20 02:41 03.01.2020
1232 Clouds 6 1018 65 10000 1.5 20 01:45 03.01.2020
1233 Clouds 5 1018 65 10000 1 0 00:53 03.01.2020
1234 Clouds 4 1018 46 10000 2.1 310 00:31 03.01.2020
1235 Clouds 2 1018 69 10000 2.1 20 23:57 02.01.2020
1236 Clouds 1 1018 69 10000 2.1 20 23:38 02.01.2020
1237 Clouds 1 1017 69 10000 2.6 30 23:19 02.01.2020
1238 Clouds 1 1018 69 10000 2.6 30 22:57 02.01.2020
1239 Clouds 1 1017 65 10000 3.1 10 22:39 02.01.2020
1240 Clouds 1 1017 65 10000 3.1 10 22:18 02.01.2020
1241 Clouds 1 1017 69 10000 2.1 310 21:42 02.01.2020
1242 Clouds 1 1017 69 10000 2.1 300 21:23 02.01.2020
1243 Clouds 1 1018 69 10000 2.1 280 21:00 02.01.2020
1244 Clouds 1 1018 69 10000 2.1 280 21:00 02.01.2020
1245 Clouds 2 1018 69 10000 2.1 280 20:40 02.01.2020
1246 Clouds 2 1017 69 10000 1.5 300 20:21 02.01.2020
1247 Clouds 2 1018 69 10000 0.5 0 19:56 02.01.2020
1248 Clouds 2 1018 69 10000 0.5 0 19:38 02.01.2020
1249 Clouds 3 1018 48 10000 1 0 19:19 02.01.2020
1250 Clouds 3 1019 48 10000 1.5 320 18:58 02.01.2020
1251 Clouds 3 1019 48 10000 1.5 320 18:40 02.01.2020
1252 Clouds 3 1018 48 10000 2.1 330 18:22 02.01.2020
1253 Clouds 3 1018 48 10000 2.1 330 18:22 02.01.2020
1254 Clouds 4 1018 48 10000 3.1 10 17:57 02.01.2020
1255 Clouds 4 1019 65 10000 3.6 360 17:37 02.01.2020
1256 Clouds 4 1019 65 10000 3.6 360 17:19 02.01.2020
1257 Clouds 4 1019 46 10000 3.6 320 16:57 02.01.2020
1258 Clouds 4 1019 46 10000 3.6 320 16:38 02.01.2020
1259 Clouds 4 1019 46 10000 3.6 320 16:38 02.01.2020
1260 Clouds 5 1019 46 10000 3.1 300 16:20 02.01.2020
1261 Clouds 5 1019 56 10000 3.6 310 15:56 02.01.2020
1262 Clouds 5 1019 65 10000 3.6 310 15:37 02.01.2020
1263 Clouds 5 1019 46 10000 3.1 310 15:19 02.01.2020
1264 Clouds 5 1019 46 10000 3.1 310 14:55 02.01.2020
1265 Clouds 5 1019 70 10000 3.6 310 14:36 02.01.2020
1266 Clouds 5 1019 70 10000 3.6 310 14:18 02.01.2020
1267 Clouds 4 1019 65 10000 2.1 0 13:47 02.01.2020
1268 Clouds 5 1019 53 10000 1.33 17 13:29 02.01.2020
1269 Clouds 5 1020 54 10000 1 120 12:45 02.01.2020
1270 Clouds 6 1020 54 10000 1 130 12:25 02.01.2020
1271 Clouds 6 1020 54 10000 1 130 12:25 02.01.2020
1272 Clouds 7 1020 61 10000 2.6 160 11:44 02.01.2020
1273 Clouds 7 1020 61 10000 2.6 160 11:26 02.01.2020
1274 Clouds 6 1020 57 10000 2.1 130 10:58 02.01.2020
1275 Clouds 7 1019 52 10000 2.1 110 10:39 02.01.2020
1276 Clouds 8 1019 52 10000 2.1 110 10:19 02.01.2020
1277 Clouds 9 1019 53 10000 2.1 90 09:42 02.01.2020
1278 Clouds 9 1019 53 10000 2.1 90 09:24 02.01.2020
1279 Clouds 10 1020 53 10000 1.5 90 08:45 02.01.2020
1280 Clouds 10 1020 53 10000 1.5 90 08:45 02.01.2020
1281 Clouds 11 1019 42 10000 3.1 140 08:27 02.01.2020
1282 Clouds 11 1020 41 10000 3.1 80 07:50 02.01.2020
1283 Clouds 11 1019 40 10000 2.1 50 07:30 02.01.2020
1284 Clouds 11 1020 41 10000 2.6 60 06:45 02.01.2020
1285 Clouds 11 1019 43 10000 2.6 60 06:26 02.01.2020
1286 Clouds 10 1020 49 10000 3.6 10 04:53 02.01.2020
1287 Clouds 10 1021 49 10000 2.1 40 04:30 02.01.2020
1288 Clouds 8 1022 45 10000 2.6 360 02:37 02.01.2020
1289 Clouds 7 1023 47 10000 4.1 10 01:58 02.01.2020
1290 Clouds 7 1022 52 10000 3.6 360 01:33 02.01.2020
1291 Clouds 7 1022 52 10000 3.6 360 01:33 02.01.2020
1292 Clouds 6 1022 56 10000 3.1 10 00:57 02.01.2020
1293 Clouds 4 1022 65 10000 3.6 30 00:33 02.01.2020
1294 Clouds 2 1022 65 10000 3.1 30 23:49 01.01.2020
1295 Clouds 1 1022 60 10000 3.6 20 23:27 01.01.2020
1296 Clouds 1 1022 51 10000 4.1 20 22:56 01.01.2020
1297 Clouds 1 1022 51 10000 4.1 20 22:38 01.01.2020
1298 Clouds 1 1021 60 10000 2.6 30 22:19 01.01.2020
1299 Clouds 1 1022 56 10000 2.1 30 21:56 01.01.2020
1300 Clouds 1 1022 56 10000 2.1 30 21:37 01.01.2020
1301 Clouds 2 1021 51 10000 3.6 30 21:18 01.01.2020
1302 Clouds 1 1021 51 10000 4.6 20 20:54 01.01.2020
1303 Clouds 1 1021 51 10000 4.1 30 20:36 01.01.2020
1304 Clouds 1 1021 42 10000 4.1 30 20:18 01.01.2020
1305 Clouds 1 1021 60 10000 3.1 20 19:54 01.01.2020
1306 Clouds 2 1021 56 10000 4.1 360 19:36 01.01.2020
1307 Clouds 2 1021 56 10000 4.1 360 19:18 01.01.2020
1308 Clouds 2 1021 56 10000 5.7 360 18:54 01.01.2020
1309 Clouds 2 1021 65 10000 3.6 330 18:36 01.01.2020
1310 Clouds 2 1021 65 10000 3.6 330 18:18 01.01.2020
1311 Clouds 2 1021 42 10000 2.6 300 17:55 01.01.2020
1312 Clouds 2 1021 60 10000 3.1 310 17:36 01.01.2020
1313 Clouds 3 1021 60 10000 3.1 310 17:18 01.01.2020
1314 Clouds 3 1021 45 10000 2.6 330 16:39 01.01.2020
1315 Clouds 3 1021 45 10000 2.6 330 16:20 01.01.2020
1316 Clouds 3 1021 70 10000 3.1 310 15:57 01.01.2020
1317 Clouds 3 1021 70 10000 3.1 310 15:38 01.01.2020
1318 Clouds 3 1020 70 10000 2.6 290 15:20 01.01.2020
1319 Clouds 3 1021 75 10000 1.5 290 14:56 01.01.2020
1320 Clouds 3 1021 75 10000 1.5 290 14:38 01.01.2020
1321 Clouds 4 1021 62 10000 1 0 14:20 01.01.2020
1322 Clouds 4 1021 61 10000 1 340 13:55 01.01.2020
1323 Clouds 4 1021 65 10000 1.5 330 13:37 01.01.2020
1324 Clouds 4 1021 65 10000 1.5 330 13:37 01.01.2020
1325 Clouds 4 1021 65 10000 1.5 330 13:18 01.01.2020
1326 Clouds 5 1021 65 10000 1.5 350 12:55 01.01.2020
1327 Clouds 4 1020 61 10000 0.5 0 12:37 01.01.2020
1328 Clouds 5 1020 61 10000 0.5 0 12:18 01.01.2020
1329 Clouds 5 1020 57 10000 2.1 200 11:43 01.01.2020
1330 Clouds 6 1020 58 10000 2.6 200 11:21 01.01.2020
1331 Clouds 6 1020 52 10000 2.6 210 10:58 01.01.2020
1332 Clouds 6 1020 49 10000 1 0 10:39 01.01.2020
1333 Clouds 7 1020 49 10000 1 0 10:20 01.01.2020
1334 Clouds 7 1020 52 10000 0.5 0 09:55 01.01.2020
1335 Clouds 7 1020 45 10000 1 0 09:36 01.01.2020
1336 Clouds 8 1020 45 10000 1 0 09:18 01.01.2020
1337 Clouds 8 1020 48 10000 1.5 130 08:54 01.01.2020
1338 Clouds 8 1020 48 10000 1.5 130 08:36 01.01.2020
1339 Clouds 9 1019 42 10000 2.6 140 08:18 01.01.2020
1340 Clouds 10 1020 45 10000 1.5 120 07:42 01.01.2020
1341 Clouds 9 1019 42 10000 3.1 150 07:24 01.01.2020
1342 Clouds 10 1020 39 10000 1.5 80 06:44 01.01.2020
1343 Clouds 10 1019 39 10000 1 0 06:19 01.01.2020
1344 Clouds 9 1020 45 10000 2.6 60 04:38 01.01.2020
1345 Clouds 8 1022 45 10000 3.1 40 03:41 01.01.2020
1346 Clouds 8 1022 42 10000 2.6 50 03:22 01.01.2020
1347 Clouds 8 1023 42 10000 2.6 40 02:55 01.01.2020
1348 Clouds 7 1023 45 10000 2.6 40 02:32 01.01.2020
1349 Clouds 6 1023 48 10000 4.1 30 01:45 01.01.2020
1350 Clouds 6 1022 44 10000 2.6 30 01:24 01.01.2020
1351 Clouds 5 1022 48 10000 2.6 20 00:56 01.01.2020
1352 Clouds 5 1022 45 10000 6.2 20 00:37 01.01.2020
1353 Clouds 4 1022 45 10000 6.2 20 00:18 01.01.2020
1354 Clouds 4 1021 52 10000 7.2 350 23:39 31.12.2019
1355 Clouds 3 1021 52 10000 7.2 350 23:19 31.12.2019
1356 Clouds 3 1022 48 10000 10.3 350 22:57 31.12.2019
1357 Clouds 4 1021 44 10000 8.7 340 22:38 31.12.2019
1358 Clouds 4 1021 44 10000 8.7 340 22:18 31.12.2019
1359 Clouds 4 1021 44 10000 9.3 330 21:54 31.12.2019
1360 Clouds 4 1020 41 10000 9.8 340 21:36 31.12.2019
1361 Clouds 4 1020 41 10000 9.8 340 21:18 31.12.2019
1362 Clouds 4 1019 44 10000 10.8 340 20:40 31.12.2019
1363 Clouds 3 1019 44 10000 10.8 340 20:21 31.12.2019
1364 Clouds 3 1020 44 10000 10.3 340 19:59 31.12.2019
1365 Clouds 3 1020 44 10000 10.3 340 19:40 31.12.2019
1366 Clouds 3 1019 44 10000 10.8 340 19:22 31.12.2019
1367 Clouds 3 1020 44 10000 10.3 340 18:58 31.12.2019
1368 Clouds 3 1019 48 10000 10.8 350 18:40 31.12.2019
1369 Clouds 3 1019 48 10000 10.8 350 18:19 31.12.2019
1370 Clouds 3 1019 48 10000 12.9 340 17:56 31.12.2019
1371 Clouds 3 1018 44 10000 11.8 340 17:38 31.12.2019
1372 Clouds 4 1018 44 10000 11.8 340 17:19 31.12.2019
1373 Clouds 3 1018 44 10000 11.8 330 16:57 31.12.2019
1374 Clouds 3 1018 44 10000 11.8 330 16:38 31.12.2019
1375 Clouds 4 1018 38 10000 12.3 330 16:19 31.12.2019
1376 Clear 4 1018 38 10000 11.8 330 15:56 31.12.2019
1377 Clear 4 1017 38 10000 13.9 330 15:38 31.12.2019
1378 Clear 4 1017 38 10000 13.9 330 15:38 31.12.2019
1379 Clear 4 1017 38 10000 13.9 330 15:20 31.12.2019
1380 Clear 4 1017 38 10000 14.9 330 14:57 31.12.2019
1381 Clear 4 1017 38 10000 14.9 330 14:38 31.12.2019
1382 Clouds 4 1017 44 10000 12.9 340 14:19 31.12.2019
1383 Clouds 4 1017 44 10000 12.9 340 14:19 31.12.2019
1384 Clouds 4 1017 41 10000 13.4 340 13:57 31.12.2019
1385 Clouds 4 1016 48 10000 17 340 13:39 31.12.2019
1386 Clouds 5 1016 48 10000 17 340 13:20 31.12.2019
1387 Clouds 5 1015 41 10000 14.4 340 12:56 31.12.2019
1388 Clouds 5 1015 41 10000 16.5 340 12:38 31.12.2019
1389 Clouds 5 1015 41 10000 16.5 340 12:20 31.12.2019
1390 Clouds 6 1015 41 10000 13.9 340 11:56 31.12.2019
1391 Clouds 6 1015 41 10000 13.9 340 11:38 31.12.2019
1392 Rain 7 1014 39 10000 15.9 330 11:20 31.12.2019
1393 Clouds 8 1013 42 10000 13.9 340 10:57 31.12.2019
1394 Rain 8 1013 39 10000 15.4 340 10:38 31.12.2019
1395 Rain 8 1013 39 10000 15.4 340 10:38 31.12.2019
1396 Rain 8 1013 39 10000 15.4 340 10:20 31.12.2019
1397 Rain 9 1012 42 10000 15.4 350 09:58 31.12.2019
1398 Rain 9 1012 39 10000 10.3 350 09:39 31.12.2019
1399 Rain 9 1011 45 10000 16.5 350 09:20 31.12.2019
1400 Rain 10 1011 39 10000 15.4 340 08:57 31.12.2019
1401 Rain 10 1011 39 10000 15.4 340 08:37 31.12.2019
1402 Rain 12 1010 32 10000 10.3 310 08:19 31.12.2019
1403 Rain 14 1009 34 10000 15.4 350 07:43 31.12.2019
1404 Rain 14 1008 33 10000 7.2 330 07:20 31.12.2019
1405 Clouds 17 1007 38 10000 12.3 340 06:50 31.12.2019
1406 Rain 17 1005 67 10000 5.1 10 05:57 31.12.2019
1407 Clouds 16 1005 58 10000 2.1 320 04:28 31.12.2019
1408 Clear 15 1006 66 10000 1.5 20 03:28 31.12.2019
1409 Clouds 15 1007 71 10000 3.1 60 02:54 31.12.2019
1410 Clouds 15 1007 71 10000 3.1 60 02:54 31.12.2019
1411 Clouds 12 1007 71 10000 1.5 360 02:18 31.12.2019
1412 Clouds 10 1009 76 10000 1.5 20 01:42 31.12.2019
1413 Clouds 10 1009 76 8000 1 0 01:23 31.12.2019
1414 Clouds 7 1009 75 8000 1 0 00:46 31.12.2019
1415 Clouds 7 1009 81 9000 0.5 0 00:22 31.12.2019
1416 Clouds 6 1010 81 10000 1.5 10 23:56 30.12.2019
1417 Clouds 5 1010 81 10000 2.1 10 23:38 30.12.2019
1418 Clouds 5 1010 81 10000 2.1 10 23:20 30.12.2019
1419 Clouds 5 1010 81 10000 1.5 360 22:57 30.12.2019
1420 Clouds 5 1011 87 10000 1.5 40 22:38 30.12.2019
1421 Clouds 6 1011 87 10000 1.5 40 22:20 30.12.2019
1422 Clouds 6 1011 81 10000 1 0 21:56 30.12.2019
1423 Clouds 5 1011 81 10000 1.5 70 21:38 30.12.2019
1424 Clouds 5 1011 81 10000 1.5 70 21:18 30.12.2019
1425 Clouds 6 1012 81 10000 0.5 0 20:56 30.12.2019
1426 Clouds 6 1012 81 10000 0.5 0 20:38 30.12.2019
1427 Clouds 6 1012 81 10000 1.5 320 20:20 30.12.2019
1428 Clouds 6 1013 75 10000 3.1 310 19:57 30.12.2019
1429 Clouds 6 1013 75 10000 2.6 340 19:37 30.12.2019
1430 Clouds 6 1013 75 10000 2.6 340 19:19 30.12.2019
1431 Clouds 6 1013 75 10000 2.6 340 19:19 30.12.2019
1432 Clouds 6 1013 76 10000 3.6 20 18:56 30.12.2019
1433 Clouds 6 1013 76 10000 3.6 20 18:38 30.12.2019
1434 Clouds 6 1013 76 10000 3.6 20 18:20 30.12.2019
1435 Clouds 6 1014 81 10000 4.1 10 17:55 30.12.2019
1436 Clouds 7 1014 81 10000 3.6 20 17:37 30.12.2019
1437 Clouds 6 1014 81 10000 3.6 20 17:18 30.12.2019
1438 Clouds 6 1014 81 10000 1 0 16:57 30.12.2019
1439 Rain 6 1015 87 10000 2.1 10 16:36 30.12.2019
1440 Rain 6 1015 87 10000 2.1 10 16:18 30.12.2019
1441 Rain 7 1016 87 10000 2.1 350 15:55 30.12.2019
1442 Clouds 7 1016 81 10000 2.1 10 15:37 30.12.2019
1443 Clouds 7 1016 81 10000 2.1 10 15:18 30.12.2019
1444 Clouds 7 1017 87 10000 3.1 20 14:42 30.12.2019
1445 Clouds 7 1017 87 10000 1.5 20 14:20 30.12.2019
1446 Clouds 7 1018 93 10000 2.6 10 13:57 30.12.2019
1447 Clouds 7 1018 87 10000 1.5 100 13:39 30.12.2019
1448 Clouds 7 1018 87 10000 1.5 100 13:21 30.12.2019
1449 Clouds 7 1018 87 10000 1 90 12:56 30.12.2019
1450 Clouds 7 1018 87 10000 1.5 100 12:36 30.12.2019
1451 Clouds 6 1018 87 10000 1.5 100 12:18 30.12.2019
1452 Clouds 7 1019 81 10000 2.1 130 11:40 30.12.2019
1453 Clouds 6 1020 81 10000 2.1 120 11:19 30.12.2019
1454 Clouds 7 1020 76 10000 2.6 140 10:58 30.12.2019
1455 Clouds 7 1020 75 10000 2.1 160 10:40 30.12.2019
1456 Clouds 7 1020 75 10000 2.1 160 10:18 30.12.2019
1457 Clouds 7 1020 70 10000 1.5 140 09:42 30.12.2019
1458 Clouds 7 1020 70 10000 1 0 09:20 30.12.2019
1459 Clouds 8 1021 66 10000 1 0 08:56 30.12.2019
1460 Clouds 8 1021 70 10000 1 0 08:37 30.12.2019
1461 Clouds 8 1021 70 10000 1 0 08:18 30.12.2019
1462 Clouds 9 1021 66 10000 1 0 07:41 30.12.2019
1463 Clouds 9 1022 66 10000 1.5 90 06:59 30.12.2019
1464 Clouds 9 1022 70 8000 1.5 320 06:24 30.12.2019
1465 Rain 8 1024 75 10000 2.6 330 04:23 30.12.2019
1466 Rain 7 1024 75 10000 4.6 340 03:42 30.12.2019
1467 Rain 7 1026 65 10000 5.1 340 02:41 30.12.2019
1468 Rain 7 1027 65 10000 4.1 310 02:21 30.12.2019
1469 Rain 7 1027 41 10000 4.1 310 01:27 30.12.2019
1470 Rain 6 1027 52 10000 3.6 300 00:51 30.12.2019
1471 Rain 7 1027 56 10000 3.6 330 00:28 30.12.2019
1472 Clouds 6 1028 56 10000 4.6 320 23:40 29.12.2019
1473 Clouds 6 1027 42 10000 4.1 330 23:22 29.12.2019
1474 Clouds 6 1028 42 10000 3.6 340 22:57 29.12.2019
1475 Clouds 6 1027 61 10000 4.1 340 22:38 29.12.2019
1476 Clouds 6 1027 61 10000 4.1 340 22:20 29.12.2019
1477 Clouds 6 1028 42 10000 4.1 330 21:55 29.12.2019
1478 Clouds 6 1028 42 10000 4.1 330 21:37 29.12.2019
1479 Clouds 6 1028 52 10000 4.6 340 21:18 29.12.2019
1480 Clouds 6 1028 42 10000 5.1 340 20:55 29.12.2019
1481 Clouds 6 1028 42 10000 5.1 340 20:55 29.12.2019
1482 Clouds 6 1028 52 10000 4.6 340 20:37 29.12.2019
1483 Clouds 6 1028 52 10000 4.6 340 20:18 29.12.2019
1484 Clouds 6 1028 52 10000 4.1 340 19:55 29.12.2019
1485 Clouds 6 1028 61 10000 4.1 360 19:37 29.12.2019
1486 Clouds 6 1028 61 10000 4.1 360 19:18 29.12.2019
1487 Clouds 6 1029 61 10000 4.6 340 18:54 29.12.2019
1488 Clouds 7 1029 61 10000 3.1 320 18:36 29.12.2019
1489 Clouds 7 1029 61 10000 3.1 320 18:18 29.12.2019
1490 Clouds 7 1029 53 10000 3.1 360 17:55 29.12.2019
1491 Clouds 7 1028 39 10000 3.1 20 17:36 29.12.2019
1492 Clouds 7 1028 37 10000 3.1 20 17:18 29.12.2019
1493 Clouds 7 1029 37 10000 3.1 20 16:54 29.12.2019
1494 Clouds 7 1029 37 10000 3.1 360 16:36 29.12.2019
1495 Clouds 7 1029 37 10000 3.1 360 16:18 29.12.2019
1496 Clouds 8 1030 37 10000 2.6 10 15:55 29.12.2019
1497 Clouds 8 1030 53 10000 3.1 20 15:37 29.12.2019
1498 Clouds 8 1030 53 10000 3.1 20 15:18 29.12.2019
1499 Clouds 8 1030 57 10000 3.6 10 14:55 29.12.2019
1500 Clouds 8 1030 57 10000 3.6 10 14:37 29.12.2019
1501 Clouds 8 1030 53 10000 3.1 40 14:18 29.12.2019
1502 Clouds 8 1030 53 10000 4.1 50 13:40 29.12.2019
1503 Clouds 8 1030 53 10000 4.1 50 13:40 29.12.2019
1504 Clouds 8 1030 61 10000 3.6 60 13:22 29.12.2019
1505 Clouds 8 1030 61 10000 3.6 60 12:59 29.12.2019
1506 Clouds 9 1030 61 10000 3.6 60 12:41 29.12.2019
1507 Clouds 9 1030 61 10000 3.1 90 12:22 29.12.2019
1508 Clouds 9 1030 57 10000 3.6 90 11:54 29.12.2019
1509 Clouds 9 1030 53 10000 4.1 100 11:36 29.12.2019
1510 Clouds 9 1030 53 10000 4.1 100 11:18 29.12.2019
1511 Clouds 9 1030 57 10000 4.1 120 10:41 29.12.2019
1512 Clouds 9 1030 57 10000 4.1 120 10:21 29.12.2019
1513 Clouds 9 1029 53 10000 4.6 120 09:54 29.12.2019
1514 Clouds 9 1029 39 10000 3.6 130 09:36 29.12.2019
1515 Clouds 9 1029 39 10000 3.6 130 09:18 29.12.2019
1516 Clouds 10 1029 43 10000 1 60 08:46 29.12.2019
1517 Clouds 10 1028 39 10000 1.5 110 08:24 29.12.2019
1518 Clouds 10 1028 43 10000 1 0 07:54 29.12.2019
1519 Clouds 10 1028 43 10000 1 0 07:54 29.12.2019
1520 Clouds 10 1028 37 10000 1.5 120 07:27 29.12.2019
1521 Clouds 11 1028 42 10000 1.5 20 06:53 29.12.2019
1522 Clouds 10 1028 37 10000 2.6 140 06:23 29.12.2019
1523 Clouds 11 1027 43 10000 2.1 60 05:50 29.12.2019
1524 Clouds 10 1028 34 10000 3.6 60 04:35 29.12.2019
1525 Clouds 9 1029 42 10000 4.1 80 03:40 29.12.2019
1526 Clouds 9 1029 42 10000 4.1 80 03:19 29.12.2019
1527 Clouds 8 1030 42 10000 1.5 40 02:20 29.12.2019
1528 Clouds 6 1030 45 10000 2.6 10 01:31 29.12.2019
1529 Clouds 6 1030 45 10000 2.6 10 01:31 29.12.2019
1530 Clouds 5 1030 52 10000 2.6 20 00:55 29.12.2019
1531 Clouds 4 1030 52 10000 5.7 10 00:36 29.12.2019
1532 Clouds 3 1030 52 10000 5.7 10 00:18 29.12.2019
1533 Clouds 3 1030 52 10000 5.1 360 23:41 28.12.2019
1534 Clouds 2 1029 56 10000 6.2 10 23:18 28.12.2019
1535 Clouds 2 1029 56 10000 6.2 10 23:18 28.12.2019
1536 Clouds 2 1029 56 10000 5.1 20 22:39 28.12.2019
1537 Clouds 2 1029 56 10000 5.1 20 22:20 28.12.2019
1538 Clouds 2 1029 56 10000 5.7 10 21:58 28.12.2019
1539 Clouds 2 1028 52 10000 5.1 10 21:39 28.12.2019
1540 Clouds 2 1028 52 10000 5.1 10 21:20 28.12.2019
1541 Clouds 2 1028 56 10000 4.6 20 20:56 28.12.2019
1542 Clouds 2 1028 52 10000 5.1 20 20:37 28.12.2019
1543 Clouds 2 1028 52 10000 5.1 20 20:19 28.12.2019
1544 Clouds 3 1028 56 10000 6.7 10 19:55 28.12.2019
1545 Clouds 3 1028 52 10000 5.1 10 19:37 28.12.2019
1546 Clouds 3 1028 52 10000 5.1 10 19:18 28.12.2019
1547 Clouds 3 1028 52 10000 5.7 10 18:56 28.12.2019
1548 Clouds 3 1028 52 10000 5.7 10 18:38 28.12.2019
1549 Clouds 3 1028 48 10000 5.7 20 18:18 28.12.2019
1550 Clouds 4 1028 48 10000 5.1 20 17:54 28.12.2019
1551 Clouds 4 1027 48 10000 5.7 10 17:36 28.12.2019
1552 Clouds 4 1027 48 10000 5.7 10 17:18 28.12.2019
1553 Clouds 4 1027 48 10000 7.7 360 16:45 28.12.2019
1554 Clouds 4 1027 45 10000 6.2 360 16:24 28.12.2019
1555 Clouds 4 1027 52 10000 7.2 350 15:44 28.12.2019
1556 Clouds 5 1027 48 10000 6.7 360 15:24 28.12.2019
1557 Clouds 5 1027 52 10000 7.2 360 14:58 28.12.2019
1558 Clouds 5 1027 52 10000 7.2 360 14:38 28.12.2019
1559 Clouds 5 1027 48 10000 6.2 10 14:20 28.12.2019
1560 Clouds 5 1027 52 10000 7.2 10 13:43 28.12.2019
1561 Clouds 5 1026 49 10000 7.7 360 13:23 28.12.2019
1562 Clouds 6 1026 49 10000 8.7 350 12:59 28.12.2019
1563 Clouds 6 1026 49 10000 8.7 350 12:41 28.12.2019
1564 Clouds 6 1026 42 10000 8.2 350 12:23 28.12.2019
1565 Clouds 6 1026 42 10000 7.7 350 11:56 28.12.2019
1566 Clouds 6 1026 42 10000 7.7 350 11:37 28.12.2019
1567 Clouds 6 1026 42 10000 7.7 350 11:18 28.12.2019
1568 Clouds 7 1025 39 10000 6.7 350 10:43 28.12.2019
1569 Clouds 7 1025 42 10000 6.7 350 10:21 28.12.2019
1570 Clouds 7 1024 39 10000 7.7 350 09:57 28.12.2019
1571 Clouds 8 1024 39 10000 7.7 350 09:39 28.12.2019
1572 Clouds 8 1024 36 10000 6.7 360 09:19 28.12.2019
1573 Clouds 9 1024 39 10000 7.7 350 08:44 28.12.2019
1574 Clouds 9 1023 31 10000 4.6 320 08:26 28.12.2019
1575 Clouds 10 1023 43 10000 8.2 350 07:49 28.12.2019
1576 Clouds 10 1022 31 10000 4.1 330 07:27 28.12.2019
1577 Clouds 11 1021 29 10000 5.7 320 06:27 28.12.2019
1578 Clouds 10 1021 29 10000 5.1 330 04:36 28.12.2019
1579 Clouds 10 1022 31 10000 11.3 340 03:39 28.12.2019
1580 Clouds 9 1022 34 10000 10.3 340 02:48 28.12.2019
1581 Clouds 8 1022 36 10000 9.8 340 01:59 28.12.2019
1582 Clouds 7 1022 36 10000 5.1 310 01:30 28.12.2019
1583 Clouds 6 1022 33 10000 5.1 300 00:58 28.12.2019
1584 Clouds 6 1022 52 10000 5.7 320 00:38 28.12.2019
1585 Clouds 5 1021 39 10000 10.8 340 00:19 28.12.2019
1586 Clouds 5 1020 41 10000 10.3 330 23:43 27.12.2019
1587 Clouds 4 1020 45 10000 10.8 330 23:20 27.12.2019
1588 Clouds 5 1020 41 10000 10.3 330 22:58 27.12.2019
1589 Clouds 5 1020 41 10000 10.3 330 22:38 27.12.2019
1590 Clouds 5 1019 41 10000 10.3 330 22:20 27.12.2019
1591 Clouds 5 1019 41 10000 10.3 330 22:20 27.12.2019
1592 Clouds 4 1019 45 10000 9.8 330 21:56 27.12.2019
1593 Clouds 5 1018 45 10000 9.3 330 21:37 27.12.2019
1594 Clouds 5 1018 45 10000 9.3 330 21:19 27.12.2019
1595 Clouds 5 1018 45 10000 7.7 330 20:42 27.12.2019
1596 Clouds 4 1018 48 10000 7.7 330 20:23 27.12.2019
1597 Clouds 4 1018 52 10000 8.7 340 19:43 27.12.2019
1598 Clouds 3 1017 52 10000 9.3 340 19:21 27.12.2019
1599 Clear 4 1017 52 10000 8.7 350 18:59 27.12.2019
1600 Clear 4 1017 52 10000 8.7 350 18:40 27.12.2019
1601 Clear 4 1017 56 10000 9.3 10 18:21 27.12.2019
1602 Clear 3 1017 38 10000 7.2 10 17:58 27.12.2019
1603 Clear 4 1017 38 10000 6.7 360 17:40 27.12.2019
1604 Clear 3 1017 37 10000 6.7 360 17:19 27.12.2019
1605 Clear 4 1017 37 10000 6.7 350 16:59 27.12.2019
1606 Clear 4 1016 37 10000 8.2 360 16:39 27.12.2019
1607 Clear 4 1016 37 10000 8.2 360 16:20 27.12.2019
1608 Clear 4 1016 37 10000 6.7 350 15:45 27.12.2019
1609 Clear 4 1016 37 10000 5.1 350 15:23 27.12.2019
1610 Clear 5 1016 56 10000 4.6 320 14:58 27.12.2019
1611 Clear 5 1015 56 10000 7.2 350 14:40 27.12.2019
1612 Clear 5 1015 56 10000 7.2 350 14:21 27.12.2019
1613 Clouds 5 1015 35 10000 7.2 350 13:57 27.12.2019
1614 Clouds 5 1015 35 10000 7.2 350 13:39 27.12.2019
1615 Clouds 5 1014 52 10000 8.2 350 13:39 27.12.2019
1616 Clouds 5 1014 52 10000 8.2 350 13:39 27.12.2019
1617 Clouds 5 1014 52 10000 8.2 350 13:21 27.12.2019
1618 Clouds 6 1014 52 10000 7.2 350 12:44 27.12.2019
1619 Clouds 6 1014 52 10000 7.2 350 12:25 27.12.2019
1620 Clouds 7 1013 34 10000 10.3 350 11:55 27.12.2019
1621 Clouds 7 1012 49 10000 10.3 340 11:37 27.12.2019
1622 Clouds 7 1012 49 10000 10.3 340 11:18 27.12.2019
1623 Clouds 8 1011 49 10000 9.8 330 10:41 27.12.2019
1624 Clouds 8 1011 49 10000 9.8 330 10:23 27.12.2019
1625 Clouds 9 1009 49 10000 10.8 330 09:49 27.12.2019
1626 Rain 9 1008 45 10000 11.8 330 09:22 27.12.2019
1627 Rain 10 1007 46 10000 12.9 340 08:59 27.12.2019
1628 Rain 10 1007 46 10000 12.9 340 08:40 27.12.2019
1629 Rain 11 1006 40 10000 8.7 310 08:22 27.12.2019
1630 Rain 12 1005 43 10000 15.4 340 07:38 27.12.2019
1631 Rain 12 1003 40 10000 17 340 06:59 27.12.2019
1632 Rain 12 1002 40 10000 13.9 310 06:23 27.12.2019
1633 Rain 13 1000 47 10000 13.9 330 04:37 27.12.2019
1634 Rain 13 997 62 10000 4.6 310 02:28 27.12.2019
1635 Rain 11 998 66 10000 4.6 330 01:44 27.12.2019
1636 Clouds 10 996 71 10000 3.1 300 01:21 27.12.2019
1637 Clouds 9 996 76 10000 2.1 290 00:47 27.12.2019
1638 Clouds 8 996 87 10000 3.6 320 00:25 27.12.2019
1639 Clouds 8 996 87 10000 6.2 340 23:56 26.12.2019
1640 Clouds 8 995 87 10000 6.7 350 23:37 26.12.2019
1641 Clouds 8 995 87 10000 6.7 350 23:19 26.12.2019
1642 Clouds 8 996 87 10000 7.7 340 22:40 26.12.2019
1643 Rain 8 996 93 9000 9.3 340 22:18 26.12.2019
1644 Rain 8 996 93 7000 6.7 340 21:40 26.12.2019
1645 Rain 8 996 93 9000 7.2 340 21:21 26.12.2019
1646 Rain 8 997 87 9000 4.6 330 20:58 26.12.2019
1647 Rain 8 997 87 9000 4.6 330 20:39 26.12.2019
1648 Rain 8 997 87 9000 4.6 330 20:39 26.12.2019
1649 Rain 8 998 87 5000 5.1 350 20:21 26.12.2019
1650 Rain 8 999 87 10000 5.1 360 19:56 26.12.2019
1651 Rain 8 999 81 10000 4.6 10 19:38 26.12.2019
1652 Clouds 8 999 81 10000 4.6 10 19:20 26.12.2019
1653 Clouds 9 1000 81 10000 3.6 10 18:57 26.12.2019
1654 Clouds 9 1001 81 10000 3.1 20 18:37 26.12.2019
1655 Clouds 9 1001 81 10000 3.1 20 18:18 26.12.2019
1656 Clouds 9 1002 81 10000 2.1 40 17:42 26.12.2019
1657 Clouds 9 1002 76 10000 1 0 17:22 26.12.2019
1658 Clouds 9 1003 76 10000 2.1 30 16:51 26.12.2019
1659 Clouds 9 1004 71 10000 3.1 10 16:29 26.12.2019
1660 Clouds 9 1005 71 10000 3.1 360 15:59 26.12.2019
1661 Clouds 9 1005 71 10000 3.1 360 15:40 26.12.2019
1662 Clouds 9 1005 76 10000 3.1 350 15:19 26.12.2019
1663 Clouds 9 1007 71 10000 3.6 330 14:43 26.12.2019
1664 Clouds 9 1007 71 10000 3.1 320 14:24 26.12.2019
1665 Clouds 9 1007 71 10000 3.1 320 14:24 26.12.2019
1666 Clouds 9 1007 71 10000 3.1 320 14:24 26.12.2019
1667 Clouds 10 1007 71 10000 2.6 330 13:58 26.12.2019
1668 Clouds 10 1007 71 10000 2.6 330 13:40 26.12.2019
1669 Clouds 10 1008 71 10000 3.1 310 13:19 26.12.2019
1670 Clouds 10 1008 66 10000 1.5 340 12:56 26.12.2019
1671 Clouds 10 1008 71 10000 2.6 340 12:37 26.12.2019
1672 Clouds 10 1008 71 10000 2.6 340 12:18 26.12.2019
1673 Clouds 10 1009 71 10000 3.1 330 11:42 26.12.2019
1674 Clouds 10 1010 71 10000 4.1 330 11:23 26.12.2019
1675 Clouds 10 1011 66 10000 4.1 340 10:57 26.12.2019
1676 Clouds 10 1010 81 10000 4.1 30 10:39 26.12.2019
1677 Clouds 10 1010 71 10000 3.6 340 10:18 26.12.2019
1678 Clouds 10 1011 66 10000 4.1 340 09:42 26.12.2019
1679 Clouds 10 1011 66 10000 4.1 340 09:24 26.12.2019
1680 Clouds 11 1011 66 10000 4.6 350 08:42 26.12.2019
1681 Clouds 11 1011 61 8000 4.6 300 08:23 26.12.2019
1682 Clouds 11 1012 66 10000 4.6 340 07:50 26.12.2019
1683 Clouds 11 1011 62 8000 2.6 350 07:26 26.12.2019
1684 Clouds 11 1011 71 10000 5.1 350 06:48 26.12.2019
1685 Clouds 11 1011 62 10000 2.6 360 06:30 26.12.2019
1686 Clouds 11 1012 66 10000 3.6 10 05:45 26.12.2019
1687 Clouds 11 1012 62 10000 4.1 20 04:48 26.12.2019
1688 Clouds 11 1012 57 10000 3.1 20 04:29 26.12.2019
1689 Clouds 9 1014 70 10000 4.6 20 02:54 26.12.2019
1690 Clouds 8 1014 61 10000 3.6 30 02:32 26.12.2019
1691 Clouds 7 1015 75 10000 5.1 40 01:46 26.12.2019
1692 Clouds 7 1015 70 10000 2.6 30 01:27 26.12.2019
1693 Clouds 7 1014 70 10000 3.1 20 00:48 26.12.2019
1694 Clouds 6 1014 75 10000 2.1 350 00:25 26.12.2019
1695 Clouds 6 1015 70 10000 2.6 350 23:58 25.12.2019
1696 Clouds 5 1015 65 10000 0.5 0 23:38 25.12.2019
1697 Clouds 5 1015 65 10000 0.5 0 23:20 25.12.2019
1698 Clouds 5 1015 65 10000 1 0 22:58 25.12.2019
1699 Clouds 5 1015 65 10000 1.5 270 22:38 25.12.2019
1700 Clouds 5 1015 65 10000 1.5 270 22:20 25.12.2019
1701 Clouds 5 1015 41 10000 2.6 270 21:58 25.12.2019
1702 Clouds 5 1015 70 10000 3.6 270 21:39 25.12.2019
1703 Clouds 4 1015 70 10000 3.6 270 21:20 25.12.2019
1704 Clouds 4 1014 70 10000 1.5 240 20:54 25.12.2019
1705 Clouds 5 1014 70 10000 0.5 0 20:36 25.12.2019
1706 Clouds 5 1014 70 10000 0.5 0 20:36 25.12.2019
1707 Clouds 5 1014 70 10000 0.5 0 20:18 25.12.2019
1708 Clouds 5 1016 70 10000 2.1 290 19:42 25.12.2019
1709 Clouds 5 1016 70 10000 1 0 19:23 25.12.2019
1710 Clouds 5 1016 70 10000 1 0 18:58 25.12.2019
1711 Clouds 5 1017 44 10000 2.1 280 18:36 25.12.2019
1712 Clouds 5 1017 44 10000 2.1 280 18:18 25.12.2019
1713 Clouds 4 1018 44 10000 2.6 310 17:41 25.12.2019
1714 Clouds 5 1017 70 10000 3.1 320 17:19 25.12.2019
1715 Clouds 5 1017 46 10000 3.1 300 16:57 25.12.2019
1716 Clouds 5 1018 46 10000 2.6 280 16:37 25.12.2019
1717 Clouds 5 1018 46 10000 2.6 280 16:18 25.12.2019
1718 Clouds 4 1018 46 10000 3.1 290 15:57 25.12.2019
1719 Clouds 4 1018 46 10000 3.1 290 15:38 25.12.2019
1720 Clouds 4 1018 46 10000 2.6 300 15:20 25.12.2019
1721 Clouds 5 1019 46 10000 3.1 310 14:56 25.12.2019
1722 Clouds 4 1019 46 10000 3.1 310 14:37 25.12.2019
1723 Clouds 4 1019 52 10000 3.1 310 14:19 25.12.2019
1724 Clouds 4 1019 60 10000 2.1 300 13:44 25.12.2019
1725 Clouds 5 1019 56 10000 2.6 290 13:21 25.12.2019
1726 Clouds 5 1020 56 10000 2.6 280 12:56 25.12.2019
1727 Clouds 5 1021 51 10000 3.6 310 12:38 25.12.2019
1728 Clouds 5 1021 51 10000 3.6 310 12:38 25.12.2019
1729 Clouds 5 1021 51 10000 3.6 310 12:19 25.12.2019
1730 Clouds 6 1021 61 10000 3.1 360 11:43 25.12.2019
1731 Clouds 6 1021 61 10000 3.6 10 11:22 25.12.2019
1732 Clouds 6 1022 57 10000 2.6 10 10:59 25.12.2019
1733 Clouds 6 1022 57 10000 2.6 10 10:36 25.12.2019
1734 Clouds 6 1021 61 10000 2.6 350 10:18 25.12.2019
1735 Clouds 7 1022 61 10000 2.6 360 09:44 25.12.2019
1736 Clouds 8 1022 59 10000 3.1 30 09:26 25.12.2019
1737 Clouds 8 1022 61 10000 3.1 40 08:46 25.12.2019
1738 Clouds 9 1022 44 10000 2.1 40 08:26 25.12.2019
1739 Clouds 9 1023 39 10000 3.6 60 07:48 25.12.2019
1740 Clouds 9 1022 49 10000 3.1 60 07:29 25.12.2019
1741 Clouds 9 1023 39 10000 4.1 40 06:49 25.12.2019
1742 Clouds 9 1023 42 10000 3.1 20 06:22 25.12.2019
1743 Clouds 8 1024 32 10000 3.6 10 04:50 25.12.2019
1744 Clouds 8 1025 45 10000 2.6 360 04:26 25.12.2019
1745 Clouds 7 1026 45 10000 2.6 360 03:58 25.12.2019
1746 Clouds 7 1026 45 10000 2.6 360 03:40 25.12.2019
1747 Clouds 7 1027 52 10000 3.1 10 02:39 25.12.2019
1748 Rain 6 1028 45 10000 2.6 10 01:59 25.12.2019
1749 Clouds 6 1028 48 10000 1.5 10 01:25 25.12.2019
1750 Clouds 5 1027 48 10000 2.6 10 00:50 25.12.2019
1751 Clouds 5 1028 42 10000 3.1 20 00:29 25.12.2019
1752 Clouds 4 1028 45 10000 3.6 30 23:56 24.12.2019
1753 Clouds 4 1027 52 10000 3.1 10 23:37 24.12.2019
1754 Clouds 4 1027 52 10000 3.1 10 23:19 24.12.2019
1755 Clouds 4 1027 48 10000 4.1 340 22:40 24.12.2019
1756 Clouds 4 1027 52 10000 6.2 340 22:21 24.12.2019
1757 Clouds 4 1027 48 10000 6.7 350 21:43 24.12.2019
1758 Clouds 4 1027 48 10000 5.7 350 21:22 24.12.2019
1759 Clouds 4 1027 48 10000 6.2 360 20:54 24.12.2019
1760 Clouds 4 1027 48 10000 5.1 360 20:36 24.12.2019
1761 Clouds 4 1027 48 10000 5.1 360 20:18 24.12.2019
1762 Clouds 4 1027 48 10000 5.1 360 20:18 24.12.2019
1763 Clouds 4 1026 48 10000 5.7 20 19:43 24.12.2019
1764 Clouds 4 1026 48 10000 5.7 20 19:19 24.12.2019
1765 Clouds 4 1027 52 10000 5.7 360 18:43 24.12.2019
1766 Clouds 4 1027 48 10000 6.2 10 18:24 24.12.2019
1767 Clouds 4 1026 56 10000 5.1 30 17:58 24.12.2019
1768 Clouds 4 1026 56 10000 5.1 30 17:38 24.12.2019
1769 Clouds 4 1026 52 10000 5.7 30 17:20 24.12.2019
1770 Clouds 4 1026 48 10000 5.7 30 16:55 24.12.2019
1771 Clouds 4 1026 45 10000 5.7 10 16:37 24.12.2019
1772 Clouds 4 1026 45 10000 5.7 10 16:19 24.12.2019
1773 Clouds 5 1026 45 10000 7.2 350 15:54 24.12.2019
1774 Clouds 5 1026 45 10000 9.3 350 15:36 24.12.2019
1775 Clouds 5 1026 45 10000 9.3 350 15:18 24.12.2019
1776 Clouds 5 1026 45 10000 7.7 350 14:55 24.12.2019
1777 Clouds 5 1026 49 10000 7.2 350 14:36 24.12.2019
1778 Clouds 5 1026 49 10000 7.2 350 14:18 24.12.2019
1779 Clouds 5 1026 52 10000 7.7 350 13:55 24.12.2019
1780 Clouds 5 1026 49 10000 8.2 350 13:37 24.12.2019
1781 Clouds 5 1026 49 10000 8.2 350 13:18 24.12.2019
1782 Clouds 6 1026 45 10000 8.7 350 12:55 24.12.2019
1783 Clouds 6 1025 42 10000 6.7 330 12:36 24.12.2019
1784 Clouds 6 1025 42 10000 6.7 330 12:18 24.12.2019
1785 Clouds 7 1025 45 10000 8.7 340 11:54 24.12.2019
1786 Clouds 7 1025 49 10000 7.7 350 11:36 24.12.2019
1787 Clouds 7 1025 45 10000 8.7 340 11:36 24.12.2019
1788 Clouds 7 1025 49 10000 7.7 350 11:18 24.12.2019
1789 Clouds 7 1024 42 10000 8.7 350 10:55 24.12.2019
1790 Clouds 8 1024 49 10000 9.8 350 10:36 24.12.2019
1791 Clouds 8 1024 49 10000 9.8 350 10:18 24.12.2019
1792 Clouds 8 1024 46 10000 8.7 350 09:54 24.12.2019
1793 Clouds 9 1023 39 10000 7.7 350 09:36 24.12.2019
1794 Clouds 9 1023 39 10000 7.7 350 09:18 24.12.2019
1795 Clouds 10 1023 43 10000 7.7 360 08:42 24.12.2019
1796 Clouds 10 1022 37 10000 5.1 330 08:19 24.12.2019
1797 Clouds 11 1022 33 10000 7.2 340 07:45 24.12.2019
1798 Clouds 12 1022 34 10000 5.7 310 07:23 24.12.2019
1799 Clouds 12 1022 40 10000 7.7 350 06:44 24.12.2019
1800 Clouds 12 1021 37 10000 4.6 320 06:22 24.12.2019
1801 Clouds 12 1021 46 10000 6.2 10 05:57 24.12.2019
1802 Clouds 12 1020 37 10000 4.6 330 05:20 24.12.2019
1803 Clouds 12 1020 34 10000 3.6 330 04:36 24.12.2019
1804 Clouds 12 1021 35 10000 6.7 10 03:50 24.12.2019
1805 Clouds 12 1022 35 10000 6.7 350 02:59 24.12.2019
1806 Clouds 10 1021 40 10000 5.7 310 02:21 24.12.2019
1807 Clouds 10 1021 43 10000 7.2 340 01:50 24.12.2019
1808 Clouds 9 1021 40 10000 1 0 01:20 24.12.2019
1809 Clouds 8 1020 40 10000 2.1 30 00:43 24.12.2019
1810 Clouds 7 1020 40 10000 5.7 20 00:23 24.12.2019
1811 Clouds 7 1020 40 10000 5.7 10 23:56 23.12.2019
1812 Clouds 6 1019 57 10000 5.1 10 23:37 23.12.2019
1813 Clouds 5 1019 57 10000 5.1 10 23:19 23.12.2019
1814 Clouds 5 1019 61 10000 5.7 10 22:56 23.12.2019
1815 Clouds 5 1018 61 10000 6.2 10 22:36 23.12.2019
1816 Clouds 5 1018 61 10000 6.2 10 22:18 23.12.2019
1817 Clouds 6 1018 66 10000 7.2 10 21:55 23.12.2019
1818 Clouds 6 1017 70 10000 7.7 350 21:36 23.12.2019
1819 Clouds 6 1017 70 10000 7.7 350 21:18 23.12.2019
1820 Clouds 5 1016 66 10000 11.8 340 20:56 23.12.2019
1821 Clouds 5 1016 66 10000 11.8 340 20:38 23.12.2019
1822 Clouds 5 1016 61 10000 10.3 330 20:18 23.12.2019
1823 Clouds 5 1015 61 10000 9.8 330 19:55 23.12.2019
1824 Clouds 5 1015 61 10000 9.8 330 19:37 23.12.2019
1825 Clouds 5 1015 76 10000 4.1 330 19:19 23.12.2019
1826 Clouds 5 1015 76 10000 6.7 350 18:57 23.12.2019
1827 Clouds 5 1015 81 10000 5.7 330 18:38 23.12.2019
1828 Clouds 5 1015 81 10000 5.7 330 18:20 23.12.2019
1829 Clouds 5 1015 87 10000 4.1 310 17:56 23.12.2019
1830 Clouds 5 1015 87 10000 4.1 310 17:37 23.12.2019
1831 Clouds 5 1015 87 10000 4.1 310 17:19 23.12.2019
1832 Clouds 5 1015 87 10000 4.1 300 16:54 23.12.2019
1833 Clouds 5 1015 87 10000 2.1 290 16:36 23.12.2019
1834 Clouds 5 1015 87 10000 2.1 290 16:18 23.12.2019
1835 Clouds 5 1015 81 10000 1.5 310 15:55 23.12.2019
1836 Clouds 5 1015 81 10000 1.5 230 15:36 23.12.2019
1837 Clouds 5 1015 81 10000 1.5 230 15:18 23.12.2019
1838 Clouds 6 1015 71 10000 3.6 170 14:42 23.12.2019
1839 Clouds 6 1015 81 10000 4.1 160 14:24 23.12.2019
1840 Clouds 6 1015 76 10000 1.5 140 13:59 23.12.2019
1841 Clouds 6 1015 76 10000 1.5 140 13:59 23.12.2019
1842 Clouds 6 1015 76 10000 1.5 140 13:40 23.12.2019
1843 Clouds 6 1015 81 10000 2.6 140 13:22 23.12.2019
1844 Clouds 6 1015 81 10000 2.6 140 13:22 23.12.2019
1845 Clouds 7 1016 76 10000 3.1 140 12:58 23.12.2019
1846 Clouds 7 1016 76 10000 3.1 140 12:58 23.12.2019
1847 Clouds 7 1015 76 10000 3.1 150 12:39 23.12.2019
1848 Clouds 6 1015 76 10000 3.1 150 12:20 23.12.2019
1849 Clouds 7 1016 76 10000 2.6 190 11:55 23.12.2019
1850 Clouds 7 1016 76 10000 2.6 190 11:37 23.12.2019
1851 Clouds 7 1016 76 10000 2.6 190 11:18 23.12.2019
1852 Clouds 7 1016 71 10000 3.1 180 10:54 23.12.2019
1853 Clouds 8 1015 70 10000 2.6 150 10:36 23.12.2019
1854 Clouds 8 1015 70 10000 2.6 150 10:18 23.12.2019
1855 Clouds 8 1016 66 10000 2.6 170 09:40 23.12.2019
1856 Clouds 9 1015 70 10000 3.1 150 09:22 23.12.2019
1857 Clouds 10 1015 70 10000 2.1 170 08:58 23.12.2019
1858 Clouds 10 1015 70 10000 2.1 170 08:40 23.12.2019
1859 Clouds 11 1014 62 10000 1.5 160 08:22 23.12.2019
1860 Clouds 11 1015 71 10000 1.5 110 07:48 23.12.2019
1861 Clouds 11 1014 57 10000 2.1 150 07:21 23.12.2019
1862 Clouds 12 1014 71 10000 1.5 100 06:57 23.12.2019
1863 Clouds 11 1014 66 10000 2.1 140 06:27 23.12.2019
1864 Clouds 11 1014 71 10000 2.6 150 05:56 23.12.2019
1865 Clouds 11 1014 71 10000 2.6 140 05:30 23.12.2019
1866 Clouds 10 1014 62 10000 1.5 20 04:39 23.12.2019
1867 Clouds 9 1015 70 10000 2.1 320 03:36 23.12.2019
1868 Clouds 8 1015 81 10000 3.1 300 02:43 23.12.2019
1869 Clouds 7 1015 75 10000 4.1 310 02:19 23.12.2019
1870 Clouds 7 1016 81 10000 3.6 320 01:45 23.12.2019
1871 Clouds 6 1015 81 10000 3.1 330 01:27 23.12.2019
1872 Clouds 5 1015 81 10000 2.6 340 00:45 23.12.2019
1873 Clouds 5 1014 93 10000 5.7 330 00:24 23.12.2019
1874 Clouds 5 1014 93 10000 5.7 330 00:24 23.12.2019
1875 Clouds 5 1015 93 10000 6.2 330 23:56 22.12.2019
1876 Clouds 4 1014 93 10000 6.2 320 23:37 22.12.2019
1877 Clouds 4 1014 93 10000 6.2 320 23:18 22.12.2019
1878 Rain 4 1014 93 10000 5.7 320 22:41 22.12.2019
1879 Rain 4 1013 93 10000 5.1 320 22:22 22.12.2019
1880 Rain 4 1013 93 10000 6.2 320 21:59 22.12.2019
1881 Rain 4 1013 93 10000 6.2 320 21:40 22.12.2019
1882 Rain 4 1013 93 10000 7.7 330 21:21 22.12.2019
1883 Rain 4 1013 93 10000 7.7 330 21:21 22.12.2019
1884 Rain 4 1013 93 10000 7.2 340 20:59 22.12.2019
1885 Rain 4 1013 93 10000 7.2 340 20:39 22.12.2019
1886 Rain 4 1012 93 10000 8.7 340 20:19 22.12.2019
1887 Rain 4 1013 93 10000 9.3 350 19:57 22.12.2019
1888 Rain 4 1013 93 10000 9.3 350 19:39 22.12.2019
1889 Rain 4 1012 93 10000 9.3 360 19:20 22.12.2019
1890 Rain 4 1012 93 8000 8.2 360 18:43 22.12.2019
1891 Rain 4 1013 93 10000 8.2 360 18:25 22.12.2019
1892 Rain 4 1012 87 8000 10.8 360 17:57 22.12.2019
1893 Rain 5 1011 87 6000 10.8 350 17:39 22.12.2019
1894 Rain 5 1011 87 6000 10.8 350 17:19 22.12.2019
1895 Rain 5 1011 87 6000 10.8 350 17:19 22.12.2019
1896 Rain 5 1011 93 6000 10.3 360 16:59 22.12.2019
1897 Rain 5 1011 93 6000 10.3 360 16:41 22.12.2019
1898 Rain 5 1011 93 7000 9.3 10 16:22 22.12.2019
1899 Rain 5 1012 93 6000 9.8 10 15:57 22.12.2019
1900 Rain 6 1013 93 7000 9.3 10 15:39 22.12.2019
1901 Rain 6 1013 93 7000 9.3 10 15:20 22.12.2019
1902 Rain 6 1014 93 7000 8.2 10 14:56 22.12.2019
1903 Rain 6 1014 93 7000 8.2 10 14:38 22.12.2019
1904 Rain 6 1014 87 8000 9.3 10 14:19 22.12.2019
1905 Rain 6 1014 87 8000 9.3 10 14:19 22.12.2019
1906 Rain 6 1014 87 10000 8.7 20 13:55 22.12.2019
1907 Rain 6 1015 87 10000 9.3 10 13:37 22.12.2019
1908 Rain 6 1015 87 10000 9.3 10 13:19 22.12.2019
1909 Rain 6 1015 87 10000 9.3 10 13:19 22.12.2019
1910 Rain 6 1015 87 10000 9.3 10 13:19 22.12.2019
1911 Rain 7 1015 87 8000 8.2 10 12:56 22.12.2019
1912 Rain 7 1016 93 8000 8.7 10 12:38 22.12.2019
1913 Rain 7 1016 93 8000 8.7 10 12:19 22.12.2019
1914 Rain 7 1016 93 8000 8.2 360 11:56 22.12.2019
1915 Rain 7 1016 93 8000 8.2 360 11:38 22.12.2019
1916 Rain 7 1015 93 7000 7.7 10 11:19 22.12.2019
1917 Rain 7 1016 93 5000 7.7 360 10:56 22.12.2019
1918 Rain 7 1017 93 6000 6.7 360 10:38 22.12.2019
1919 Rain 7 1017 93 6000 6.7 360 10:19 22.12.2019
1920 Rain 8 1016 87 6000 8.2 10 09:57 22.12.2019
1921 Rain 8 1016 87 6000 8.2 10 09:39 22.12.2019
1922 Rain 8 1016 87 7000 7.2 10 09:20 22.12.2019
1923 Rain 8 1017 81 7000 7.7 360 08:42 22.12.2019
1924 Rain 8 1017 76 8000 4.1 350 08:22 22.12.2019
1925 Rain 9 1017 81 10000 6.7 360 07:44 22.12.2019
1926 Rain 9 1017 70 10000 3.1 350 07:21 22.12.2019
1927 Rain 9 1018 76 10000 7.2 360 06:53 22.12.2019
1928 Rain 9 1018 70 10000 3.6 360 06:26 22.12.2019
1929 Rain 9 1018 70 10000 3.1 350 05:33 22.12.2019
1930 Clouds 9 1019 76 10000 6.2 360 04:46 22.12.2019
1931 Clouds 9 1019 70 10000 3.1 350 04:25 22.12.2019
1932 Clouds 8 1021 76 10000 5.1 10 02:46 22.12.2019
1933 Clouds 7 1022 75 7000 2.6 20 02:21 22.12.2019
1934 Clouds 6 1021 81 7000 1.5 0 01:31 22.12.2019
1935 Clouds 6 1021 87 8000 2.6 10 00:56 22.12.2019
1936 Clouds 6 1021 87 10000 5.7 30 00:36 22.12.2019
1937 Clouds 6 1021 87 10000 5.7 30 00:18 22.12.2019
1938 Clouds 6 1022 81 10000 5.7 30 23:41 21.12.2019
1939 Clouds 6 1021 81 10000 5.1 30 23:21 21.12.2019
1940 Clouds 5 1021 87 10000 1.5 320 22:57 21.12.2019
1941 Clouds 5 1021 87 10000 1.5 320 22:37 21.12.2019
1942 Clouds 6 1021 87 10000 3.1 280 22:18 21.12.2019
1943 Clouds 6 1020 81 10000 3.1 350 21:55 21.12.2019
1944 Clouds 6 1020 81 10000 3.1 350 21:36 21.12.2019
1945 Clouds 6 1020 81 10000 2.1 20 21:18 21.12.2019
1946 Clouds 6 1020 81 10000 1.5 360 20:57 21.12.2019
1947 Clouds 6 1020 100 10000 2.6 330 20:37 21.12.2019
1948 Clouds 6 1020 81 10000 1.5 360 20:19 21.12.2019
1949 Clouds 6 1021 81 10000 2.1 320 19:55 21.12.2019
1950 Clouds 6 1021 81 10000 1 0 19:36 21.12.2019
1951 Clouds 6 1021 81 10000 1 0 19:18 21.12.2019
1952 Clouds 6 1021 81 10000 2.6 310 18:41 21.12.2019
1953 Clouds 6 1021 87 10000 2.6 310 18:23 21.12.2019
1954 Clouds 6 1022 81 10000 2.6 340 17:56 21.12.2019
1955 Clouds 6 1021 81 10000 2.1 340 17:38 21.12.2019
1956 Clouds 6 1021 81 10000 2.1 340 17:20 21.12.2019
1957 Clouds 7 1022 81 10000 3.6 10 16:57 21.12.2019
1958 Clouds 6 1022 81 10000 3.6 10 16:39 21.12.2019
1959 Clouds 7 1021 76 10000 3.6 10 16:18 21.12.2019
1960 Clouds 7 1021 81 10000 3.1 10 15:56 21.12.2019
1961 Clouds 7 1021 81 10000 3.1 10 15:37 21.12.2019
1962 Clouds 7 1022 81 10000 3.1 330 15:18 21.12.2019
1963 Clouds 8 1022 76 10000 3.6 350 14:43 21.12.2019
1964 Clouds 8 1022 81 10000 4.6 350 14:24 21.12.2019
1965 Clouds 8 1023 76 10000 4.1 360 13:59 21.12.2019
1966 Clouds 8 1023 76 10000 4.1 360 13:40 21.12.2019
1967 Clouds 8 1023 76 10000 3.1 340 13:20 21.12.2019
1968 Clouds 8 1023 76 10000 3.1 340 13:20 21.12.2019
1969 Clouds 8 1023 81 10000 3.1 360 12:57 21.12.2019
1970 Clouds 8 1023 81 10000 3.6 360 12:39 21.12.2019
1971 Clouds 8 1023 81 10000 3.6 360 12:21 21.12.2019
1972 Clouds 8 1023 81 10000 4.1 10 11:57 21.12.2019
1973 Clouds 8 1023 81 10000 4.1 10 11:39 21.12.2019
1974 Clouds 8 1022 81 10000 4.1 10 11:21 21.12.2019
1975 Clouds 8 1023 81 10000 3.1 30 10:41 21.12.2019
1976 Clouds 8 1023 81 10000 3.6 10 10:23 21.12.2019
1977 Clouds 8 1023 81 10000 3.1 20 09:59 21.12.2019
1978 Clouds 9 1023 81 10000 3.1 20 09:41 21.12.2019
1979 Clouds 8 1022 81 10000 3.6 30 09:20 21.12.2019
1980 Clouds 8 1022 81 10000 3.6 40 08:55 21.12.2019
1981 Clouds 9 1022 76 10000 2.1 10 08:36 21.12.2019
1982 Clouds 9 1022 76 10000 2.1 10 08:18 21.12.2019
1983 Clouds 9 1022 81 10000 4.1 30 07:41 21.12.2019
1984 Clouds 9 1022 76 10000 3.1 30 07:21 21.12.2019
1985 Clouds 9 1021 76 10000 4.1 40 06:42 21.12.2019
1986 Clouds 9 1022 76 10000 2.6 20 06:24 21.12.2019
1987 Clouds 9 1022 76 10000 4.6 20 05:45 21.12.2019
1988 Clouds 9 1023 76 10000 5.7 20 04:57 21.12.2019
1989 Clouds 9 1024 70 10000 5.7 10 03:56 21.12.2019
1990 Clouds 8 1025 70 10000 6.2 360 02:40 21.12.2019
1991 Clouds 8 1025 76 10000 6.7 360 01:55 21.12.2019
1992 Clouds 8 1025 65 10000 2.6 360 01:27 21.12.2019
1993 Clouds 8 1025 65 10000 2.1 350 00:51 21.12.2019
1994 Rain 8 1025 76 10000 4.6 360 00:31 21.12.2019
1995 Rain 8 1025 76 10000 5.7 360 23:57 20.12.2019
1996 Rain 8 1025 76 10000 5.7 360 23:37 20.12.2019
1997 Rain 8 1024 75 10000 3.6 40 23:18 20.12.2019
1998 Clouds 8 1025 70 10000 6.2 360 22:40 20.12.2019
1999 Clouds 8 1025 70 10000 6.2 360 22:21 20.12.2019
2000 Clouds 8 1024 70 10000 6.7 10 21:58 20.12.2019
2001 Clouds 8 1023 76 10000 6.7 10 21:39 20.12.2019
2002 Clouds 8 1023 76 10000 6.7 10 21:20 20.12.2019
2003 Clouds 8 1023 66 10000 5.7 10 20:41 20.12.2019
2004 Clouds 9 1023 66 10000 5.7 10 20:20 20.12.2019
2005 Clouds 9 1024 66 10000 6.2 20 19:59 20.12.2019
2006 Clouds 9 1024 66 10000 5.1 10 19:40 20.12.2019
2007 Clouds 9 1024 66 10000 5.1 10 19:19 20.12.2019
2008 Clouds 9 1025 66 10000 5.7 10 18:54 20.12.2019
2009 Clouds 9 1024 66 10000 5.1 10 18:36 20.12.2019
2010 Clouds 9 1024 66 10000 5.1 10 18:18 20.12.2019
2011 Clouds 9 1023 66 10000 5.1 20 17:42 20.12.2019
2012 Clouds 9 1023 66 10000 5.1 20 17:42 20.12.2019
2013 Clouds 9 1023 66 10000 5.1 20 17:21 20.12.2019
2014 Clouds 9 1023 66 10000 5.7 10 16:59 20.12.2019
2015 Clouds 10 1023 66 10000 5.7 10 16:40 20.12.2019
2016 Clouds 9 1023 66 10000 5.1 30 16:20 20.12.2019
2017 Clouds 10 1023 66 10000 5.7 10 16:20 20.12.2019
2018 Clouds 9 1023 66 10000 5.1 30 15:57 20.12.2019
2019 Clouds 9 1023 62 10000 5.1 30 15:39 20.12.2019
2020 Clouds 9 1023 62 10000 5.1 30 15:19 20.12.2019
2021 Clouds 10 1024 66 10000 6.7 40 14:58 20.12.2019
2022 Clouds 10 1023 71 10000 8.7 70 14:39 20.12.2019
2023 Clouds 10 1023 71 10000 8.7 70 14:21 20.12.2019
2024 Clouds 10 1022 71 10000 9.3 70 13:42 20.12.2019
2025 Clouds 11 1022 71 10000 9.3 70 13:21 20.12.2019
2026 Clouds 11 1023 71 10000 8.2 70 12:59 20.12.2019
2027 Clouds 11 1022 71 10000 8.2 70 12:41 20.12.2019
2028 Clouds 11 1022 71 10000 8.2 70 12:19 20.12.2019
2029 Clouds 11 1022 76 10000 8.2 60 11:59 20.12.2019
2030 Clouds 11 1021 66 10000 7.7 80 11:40 20.12.2019
2031 Clouds 11 1021 66 10000 7.2 70 11:21 20.12.2019
2032 Clouds 11 1021 66 10000 7.2 70 10:59 20.12.2019
2033 Clouds 12 1020 50 10000 3.1 30 10:41 20.12.2019
2034 Clouds 12 1020 50 10000 3.1 30 10:20 20.12.2019
2035 Clouds 12 1019 66 10000 1 40 09:56 20.12.2019
2036 Clouds 12 1018 62 10000 0.5 70 09:38 20.12.2019
2037 Clouds 13 1018 54 10000 1 120 09:19 20.12.2019
2038 Clouds 13 1017 58 10000 2.1 140 08:43 20.12.2019
2039 Clouds 14 1017 58 10000 2.1 140 08:25 20.12.2019
2040 Clouds 14 1017 58 10000 3.1 140 07:59 20.12.2019
2041 Clouds 15 1017 58 10000 2.6 160 07:41 20.12.2019
2042 Clouds 15 1017 58 10000 2.6 160 07:20 20.12.2019
2043 Clouds 15 1017 54 10000 3.1 170 06:52 20.12.2019
2044 Clouds 15 1016 54 10000 2.6 170 06:33 20.12.2019
2045 Clouds 15 1016 58 10000 2.1 130 05:56 20.12.2019
2046 Clouds 15 1015 41 10000 3.1 50 05:37 20.12.2019
2047 Clear 15 1015 41 10000 2.6 10 04:33 20.12.2019
2048 Clear 14 1016 50 10000 1 0 03:30 20.12.2019
2049 Clouds 13 1017 58 10000 2.1 30 02:44 20.12.2019
2050 Clouds 11 1017 66 10000 2.1 10 01:54 20.12.2019
2051 Clouds 10 1016 66 10000 0.5 0 01:33 20.12.2019
2052 Clouds 9 1016 71 10000 1.5 300 00:49 20.12.2019
2053 Clouds 8 1016 76 10000 3.6 320 00:30 20.12.2019
2054 Clouds 7 1015 81 10000 2.6 310 23:56 19.12.2019
2055 Clouds 7 1015 76 10000 2.1 320 23:38 19.12.2019
2056 Clouds 7 1015 76 10000 2.1 320 23:18 19.12.2019
2057 Mist 7 1016 100 3219 1.5 200 22:38 19.12.2019
2058 Mist 7 1016 100 3219 1.5 200 22:20 19.12.2019
2059 Clouds 7 1015 87 8000 3.6 350 21:56 19.12.2019
2060 Clouds 7 1014 93 7000 3.6 350 21:37 19.12.2019
2061 Clouds 7 1014 93 7000 3.6 350 21:19 19.12.2019
2062 Clouds 7 1014 87 6000 4.1 330 20:56 19.12.2019
2063 Mist 8 1016 100 6437 3.86 0 20:37 19.12.2019
2064 Mist 8 1016 100 6437 3.66 352 20:18 19.12.2019
2065 Mist 7 1017 100 6437 1.5 340 19:57 19.12.2019
2066 Mist 7 1015 100 4023 3.66 352 19:39 19.12.2019
2067 Mist 7 1015 100 4023 3.66 352 19:19 19.12.2019
2068 Mist 8 1016 100 2816 2.1 50 18:55 19.12.2019
2069 Mist 8 1017 100 4023 2.6 30 18:37 19.12.2019
2070 Mist 8 1017 100 4023 2.6 30 18:18 19.12.2019
2071 Mist 8 1017 100 1810 2.6 50 17:54 19.12.2019
2072 Mist 8 1017 100 3219 2.1 40 17:36 19.12.2019
2073 Clouds 8 1017 87 10000 2.6 330 17:18 19.12.2019
2074 Mist 8 1018 100 3621 1.08 348 16:54 19.12.2019
2075 Mist 8 1018 100 3621 1.08 348 16:36 19.12.2019
2076 Clouds 8 1016 81 10000 3.6 360 16:18 19.12.2019
2077 Clouds 8 1016 81 10000 3.6 360 15:54 19.12.2019
2078 Rain 8 1019 93 4426 2.1 30 15:36 19.12.2019
2079 Rain 8 1019 93 4426 2.1 30 15:18 19.12.2019
2080 Mist 8 1019 100 8047 2.1 20 14:42 19.12.2019
2081 Mist 8 1019 100 8047 2.1 20 14:20 19.12.2019
2082 Clouds 8 1017 87 10000 3.6 360 13:58 19.12.2019
2083 Mist 8 1019 93 9656 2.1 20 13:38 19.12.2019
2084 Mist 8 1019 93 9656 2.1 20 13:19 19.12.2019
2085 Mist 8 1019 93 9656 2.1 20 13:19 19.12.2019
2086 Clouds 8 1018 87 10000 4.1 30 12:57 19.12.2019
2087 Mist 8 1020 100 6437 2.1 10 12:38 19.12.2019
2088 Mist 9 1020 100 6437 2.1 10 12:19 19.12.2019
2089 Mist 9 1020 100 6437 2.1 10 12:19 19.12.2019
2090 Rain 9 1019 93 10000 4.1 10 12:19 19.12.2019
2091 Rain 9 1019 93 10000 4.1 10 11:58 19.12.2019
2092 Rain 9 1020 100 4828 2.6 20 11:40 19.12.2019
2093 Rain 9 1021 100 6437 1.5 20 11:18 19.12.2019
2094 Rain 9 1021 100 6437 1.5 20 10:56 19.12.2019
2095 Rain 9 1021 100 8047 2.6 10 10:38 19.12.2019
2096 Rain 9 1021 87 9656 2.1 10 10:19 19.12.2019
2097 Rain 9 1018 87 8000 5.7 50 09:54 19.12.2019
2098 Rain 9 1018 87 8000 5.7 50 09:36 19.12.2019
2099 Rain 9 1018 87 7000 5.1 50 09:18 19.12.2019
2100 Rain 9 1018 87 7000 2.1 40 08:41 19.12.2019
2101 Rain 9 1018 87 7000 2.1 40 08:19 19.12.2019
2102 Clouds 9 1020 70 16093 2.1 30 07:59 19.12.2019
2103 Rain 9 1018 87 7000 2.6 20 07:38 19.12.2019
2104 Rain 9 1018 93 10000 4.6 20 07:20 19.12.2019
2105 Rain 9 1018 93 10000 4.6 20 06:50 19.12.2019
2106 Rain 9 1018 81 8000 2.6 20 06:32 19.12.2019
2107 Rain 9 1019 87 10000 5.1 30 05:57 19.12.2019
2108 Rain 9 1018 81 10000 3.6 30 05:39 19.12.2019
2109 Rain 9 1019 81 10000 6.2 40 04:56 19.12.2019
2110 Rain 10 1020 66 10000 2.6 10 03:46 19.12.2019
2111 Rain 10 1020 66 10000 4.1 20 02:25 19.12.2019
2112 Clouds 10 1020 61 10000 2.1 10 01:24 19.12.2019
2113 Clouds 10 1019 57 10000 5.1 10 00:44 19.12.2019
2114 Clouds 9 1019 57 10000 5.1 10 00:25 19.12.2019
2115 Clouds 9 1019 57 10000 5.1 360 23:59 18.12.2019
2116 Clouds 9 1019 53 10000 4.6 350 23:41 18.12.2019
2117 Clouds 9 1019 53 10000 5.7 350 23:19 18.12.2019
2118 Clouds 9 1019 53 10000 5.7 350 22:56 18.12.2019
2119 Clouds 9 1019 53 10000 6.2 360 22:38 18.12.2019
2120 Clouds 9 1019 53 10000 6.2 360 22:20 18.12.2019
2121 Clouds 10 1018 53 10000 5.1 360 21:58 18.12.2019
2122 Clouds 10 1018 53 10000 6.2 350 21:39 18.12.2019
2123 Clouds 10 1018 53 10000 6.2 360 21:20 18.12.2019
2124 Clouds 10 1018 53 10000 6.2 360 20:56 18.12.2019
2125 Clouds 10 1018 57 10000 5.7 20 20:38 18.12.2019
2126 Clouds 10 1018 57 10000 5.7 20 20:19 18.12.2019
2127 Clouds 10 1018 57 10000 4.6 10 19:56 18.12.2019
2128 Clouds 10 1018 57 10000 4.6 20 19:37 18.12.2019
2129 Clouds 10 1018 57 10000 4.6 20 19:18 18.12.2019
2130 Clouds 10 1017 57 10000 4.6 20 18:45 18.12.2019
2131 Clouds 10 1017 57 10000 4.6 20 18:25 18.12.2019
2132 Clouds 10 1017 54 10000 5.1 30 17:58 18.12.2019
2133 Clouds 10 1017 54 10000 5.1 30 17:40 18.12.2019
2134 Clouds 10 1017 54 10000 5.1 30 17:20 18.12.2019
2135 Clouds 10 1017 66 10000 5.1 40 16:58 18.12.2019
2136 Clouds 10 1017 66 10000 5.1 40 16:40 18.12.2019
2137 Clouds 10 1016 66 10000 4.6 40 16:22 18.12.2019
2138 Clouds 11 1017 62 10000 4.6 40 15:57 18.12.2019
2139 Clouds 10 1017 62 10000 4.6 40 15:38 18.12.2019
2140 Clouds 11 1016 62 10000 4.1 40 15:20 18.12.2019
2141 Rain 11 1017 66 10000 3.1 60 14:43 18.12.2019
2142 Rain 11 1016 66 10000 4.1 50 14:22 18.12.2019
2143 Rain 11 1016 66 10000 3.6 50 13:58 18.12.2019
2144 Rain 11 1016 66 10000 3.6 50 13:39 18.12.2019
2145 Rain 11 1017 66 10000 4.6 30 13:21 18.12.2019
2146 Rain 12 1016 66 10000 4.6 20 12:59 18.12.2019
2147 Rain 12 1016 66 10000 4.6 20 12:40 18.12.2019
2148 Rain 12 1016 66 10000 4.6 20 12:40 18.12.2019
2149 Rain 12 1015 66 10000 6.2 30 12:21 18.12.2019
2150 Rain 12 1015 62 10000 4.6 10 11:57 18.12.2019
2151 Rain 13 1014 67 10000 3.1 30 11:39 18.12.2019
2152 Rain 13 1014 67 10000 3.1 30 11:20 18.12.2019
2153 Clouds 13 1014 77 10000 4.6 50 10:58 18.12.2019
2154 Clouds 13 1014 77 10000 4.6 50 10:39 18.12.2019
2155 Clouds 14 1013 58 10000 3.6 30 10:20 18.12.2019
2156 Clouds 14 1012 63 10000 4.1 360 09:57 18.12.2019
2157 Clouds 15 1012 72 10000 3.6 30 09:20 18.12.2019
2158 Clouds 15 1011 67 10000 4.1 50 08:43 18.12.2019
2159 Clouds 16 1011 67 10000 2.1 10 08:25 18.12.2019
2160 Clouds 16 1011 67 10000 6.2 360 07:57 18.12.2019
2161 Clouds 17 1009 63 10000 3.1 360 07:39 18.12.2019
2162 Clouds 17 1009 63 10000 3.1 360 07:20 18.12.2019
2163 Clouds 17 1009 63 10000 6.7 360 06:52 18.12.2019
2164 Clouds 16 1008 59 10000 3.1 340 06:25 18.12.2019
2165 Clouds 16 1008 62 10000 3.6 310 05:36 18.12.2019
2166 Clouds 15 1008 62 8000 2.1 310 04:33 18.12.2019
2167 Clouds 13 1010 76 9000 3.1 10 02:48 18.12.2019
2168 Clouds 12 1009 76 8000 3.6 330 02:29 18.12.2019
2169 Clouds 10 1009 81 8000 3.6 10 01:46 18.12.2019
2170 Mist 10 1009 87 7000 1 0 01:27 18.12.2019
2171 Mist 9 1009 93 7000 2.6 40 00:55 18.12.2019
2172 Clouds 8 1009 93 9000 1 0 00:37 18.12.2019
2173 Clouds 8 1009 93 9000 1 0 00:19 18.12.2019
2174 Clouds 7 1009 93 9000 0.5 0 23:43 17.12.2019
2175 Clouds 7 1009 93 9000 0.5 0 23:43 17.12.2019
2176 Clouds 7 1008 100 9000 0.5 0 23:24 17.12.2019
2177 Clouds 7 1008 100 9000 0.5 0 23:24 17.12.2019
2178 Clouds 6 1009 93 7000 1.5 270 22:57 17.12.2019
2179 Clouds 6 1009 93 7000 1.5 270 22:39 17.12.2019
2180 Clouds 7 1009 93 8000 1.5 280 22:20 17.12.2019
2181 Clouds 7 1009 93 8000 2.1 300 21:57 17.12.2019
2182 Fog 7 1008 100 200 1.5 330 21:39 17.12.2019
2183 Clouds 7 1009 93 7000 1.5 340 21:20 17.12.2019
2184 Clouds 7 1009 93 7000 2.1 30 20:59 17.12.2019
2185 Fog 7 1008 100 200 0.5 0 20:40 17.12.2019
2186 Clouds 8 1008 93 7000 2.1 20 20:19 17.12.2019
2187 Clouds 8 1008 87 6000 3.6 30 19:59 17.12.2019
2188 Clouds 8 1008 87 6000 3.6 30 19:41 17.12.2019
2189 Clouds 8 1009 93 6000 2.1 60 19:20 17.12.2019
2190 Clouds 8 1009 93 6000 3.1 20 18:58 17.12.2019
2191 Fog 8 1010 100 300 0.5 0 18:39 17.12.2019
2192 Fog 8 1010 100 300 0.5 0 18:21 17.12.2019
2193 Clouds 8 1010 93 6000 3.1 10 17:55 17.12.2019
2194 Clouds 8 1010 93 6000 2.6 340 17:37 17.12.2019
2195 Clouds 8 1010 93 6000 2.6 340 17:18 17.12.2019
2196 Clouds 8 1010 93 6000 0.5 0 16:55 17.12.2019
2197 Fog 8 1010 100 200 0.5 0 16:37 17.12.2019
2198 Clouds 8 1010 93 7000 1 10 16:18 17.12.2019
2199 Clouds 9 1011 93 7000 0.5 0 15:54 17.12.2019
2200 Rain 9 1011 93 7000 0.5 110 15:36 17.12.2019
2201 Rain 9 1011 93 7000 0.5 110 15:18 17.12.2019
2202 Clouds 9 1012 93 7000 0.5 40 14:54 17.12.2019
2203 Clouds 9 1012 87 8000 1.39 354 14:36 17.12.2019
2204 Clouds 9 1012 87 8000 1.12 348 14:18 17.12.2019
2205 Clouds 9 1012 87 8000 0.5 0 13:41 17.12.2019
2206 Clouds 9 1012 87 9000 1 0 13:20 17.12.2019
2207 Mist 9 1014 100 2012 1.97 341 12:59 17.12.2019
2208 Mist 9 1014 100 2012 1.97 341 12:59 17.12.2019
2209 Clouds 9 1013 87 9000 1.5 130 12:39 17.12.2019
2210 Clouds 9 1013 87 9000 1.5 130 12:18 17.12.2019
2211 Clouds 9 1013 100 11265 1.97 341 12:18 17.12.2019
2212 Clouds 9 1013 100 11265 1.97 341 11:58 17.12.2019
2213 Mist 9 1013 93 9656 1.97 341 11:37 17.12.2019
2214 Mist 9 1013 93 9656 0.52 68 11:19 17.12.2019
2215 Clouds 9 1014 87 9000 0.5 0 10:58 17.12.2019
2216 Clouds 9 1014 81 9000 1.5 310 10:40 17.12.2019
2217 Clouds 9 1014 81 9000 1.5 310 10:21 17.12.2019
2218 Clouds 9 1014 87 9000 2.6 320 09:59 17.12.2019
2219 Clouds 9 1014 87 9000 2.6 320 09:40 17.12.2019
2220 Clouds 10 1014 87 9000 2.1 300 09:19 17.12.2019
2221 Clouds 10 1014 81 8000 1.5 340 08:56 17.12.2019
2222 Mist 10 1014 87 5000 0.5 0 08:38 17.12.2019
2223 Mist 10 1014 87 5000 0.5 0 08:19 17.12.2019
2224 Rain 10 1014 81 7000 2.6 330 07:45 17.12.2019
2225 Rain 10 1014 87 5000 2.1 320 07:26 17.12.2019
2226 Clouds 10 1015 87 7000 3.1 340 06:56 17.12.2019
2227 Mist 10 1015 87 5000 1.5 320 06:34 17.12.2019
2228 Mist 10 1016 87 4500 4.1 300 05:52 17.12.2019
2229 Mist 9 1016 81 5000 3.6 300 05:34 17.12.2019
2230 Clouds 9 1017 87 6000 2.6 320 04:30 17.12.2019
2231 Rain 8 1021 70 6000 5.1 300 02:34 17.12.2019
2232 Rain 8 1021 70 6000 5.1 300 02:34 17.12.2019
2233 Rain 8 1022 93 4000 1.5 310 01:55 17.12.2019
2234 Rain 8 1022 70 10000 1.5 360 00:58 17.12.2019
2235 Rain 7 1024 93 4426 1.5 20 00:37 17.12.2019
2236 Rain 7 1024 93 4426 1.5 20 00:19 17.12.2019
2237 Rain 7 1022 93 4426 2.6 320 23:41 16.12.2019
2238 Rain 7 1023 81 10000 1.5 330 23:19 16.12.2019
2239 Rain 7 1023 81 10000 1.5 330 23:19 16.12.2019
2240 Rain 7 1023 81 10000 2.6 320 22:56 16.12.2019
2241 Rain 7 1023 75 10000 1.5 340 22:37 16.12.2019
2242 Rain 7 1023 75 10000 1.5 340 22:19 16.12.2019
2243 Rain 7 1023 75 10000 2.1 10 21:55 16.12.2019
2244 Rain 7 1023 75 10000 2.1 10 21:37 16.12.2019
2245 Rain 7 1023 70 10000 3.1 20 21:19 16.12.2019
2246 Rain 7 1024 66 10000 2.1 320 20:57 16.12.2019
2247 Rain 8 1024 66 10000 3.1 360 20:37 16.12.2019
2248 Rain 8 1024 66 10000 3.1 360 20:19 16.12.2019
2249 Rain 8 1023 61 10000 2.6 10 19:55 16.12.2019
2250 Rain 8 1024 61 10000 3.6 360 19:37 16.12.2019
2251 Rain 8 1024 61 10000 3.6 360 19:18 16.12.2019
2252 Rain 8 1025 61 10000 4.6 350 18:56 16.12.2019
2253 Rain 8 1025 66 10000 4.1 320 18:37 16.12.2019
2254 Rain 8 1025 66 10000 4.1 320 18:19 16.12.2019
2255 Rain 8 1025 66 10000 4.1 320 18:19 16.12.2019
2256 Clouds 9 1025 61 10000 4.1 340 17:57 16.12.2019
2257 Clouds 9 1025 66 10000 4.1 340 17:37 16.12.2019
2258 Clouds 9 1025 66 10000 4.1 340 17:37 16.12.2019
2259 Clouds 9 1025 66 10000 4.1 340 17:19 16.12.2019
2260 Clouds 9 1025 62 10000 4.1 360 16:55 16.12.2019
2261 Clouds 9 1025 66 10000 3.6 360 16:37 16.12.2019
2262 Clouds 9 1025 66 10000 3.6 360 16:18 16.12.2019
2263 Clouds 9 1025 71 10000 5.1 360 15:57 16.12.2019
2264 Clouds 9 1025 66 10000 4.1 10 15:38 16.12.2019
2265 Clouds 9 1025 66 10000 4.1 10 15:38 16.12.2019
2266 Clouds 9 1025 66 10000 4.1 10 15:19 16.12.2019
2267 Clouds 10 1026 71 10000 4.1 10 14:55 16.12.2019
2268 Clouds 9 1026 71 10000 4.1 360 14:36 16.12.2019
2269 Clouds 9 1026 71 10000 4.1 360 14:18 16.12.2019
2270 Clouds 10 1027 71 10000 3.6 10 13:55 16.12.2019
2271 Clouds 10 1026 71 10000 4.6 10 13:37 16.12.2019
2272 Clouds 9 1026 71 10000 4.6 10 13:19 16.12.2019
2273 Clouds 9 1027 66 10000 4.6 10 12:56 16.12.2019
2274 Clouds 10 1027 66 10000 4.6 20 12:38 16.12.2019
2275 Clouds 10 1027 66 10000 4.6 20 12:18 16.12.2019
2276 Clouds 10 1027 71 10000 4.6 10 11:57 16.12.2019
2277 Clouds 9 1027 71 10000 4.6 20 11:38 16.12.2019
2278 Clouds 9 1027 71 10000 4.6 20 11:19 16.12.2019
2279 Clouds 10 1027 62 10000 3.1 30 10:54 16.12.2019
2280 Clouds 9 1026 62 10000 2.6 20 10:36 16.12.2019
2281 Clouds 9 1026 62 10000 2.6 20 10:18 16.12.2019
2282 Clouds 10 1026 58 10000 3.1 10 09:43 16.12.2019
2283 Clouds 10 1026 62 10000 3.1 20 09:24 16.12.2019
2284 Clouds 11 1026 54 10000 1.5 20 08:40 16.12.2019
2285 Clouds 12 1026 54 10000 1.5 20 08:20 16.12.2019
2286 Clouds 12 1026 54 10000 1.5 20 08:20 16.12.2019
2287 Clouds 12 1026 58 10000 3.1 40 07:53 16.12.2019
2288 Clouds 12 1026 47 10000 1.5 0 07:31 16.12.2019
2289 Clouds 13 1026 58 10000 2.6 40 06:58 16.12.2019
2290 Clouds 13 1026 50 10000 1.5 100 06:40 16.12.2019
2291 Clouds 13 1026 50 10000 1.5 100 06:20 16.12.2019
2292 Clouds 12 1026 50 10000 1.5 0 05:41 16.12.2019
2293 Clouds 12 1026 50 10000 1.5 0 05:22 16.12.2019
2294 Clouds 11 1028 41 10000 2.6 20 03:28 16.12.2019
2295 Clouds 7 1029 42 10000 3.6 340 01:51 16.12.2019
2296 Clouds 7 1029 56 10000 3.1 330 01:33 16.12.2019
2297 Clouds 5 1029 44 10000 4.6 330 00:39 16.12.2019
2298 Clouds 5 1029 44 10000 4.6 330 00:20 16.12.2019
2299 Clouds 5 1029 44 10000 3.6 340 23:57 15.12.2019
2300 Clouds 4 1029 69 10000 4.1 320 23:37 15.12.2019
2301 Clouds 2 1029 69 10000 4.1 320 23:19 15.12.2019
2302 Clouds 2 1028 65 10000 3.6 310 22:54 15.12.2019
2303 Clouds 3 1028 65 10000 3.6 310 22:36 15.12.2019
2304 Clouds 3 1028 65 10000 3.6 310 22:18 15.12.2019
2305 Clouds 3 1028 65 10000 3.1 320 21:54 15.12.2019
2306 Clouds 4 1028 60 10000 3.6 350 21:36 15.12.2019
2307 Clouds 4 1028 60 10000 3.6 350 21:18 15.12.2019
2308 Clouds 3 1028 46 10000 3.6 340 20:54 15.12.2019
2309 Clouds 4 1028 60 10000 4.6 340 20:36 15.12.2019
2310 Clouds 4 1028 60 10000 4.6 340 20:18 15.12.2019
2311 Clouds 4 1029 50 10000 5.1 350 19:54 15.12.2019
2312 Clouds 4 1028 50 10000 5.7 360 19:36 15.12.2019
2313 Clouds 4 1028 50 10000 5.7 360 19:18 15.12.2019
2314 Clouds 4 1029 54 10000 5.1 360 18:54 15.12.2019
2315 Clouds 5 1028 52 10000 5.1 10 18:36 15.12.2019
2316 Clouds 5 1028 52 10000 5.1 10 18:18 15.12.2019
2317 Clouds 5 1028 54 10000 5.7 360 17:54 15.12.2019
2318 Clouds 5 1028 54 10000 5.1 360 17:36 15.12.2019
2319 Clouds 5 1028 61 10000 4.6 10 17:18 15.12.2019
2320 Clouds 5 1028 61 10000 4.1 10 16:42 15.12.2019
2321 Clouds 5 1028 61 10000 4.1 10 16:22 15.12.2019
2322 Clouds 5 1028 53 10000 3.6 10 15:57 15.12.2019
2323 Clouds 5 1028 55 10000 3.6 10 15:57 15.12.2019
2324 Clouds 5 1028 55 10000 3.6 10 15:38 15.12.2019
2325 Clouds 5 1028 57 10000 4.6 10 15:19 15.12.2019
2326 Clouds 5 1028 57 10000 4.6 10 15:19 15.12.2019
2327 Clouds 5 1028 57 10000 4.6 10 15:19 15.12.2019
2328 Clouds 6 1029 53 10000 4.6 10 14:56 15.12.2019
2329 Clouds 6 1028 57 10000 5.1 10 14:37 15.12.2019
2330 Clouds 5 1028 57 10000 5.1 10 14:18 15.12.2019
2331 Clouds 6 1028 66 10000 7.2 80 13:58 15.12.2019
2332 Clouds 6 1028 61 10000 6.2 80 13:38 15.12.2019
2333 Clouds 7 1028 61 10000 6.2 80 13:19 15.12.2019
2334 Clouds 7 1028 57 10000 7.2 80 12:57 15.12.2019
2335 Clouds 7 1028 53 10000 6.2 80 12:39 15.12.2019
2336 Clouds 7 1028 53 10000 6.2 80 12:39 15.12.2019
2337 Clouds 7 1028 53 10000 6.2 80 12:20 15.12.2019
2338 Clouds 7 1028 50 10000 4.6 70 11:56 15.12.2019
2339 Clouds 8 1028 47 10000 5.1 80 11:37 15.12.2019
2340 Clouds 8 1028 29 10000 5.1 80 11:18 15.12.2019
2341 Clouds 8 1027 50 10000 6.2 70 10:55 15.12.2019
2342 Clouds 8 1027 50 10000 5.1 70 10:37 15.12.2019
2343 Clouds 9 1027 50 10000 5.1 70 10:18 15.12.2019
2344 Clouds 9 1027 53 10000 6.2 70 09:41 15.12.2019
2345 Clouds 10 1027 50 10000 6.2 70 09:20 15.12.2019
2346 Clouds 10 1026 50 10000 5.1 80 08:58 15.12.2019
2347 Clouds 11 1026 29 10000 5.7 70 08:39 15.12.2019
2348 Clouds 11 1026 29 10000 5.7 70 08:21 15.12.2019
2349 Clouds 12 1026 53 10000 5.7 70 07:56 15.12.2019
2350 Clouds 12 1025 37 10000 4.1 60 07:34 15.12.2019
2351 Clouds 12 1025 46 10000 5.7 50 06:51 15.12.2019
2352 Clouds 12 1025 37 10000 4.6 40 06:20 15.12.2019
2353 Clouds 12 1025 37 10000 5.1 360 05:26 15.12.2019
2354 Clouds 12 1025 32 10000 7.7 360 04:47 15.12.2019
2355 Clouds 11 1025 37 10000 4.6 350 03:31 15.12.2019
2356 Clouds 10 1025 37 10000 4.6 340 02:34 15.12.2019
2357 Clouds 9 1025 43 10000 8.7 350 01:47 15.12.2019
2358 Clouds 9 1025 39 10000 4.1 340 01:28 15.12.2019
2359 Clouds 8 1024 36 10000 4.1 340 00:58 15.12.2019
2360 Clouds 8 1023 43 10000 9.3 340 00:40 15.12.2019
2361 Clouds 8 1024 36 10000 6.7 320 00:21 15.12.2019
2362 Clouds 8 1023 39 10000 6.7 330 23:40 14.12.2019
2363 Clouds 8 1023 39 10000 6.7 330 23:40 14.12.2019
2364 Clouds 8 1023 39 10000 6.7 330 23:21 14.12.2019
2365 Clouds 7 1023 42 10000 8.7 320 22:58 14.12.2019
2366 Clouds 7 1023 42 10000 8.7 320 22:58 14.12.2019
2367 Clouds 7 1022 42 10000 7.7 330 22:40 14.12.2019
2368 Clouds 7 1022 42 10000 7.7 330 22:21 14.12.2019
2369 Clouds 7 1022 42 10000 11.3 330 21:56 14.12.2019
2370 Clouds 7 1023 52 10000 4.1 300 21:37 14.12.2019
2371 Clouds 7 1022 42 10000 11.3 330 21:19 14.12.2019
2372 Clouds 7 1022 42 10000 11.3 330 21:19 14.12.2019
2373 Clouds 7 1022 42 10000 10.8 330 20:56 14.12.2019
2374 Clouds 7 1021 42 10000 12.3 330 20:38 14.12.2019
2375 Clouds 7 1021 42 10000 12.3 330 20:19 14.12.2019
2376 Clouds 7 1020 45 10000 12.9 330 19:55 14.12.2019
2377 Clouds 7 1020 45 10000 12.3 330 19:36 14.12.2019
2378 Clouds 7 1020 45 10000 12.3 330 19:18 14.12.2019
2379 Clouds 8 1021 42 10000 11.3 330 18:55 14.12.2019
2380 Clouds 8 1020 45 10000 10.8 330 18:36 14.12.2019
2381 Clouds 8 1020 45 10000 10.8 330 18:18 14.12.2019
2382 Clouds 8 1020 48 10000 9.3 330 17:42 14.12.2019
2383 Clouds 8 1020 45 10000 9.3 330 17:22 14.12.2019
2384 Clouds 8 1019 46 10000 9.8 330 16:56 14.12.2019
2385 Clouds 8 1019 46 10000 9.8 330 16:38 14.12.2019
2386 Clouds 9 1019 53 10000 11.3 350 16:18 14.12.2019
2387 Clouds 9 1019 50 10000 10.8 350 15:42 14.12.2019
2388 Clouds 9 1018 50 10000 10.8 340 15:21 14.12.2019
2389 Clouds 9 1018 50 10000 10.8 340 15:21 14.12.2019
2390 Clouds 9 1018 45 10000 6.7 330 14:58 14.12.2019
2391 Clouds 10 1018 46 10000 9.3 350 14:38 14.12.2019
2392 Clear 10 1018 46 10000 9.3 350 14:19 14.12.2019
2393 Clear 10 1018 46 10000 9.3 350 14:19 14.12.2019
2394 Clear 11 1017 46 10000 8.2 330 13:45 14.12.2019
2395 Clouds 11 1017 46 10000 5.7 330 13:21 14.12.2019
2396 Clouds 11 1017 46 10000 5.7 330 13:21 14.12.2019
2397 Clouds 11 1016 50 10000 8.2 350 12:59 14.12.2019
2398 Clouds 11 1016 47 10000 6.2 350 12:41 14.12.2019
2399 Clouds 11 1016 47 10000 6.2 350 12:21 14.12.2019
2400 Clouds 11 1016 47 10000 6.2 350 12:21 14.12.2019
2401 Clouds 11 1016 43 10000 7.2 340 11:59 14.12.2019
2402 Clouds 12 1015 54 10000 4.6 320 11:40 14.12.2019
2403 Clouds 12 1015 54 10000 4.6 320 11:20 14.12.2019
2404 Clouds 11 1015 54 10000 4.1 360 10:59 14.12.2019
2405 Clouds 12 1014 54 10000 4.1 310 10:40 14.12.2019
2406 Clouds 12 1014 54 10000 4.1 310 10:22 14.12.2019
2407 Clouds 12 1013 47 10000 7.2 250 09:59 14.12.2019
2408 Clouds 13 1012 41 10000 8.7 220 09:40 14.12.2019
2409 Clouds 14 1012 41 10000 8.7 220 09:20 14.12.2019
2410 Clouds 15 1012 41 10000 8.7 220 08:43 14.12.2019
2411 Clouds 16 1012 39 10000 9.3 220 08:20 14.12.2019
2412 Clouds 16 1013 36 10000 9.3 230 07:55 14.12.2019
2413 Clouds 17 1012 39 10000 7.2 240 07:36 14.12.2019
2414 Clouds 17 1012 39 10000 7.2 240 07:18 14.12.2019
2415 Clouds 17 1013 44 10000 6.2 240 06:39 14.12.2019
2416 Clouds 16 1014 39 10000 8.2 220 06:18 14.12.2019
2417 Clouds 15 1014 44 10000 3.1 250 05:20 14.12.2019
2418 Clouds 11 1019 61 10000 2.1 60 02:49 14.12.2019
2419 Clouds 10 1020 55 10000 2.1 60 02:22 14.12.2019
2420 Clouds 8 1021 61 10000 1.5 50 01:43 14.12.2019
2421 Clear 6 1021 60 10000 0.5 0 00:50 14.12.2019
2422 Clouds 5 1021 65 10000 1.5 50 00:29 14.12.2019
2423 Clouds 5 1022 54 10000 1 0 23:58 13.12.2019
2424 Clouds 4 1022 65 10000 1 0 23:39 13.12.2019
2425 Clouds 4 1022 65 10000 1.5 280 23:19 13.12.2019
2426 Clouds 3 1022 65 10000 1.5 280 22:55 13.12.2019
2427 Clouds 4 1022 65 10000 2.1 270 22:36 13.12.2019
2428 Clouds 3 1022 65 10000 2.1 270 22:36 13.12.2019
2429 Clouds 4 1022 65 10000 2.1 270 22:18 13.12.2019
2430 Clouds 4 1022 65 10000 2.6 300 21:39 13.12.2019
2431 Clouds 4 1022 65 10000 2.6 300 21:21 13.12.2019
2432 Clouds 5 1023 60 10000 3.1 310 20:57 13.12.2019
2433 Clouds 5 1023 47 10000 3.1 320 20:38 13.12.2019
2434 Clouds 5 1023 49 10000 3.1 320 20:19 13.12.2019
2435 Clouds 5 1023 49 10000 3.1 320 19:56 13.12.2019
2436 Clouds 5 1024 49 10000 3.1 330 19:37 13.12.2019
2437 Clouds 5 1024 49 10000 3.1 330 19:18 13.12.2019
2438 Clouds 6 1024 61 10000 4.1 360 18:42 13.12.2019
2439 Clouds 6 1024 61 10000 4.1 360 18:20 13.12.2019
2440 Clouds 6 1024 61 10000 4.1 360 18:20 13.12.2019
2441 Clouds 6 1024 57 10000 3.6 360 17:59 13.12.2019
2442 Clouds 6 1024 61 10000 3.6 10 17:39 13.12.2019
2443 Clouds 7 1024 61 10000 3.6 10 17:18 13.12.2019
2444 Clouds 7 1024 61 10000 3.6 10 17:18 13.12.2019
2445 Clouds 7 1025 61 10000 3.6 360 16:56 13.12.2019
2446 Clouds 7 1025 66 10000 3.1 10 16:38 13.12.2019
2447 Clouds 7 1025 66 10000 3.1 10 16:19 13.12.2019
2448 Clouds 7 1026 66 10000 3.6 20 15:42 13.12.2019
2449 Clouds 7 1026 66 10000 3.6 20 15:21 13.12.2019
2450 Clouds 7 1026 66 10000 2.6 20 14:57 13.12.2019
2451 Clouds 7 1026 66 10000 2.6 40 14:37 13.12.2019
2452 Clouds 7 1026 66 10000 2.6 40 14:18 13.12.2019
2453 Clouds 7 1026 66 10000 3.1 10 13:43 13.12.2019
2454 Clouds 7 1026 66 10000 3.1 10 13:24 13.12.2019
2455 Clouds 7 1026 66 10000 3.1 10 13:24 13.12.2019
2456 Clouds 8 1026 66 10000 3.1 40 12:57 13.12.2019
2457 Clouds 8 1026 66 10000 4.1 40 12:39 13.12.2019
2458 Clouds 8 1026 66 10000 4.1 40 12:18 13.12.2019
2459 Clouds 8 1027 66 10000 4.6 40 11:43 13.12.2019
2460 Clouds 8 1027 66 10000 4.6 40 11:25 13.12.2019
2461 Clouds 8 1026 66 10000 4.6 60 10:57 13.12.2019
2462 Clouds 8 1026 66 10000 5.1 60 10:39 13.12.2019
2463 Clouds 8 1026 66 10000 5.1 60 10:21 13.12.2019
2464 Clouds 8 1026 61 10000 4.6 60 09:42 13.12.2019
2465 Clouds 8 1026 61 10000 4.6 60 09:21 13.12.2019
2466 Clouds 8 1026 57 10000 3.1 80 08:55 13.12.2019
2467 Clouds 8 1026 57 10000 3.1 80 08:36 13.12.2019
2468 Clouds 9 1026 57 10000 3.1 80 08:18 13.12.2019
2469 Clouds 9 1026 49 10000 3.1 70 07:42 13.12.2019
2470 Clouds 9 1026 49 10000 3.1 70 07:19 13.12.2019
2471 Clouds 9 1026 42 10000 2.1 30 06:45 13.12.2019
2472 Clouds 9 1026 42 10000 2.1 30 06:25 13.12.2019
2473 Clouds 9 1025 42 10000 3.1 40 05:38 13.12.2019
2474 Clouds 9 1026 45 10000 4.1 350 05:20 13.12.2019
2475 Clouds 9 1026 45 10000 2.1 20 04:29 13.12.2019
2476 Clouds 8 1027 52 10000 3.6 20 02:56 13.12.2019
2477 Clouds 8 1027 45 10000 1 0 02:30 13.12.2019
2478 Clouds 8 1027 48 10000 2.6 30 01:38 13.12.2019
2479 Clouds 7 1027 48 10000 4.1 30 00:51 13.12.2019
2480 Clouds 7 1026 52 10000 8.2 20 00:28 13.12.2019
2481 Clouds 7 1025 35 10000 8.2 20 23:44 12.12.2019
2482 Clouds 7 1025 35 10000 8.2 20 23:26 12.12.2019
2483 Clouds 7 1024 49 10000 7.2 20 22:57 12.12.2019
2484 Clouds 7 1024 49 10000 7.7 10 22:39 12.12.2019
2485 Clouds 7 1024 49 10000 7.7 10 22:39 12.12.2019
2486 Clouds 7 1024 49 10000 7.7 10 22:21 12.12.2019
2487 Clouds 7 1024 49 10000 7.2 360 21:56 12.12.2019
2488 Clouds 7 1024 52 10000 7.7 360 21:37 12.12.2019
2489 Clouds 7 1024 52 10000 7.7 360 21:19 12.12.2019
2490 Clouds 7 1024 52 10000 7.7 360 21:19 12.12.2019
2491 Clouds 7 1023 37 10000 9.8 350 20:59 12.12.2019
2492 Clouds 7 1023 37 10000 8.7 360 20:40 12.12.2019
2493 Clouds 7 1023 39 10000 8.7 360 20:22 12.12.2019
2494 Clouds 7 1023 49 10000 9.8 350 19:56 12.12.2019
2495 Clouds 7 1022 45 10000 10.8 350 19:38 12.12.2019
2496 Clouds 7 1022 45 10000 10.8 350 19:20 12.12.2019
2497 Clouds 7 1023 45 10000 9.8 340 18:56 12.12.2019
2498 Clouds 7 1023 45 10000 9.8 340 18:56 12.12.2019
2499 Clouds 7 1022 45 10000 8.7 350 18:38 12.12.2019
2500 Clouds 7 1022 45 10000 8.7 350 18:19 12.12.2019
2501 Clouds 7 1022 42 10000 10.3 340 17:57 12.12.2019
2502 Clouds 8 1021 42 10000 9.8 340 17:38 12.12.2019
2503 Clouds 8 1021 42 10000 9.8 340 17:19 12.12.2019
2504 Clouds 8 1021 45 10000 11.3 330 16:55 12.12.2019
2505 Clouds 8 1021 42 10000 10.8 330 16:37 12.12.2019
2506 Clouds 8 1021 42 10000 10.8 330 16:18 12.12.2019
2507 Clouds 8 1020 42 10000 11.3 330 15:54 12.12.2019
2508 Clouds 8 1020 42 10000 11.3 330 15:54 12.12.2019
2509 Clouds 8 1021 45 10000 10.8 330 15:36 12.12.2019
2510 Clouds 8 1021 45 10000 10.8 330 15:18 12.12.2019
2511 Clouds 8 1021 45 10000 10.8 330 15:18 12.12.2019
2512 Clouds 9 1020 43 10000 11.3 340 14:38 12.12.2019
2513 Clouds 9 1020 43 10000 11.3 340 14:20 12.12.2019
2514 Clouds 9 1020 43 10000 11.3 340 13:57 12.12.2019
2515 Clouds 9 1018 46 10000 12.3 340 13:39 12.12.2019
2516 Clouds 9 1018 46 10000 12.3 340 13:21 12.12.2019
2517 Clouds 9 1018 43 10000 11.3 340 12:57 12.12.2019
2518 Clouds 10 1017 40 10000 13.4 340 12:38 12.12.2019
2519 Clouds 10 1017 40 10000 13.4 340 12:38 12.12.2019
2520 Clouds 10 1017 40 10000 13.4 340 12:20 12.12.2019
2521 Clouds 10 1017 35 10000 10.8 350 11:55 12.12.2019
2522 Clouds 10 1017 35 10000 10.8 350 11:55 12.12.2019
2523 Clouds 11 1016 37 10000 8.7 340 11:37 12.12.2019
2524 Clouds 11 1016 37 10000 8.7 340 11:19 12.12.2019
2525 Clouds 11 1016 37 10000 10.3 350 10:54 12.12.2019
2526 Clouds 11 1015 43 10000 10.8 350 10:36 12.12.2019
2527 Clouds 12 1015 43 10000 10.8 350 10:18 12.12.2019
2528 Clouds 12 1015 43 10000 10.8 350 10:18 12.12.2019
2529 Clouds 13 1013 44 10000 9.8 360 09:41 12.12.2019
2530 Clouds 14 1013 44 10000 9.8 360 09:23 12.12.2019
2531 Clouds 14 1012 41 10000 9.3 10 08:56 12.12.2019
2532 Clouds 15 1012 32 10000 5.1 20 08:38 12.12.2019
2533 Clouds 15 1012 32 10000 5.1 20 08:20 12.12.2019
2534 Clouds 17 1010 45 10000 6.7 20 07:43 12.12.2019
2535 Clouds 17 1010 45 10000 6.7 20 07:24 12.12.2019
2536 Clouds 18 1008 34 10000 1.5 70 06:50 12.12.2019
2537 Clouds 18 1008 34 10000 1.5 70 06:32 12.12.2019
2538 Clouds 19 1008 34 10000 3.6 30 05:39 12.12.2019
2539 Clear 18 1008 42 10000 2.6 260 04:52 12.12.2019
2540 Clear 18 1008 42 10000 2.6 260 04:52 12.12.2019
2541 Clear 17 1008 48 10000 4.6 260 03:31 12.12.2019
2542 Clear 16 1009 51 10000 5.7 240 02:38 12.12.2019
2543 Clear 16 1009 51 10000 5.7 240 02:20 12.12.2019
2544 Clear 14 1009 67 10000 3.6 260 01:40 12.12.2019
2545 Clear 13 1009 67 10000 3.6 260 01:22 12.12.2019
2546 Clear 12 1009 71 10000 4.1 240 00:46 12.12.2019
2547 Clouds 11 1009 87 10000 2.1 310 00:20 12.12.2019
2548 Clouds 9 1009 93 10000 1.5 10 23:44 11.12.2019
2549 Clouds 8 1009 93 10000 1.5 10 23:21 11.12.2019
2550 Clouds 8 1009 93 10000 1.5 0 22:57 11.12.2019
2551 Clouds 8 1009 93 10000 1 0 22:39 11.12.2019
2552 Clouds 8 1009 93 10000 1 0 22:20 11.12.2019
2553 Clear 9 1009 93 9000 2.1 270 21:57 11.12.2019
2554 Clear 9 1008 93 9000 1.5 250 21:38 11.12.2019
2555 Clear 9 1008 93 9000 1.5 250 21:19 11.12.2019
2556 Clouds 9 1008 93 9000 1 0 20:56 11.12.2019
2557 Clouds 9 1008 93 10000 1.5 290 20:37 11.12.2019
2558 Clouds 9 1008 93 9000 1 270 20:19 11.12.2019
2559 Clouds 9 1008 93 9000 1 270 19:57 11.12.2019
2560 Clouds 9 1008 93 10000 2.1 320 19:39 11.12.2019
2561 Clouds 9 1008 93 10000 2.1 320 19:39 11.12.2019
2562 Clouds 9 1008 93 10000 2.1 320 19:19 11.12.2019
2563 Clouds 10 1008 87 10000 0.5 20 18:42 11.12.2019
2564 Clouds 10 1008 87 10000 0.5 20 18:21 11.12.2019
2565 Clouds 10 1008 87 10000 0.5 0 17:57 11.12.2019
2566 Clouds 10 1008 87 10000 0.5 0 17:57 11.12.2019
2567 Clouds 10 1008 87 10000 0.5 0 17:39 11.12.2019
2568 Clouds 10 1008 87 10000 0.5 0 17:19 11.12.2019
2569 Clouds 11 1008 87 10000 2.6 310 16:57 11.12.2019
2570 Clouds 11 1009 87 10000 3.6 290 16:39 11.12.2019
2571 Clouds 11 1009 87 10000 3.6 290 16:21 11.12.2019
2572 Clouds 11 1009 82 10000 4.1 290 15:59 11.12.2019
2573 Clouds 11 1009 87 10000 2.1 280 15:40 11.12.2019
2574 Clouds 11 1009 87 10000 2.1 280 15:22 11.12.2019
2575 Clouds 11 1009 87 10000 2.1 280 15:22 11.12.2019
2576 Clouds 11 1009 93 10000 1.5 290 14:56 11.12.2019
2577 Clouds 12 1010 87 10000 1.5 250 14:38 11.12.2019
2578 Clouds 12 1010 87 10000 1.5 250 14:19 11.12.2019
2579 Clouds 12 1010 87 10000 1.5 270 13:55 11.12.2019
2580 Clouds 12 1010 93 10000 2.6 320 13:37 11.12.2019
2581 Clouds 12 1011 87 10000 1.5 330 13:18 11.12.2019
2582 Rain 13 1011 93 10000 2.6 280 12:55 11.12.2019
2583 Rain 13 1011 93 10000 2.6 280 12:37 11.12.2019
2584 Rain 13 1011 87 10000 3.1 350 12:18 11.12.2019
2585 Rain 13 1011 87 10000 3.1 350 12:18 11.12.2019
2586 Rain 13 1011 87 10000 3.1 350 11:57 11.12.2019
2587 Rain 13 1011 87 10000 3.1 350 11:57 11.12.2019
2588 Rain 13 1011 87 10000 4.1 30 11:38 11.12.2019
2589 Rain 13 1011 87 10000 4.1 30 11:38 11.12.2019
2590 Rain 13 1011 87 10000 4.1 30 11:18 11.12.2019
2591 Rain 13 1011 87 10000 4.1 30 11:18 11.12.2019
2592 Rain 13 1013 93 9656 1.02 358 10:45 11.12.2019
2593 Rain 14 1013 93 9656 1.02 358 10:27 11.12.2019
2594 Clouds 14 1014 77 10000 2.6 330 09:59 11.12.2019
2595 Clouds 14 1013 82 12874 1.02 358 09:39 11.12.2019
2596 Clouds 14 1013 82 12874 1.02 358 09:20 11.12.2019
2597 Clouds 15 1013 77 10000 3.6 20 08:57 11.12.2019
2598 Clouds 15 1013 72 7000 2.1 360 08:38 11.12.2019
2599 Clouds 15 1013 77 10000 3.6 360 08:19 11.12.2019
2600 Clouds 15 1013 77 10000 3.6 360 07:47 11.12.2019
2601 Clouds 15 1013 72 7000 2.1 10 07:28 11.12.2019
2602 Clouds 16 1013 77 10000 2.1 30 06:59 11.12.2019
2603 Clouds 16 1014 72 7000 2.1 30 06:40 11.12.2019
2604 Clouds 16 1014 72 7000 2.1 30 06:21 11.12.2019
2605 Clouds 16 1015 72 7000 2.1 20 05:41 11.12.2019
2606 Clouds 16 1015 72 7000 2.1 20 05:19 11.12.2019
2607 Clouds 15 1016 67 8000 1.5 10 04:26 11.12.2019
2608 Clouds 14 1018 76 8000 2.1 340 02:49 11.12.2019
2609 Clouds 12 1019 76 7000 2.6 310 01:25 11.12.2019
2610 Clouds 11 1019 81 6000 2.6 330 00:47 11.12.2019
2611 Clouds 10 1019 81 10000 4.1 320 00:21 11.12.2019
2612 Clouds 10 1019 81 10000 3.6 320 23:49 10.12.2019
2613 Clouds 9 1019 81 10000 3.1 310 23:30 10.12.2019
2614 Clouds 9 1019 81 10000 3.1 350 22:59 10.12.2019
2615 Clouds 9 1019 81 10000 3.1 350 22:59 10.12.2019
2616 Clouds 9 1018 81 10000 4.6 10 22:40 10.12.2019
2617 Clouds 9 1018 81 10000 4.6 10 22:22 10.12.2019
2618 Clouds 10 1019 81 10000 4.1 10 21:57 10.12.2019
2619 Clouds 10 1018 81 10000 3.1 30 21:39 10.12.2019
2620 Clouds 10 1018 81 10000 3.1 30 21:21 10.12.2019
2621 Clouds 10 1019 76 10000 3.1 10 20:57 10.12.2019
2622 Clouds 10 1019 76 10000 5.1 350 20:37 10.12.2019
2623 Clouds 11 1019 76 10000 5.1 350 20:19 10.12.2019
2624 Clouds 11 1018 76 10000 3.6 10 19:55 10.12.2019
2625 Clouds 10 1018 82 10000 3.1 10 19:37 10.12.2019
2626 Clouds 10 1018 82 10000 3.1 10 19:18 10.12.2019
2627 Clouds 10 1019 81 10000 2.1 310 18:40 10.12.2019
2628 Clouds 11 1019 81 10000 2.1 310 18:20 10.12.2019
2629 Clouds 11 1019 81 10000 2.6 320 17:58 10.12.2019
2630 Clouds 11 1019 81 10000 2.6 310 17:40 10.12.2019
2631 Clouds 11 1019 81 10000 2.6 310 17:40 10.12.2019
2632 Clouds 11 1019 81 10000 2.6 310 17:20 10.12.2019
2633 Clouds 11 1020 76 10000 2.6 320 16:54 10.12.2019
2634 Clouds 11 1019 76 10000 1.5 10 16:36 10.12.2019
2635 Clouds 11 1019 76 10000 1.5 10 16:18 10.12.2019
2636 Clouds 11 1020 81 10000 2.6 320 15:38 10.12.2019
2637 Clouds 12 1020 81 10000 2.6 320 15:18 10.12.2019
2638 Clouds 12 1020 76 10000 3.1 310 14:56 10.12.2019
2639 Clouds 12 1022 87 16093 1.5 280 14:37 10.12.2019
2640 Clouds 12 1022 87 16093 1.5 280 14:19 10.12.2019
2641 Clouds 12 1022 87 16093 2.1 310 13:57 10.12.2019
2642 Clouds 12 1022 87 16093 2.1 310 13:57 10.12.2019
2643 Clouds 12 1020 82 10000 2.6 340 13:38 10.12.2019
2644 Clouds 12 1020 82 10000 2.6 340 13:19 10.12.2019
2645 Clouds 12 1021 76 10000 2.1 350 12:47 10.12.2019
2646 Clouds 12 1021 76 10000 1 0 12:27 10.12.2019
2647 Clouds 12 1021 87 8000 1.5 300 11:55 10.12.2019
2648 Clouds 12 1021 76 10000 2.1 320 11:37 10.12.2019
2649 Clouds 12 1021 76 10000 2.1 320 11:18 10.12.2019
2650 Clouds 13 1021 76 10000 3.1 360 10:42 10.12.2019
2651 Clouds 13 1021 76 10000 3.1 360 10:24 10.12.2019
2652 Clouds 13 1021 76 10000 3.1 10 09:57 10.12.2019
2653 Clouds 13 1020 76 10000 2.6 350 09:39 10.12.2019
2654 Clouds 13 1020 76 10000 2.6 350 09:20 10.12.2019
2655 Clouds 13 1020 76 10000 2.6 360 08:58 10.12.2019
2656 Clouds 13 1020 71 10000 1.5 0 08:39 10.12.2019
2657 Clouds 13 1020 71 10000 1.5 0 08:20 10.12.2019
2658 Clouds 14 1020 71 10000 1.5 20 07:45 10.12.2019
2659 Clouds 14 1020 71 10000 1.5 20 07:27 10.12.2019
2660 Clouds 14 1021 76 10000 2.6 10 06:55 10.12.2019
2661 Clouds 14 1020 71 8000 1 0 06:37 10.12.2019
2662 Clouds 14 1020 71 8000 1 0 06:19 10.12.2019
2663 Clouds 14 1021 76 10000 2.1 30 05:47 10.12.2019
2664 Clouds 13 1022 76 10000 1 0 04:23 10.12.2019
2665 Clouds 12 1024 81 16093 3.1 20 03:25 10.12.2019
2666 Clouds 10 1024 76 10000 3.6 10 01:56 10.12.2019
2667 Clouds 10 1024 76 10000 3.1 350 01:38 10.12.2019
2668 Clouds 9 1025 100 16093 1.5 300 01:18 10.12.2019
2669 Rain 9 1024 81 10000 3.1 20 00:29 10.12.2019
2670 Rain 8 1024 87 10000 2.6 330 23:58 09.12.2019
2671 Rain 8 1023 87 10000 4.6 340 23:39 09.12.2019
2672 Rain 8 1023 87 10000 4.6 340 23:39 09.12.2019
2673 Rain 8 1023 87 10000 4.6 340 23:20 09.12.2019
2674 Rain 8 1023 87 10000 4.6 340 23:20 09.12.2019
2675 Clouds 8 1023 100 14484 2.1 340 22:56 09.12.2019
2676 Rain 8 1023 87 10000 5.7 350 22:38 09.12.2019
2677 Rain 8 1023 87 10000 5.7 350 22:38 09.12.2019
2678 Rain 8 1023 93 10000 4.1 320 22:18 09.12.2019
2679 Rain 8 1023 93 10000 4.1 320 21:55 09.12.2019
2680 Rain 8 1023 93 10000 4.1 320 21:37 09.12.2019
2681 Rain 7 1023 93 10000 4.1 320 21:18 09.12.2019
2682 Rain 8 1023 87 10000 4.6 320 20:55 09.12.2019
2683 Rain 7 1023 87 9000 4.1 320 20:37 09.12.2019
2684 Rain 7 1023 87 9000 4.1 320 20:18 09.12.2019
2685 Rain 7 1023 93 9000 4.1 330 19:55 09.12.2019
2686 Rain 7 1024 87 8000 4.1 320 19:37 09.12.2019
2687 Rain 7 1024 87 8000 4.1 320 19:37 09.12.2019
2688 Rain 7 1024 87 8000 4.1 320 19:18 09.12.2019
2689 Rain 7 1024 93 7000 4.1 330 18:54 09.12.2019
2690 Rain 7 1024 93 7000 4.6 330 18:36 09.12.2019
2691 Rain 7 1024 93 7000 4.6 330 18:18 09.12.2019
2692 Rain 7 1025 93 6000 4.1 310 17:55 09.12.2019
2693 Rain 7 1025 93 5000 5.1 320 17:37 09.12.2019
2694 Rain 7 1025 93 5000 5.1 320 17:18 09.12.2019
2695 Rain 7 1025 93 5000 5.1 320 17:18 09.12.2019
2696 Rain 7 1025 87 7000 6.2 330 16:54 09.12.2019
2697 Rain 7 1024 93 2414 3.6 320 16:36 09.12.2019
2698 Drizzle 7 1027 93 16093 3.1 350 16:18 09.12.2019
2699 Drizzle 7 1027 93 16093 3.1 350 15:54 09.12.2019
2700 Rain 7 1025 93 1810 4.1 330 15:36 09.12.2019
2701 Rain 7 1026 93 8000 6.7 330 15:18 09.12.2019
2702 Rain 7 1026 87 8000 7.2 320 14:41 09.12.2019
2703 Rain 7 1026 87 8000 7.2 320 14:18 09.12.2019
2704 Rain 7 1028 93 16093 2.6 20 14:18 09.12.2019
2705 Rain 7 1028 93 16093 2.6 20 13:56 09.12.2019
2706 Rain 7 1026 93 3017 3.1 310 13:38 09.12.2019
2707 Rain 7 1026 93 3017 3.1 310 13:19 09.12.2019
2708 Rain 7 1026 75 10000 7.7 330 12:56 09.12.2019
2709 Rain 8 1026 87 2816 3.1 310 12:37 09.12.2019
2710 Rain 8 1026 65 10000 5.1 320 12:19 09.12.2019
2711 Rain 8 1026 65 10000 5.1 320 11:55 09.12.2019
2712 Rain 8 1026 65 10000 6.2 330 11:37 09.12.2019
2713 Clouds 8 1026 66 10000 6.7 340 11:18 09.12.2019
2714 Clouds 8 1026 66 10000 6.7 340 11:18 09.12.2019
2715 Clouds 8 1026 66 10000 6.7 340 10:40 09.12.2019
2716 Clouds 8 1026 66 10000 6.7 340 10:20 09.12.2019
2717 Clouds 8 1026 61 10000 6.2 350 09:58 09.12.2019
2718 Clouds 8 1026 66 10000 5.1 350 09:40 09.12.2019
2719 Clouds 8 1026 66 10000 5.1 350 09:21 09.12.2019
2720 Clouds 9 1026 49 10000 2.1 330 08:44 09.12.2019
2721 Clouds 9 1026 46 10000 2.1 330 08:25 09.12.2019
2722 Clouds 9 1026 66 10000 4.6 350 07:56 09.12.2019
2723 Clouds 9 1026 46 10000 3.1 350 07:38 09.12.2019
2724 Clouds 9 1026 46 10000 3.1 350 07:20 09.12.2019
2725 Clouds 9 1027 46 16093 2.1 30 06:43 09.12.2019
2726 Clouds 9 1027 46 16093 2.1 30 06:24 09.12.2019
2727 Clouds 9 1027 46 16093 2.1 30 06:24 09.12.2019
2728 Clouds 9 1026 44 10000 2.6 340 05:26 09.12.2019
2729 Clouds 9 1027 44 10000 3.1 310 04:33 09.12.2019
2730 Clouds 8 1027 44 10000 3.1 330 03:20 09.12.2019
2731 Clouds 7 1028 45 10000 3.6 350 02:24 09.12.2019
2732 Clouds 7 1028 45 10000 3.6 350 01:42 09.12.2019
2733 Clouds 7 1028 45 10000 3.6 350 01:42 09.12.2019
2734 Clouds 6 1028 60 10000 3.1 360 00:46 09.12.2019
2735 Clouds 6 1028 65 10000 6.7 350 00:27 09.12.2019
2736 Clouds 5 1028 46 10000 5.1 330 23:43 08.12.2019
2737 Clouds 4 1028 46 10000 5.1 330 23:24 08.12.2019
2738 Clouds 4 1028 60 10000 5.1 320 22:57 08.12.2019
2739 Clouds 4 1027 60 10000 3.6 310 22:39 08.12.2019
2740 Clouds 4 1027 60 10000 3.6 310 22:19 08.12.2019
2741 Clouds 4 1027 60 10000 4.6 310 21:58 08.12.2019
2742 Clouds 4 1027 60 10000 4.6 340 21:40 08.12.2019
2743 Clouds 4 1027 60 10000 4.6 340 21:21 08.12.2019
2744 Clouds 4 1027 60 10000 4.6 340 20:57 08.12.2019
2745 Clouds 4 1026 56 10000 4.1 10 20:38 08.12.2019
2746 Clouds 4 1026 56 10000 4.1 10 20:20 08.12.2019
2747 Clouds 4 1026 52 10000 4.1 10 19:59 08.12.2019
2748 Clouds 5 1027 45 10000 4.1 10 19:41 08.12.2019
2749 Clouds 5 1027 45 10000 4.1 10 19:23 08.12.2019
2750 Clouds 4 1027 56 10000 4.1 360 18:56 08.12.2019
2751 Clear 5 1026 52 10000 4.6 360 18:37 08.12.2019
2752 Clouds 5 1027 56 10000 4.6 10 18:19 08.12.2019
2753 Clouds 5 1027 56 10000 4.6 10 17:57 08.12.2019
2754 Clouds 5 1026 45 10000 5.7 360 17:39 08.12.2019
2755 Clouds 5 1027 42 10000 6.7 10 17:20 08.12.2019
2756 Clouds 5 1026 42 10000 5.7 360 17:20 08.12.2019
2757 Clouds 5 1027 42 10000 6.7 10 17:20 08.12.2019
2758 Clouds 5 1027 42 10000 6.7 10 16:57 08.12.2019
2759 Clouds 6 1026 42 10000 6.7 10 16:39 08.12.2019
2760 Clouds 6 1026 42 10000 6.7 10 16:21 08.12.2019
2761 Clouds 6 1026 42 10000 6.7 360 15:56 08.12.2019
2762 Clouds 6 1026 52 10000 6.2 350 15:37 08.12.2019
2763 Clouds 6 1026 52 10000 6.2 350 15:18 08.12.2019
2764 Clouds 6 1026 49 10000 5.7 320 14:44 08.12.2019
2765 Clouds 6 1026 49 10000 7.2 330 14:24 08.12.2019
2766 Clouds 7 1026 49 10000 7.2 350 13:59 08.12.2019
2767 Clouds 7 1026 45 10000 6.7 350 13:40 08.12.2019
2768 Clouds 7 1026 45 10000 6.7 350 13:22 08.12.2019
2769 Clouds 7 1026 45 10000 6.7 340 12:58 08.12.2019
2770 Clouds 7 1026 45 10000 6.7 340 12:58 08.12.2019
2771 Clouds 8 1026 46 10000 6.2 350 12:38 08.12.2019
2772 Clouds 8 1026 46 10000 6.2 350 12:18 08.12.2019
2773 Clouds 8 1026 43 10000 6.7 350 11:57 08.12.2019
2774 Clouds 8 1025 46 10000 6.2 340 11:37 08.12.2019
2775 Clouds 8 1025 46 10000 6.2 340 11:19 08.12.2019
2776 Clouds 8 1025 46 10000 4.1 350 10:55 08.12.2019
2777 Clouds 9 1024 40 10000 3.6 340 10:36 08.12.2019
2778 Clouds 8 1024 40 10000 3.6 340 10:18 08.12.2019
2779 Clouds 9 1024 50 10000 4.1 350 09:54 08.12.2019
2780 Clouds 10 1023 53 10000 2.1 20 09:36 08.12.2019
2781 Clouds 10 1023 53 10000 2.1 20 09:18 08.12.2019
2782 Clouds 11 1022 50 10000 2.6 30 08:41 08.12.2019
2783 Clouds 12 1022 50 10000 2.6 30 08:22 08.12.2019
2784 Clouds 12 1022 54 10000 2.6 90 07:49 08.12.2019
2785 Clouds 13 1021 47 10000 2.6 90 07:21 08.12.2019
2786 Clouds 13 1022 54 10000 3.1 100 06:59 08.12.2019
2787 Clouds 13 1021 50 10000 2.6 120 06:39 08.12.2019
2788 Clouds 13 1021 50 10000 2.6 120 06:19 08.12.2019
2789 Clouds 13 1021 50 10000 2.6 100 05:23 08.12.2019
2790 Clouds 12 1021 53 10000 3.1 80 04:46 08.12.2019
2791 Clouds 11 1022 50 10000 2.6 30 03:39 08.12.2019
2792 Clouds 11 1022 53 10000 4.1 30 02:43 08.12.2019
2793 Clouds 10 1022 53 10000 2.6 40 02:20 08.12.2019
2794 Clear 8 1022 57 10000 2.1 20 01:40 08.12.2019
2795 Clear 6 1021 36 10000 2.6 20 00:56 08.12.2019
2796 Clouds 6 1021 61 10000 3.6 10 00:36 08.12.2019
2797 Clouds 6 1021 61 10000 3.6 10 00:18 08.12.2019
2798 Clouds 4 1020 36 10000 4.1 360 23:39 07.12.2019
2799 Clouds 2 1020 43 10000 4.1 360 23:20 07.12.2019
2800 Clouds 2 1020 43 10000 4.1 10 22:56 07.12.2019
2801 Clouds 2 1020 43 10000 4.6 20 22:37 07.12.2019
2802 Clouds 2 1020 43 10000 4.6 20 22:19 07.12.2019
2803 Clouds 2 1019 70 10000 3.6 30 21:55 07.12.2019
2804 Clouds 2 1019 70 10000 4.1 30 21:37 07.12.2019
2805 Clouds 2 1019 70 10000 4.1 30 21:19 07.12.2019
2806 Clouds 2 1019 70 10000 4.1 30 21:19 07.12.2019
2807 Clouds 2 1019 70 10000 4.6 30 20:54 07.12.2019
2808 Clouds 3 1018 65 10000 4.6 30 20:36 07.12.2019
2809 Clouds 3 1018 65 10000 4.6 30 20:18 07.12.2019
2810 Clouds 3 1019 65 10000 3.6 40 19:54 07.12.2019
2811 Clouds 2 1019 80 10000 3.1 30 19:36 07.12.2019
2812 Clouds 3 1019 80 10000 3.1 30 19:18 07.12.2019
2813 Clouds 3 1018 46 10000 1.5 330 18:42 07.12.2019
2814 Clouds 4 1018 46 10000 1.5 330 18:18 07.12.2019
2815 Clouds 4 1019 46 10000 1 280 17:56 07.12.2019
2816 Clouds 5 1019 56 10000 3.1 300 17:37 07.12.2019
2817 Clouds 5 1019 56 10000 3.1 300 17:19 07.12.2019
2818 Clouds 5 1019 70 10000 2.6 290 16:56 07.12.2019
2819 Clouds 5 1019 46 10000 2.1 300 16:37 07.12.2019
2820 Clouds 5 1019 46 10000 2.1 300 16:18 07.12.2019
2821 Clouds 5 1019 70 10000 2.6 310 15:41 07.12.2019
2822 Clouds 5 1019 70 10000 2.6 310 15:23 07.12.2019
2823 Clouds 5 1020 70 10000 2.6 320 14:57 07.12.2019
2824 Clouds 5 1019 75 10000 2.6 340 14:39 07.12.2019
2825 Clouds 5 1019 75 10000 2.6 340 14:18 07.12.2019
2826 Clouds 5 1020 75 10000 3.1 10 13:41 07.12.2019
2827 Clouds 5 1020 75 10000 3.1 10 13:21 07.12.2019
2828 Clouds 5 1020 75 10000 3.1 10 13:21 07.12.2019
2829 Clouds 6 1021 75 10000 3.1 350 12:58 07.12.2019
2830 Clouds 6 1020 75 10000 4.1 10 12:40 07.12.2019
2831 Clouds 6 1020 75 10000 4.1 10 12:22 07.12.2019
2832 Clouds 6 1021 75 10000 3.1 360 11:57 07.12.2019
2833 Clouds 6 1021 75 10000 3.1 20 11:38 07.12.2019
2834 Clouds 5 1021 75 10000 3.1 20 11:20 07.12.2019
2835 Clouds 6 1021 81 10000 3.6 10 10:38 07.12.2019
2836 Clouds 6 1021 81 10000 3.6 10 10:19 07.12.2019
2837 Clouds 6 1021 75 10000 3.6 10 09:41 07.12.2019
2838 Clouds 6 1021 75 10000 3.6 10 09:22 07.12.2019
2839 Clouds 6 1022 81 10000 3.1 20 08:59 07.12.2019
2840 Clouds 6 1021 75 10000 2.6 340 08:39 07.12.2019
2841 Clouds 6 1021 75 10000 2.6 340 08:21 07.12.2019
2842 Rain 6 1021 81 10000 2.6 20 07:45 07.12.2019
2843 Rain 6 1021 81 10000 2.6 20 07:25 07.12.2019
2844 Rain 6 1021 87 8000 2.1 10 06:48 07.12.2019
2845 Rain 6 1021 87 8000 2.1 10 06:25 07.12.2019
2846 Rain 6 1023 56 16093 2.6 360 05:25 07.12.2019
2847 Rain 5 1025 60 16093 1.5 60 03:56 07.12.2019
2848 Rain 5 1025 81 8000 3.1 300 03:18 07.12.2019
2849 Rain 5 1025 81 8000 1.5 310 02:21 07.12.2019
2850 Rain 5 1026 80 10000 1.5 330 01:34 07.12.2019
2851 Rain 5 1026 80 10000 1.5 330 01:34 07.12.2019
2852 Rain 5 1026 80 7000 1 0 00:53 07.12.2019
2853 Rain 5 1025 80 10000 5.7 360 00:20 07.12.2019
2854 Clouds 5 1025 56 11265 1.5 340 23:56 06.12.2019
2855 Rain 5 1025 33 10000 4.1 60 23:36 06.12.2019
2856 Rain 5 1025 36 10000 4.1 60 23:18 06.12.2019
2857 Rain 5 1025 56 10000 3.1 10 22:38 06.12.2019
2858 Rain 6 1025 36 10000 4.1 20 22:19 06.12.2019
2859 Rain 6 1025 36 10000 4.1 20 21:57 06.12.2019
2860 Rain 6 1024 36 10000 4.6 30 21:39 06.12.2019
2861 Rain 6 1025 56 10000 4.1 20 21:19 06.12.2019
2862 Rain 6 1024 52 10000 5.7 20 20:43 06.12.2019
2863 Rain 6 1024 52 10000 5.7 20 20:25 06.12.2019
2864 Rain 6 1025 35 10000 5.1 20 19:59 06.12.2019
2865 Clouds 6 1025 52 10000 5.1 30 19:40 06.12.2019
2866 Clouds 7 1025 52 10000 5.1 30 19:22 06.12.2019
2867 Clouds 7 1026 49 10000 4.6 30 18:57 06.12.2019
2868 Clouds 7 1026 52 10000 4.6 20 18:39 06.12.2019
2869 Clouds 7 1026 52 10000 4.6 20 18:20 06.12.2019
2870 Clouds 7 1026 52 10000 4.1 30 17:57 06.12.2019
2871 Clouds 7 1025 49 10000 4.1 30 17:38 06.12.2019
2872 Clouds 7 1025 49 10000 4.1 30 17:20 06.12.2019
2873 Clouds 7 1026 52 10000 5.1 10 16:55 06.12.2019
2874 Clouds 7 1026 49 10000 4.1 10 16:37 06.12.2019
2875 Clouds 7 1026 49 10000 4.1 10 16:18 06.12.2019
2876 Clouds 7 1025 49 10000 5.1 360 15:41 06.12.2019
2877 Clouds 7 1025 49 10000 5.1 360 15:21 06.12.2019
2878 Clouds 7 1025 49 10000 4.6 320 14:57 06.12.2019
2879 Clouds 7 1026 45 10000 3.6 310 14:39 06.12.2019
2880 Clouds 7 1026 45 10000 3.6 310 14:19 06.12.2019
2881 Clouds 8 1027 39 10000 2.6 360 13:45 06.12.2019
2882 Clouds 8 1027 39 10000 2.6 360 13:26 06.12.2019
2883 Clouds 7 1026 42 10000 2.6 330 12:56 06.12.2019
2884 Clouds 7 1026 42 10000 2.6 20 12:38 06.12.2019
2885 Clouds 7 1026 42 10000 2.6 20 12:19 06.12.2019
2886 Clouds 8 1027 45 10000 2.6 30 11:42 06.12.2019
2887 Clouds 9 1027 45 10000 2.6 30 11:23 06.12.2019
2888 Clouds 9 1026 49 10000 4.1 50 10:55 06.12.2019
2889 Clouds 9 1026 57 10000 3.1 80 10:37 06.12.2019
2890 Clouds 9 1026 57 10000 3.1 80 10:18 06.12.2019
2891 Clouds 9 1026 26 10000 4.1 80 09:55 06.12.2019
2892 Clouds 9 1025 57 10000 5.1 80 09:36 06.12.2019
2893 Clouds 9 1025 57 10000 5.1 80 09:18 06.12.2019
2894 Clouds 9 1025 49 10000 3.1 70 08:40 06.12.2019
2895 Clouds 10 1025 49 10000 3.1 70 08:21 06.12.2019
2896 Clouds 10 1024 45 10000 2.6 50 07:38 06.12.2019
2897 Clouds 10 1024 45 10000 2.6 50 07:20 06.12.2019
2898 Clouds 10 1024 45 10000 2.6 50 07:20 06.12.2019
2899 Clouds 10 1024 25 10000 4.6 50 06:48 06.12.2019
2900 Clouds 10 1024 39 10000 3.1 40 06:24 06.12.2019
2901 Clouds 10 1024 25 10000 5.1 40 05:47 06.12.2019
2902 Clouds 8 1025 61 10000 4.1 30 02:46 06.12.2019
2903 Clouds 8 1025 65 10000 4.1 20 01:45 06.12.2019
2904 Clouds 8 1024 65 10000 3.1 10 00:51 06.12.2019
2905 Clouds 8 1024 61 10000 5.1 20 00:23 06.12.2019
2906 Clouds 8 1023 57 10000 4.6 20 23:51 05.12.2019
2907 Clouds 7 1023 44 10000 4.1 30 23:21 05.12.2019
2908 Clouds 7 1023 61 10000 3.1 20 22:58 05.12.2019
2909 Clouds 7 1022 66 10000 3.1 20 22:39 05.12.2019
2910 Clouds 7 1022 66 10000 3.1 20 22:20 05.12.2019
2911 Clouds 7 1022 66 10000 5.1 10 21:58 05.12.2019
2912 Clouds 7 1021 66 10000 5.1 20 21:40 05.12.2019
2913 Clouds 7 1021 66 10000 4.6 20 21:21 05.12.2019
2914 Clouds 7 1021 66 10000 4.6 20 20:58 05.12.2019
2915 Clouds 8 1021 66 10000 4.6 10 20:38 05.12.2019
2916 Clouds 8 1021 66 10000 4.6 10 20:19 05.12.2019
2917 Clouds 8 1021 61 10000 4.6 10 19:43 05.12.2019
2918 Clouds 8 1021 61 10000 5.7 20 19:25 05.12.2019
2919 Clouds 8 1021 57 10000 5.1 20 18:59 05.12.2019
2920 Clouds 8 1021 57 10000 5.1 20 18:39 05.12.2019
2921 Clouds 8 1021 57 10000 4.1 10 18:21 05.12.2019
2922 Clouds 8 1021 57 10000 4.6 10 17:57 05.12.2019
2923 Clouds 8 1021 57 10000 4.6 10 17:38 05.12.2019
2924 Clouds 8 1021 57 10000 4.6 10 17:38 05.12.2019
2925 Clouds 9 1020 57 10000 5.1 20 17:18 05.12.2019
2926 Clouds 9 1021 53 10000 4.6 30 16:55 05.12.2019
2927 Clouds 9 1021 53 10000 5.1 40 16:37 05.12.2019
2928 Clouds 9 1021 53 10000 5.1 40 16:18 05.12.2019
2929 Clouds 8 1021 33 10000 4.6 20 15:55 05.12.2019
2930 Clouds 8 1020 43 10000 4.1 20 15:36 05.12.2019
2931 Clouds 8 1020 43 10000 4.1 20 15:18 05.12.2019
2932 Clouds 9 1021 43 10000 3.6 20 14:54 05.12.2019
2933 Clouds 9 1021 33 10000 5.1 360 14:36 05.12.2019
2934 Clouds 9 1021 33 10000 5.1 360 14:18 05.12.2019
2935 Clouds 10 1021 40 10000 7.2 350 13:54 05.12.2019
2936 Clouds 10 1021 37 10000 5.7 350 13:36 05.12.2019
2937 Clouds 10 1021 37 10000 5.7 350 13:18 05.12.2019
2938 Clouds 10 1021 37 10000 5.7 360 12:41 05.12.2019
2939 Clouds 10 1020 62 10000 2.1 130 12:23 05.12.2019
2940 Clouds 10 1020 66 10000 3.1 130 11:56 05.12.2019
2941 Clouds 10 1020 66 10000 3.1 130 11:37 05.12.2019
2942 Clouds 10 1020 62 10000 2.1 130 11:19 05.12.2019
2943 Clouds 11 1020 58 10000 1.5 150 10:55 05.12.2019
2944 Clouds 11 1020 58 10000 1 140 10:37 05.12.2019
2945 Clouds 11 1019 62 10000 1.5 150 10:18 05.12.2019
2946 Clouds 11 1020 58 10000 1 140 10:18 05.12.2019
2947 Clouds 11 1019 62 10000 1.5 150 09:43 05.12.2019
2948 Clouds 11 1019 58 10000 1.5 190 09:21 05.12.2019
2949 Clouds 12 1019 58 10000 2.6 160 08:58 05.12.2019
2950 Clouds 12 1019 50 10000 1.5 170 08:37 05.12.2019
2951 Clouds 12 1019 50 10000 1.5 170 08:19 05.12.2019
2952 Clouds 13 1019 50 10000 1.5 140 07:49 05.12.2019
2953 Clouds 13 1018 47 10000 3.1 130 07:31 05.12.2019
2954 Clouds 13 1019 50 10000 2.1 110 06:57 05.12.2019
2955 Clouds 14 1019 50 10000 2.1 110 06:38 05.12.2019
2956 Clouds 14 1018 47 10000 3.6 150 06:18 05.12.2019
2957 Clouds 13 1019 47 10000 2.6 130 05:47 05.12.2019
2958 Clouds 13 1019 43 10000 3.6 120 05:21 05.12.2019
2959 Clouds 13 1019 40 10000 1.5 60 03:52 05.12.2019
2960 Clouds 11 1020 40 10000 1.5 10 02:43 05.12.2019
2961 Clouds 11 1020 40 10000 2.1 330 02:23 05.12.2019
2962 Clouds 9 1021 46 10000 4.1 340 01:52 05.12.2019
2963 Clouds 8 1021 45 10000 1.5 310 01:24 05.12.2019
2964 Clouds 8 1021 43 10000 2.1 330 00:50 05.12.2019
2965 Clouds 7 1021 46 10000 5.1 330 00:29 05.12.2019
2966 Clouds 6 1021 49 10000 4.6 330 23:57 04.12.2019
2967 Clouds 6 1020 39 10000 1 0 23:39 04.12.2019
2968 Clouds 4 1020 52 10000 3.6 320 23:20 04.12.2019
2969 Clouds 4 1020 52 10000 5.1 330 22:55 04.12.2019
2970 Clouds 4 1020 52 10000 4.6 320 22:36 04.12.2019
2971 Clouds 4 1020 52 10000 4.6 320 22:18 04.12.2019
2972 Clouds 5 1020 52 10000 5.1 320 21:54 04.12.2019
2973 Clouds 5 1020 52 10000 5.1 330 21:36 04.12.2019
2974 Clouds 5 1020 52 10000 5.1 330 21:18 04.12.2019
2975 Clouds 5 1020 49 10000 5.1 330 20:54 04.12.2019
2976 Clouds 5 1019 52 10000 3.6 320 20:36 04.12.2019
2977 Clouds 5 1019 52 10000 3.6 320 20:18 04.12.2019
2978 Clouds 5 1019 52 10000 3.6 320 20:18 04.12.2019
2979 Clouds 5 1019 52 10000 3.6 320 20:18 04.12.2019
2980 Clear 5 1019 40 10000 4.6 330 19:39 04.12.2019
2981 Clear 5 1019 40 10000 4.6 330 19:39 04.12.2019
2982 Clear 6 1019 52 10000 5.7 330 19:21 04.12.2019
2983 Clouds 6 1020 49 10000 5.7 330 18:58 04.12.2019
2984 Clouds 6 1020 49 10000 5.7 330 18:40 04.12.2019
2985 Clouds 6 1019 40 10000 4.6 330 18:21 04.12.2019
2986 Clouds 7 1019 40 10000 5.7 330 17:55 04.12.2019
2987 Clouds 6 1019 40 10000 4.6 320 17:36 04.12.2019
2988 Clouds 6 1019 40 10000 4.6 320 17:18 04.12.2019
2989 Clouds 7 1019 40 10000 5.7 340 16:40 04.12.2019
2990 Clouds 8 1019 50 10000 5.7 340 16:20 04.12.2019
2991 Clouds 8 1019 50 10000 5.7 340 16:20 04.12.2019
2992 Clouds 8 1019 50 10000 6.2 350 15:57 04.12.2019
2993 Clouds 8 1019 50 10000 6.2 350 15:38 04.12.2019
2994 Clear 8 1019 50 10000 5.7 350 15:19 04.12.2019
2995 Clouds 8 1019 50 10000 6.7 340 14:57 04.12.2019
2996 Clouds 8 1019 50 10000 6.7 340 14:39 04.12.2019
2997 Clouds 9 1019 46 10000 6.2 340 14:20 04.12.2019
2998 Clouds 10 1019 50 10000 6.2 360 13:39 04.12.2019
2999 Clouds 9 1019 50 10000 6.2 360 13:20 04.12.2019
3000 Clouds 9 1019 43 10000 6.7 360 12:59 04.12.2019
3001 Clouds 8 1018 47 10000 6.7 360 12:40 04.12.2019
3002 Clouds 9 1018 47 10000 6.7 360 12:22 04.12.2019
3003 Clouds 9 1018 50 10000 5.7 360 11:41 04.12.2019
3004 Clouds 10 1017 50 10000 1.5 80 11:23 04.12.2019
3005 Clouds 11 1017 54 10000 1.5 100 10:57 04.12.2019
3006 Clouds 11 1017 54 10000 1.5 100 10:39 04.12.2019
3007 Clouds 11 1017 47 10000 1.5 130 10:21 04.12.2019
3008 Clouds 11 1016 57 10000 2.6 150 09:42 04.12.2019
3009 Clouds 12 1016 50 10000 2.1 160 09:23 04.12.2019
3010 Clouds 13 1016 54 10000 3.1 160 08:44 04.12.2019
3011 Clouds 13 1016 54 10000 3.1 160 08:44 04.12.2019
3012 Clouds 14 1016 62 10000 1.5 170 08:25 04.12.2019
3013 Clouds 15 1016 58 10000 3.6 160 07:51 04.12.2019
3014 Clouds 15 1015 58 10000 2.1 150 07:31 04.12.2019
3015 Clouds 15 1016 58 10000 2.6 120 06:59 04.12.2019
3016 Clouds 15 1015 54 10000 2.1 140 06:31 04.12.2019
3017 Clouds 15 1015 58 10000 3.1 150 05:46 04.12.2019
3018 Clouds 14 1016 41 10000 2.6 140 04:39 04.12.2019
3019 Clouds 14 1016 50 10000 2.6 140 03:52 04.12.2019
3020 Clouds 11 1018 40 10000 2.1 360 01:53 04.12.2019
3021 Clouds 10 1018 43 10000 3.1 310 00:49 04.12.2019
3022 Clouds 9 1018 43 10000 2.1 330 00:22 04.12.2019
3023 Clouds 9 1018 46 10000 2.6 330 23:55 03.12.2019
3024 Clouds 6 1017 37 10000 3.1 320 23:37 03.12.2019
3025 Clouds 5 1017 40 10000 3.1 320 23:18 03.12.2019
3026 Clouds 4 1018 65 10000 2.6 260 22:39 03.12.2019
3027 Clouds 4 1018 65 10000 2.6 260 22:39 03.12.2019
3028 Clouds 4 1018 65 10000 2.6 260 22:39 03.12.2019
3029 Clouds 4 1017 40 10000 2.6 290 22:18 03.12.2019
3030 Clouds 5 1017 52 10000 3.1 300 21:57 03.12.2019
3031 Clouds 5 1017 52 10000 3.1 300 21:37 03.12.2019
3032 Clouds 5 1017 52 10000 4.6 310 21:19 03.12.2019
3033 Clouds 5 1017 52 10000 4.1 310 20:56 03.12.2019
3034 Clouds 6 1017 52 10000 4.1 310 20:38 03.12.2019
3035 Clouds 6 1016 49 10000 4.1 320 20:18 03.12.2019
3036 Clouds 6 1016 49 10000 4.6 320 19:54 03.12.2019
3037 Clouds 6 1016 49 10000 5.1 320 19:36 03.12.2019
3038 Clouds 7 1016 49 10000 5.1 320 19:18 03.12.2019
3039 Clouds 7 1017 49 10000 5.7 320 18:55 03.12.2019
3040 Clouds 7 1016 49 10000 6.2 340 18:37 03.12.2019
3041 Clouds 7 1016 49 10000 6.2 340 18:19 03.12.2019
3042 Clouds 8 1016 43 10000 5.7 350 17:40 03.12.2019
3043 Clouds 8 1016 50 10000 7.2 10 17:19 03.12.2019
3044 Clouds 8 1016 53 10000 7.2 360 16:59 03.12.2019
3045 Clouds 9 1016 53 10000 7.2 360 16:40 03.12.2019
3046 Clouds 9 1016 46 10000 6.7 360 16:21 03.12.2019
3047 Clouds 9 1016 46 10000 7.2 10 15:59 03.12.2019
3048 Clouds 9 1016 46 10000 7.2 10 15:39 03.12.2019
3049 Clouds 9 1016 41 10000 7.2 10 15:20 03.12.2019
3050 Clouds 9 1016 41 10000 7.2 10 15:20 03.12.2019
3051 Clouds 9 1016 50 10000 7.7 10 14:58 03.12.2019
3052 Clouds 9 1016 50 10000 7.7 10 14:40 03.12.2019
3053 Clouds 10 1015 50 10000 6.2 10 14:19 03.12.2019
3054 Clouds 11 1016 47 10000 6.7 10 13:39 03.12.2019
3055 Clouds 11 1015 43 10000 6.2 360 13:20 03.12.2019
3056 Clouds 11 1015 43 10000 6.2 360 13:20 03.12.2019
3057 Clouds 11 1015 44 10000 6.2 10 12:58 03.12.2019
3058 Clouds 12 1015 44 10000 6.2 10 12:38 03.12.2019
3059 Clouds 12 1015 67 10000 3.1 20 12:18 03.12.2019
3060 Clouds 12 1015 67 10000 2.6 50 11:58 03.12.2019
3061 Clouds 13 1015 67 10000 2.6 50 11:38 03.12.2019
3062 Clouds 12 1014 58 10000 3.6 80 11:20 03.12.2019
3063 Clouds 12 1014 62 10000 2.1 90 10:56 03.12.2019
3064 Clouds 12 1014 67 10000 1.5 100 10:38 03.12.2019
3065 Clouds 12 1014 67 10000 1.5 100 10:19 03.12.2019
3066 Clouds 13 1013 58 10000 1.5 150 09:45 03.12.2019
3067 Clouds 14 1013 54 10000 2.6 180 09:25 03.12.2019
3068 Clouds 14 1013 50 10000 2.1 160 08:58 03.12.2019
3069 Clouds 14 1013 50 10000 2.1 160 08:39 03.12.2019
3070 Clouds 15 1012 58 10000 2.6 160 08:21 03.12.2019
3071 Clouds 15 1013 51 10000 2.6 150 07:52 03.12.2019
3072 Clouds 15 1012 54 10000 3.1 150 07:29 03.12.2019
3073 Clouds 15 1012 54 10000 3.1 150 07:29 03.12.2019
3074 Clouds 16 1012 44 10000 3.1 130 06:56 03.12.2019
3075 Clouds 16 1011 40 10000 2.1 110 06:20 03.12.2019
3076 Clouds 16 1012 44 10000 2.6 80 05:55 03.12.2019
3077 Clouds 15 1012 38 10000 3.6 330 03:44 03.12.2019
3078 Clouds 15 1012 38 10000 3.6 330 03:23 03.12.2019
3079 Clouds 14 1013 44 10000 6.7 340 02:54 03.12.2019
3080 Clouds 14 1012 42 10000 4.6 330 02:32 03.12.2019
3081 Clouds 13 1013 50 10000 7.7 350 01:59 03.12.2019
3082 Clouds 12 1013 50 10000 7.7 350 01:39 03.12.2019
3083 Clouds 12 1012 46 10000 5.1 340 01:20 03.12.2019
3084 Clouds 12 1012 50 10000 3.6 330 00:42 03.12.2019
3085 Rain 11 1012 54 10000 8.7 350 00:23 03.12.2019
3086 Rain 11 1012 54 10000 9.3 350 23:44 02.12.2019
3087 Rain 10 1011 54 10000 7.2 350 23:22 02.12.2019
3088 Rain 11 1011 54 10000 5.7 350 22:58 02.12.2019
3089 Rain 11 1011 54 10000 5.7 350 22:39 02.12.2019
3090 Rain 11 1010 54 10000 7.2 350 22:20 02.12.2019
3091 Rain 11 1010 54 10000 7.2 360 21:54 02.12.2019
3092 Rain 11 1009 58 10000 8.7 350 21:36 02.12.2019
3093 Rain 11 1009 58 10000 8.7 350 21:18 02.12.2019
3094 Clouds 11 1008 54 10000 9.3 340 20:55 02.12.2019
3095 Clouds 11 1008 54 10000 9.3 340 20:55 02.12.2019
3096 Clouds 11 1008 50 10000 8.7 350 20:36 02.12.2019
3097 Clouds 11 1008 50 10000 8.7 350 20:18 02.12.2019
3098 Clouds 11 1008 54 10000 6.7 350 19:41 02.12.2019
3099 Clouds 11 1008 58 10000 7.2 360 19:21 02.12.2019
3100 Clouds 11 1007 58 10000 4.6 10 18:56 02.12.2019
3101 Clouds 12 1007 58 10000 4.6 10 18:37 02.12.2019
3102 Clouds 12 1007 62 10000 6.2 10 18:18 02.12.2019
3103 Clouds 12 1007 58 10000 4.1 360 17:41 02.12.2019
3104 Clouds 12 1006 58 10000 2.6 350 17:21 02.12.2019
3105 Clouds 12 1007 76 10000 4.6 350 16:59 02.12.2019
3106 Clouds 12 1007 76 10000 4.6 350 16:39 02.12.2019
3107 Clouds 12 1006 81 10000 5.7 330 16:19 02.12.2019
3108 Clouds 11 1006 81 10000 1.5 300 15:57 02.12.2019
3109 Clouds 11 1006 76 10000 2.1 270 15:39 02.12.2019
3110 Clouds 11 1006 76 10000 2.1 270 15:21 02.12.2019
3111 Clouds 11 1006 71 10000 3.6 320 14:56 02.12.2019
3112 Clouds 11 1005 93 6000 1 0 14:37 02.12.2019
3113 Clouds 11 1006 81 10000 1.5 280 14:19 02.12.2019
3114 Clouds 11 1006 76 10000 2.6 340 13:55 02.12.2019
3115 Clouds 11 1006 76 10000 2.6 340 13:55 02.12.2019
3116 Clouds 11 1006 82 10000 3.1 320 13:37 02.12.2019
3117 Clouds 11 1006 82 10000 3.1 320 13:18 02.12.2019
3118 Rain 11 1006 87 10000 2.6 310 12:42 02.12.2019
3119 Rain 11 1006 82 10000 2.6 330 12:21 02.12.2019
3120 Rain 12 1006 87 10000 2.6 360 11:58 02.12.2019
3121 Clouds 11 1007 93 16093 2.38 13 11:38 02.12.2019
3122 Clouds 11 1007 93 16093 3.35 22 11:20 02.12.2019
3123 Clouds 11 1007 93 16093 3.35 22 11:20 02.12.2019
3124 Clouds 11 1005 87 10000 2.1 350 10:58 02.12.2019
3125 Clouds 11 1005 87 10000 4.6 350 10:40 02.12.2019
3126 Clouds 11 1005 87 10000 4.6 350 10:21 02.12.2019
3127 Clouds 13 1005 93 10000 3.1 330 09:56 02.12.2019
3128 Clouds 14 1005 93 10000 3.1 350 09:38 02.12.2019
3129 Clouds 14 1005 93 10000 3.1 350 09:18 02.12.2019
3130 Clouds 14 1004 93 8000 5.7 320 08:55 02.12.2019
3131 Clouds 14 1004 93 8000 5.7 320 08:36 02.12.2019
3132 Rain 15 1004 87 10000 2.1 310 08:18 02.12.2019
3133 Rain 15 1005 81 10000 2.6 10 07:39 02.12.2019
3134 Rain 15 1004 93 7000 5.7 220 07:20 02.12.2019
3135 Rain 15 1004 93 7000 9.3 220 06:42 02.12.2019
3136 Rain 14 1006 100 6000 2.6 190 05:49 02.12.2019
3137 Rain 13 1007 100 1200 0.5 0 05:19 02.12.2019
3138 Rain 13 1009 100 2000 2.6 340 03:35 02.12.2019
3139 Rain 12 1012 93 1500 1 20 02:50 02.12.2019
3140 Rain 10 1013 87 6000 3.1 340 01:50 02.12.2019
3141 Rain 10 1013 93 3500 2.1 340 01:21 02.12.2019
3142 Rain 9 1014 87 8000 9.3 280 00:41 02.12.2019
3143 Rain 9 1014 93 6000 2.6 340 00:22 02.12.2019
3144 Rain 9 1014 87 5000 2.6 20 23:43 01.12.2019
3145 Rain 9 1015 87 6000 2.6 20 23:22 01.12.2019
3146 Rain 9 1016 87 6000 2.6 360 22:57 01.12.2019
3147 Rain 8 1016 87 7000 3.1 30 22:38 01.12.2019
3148 Rain 8 1016 87 7000 3.1 30 22:20 01.12.2019
3149 Rain 8 1016 87 7000 3.1 30 22:20 01.12.2019
3150 Rain 8 1016 87 7000 2.6 50 21:57 01.12.2019
3151 Rain 7 1016 87 7000 2.6 50 21:39 01.12.2019
3152 Rain 8 1016 87 8000 3.6 30 21:21 01.12.2019
3153 Rain 7 1017 87 10000 3.6 30 20:58 01.12.2019
3154 Rain 8 1017 87 10000 3.6 30 20:40 01.12.2019
3155 Rain 9 1017 81 10000 3.6 40 20:21 01.12.2019
3156 Rain 9 1018 81 8000 3.1 350 19:58 01.12.2019
3157 Rain 9 1018 76 10000 3.1 50 19:39 01.12.2019
3158 Rain 9 1018 76 10000 3.1 50 19:39 01.12.2019
3159 Rain 9 1018 76 10000 3.1 50 19:39 01.12.2019
3160 Rain 10 1018 76 10000 3.1 50 19:21 01.12.2019
3161 Rain 10 1018 76 10000 3.1 50 19:21 01.12.2019
3162 Clouds 8 1018 76 10000 3.1 20 18:57 01.12.2019
3163 Clouds 9 1018 81 10000 2.6 30 18:38 01.12.2019
3164 Clouds 9 1018 81 10000 2.6 30 18:19 01.12.2019
3165 Rain 9 1019 81 10000 2.6 210 17:58 01.12.2019
3166 Clouds 10 1018 72 10000 6.2 240 17:40 01.12.2019
3167 Clouds 11 1018 72 10000 6.2 240 17:22 01.12.2019
3168 Clouds 10 1019 76 10000 5.1 250 16:55 01.12.2019
3169 Clouds 10 1020 93 10000 2.1 190 16:37 01.12.2019
3170 Clouds 10 1020 76 10000 6.2 230 16:19 01.12.2019
3171 Clouds 10 1020 81 10000 4.6 240 15:46 01.12.2019
3172 Clouds 10 1021 81 10000 3.06 233 15:28 01.12.2019
3173 Clouds 10 1021 76 10000 1 0 14:42 01.12.2019
3174 Clouds 9 1021 76 10000 1 0 14:20 01.12.2019
3175 Clouds 8 1022 66 10000 2.6 60 13:59 01.12.2019
3176 Clouds 8 1022 66 10000 2.6 60 13:39 01.12.2019
3177 Clouds 8 1022 66 10000 2.6 40 13:19 01.12.2019
3178 Clouds 8 1022 66 10000 2.6 20 12:44 01.12.2019
3179 Clouds 9 1022 66 10000 2.1 360 11:58 01.12.2019
3180 Clouds 9 1022 66 10000 2.1 360 11:39 01.12.2019
3181 Clouds 8 1023 71 10000 2.6 340 11:21 01.12.2019
3182 Clouds 11 1022 71 10000 3.1 20 10:43 01.12.2019
3183 Clouds 11 1022 71 10000 3.1 20 10:21 01.12.2019
3184 Clouds 12 1022 76 10000 2.1 20 09:57 01.12.2019
3185 Clouds 11 1022 76 10000 2.1 360 09:38 01.12.2019
3186 Clouds 11 1022 76 10000 2.1 360 09:20 01.12.2019
3187 Clouds 11 1022 71 10000 1.5 0 08:44 01.12.2019
3188 Clouds 12 1022 71 10000 1 0 08:20 01.12.2019
3189 Clouds 12 1022 71 10000 1 0 07:51 01.12.2019
3190 Clouds 13 1022 71 10000 1 0 07:30 01.12.2019
3191 Clouds 13 1023 71 10000 1.5 70 06:56 01.12.2019
3192 Clouds 13 1023 66 10000 2.1 130 06:30 01.12.2019
3193 Clouds 12 1024 61 10000 2.1 70 05:47 01.12.2019
3194 Clouds 11 1025 61 10000 2.1 80 04:49 01.12.2019
3195 Rain 9 1027 44 10000 2.6 10 02:54 01.12.2019
3196 Clouds 9 1027 56 10000 1.5 360 02:36 01.12.2019
3197 Clouds 8 1027 56 10000 1.5 360 02:18 01.12.2019
3198 Rain 8 1028 38 10000 2.6 30 01:50 01.12.2019
3199 Clouds 7 1028 56 10000 2.1 330 01:19 01.12.2019
3200 Clouds 6 1028 60 10000 3.1 310 00:40 01.12.2019
3201 Clouds 6 1028 61 10000 3.6 350 00:22 01.12.2019
3202 Clouds 6 1028 61 10000 3.6 350 23:42 30.11.2019
3203 Clouds 5 1028 65 10000 3.1 340 23:23 30.11.2019
3204 Clouds 5 1028 65 10000 4.1 350 22:50 30.11.2019
3205 Clouds 5 1028 70 10000 4.1 350 22:30 30.11.2019
3206 Clouds 5 1028 70 10000 4.6 340 21:58 30.11.2019
3207 Clouds 5 1028 93 10000 3.1 320 21:39 30.11.2019
3208 Clouds 5 1028 65 10000 3.6 330 21:20 30.11.2019
3209 Clouds 5 1028 65 10000 4.1 320 20:55 30.11.2019
3210 Clouds 5 1028 70 10000 5.1 320 20:37 30.11.2019
3211 Clouds 5 1028 70 10000 5.1 320 20:19 30.11.2019
3212 Clouds 4 1028 65 10000 3.1 320 19:55 30.11.2019
3213 Clouds 4 1028 65 10000 3.1 320 19:55 30.11.2019
3214 Clouds 4 1028 70 10000 3.6 290 19:36 30.11.2019
3215 Clouds 4 1028 70 10000 3.6 290 19:18 30.11.2019
3216 Clouds 5 1028 65 10000 1.5 310 18:55 30.11.2019
3217 Clouds 5 1029 65 10000 3.1 300 18:37 30.11.2019
3218 Clouds 5 1029 65 10000 3.1 300 18:18 30.11.2019
3219 Clouds 4 1029 70 10000 2.1 290 17:56 30.11.2019
3220 Clouds 4 1029 70 10000 2.1 290 17:37 30.11.2019
3221 Clouds 4 1029 70 10000 2.1 290 17:19 30.11.2019
3222 Clouds 4 1029 75 10000 1.5 280 16:42 30.11.2019
3223 Clouds 4 1029 75 10000 1.5 260 16:23 30.11.2019
3224 Clouds 4 1029 43 10000 2.6 160 15:58 30.11.2019
3225 Clouds 4 1029 43 10000 2.6 160 15:40 30.11.2019
3226 Clouds 4 1029 43 10000 3.1 160 15:19 30.11.2019
3227 Clouds 4 1029 43 10000 3.1 160 15:19 30.11.2019
3228 Clouds 4 1029 65 10000 2.6 150 14:56 30.11.2019
3229 Clouds 4 1029 65 10000 3.1 140 14:37 30.11.2019
3230 Clouds 4 1029 65 10000 3.1 140 14:18 30.11.2019
3231 Clouds 5 1029 40 10000 2.6 150 13:56 30.11.2019
3232 Clouds 5 1029 57 10000 4.1 160 13:36 30.11.2019
3233 Clouds 5 1029 57 10000 4.1 160 13:18 30.11.2019
3234 Clouds 6 1029 53 10000 2.6 130 12:43 30.11.2019
3235 Clouds 7 1029 53 10000 3.1 110 12:25 30.11.2019
3236 Clouds 7 1029 53 10000 2.1 100 11:45 30.11.2019
3237 Clouds 8 1029 53 10000 3.1 70 11:20 30.11.2019
3238 Clear 7 1029 53 10000 2.6 60 10:57 30.11.2019
3239 Clear 8 1029 53 10000 2.6 60 10:39 30.11.2019
3240 Clouds 7 1029 35 10000 3.6 40 10:20 30.11.2019
3241 Clouds 9 1028 50 10000 3.6 50 09:46 30.11.2019
3242 Clouds 9 1028 50 10000 4.1 60 09:28 30.11.2019
3243 Clouds 10 1028 50 10000 4.1 30 08:44 30.11.2019
3244 Clouds 10 1028 50 10000 4.1 30 08:44 30.11.2019
3245 Clouds 10 1027 43 10000 2.1 40 08:23 30.11.2019
3246 Clouds 11 1027 50 10000 4.6 50 07:59 30.11.2019
3247 Clouds 11 1027 50 10000 4.6 50 07:40 30.11.2019
3248 Clouds 12 1027 43 10000 3.6 50 07:21 30.11.2019
3249 Clouds 13 1026 40 10000 3.1 30 06:30 30.11.2019
3250 Clouds 13 1026 40 10000 3.1 30 06:30 30.11.2019
3251 Clouds 12 1027 40 10000 5.7 30 05:55 30.11.2019
3252 Clouds 11 1027 40 10000 8.2 350 03:54 30.11.2019
3253 Clouds 11 1027 40 10000 8.2 350 03:54 30.11.2019
3254 Clouds 11 1027 40 10000 8.2 350 03:54 30.11.2019
3255 Clouds 11 1027 39 10000 3.1 320 03:18 30.11.2019
3256 Clouds 9 1028 45 10000 3.6 30 02:25 30.11.2019
3257 Clouds 9 1028 30 10000 4.6 20 01:47 30.11.2019
3258 Clouds 8 1028 49 10000 2.6 20 01:24 30.11.2019
3259 Clouds 7 1028 56 10000 3.6 40 00:38 30.11.2019
3260 Clouds 6 1028 42 10000 5.1 330 00:20 30.11.2019
3261 Clouds 5 1028 48 10000 5.7 330 23:44 29.11.2019
3262 Clouds 5 1028 48 10000 5.7 330 23:44 29.11.2019
3263 Clouds 4 1026 45 10000 6.7 320 23:23 29.11.2019
3264 Clouds 4 1026 45 10000 6.7 320 23:23 29.11.2019
3265 Clouds 4 1026 48 10000 5.7 330 22:48 29.11.2019
3266 Clouds 3 1025 56 10000 5.1 340 22:26 29.11.2019
3267 Clear 4 1025 56 10000 5.7 10 21:55 29.11.2019
3268 Clear 4 1025 43 10000 7.2 10 21:36 29.11.2019
3269 Clear 4 1025 43 10000 7.2 10 21:18 29.11.2019
3270 Clear 4 1025 43 10000 6.7 10 20:54 29.11.2019
3271 Clear 4 1024 60 10000 5.7 330 20:36 29.11.2019
3272 Clear 4 1024 60 10000 5.7 330 20:18 29.11.2019
3273 Clear 4 1025 40 10000 6.7 350 19:41 29.11.2019
3274 Clear 4 1024 60 10000 5.1 340 19:21 29.11.2019
3275 Clear 3 1024 65 10000 3.6 300 18:59 29.11.2019
3276 Clear 3 1024 65 10000 3.6 300 18:41 29.11.2019
3277 Clear 4 1024 60 10000 4.1 310 18:23 29.11.2019
3278 Clear 4 1024 40 10000 3.6 330 17:56 29.11.2019
3279 Clear 4 1024 40 10000 3.6 290 17:38 29.11.2019
3280 Clear 4 1024 39 10000 3.6 290 17:19 29.11.2019
3281 Clouds 3 1024 39 10000 3.6 300 16:42 29.11.2019
3282 Clear 3 1023 65 10000 2.6 300 16:21 29.11.2019
3283 Clear 4 1024 39 10000 3.1 300 15:56 29.11.2019
3284 Clear 4 1024 39 10000 3.1 300 15:37 29.11.2019
3285 Clear 4 1023 39 10000 2.1 310 15:19 29.11.2019
3286 Clear 4 1023 60 10000 2.6 290 14:40 29.11.2019
3287 Clear 4 1023 56 10000 2.6 290 14:21 29.11.2019
3288 Clear 4 1024 60 10000 2.6 300 13:57 29.11.2019
3289 Clouds 5 1023 74 10000 2.1 220 13:37 29.11.2019
3290 Clear 5 1023 52 10000 2.6 290 13:19 29.11.2019
3291 Clear 5 1023 45 10000 3.6 270 12:42 29.11.2019
3292 Clear 5 1023 45 10000 3.6 270 12:24 29.11.2019
3293 Clear 5 1023 45 10000 2.1 270 11:56 29.11.2019
3294 Clear 5 1023 45 10000 0.5 0 11:38 29.11.2019
3295 Clear 5 1023 45 10000 0.5 0 11:19 29.11.2019
3296 Clouds 6 1024 42 10000 0.5 0 10:57 29.11.2019
3297 Clouds 6 1023 80 10000 1 0 10:39 29.11.2019
3298 Clouds 6 1023 45 10000 1.5 40 10:20 29.11.2019
3299 Clouds 7 1023 49 10000 2.6 40 09:58 29.11.2019
3300 Clouds 8 1023 49 10000 2.6 40 09:39 29.11.2019
3301 Clouds 8 1023 45 10000 3.1 50 09:20 29.11.2019
3302 Clouds 9 1023 42 10000 2.6 30 08:55 29.11.2019
3303 Clouds 9 1023 39 10000 2.6 30 08:37 29.11.2019
3304 Clouds 9 1023 39 10000 2.6 30 08:18 29.11.2019
3305 Clouds 10 1023 45 10000 3.1 50 07:41 29.11.2019
3306 Clouds 10 1023 45 10000 3.1 50 07:41 29.11.2019
3307 Clouds 10 1022 39 10000 3.6 50 07:23 29.11.2019
3308 Clouds 10 1023 42 10000 4.6 40 06:47 29.11.2019
3309 Clouds 10 1023 39 10000 4.1 30 06:28 29.11.2019
3310 Clouds 9 1023 36 10000 4.1 30 05:32 29.11.2019
3311 Clouds 9 1023 36 10000 4.1 30 05:32 29.11.2019
3312 Clouds 9 1023 36 10000 4.1 30 05:32 29.11.2019
3313 Clouds 9 1023 36 10000 4.1 30 05:32 29.11.2019
3314 Clouds 9 1023 45 10000 3.6 50 04:57 29.11.2019
3315 Clouds 8 1025 42 10000 2.1 20 03:41 29.11.2019
3316 Clouds 8 1025 42 10000 2.1 20 03:18 29.11.2019
3317 Clouds 7 1025 48 10000 4.1 20 02:25 29.11.2019
3318 Clouds 6 1026 56 10000 7.2 20 01:45 29.11.2019
3319 Clouds 6 1026 52 10000 5.1 40 01:23 29.11.2019
3320 Clouds 5 1025 56 10000 4.1 30 00:40 29.11.2019
3321 Clouds 5 1025 56 10000 7.7 40 00:20 29.11.2019
3322 Clouds 4 1026 60 10000 8.7 30 23:44 28.11.2019
3323 Clouds 3 1025 60 10000 8.2 40 23:21 28.11.2019
3324 Clouds 3 1025 65 10000 8.2 40 22:57 28.11.2019
3325 Clouds 3 1025 60 10000 8.7 40 22:37 28.11.2019
3326 Clouds 3 1025 60 10000 8.7 40 22:19 28.11.2019
3327 Clouds 3 1025 60 10000 9.8 40 21:55 28.11.2019
3328 Clouds 3 1025 60 10000 9.8 40 21:37 28.11.2019
3329 Clouds 3 1024 60 10000 8.2 30 21:18 28.11.2019
3330 Clouds 3 1024 64 10000 8.7 30 20:42 28.11.2019
3331 Clouds 4 1024 60 10000 8.2 30 20:23 28.11.2019
3332 Clouds 4 1024 60 10000 7.7 40 19:59 28.11.2019
3333 Clouds 4 1024 65 10000 7.7 30 19:40 28.11.2019
3334 Clouds 4 1024 65 10000 7.7 30 19:22 28.11.2019
3335 Clouds 4 1025 65 10000 7.2 30 18:59 28.11.2019
3336 Clouds 5 1024 60 10000 7.7 30 18:39 28.11.2019
3337 Clouds 5 1024 60 10000 7.7 30 18:18 28.11.2019
3338 Clouds 5 1024 65 10000 7.2 30 17:59 28.11.2019
3339 Clouds 5 1024 65 10000 7.2 30 17:59 28.11.2019
3340 Clouds 5 1024 65 10000 7.2 30 17:41 28.11.2019
3341 Clouds 5 1024 65 10000 7.2 30 17:41 28.11.2019
3342 Clouds 5 1024 40 10000 7.7 30 17:22 28.11.2019
3343 Clouds 5 1024 60 10000 7.2 20 16:57 28.11.2019
3344 Clouds 5 1024 60 10000 6.7 10 16:38 28.11.2019
3345 Clouds 5 1023 40 10000 7.7 30 16:18 28.11.2019
3346 Clouds 6 1024 40 10000 7.2 30 15:42 28.11.2019
3347 Clouds 6 1023 65 10000 7.2 40 15:20 28.11.2019
3348 Clouds 6 1023 65 10000 8.2 40 14:59 28.11.2019
3349 Clouds 6 1023 65 10000 8.2 40 14:41 28.11.2019
3350 Clouds 6 1023 66 10000 8.7 40 14:22 28.11.2019
3351 Clouds 6 1023 66 10000 9.3 30 13:58 28.11.2019
3352 Clouds 6 1023 66 10000 9.3 30 13:40 28.11.2019
3353 Clouds 7 1022 61 10000 8.7 30 13:21 28.11.2019
3354 Clouds 7 1023 61 10000 8.7 20 12:45 28.11.2019
3355 Clouds 7 1022 65 10000 8.2 20 12:27 28.11.2019
3356 Rain 7 1022 70 10000 7.7 50 11:58 28.11.2019
3357 Rain 7 1022 75 10000 9.3 50 11:40 28.11.2019
3358 Rain 7 1022 75 10000 9.3 50 11:20 28.11.2019
3359 Rain 7 1022 75 10000 9.3 40 10:57 28.11.2019
3360 Rain 7 1022 75 10000 9.3 40 10:38 28.11.2019
3361 Rain 7 1022 81 10000 8.2 60 10:18 28.11.2019
3362 Rain 7 1021 81 10000 8.2 70 09:41 28.11.2019
3363 -273 0 0 0 0 0 09:23 28.11.2019
3364 Rain 8 1021 81 10000 8.2 60 08:58 28.11.2019
3365 Rain 8 1021 81 10000 8.2 60 08:58 28.11.2019
3366 Rain 8 1021 81 10000 8.2 60 08:38 28.11.2019
3367 Rain 8 1021 49 9000 6.7 30 08:20 28.11.2019
3368 Rain 8 1020 81 10000 5.7 60 07:42 28.11.2019
3369 Rain 8 1020 81 10000 5.1 60 07:24 28.11.2019
3370 Rain 9 1020 76 10000 6.7 40 06:50 28.11.2019
3371 Rain 9 1019 76 10000 4.6 70 06:31 28.11.2019
3372 Rain 9 1020 76 10000 7.2 50 05:51 28.11.2019
3373 Rain 10 1019 81 10000 6.2 70 05:18 28.11.2019
3374 Rain 10 1021 76 10000 5.1 350 02:46 28.11.2019
3375 Rain 11 1020 81 10000 5.7 10 01:50 28.11.2019
3376 Rain 11 1020 81 10000 1.5 0 00:48 28.11.2019
3377 Rain 11 1019 76 10000 6.7 10 00:24 28.11.2019
3378 Rain 11 1019 76 10000 5.7 20 23:55 27.11.2019
3379 Clouds 11 1018 82 10000 6.2 30 23:37 27.11.2019
3380 Clouds 11 1018 82 10000 6.2 30 23:37 27.11.2019
3381 Clouds 11 1018 82 10000 6.2 30 23:19 27.11.2019
3382 Clouds 11 1018 87 10000 6.2 40 22:39 27.11.2019
3383 Clouds 11 1017 87 10000 5.7 40 22:20 27.11.2019
3384 Clouds 11 1017 87 10000 4.1 50 21:56 27.11.2019
3385 Clouds 11 1017 87 10000 4.1 50 21:38 27.11.2019
3386 Clouds 11 1016 87 10000 5.1 50 21:19 27.11.2019
3387 Clouds 11 1016 93 10000 4.1 60 20:59 27.11.2019
3388 Clouds 11 1016 93 10000 4.1 60 20:59 27.11.2019
3389 Clouds 11 1016 93 10000 4.1 60 20:40 27.11.2019
3390 Clouds 11 1016 93 10000 3.6 50 20:22 27.11.2019
3391 Clouds 11 1017 87 10000 3.6 30 19:58 27.11.2019
3392 Clouds 10 1017 87 10000 3.6 30 19:40 27.11.2019
3393 Rain 10 1016 93 8000 4.1 20 19:22 27.11.2019
3394 Clouds 10 1017 100 7000 5.1 10 18:59 27.11.2019
3395 Rain 10 1016 93 7000 5.1 40 18:38 27.11.2019
3396 Rain 10 1016 93 7000 5.1 40 18:19 27.11.2019
3397 Rain 10 1017 87 7000 4.6 360 17:58 27.11.2019
3398 Rain 10 1017 87 7000 4.6 360 17:40 27.11.2019
3399 Rain 10 1017 87 7000 4.6 360 17:40 27.11.2019
3400 Rain 10 1017 93 8000 4.1 350 17:21 27.11.2019
3401 Rain 10 1017 93 8000 3.6 360 16:57 27.11.2019
3402 Rain 10 1017 93 9000 5.7 340 16:38 27.11.2019
3403 Rain 10 1017 93 9000 5.7 340 16:20 27.11.2019
3404 Rain 10 1017 87 8000 3.1 360 15:57 27.11.2019
3405 Drizzle 10 1016 100 1800 3.1 330 15:39 27.11.2019
3406 Drizzle 10 1017 93 7000 3.1 10 15:21 27.11.2019
3407 Clouds 11 1018 87 8000 4.1 10 14:57 27.11.2019
3408 Clouds 11 1018 87 8000 4.1 10 14:39 27.11.2019
3409 Clouds 11 1017 87 10000 4.1 10 14:21 27.11.2019
3410 Clouds 10 1018 87 10000 3.6 360 13:57 27.11.2019
3411 Clouds 10 1018 87 10000 4.6 360 13:39 27.11.2019
3412 Clouds 10 1018 87 10000 4.6 360 13:19 27.11.2019
3413 Clouds 10 1018 81 10000 4.1 360 12:56 27.11.2019
3414 Clouds 10 1018 81 10000 4.1 360 12:38 27.11.2019
3415 Clouds 10 1020 87 16093 2.6 30 12:19 27.11.2019
3416 Clouds 10 1020 87 16093 3.99 5 11:38 27.11.2019
3417 Clouds 10 1020 87 16093 1.55 45 11:19 27.11.2019
3418 Clouds 10 1020 87 16093 1.55 45 10:58 27.11.2019
3419 Clouds 11 1018 81 10000 3.6 20 10:40 27.11.2019
3420 Clouds 11 1018 81 10000 3.6 20 10:22 27.11.2019
3421 Clouds 11 1019 81 10000 3.6 10 09:44 27.11.2019
3422 Rain 11 1018 87 10000 4.1 20 09:26 27.11.2019
3423 Rain 11 1018 87 10000 4.6 20 08:57 27.11.2019
3424 Clouds 11 1018 87 8000 1.5 0 08:38 27.11.2019
3425 Clouds 11 1018 87 8000 1.5 0 08:19 27.11.2019
3426 Mist 11 1018 93 8047 1.72 44 07:45 27.11.2019
3427 Clouds 11 1018 87 7000 1.5 20 07:27 27.11.2019
3428 Clouds 11 1019 93 8000 2.6 40 06:47 27.11.2019
3429 Clouds 11 1019 87 6000 0.5 0 06:29 27.11.2019
3430 Rain 10 1020 93 5000 1.5 50 05:27 27.11.2019
3431 Rain 10 1021 93 6000 3.1 30 04:59 27.11.2019
3432 Rain 9 1022 93 4000 1.5 0 04:40 27.11.2019
3433 Rain 9 1022 93 5000 3.6 10 03:53 27.11.2019
3434 Rain 9 1023 93 5000 2.6 20 03:22 27.11.2019
3435 Rain 9 1023 76 8000 1.5 30 02:54 27.11.2019
3436 Rain 8 1025 81 10000 3.1 310 01:39 27.11.2019
3437 Rain 8 1024 100 1408 2.6 330 00:45 27.11.2019
3438 Rain 8 1025 93 2615 2.1 350 00:26 27.11.2019
3439 Rain 8 1025 93 3621 2.1 330 23:49 26.11.2019
3440 Rain 8 1025 93 3621 2.1 330 23:27 26.11.2019
3441 Rain 8 1025 76 10000 4.1 360 22:58 26.11.2019
3442 Clouds 8 1025 71 10000 4.6 360 22:38 26.11.2019
3443 Clouds 8 1025 71 10000 4.6 360 22:19 26.11.2019
3444 Clouds 8 1025 76 10000 4.1 10 21:58 26.11.2019
3445 Clouds 8 1025 76 10000 4.1 10 21:58 26.11.2019
3446 Rain 8 1025 81 10000 4.6 350 21:37 26.11.2019
3447 Rain 8 1026 81 10000 5.1 340 21:19 26.11.2019
3448 Rain 8 1026 81 10000 5.1 340 20:55 26.11.2019
3449 Rain 8 1026 81 10000 4.1 340 20:36 26.11.2019
3450 Rain 8 1026 81 10000 4.1 340 20:18 26.11.2019
3451 Rain 8 1026 81 10000 4.6 350 19:55 26.11.2019
3452 Rain 8 1027 76 10000 4.1 360 19:37 26.11.2019
3453 Rain 8 1027 76 10000 4.1 360 19:18 26.11.2019
3454 Rain 8 1027 76 10000 4.6 360 18:56 26.11.2019
3455 Rain 8 1027 76 10000 5.1 360 18:38 26.11.2019
3456 Clouds 8 1027 76 10000 5.7 360 18:20 26.11.2019
3457 Clouds 8 1027 76 10000 5.7 360 17:55 26.11.2019
3458 Clouds 8 1028 81 10000 5.7 360 17:37 26.11.2019
3459 Rain 8 1028 81 10000 5.7 360 17:18 26.11.2019
3460 Rain 8 1028 81 10000 5.7 360 16:55 26.11.2019
3461 Rain 8 1028 81 10000 6.2 360 16:37 26.11.2019
3462 Rain 8 1028 81 10000 6.2 360 16:18 26.11.2019
3463 Rain 9 1029 76 10000 6.2 360 15:57 26.11.2019
3464 Rain 9 1029 76 10000 6.2 10 15:37 26.11.2019
3465 Rain 9 1029 76 10000 6.2 10 15:37 26.11.2019
3466 Rain 9 1029 76 10000 6.2 10 15:18 26.11.2019
3467 Rain 9 1029 71 10000 5.7 360 14:45 26.11.2019
3468 Clouds 9 1029 71 10000 6.2 10 14:24 26.11.2019
3469 Clouds 9 1030 76 10000 6.2 360 13:44 26.11.2019
3470 Clouds 9 1029 71 10000 6.7 20 13:24 26.11.2019
3471 Clouds 9 1029 71 10000 6.2 10 12:58 26.11.2019
3472 Clouds 9 1029 71 10000 6.7 20 12:37 26.11.2019
3473 Clouds 9 1029 71 10000 6.7 20 12:19 26.11.2019
3474 Clouds 9 1030 76 10000 6.7 10 11:55 26.11.2019
3475 Clouds 9 1030 76 10000 6.7 10 11:55 26.11.2019
3476 Clouds 9 1029 76 10000 6.2 20 11:37 26.11.2019
3477 Clouds 9 1030 71 10000 5.7 20 11:18 26.11.2019
3478 -273 0 0 0 0 0 10:56 26.11.2019
3479 Clouds 9 1029 76 10000 5.7 20 10:37 26.11.2019
3480 Clouds 9 1029 76 10000 5.7 20 10:19 26.11.2019
3481 Clouds 9 1029 71 10000 6.2 20 09:42 26.11.2019
3482 Clouds 9 1029 76 10000 5.7 30 09:24 26.11.2019
3483 Clouds 9 1029 76 10000 6.2 40 08:50 26.11.2019
3484 Clouds 9 1029 81 10000 3.6 50 08:31 26.11.2019
3485 Rain 9 1028 76 10000 6.7 40 07:58 26.11.2019
3486 Clouds 9 1029 76 10000 4.1 30 07:40 26.11.2019
3487 Clouds 9 1029 76 10000 4.1 30 07:21 26.11.2019
3488 Rain 9 1029 87 10000 5.7 40 06:50 26.11.2019
3489 Rain 9 1028 81 10000 6.7 40 05:59 26.11.2019
3490 Rain 9 1030 81 16093 2.1 70 05:32 26.11.2019
3491 Rain 8 1029 87 8000 5.1 40 03:22 26.11.2019
3492 Rain 8 1030 87 10000 9.3 40 01:42 26.11.2019
3493 Rain 8 1030 87 10000 9.3 40 01:42 26.11.2019
3494 Rain 8 1029 87 10000 6.2 40 01:22 26.11.2019
3495 Rain 8 1030 87 10000 7.7 30 00:41 26.11.2019
3496 Rain 8 1030 87 10000 7.7 30 00:20 26.11.2019
3497 Rain 8 1028 87 10000 8.2 40 23:39 25.11.2019
3498 Rain 8 1028 87 10000 8.2 40 23:19 25.11.2019
3499 Rain 8 1028 87 10000 8.2 40 22:54 25.11.2019
3500 Rain 8 1029 100 12874 2.1 90 22:36 25.11.2019
3501 Rain 8 1029 100 12874 2.1 90 22:36 25.11.2019
3502 Rain 9 1029 100 12874 2.1 90 22:18 25.11.2019
3503 Rain 9 1029 100 12874 2.1 90 22:18 25.11.2019
3504 Rain 9 1028 93 10000 8.7 40 21:54 25.11.2019
3505 Rain 9 1028 93 16093 3.1 90 21:36 25.11.2019
3506 Rain 9 1028 93 16093 3.1 90 21:18 25.11.2019
3507 Rain 9 1028 93 16093 4.1 100 20:54 25.11.2019
3508 Rain 9 1026 87 5000 8.7 30 20:36 25.11.2019
3509 Rain 9 1026 87 5000 8.7 30 20:18 25.11.2019
3510 Rain 10 1027 87 11265 3.1 100 19:54 25.11.2019
3511 Rain 10 1025 81 10000 8.7 40 19:36 25.11.2019
3512 Rain 10 1025 81 10000 8.7 40 19:18 25.11.2019
3513 Clouds 11 1025 81 10000 9.8 50 18:54 25.11.2019
3514 Drizzle 11 1026 87 16093 3.6 70 18:36 25.11.2019
3515 Drizzle 11 1026 87 16093 3.6 70 18:36 25.11.2019
3516 Clouds 11 1024 76 10000 9.3 50 18:18 25.11.2019
3517 Clouds 12 1024 76 10000 9.3 50 17:54 25.11.2019
3518 Rain 12 1024 71 10000 8.7 50 17:54 25.11.2019
3519 Rain 12 1024 71 10000 8.7 50 17:36 25.11.2019
3520 Rain 12 1023 76 10000 8.2 50 17:18 25.11.2019
3521 Rain 13 1023 76 10000 8.2 50 16:41 25.11.2019
3522 Rain 13 1023 67 10000 9.3 50 16:23 25.11.2019
3523 Rain 13 1022 67 10000 8.2 60 15:57 25.11.2019
3524 Rain 13 1022 71 10000 9.8 70 15:37 25.11.2019
3525 Rain 14 1022 71 10000 9.8 70 15:19 25.11.2019
3526 Rain 14 1022 72 10000 8.2 70 14:55 25.11.2019
3527 Rain 14 1021 72 10000 9.3 70 14:36 25.11.2019
3528 Rain 14 1021 72 10000 9.3 70 14:18 25.11.2019
3529 Rain 14 1021 87 10000 7.7 10 13:39 25.11.2019
3530 Rain 14 1021 87 10000 7.7 10 13:20 25.11.2019
3531 Rain 14 1021 72 10000 6.7 40 12:59 25.11.2019
3532 Rain 15 1022 62 16093 3.1 70 12:40 25.11.2019
3533 Rain 15 1022 62 16093 3.1 70 12:20 25.11.2019
3534 Rain 15 1020 82 10000 8.7 40 11:55 25.11.2019
3535 Rain 15 1020 82 10000 8.7 40 11:55 25.11.2019
3536 Rain 15 1019 72 12874 3.6 20 11:37 25.11.2019
3537 Rain 16 1020 71 16093 6.2 70 11:18 25.11.2019
3538 Rain 17 1020 71 16093 6.2 70 10:41 25.11.2019
3539 Rain 17 1017 82 10000 10.8 50 10:20 25.11.2019
3540 Clouds 18 1016 88 10000 4.6 60 09:45 25.11.2019
3541 Clouds 19 1016 88 10000 4.6 60 09:26 25.11.2019
3542 Clouds 20 1015 93 10000 5.1 80 08:59 25.11.2019
3543 Clouds 20 1015 93 10000 5.1 80 08:39 25.11.2019
3544 Clouds 20 1015 77 10000 3.1 20 08:20 25.11.2019
3545 Clouds 21 1013 68 10000 3.6 30 07:41 25.11.2019
3546 Clouds 21 1013 68 10000 3.6 30 07:20 25.11.2019
3547 Mist 22 1012 88 5000 2.1 130 06:45 25.11.2019
3548 Mist 21 1012 88 5000 2.1 130 06:21 25.11.2019
3549 Mist 21 1012 88 5000 2.1 130 06:21 25.11.2019
3550 Clouds 21 1012 77 7000 1.5 80 05:38 25.11.2019
3551 Clouds 20 1013 93 6000 2.1 110 04:52 25.11.2019
3552 Rain 18 1013 93 2000 3.1 80 02:51 25.11.2019
3553 Mist 17 1014 100 3200 1.5 170 02:20 25.11.2019
3554 Mist 17 1015 100 3500 1.5 120 01:40 25.11.2019
3555 Mist 17 1015 100 3500 1.5 120 01:21 25.11.2019
3556 Mist 16 1014 100 3500 1.5 20 00:23 25.11.2019
3557 Clouds 16 1016 100 12874 2.1 310 23:58 24.11.2019
3558 Mist 16 1014 100 4000 2.1 10 23:39 24.11.2019
3559 Mist 16 1014 100 4000 2.1 10 23:19 24.11.2019
3560 Fog 16 1014 100 800 2.6 40 22:55 24.11.2019
3561 Mist 16 1013 100 3500 2.1 350 22:36 24.11.2019
3562 Mist 16 1013 100 3500 2.1 350 22:18 24.11.2019
3563 Fog 16 1013 100 200 1.5 350 21:42 24.11.2019
3564 Fog 16 1013 100 200 2.1 10 21:21 24.11.2019
3565 Fog 16 1013 100 300 0.5 0 20:59 24.11.2019
3566 Fog 16 1013 100 300 0.5 0 20:40 24.11.2019
3567 Fog 16 1013 100 300 2.1 10 20:20 24.11.2019
3568 Fog 16 1012 100 10000 2.1 270 19:57 24.11.2019
3569 Clouds 17 1012 100 10000 1 0 19:39 24.11.2019
3570 Clouds 16 1012 100 10000 1 0 19:21 24.11.2019
3571 Mist 16 1013 100 1000 0.5 0 18:59 24.11.2019
3572 Mist 16 1013 100 1000 0.5 0 18:59 24.11.2019
3573 Clouds 17 1014 100 16093 1.5 30 18:38 24.11.2019
3574 Mist 17 1013 100 6437 1.5 350 18:20 24.11.2019
3575 Mist 16 1013 100 6437 1.5 350 17:58 24.11.2019
3576 Mist 16 1013 100 6437 1.5 350 17:58 24.11.2019
3577 Mist 16 1015 100 1810 1.33 265 17:40 24.11.2019
3578 Clouds 17 1013 100 10000 1.5 280 17:22 24.11.2019
3579 Clouds 17 1013 100 10000 1.5 280 16:59 24.11.2019
3580 Clouds 17 1013 100 10000 1.5 280 16:40 24.11.2019
3581 Clouds 17 1013 93 10000 2.6 290 16:22 24.11.2019
3582 Rain 18 1013 88 10000 5.1 220 15:56 24.11.2019
3583 Clouds 18 1013 88 10000 4.6 230 15:37 24.11.2019
3584 Clouds 18 1013 88 10000 4.6 230 15:37 24.11.2019
3585 Clouds 18 1013 88 10000 4.6 230 15:37 24.11.2019
3586 Clouds 18 1013 88 10000 4.6 230 15:37 24.11.2019
3587 Clouds 18 1013 88 10000 4.6 230 15:19 24.11.2019
3588 Clouds 18 1013 88 10000 5.7 220 14:40 24.11.2019
3589 Clouds 18 1013 88 10000 5.7 220 14:20 24.11.2019
3590 Clouds 18 1014 88 10000 5.7 200 13:59 24.11.2019
3591 Clouds 18 1014 88 10000 5.1 200 13:38 24.11.2019
3592 Clouds 18 1014 88 10000 5.1 200 13:20 24.11.2019
3593 Clouds 18 1014 88 10000 5.1 200 12:56 24.11.2019
3594 Clouds 18 1014 88 10000 5.1 200 12:56 24.11.2019
3595 Clouds 18 1016 93 16093 3.26 218 12:38 24.11.2019
3596 Clouds 18 1016 93 16093 3.26 218 12:18 24.11.2019
3597 Clouds 18 1016 93 16093 3.26 218 12:18 24.11.2019
3598 Clouds 18 1014 88 10000 4.1 160 11:54 24.11.2019
3599 Clouds 18 1014 88 10000 4.1 160 11:36 24.11.2019
3600 Clouds 18 1015 93 9000 3.1 160 11:18 24.11.2019
3601 Clouds 18 1015 93 9000 3.1 160 10:42 24.11.2019
3602 Clouds 18 1015 93 10000 2.1 0 10:24 24.11.2019
3603 Clouds 19 1016 93 16093 3.1 170 09:40 24.11.2019
3604 Clouds 19 1014 88 10000 3.6 180 09:20 24.11.2019
3605 Clouds 19 1014 93 10000 3.1 160 08:59 24.11.2019
3606 Clouds 19 1014 82 10000 2.1 130 08:40 24.11.2019
3607 Clouds 19 1014 82 10000 2.1 130 08:21 24.11.2019
3608 Clouds 19 1015 93 10000 2.6 130 07:52 24.11.2019
3609 Clouds 19 1015 88 10000 1.5 190 07:33 24.11.2019
3610 Clouds 20 1014 93 10000 2.1 110 06:55 24.11.2019
3611 Clouds 20 1016 77 16093 3.1 80 05:47 24.11.2019
3612 Clouds 20 1016 77 16093 3.1 80 05:47 24.11.2019
3613 Clouds 20 1015 82 10000 4.1 310 04:45 24.11.2019
3614 Clouds 20 1015 88 10000 4.1 350 04:45 24.11.2019
3615 Clouds 18 1019 93 16093 3.6 10 02:49 24.11.2019
3616 Clouds 17 1021 100 16093 3.6 360 01:57 24.11.2019
3617 Rain 17 1019 93 3500 4.6 310 01:39 24.11.2019
3618 Rain 16 1019 93 3500 4.6 310 01:20 24.11.2019
3619 Rain 16 1020 93 805 4.6 320 00:45 24.11.2019
3620 Rain 16 1020 93 805 4.6 320 00:22 24.11.2019
3621 Rain 15 1020 100 3017 3.6 320 23:44 23.11.2019
3622 Rain 15 1020 100 3017 3.6 320 23:21 23.11.2019
3623 Rain 15 1020 100 7000 8.7 350 22:58 23.11.2019
3624 Rain 15 1020 100 7000 8.7 350 22:38 23.11.2019
3625 Rain 15 1020 100 7000 8.7 350 22:38 23.11.2019
3626 Rain 15 1020 93 7000 8.7 330 22:38 23.11.2019
3627 Rain 15 1020 93 7000 8.7 330 22:20 23.11.2019
3628 Rain 14 1020 100 3500 8.2 330 21:58 23.11.2019
3629 Rain 14 1020 100 3500 8.2 330 21:40 23.11.2019
3630 Rain 14 1020 100 3500 6.7 330 21:21 23.11.2019
3631 Rain 14 1021 93 3219 4.6 320 20:40 23.11.2019
3632 Rain 14 1021 93 3219 4.6 320 20:22 23.11.2019
3633 Rain 14 1021 100 5000 6.7 340 19:58 23.11.2019
3634 Drizzle 14 1022 93 1810 3.6 310 19:40 23.11.2019
3635 Drizzle 14 1022 93 1810 3.6 310 19:19 23.11.2019
3636 Rain 14 1022 100 4500 8.2 350 18:59 23.11.2019
3637 Rain 14 1025 100 16093 7.2 354 18:39 23.11.2019
3638 Rain 14 1025 100 16093 7.2 354 18:20 23.11.2019
3639 Rain 14 1025 100 14484 3.6 330 17:54 23.11.2019
3640 Rain 14 1025 100 16093 3.6 340 17:36 23.11.2019
3641 Rain 14 1025 100 16093 3.6 340 17:18 23.11.2019
3642 Rain 14 1024 93 3800 8.7 340 16:54 23.11.2019
3643 Rain 14 1024 100 4000 8.7 350 16:36 23.11.2019
3644 Rain 14 1024 100 4000 8.7 350 16:18 23.11.2019
3645 Rain 14 1024 93 4000 10.3 350 15:39 23.11.2019
3646 Rain 13 1024 93 4000 8.7 350 15:19 23.11.2019
3647 Rain 13 1024 93 4000 8.7 350 15:19 23.11.2019
3648 Rain 13 1024 93 4000 8.7 350 15:19 23.11.2019
3649 Rain 13 1025 93 4500 9.3 350 14:58 23.11.2019
3650 Rain 13 1025 93 4500 9.3 350 14:40 23.11.2019
3651 Rain 13 1025 100 2012 5.1 320 14:21 23.11.2019
3652 Rain 13 1025 93 6000 9.8 350 13:56 23.11.2019
3653 Rain 13 1026 93 4000 10.3 350 13:38 23.11.2019
3654 Rain 13 1026 93 4000 10.3 350 13:18 23.11.2019
3655 Rain 13 1026 93 4023 4.6 320 12:42 23.11.2019
3656 Rain 13 1026 93 4023 4.6 320 12:24 23.11.2019
3657 Rain 13 1026 93 2414 5.1 320 11:45 23.11.2019
3658 Rain 13 1026 93 2414 5.1 320 11:23 23.11.2019
3659 Rain 13 1027 93 3219 4.6 330 10:56 23.11.2019
3660 Rain 13 1026 93 8000 10.8 350 10:37 23.11.2019
3661 Rain 13 1026 93 8000 10.8 350 10:18 23.11.2019
3662 Rain 13 1026 93 4000 9.3 350 09:40 23.11.2019
3663 Rain 13 1026 93 4000 9.3 350 09:18 23.11.2019
3664 Rain 13 1026 100 4000 10.3 350 08:41 23.11.2019
3665 Rain 13 1026 100 3500 3.6 350 08:19 23.11.2019
3666 Rain 13 1026 93 3500 9.8 350 07:42 23.11.2019
3667 Rain 13 1026 93 3500 10.3 350 07:00 23.11.2019
3668 Rain 13 1026 93 3000 4.1 350 06:41 23.11.2019
3669 Rain 13 1027 93 3500 5.1 340 06:19 23.11.2019
3670 Rain 13 1026 100 2500 4.6 340 05:44 23.11.2019
3671 Rain 13 1026 100 2500 4.6 340 05:26 23.11.2019
3672 Rain 13 1026 93 1800 4.1 330 04:39 23.11.2019
3673 Rain 13 1026 93 1800 4.1 330 04:21 23.11.2019
3674 Rain 12 1027 100 4000 10.3 350 02:39 23.11.2019
3675 Rain 12 1030 93 14484 6.7 350 01:42 23.11.2019
3676 Rain 11 1031 100 16093 6.2 350 00:50 23.11.2019
3677 Rain 11 1027 93 3500 11.8 350 00:24 23.11.2019
3678 Rain 11 1027 93 3500 11.8 350 00:23 23.11.2019
3679 Rain 11 1030 100 14484 5.1 350 00:22 23.11.2019
3680 Rain 11 1030 100 14484 5.1 350 00:22 23.11.2019
3681 Rain 11 1030 100 14484 5.1 350 23:59 22.11.2019
3682 Rain 11 1027 100 4000 13.4 350 23:37 22.11.2019
3683 Rain 11 1027 100 4000 13.4 350 23:19 22.11.2019
3684 Rain 11 1027 100 4000 12.3 350 22:57 22.11.2019
3685 Rain 11 1027 100 5000 12.3 350 22:37 22.11.2019
3686 Rain 11 1027 100 5000 12.3 350 22:19 22.11.2019
3687 Rain 11 1026 93 8000 12.3 350 21:57 22.11.2019
3688 Rain 11 1026 93 8000 12.3 350 21:38 22.11.2019
3689 Rain 11 1027 93 5000 12.9 350 21:18 22.11.2019
3690 Rain 11 1026 93 8000 11.8 360 20:42 22.11.2019
3691 Rain 11 1026 93 6000 11.8 350 20:22 22.11.2019
3692 Rain 11 1026 93 6000 10.3 350 19:55 22.11.2019
3693 Rain 10 1025 100 3200 7.7 10 19:36 22.11.2019
3694 Rain 10 1026 93 6000 10.8 350 19:18 22.11.2019
3695 Rain 10 1026 93 8000 10.8 360 18:39 22.11.2019
3696 Rain 10 1026 93 8000 10.8 360 18:21 22.11.2019
3697 Rain 10 1027 93 8000 10.3 350 17:55 22.11.2019
3698 Rain 10 1026 93 6000 10.8 350 17:37 22.11.2019
3699 Rain 10 1026 93 6000 10.8 350 17:19 22.11.2019
3700 Rain 10 1027 93 6000 9.8 340 16:40 22.11.2019
3701 Rain 10 1027 93 7000 10.8 350 16:22 22.11.2019
3702 Rain 10 1028 93 7000 8.7 340 15:41 22.11.2019
3703 Rain 10 1028 93 7000 9.3 340 15:23 22.11.2019
3704 Rain 10 1028 93 6000 9.3 350 14:56 22.11.2019
3705 Rain 10 1031 100 9656 2.6 330 14:37 22.11.2019
3706 Rain 10 1031 100 9656 2.6 330 14:19 22.11.2019
3707 Rain 9 1029 100 7000 7.7 330 13:56 22.11.2019
3708 Rain 9 1029 93 7000 8.2 340 13:36 22.11.2019
3709 Rain 9 1029 93 7000 8.2 340 13:18 22.11.2019
3710 Rain 9 1030 93 7000 7.7 330 12:40 22.11.2019
3711 Rain 9 1030 93 8000 8.7 340 12:20 22.11.2019
3712 Rain 9 1030 93 8000 9.3 340 11:59 22.11.2019
3713 Rain 9 1031 100 7000 7.7 340 11:39 22.11.2019
3714 Rain 9 1031 100 7000 7.7 340 11:20 22.11.2019
3715 Rain 9 1030 93 6000 6.2 350 10:58 22.11.2019
3716 Rain 9 1030 93 6000 6.2 350 10:39 22.11.2019
3717 Rain 9 1029 93 7000 8.2 360 10:21 22.11.2019
3718 Rain 9 1030 93 7000 8.2 350 09:55 22.11.2019
3719 Rain 9 1030 93 5000 8.2 350 09:37 22.11.2019
3720 Rain 9 1030 93 5000 8.2 350 09:18 22.11.2019
3721 Rain 9 1030 93 5000 7.2 350 08:45 22.11.2019
3722 Rain 9 1030 100 3500 3.1 330 08:26 22.11.2019
3723 Rain 8 1030 93 5000 7.7 340 07:45 22.11.2019
3724 Rain 9 1030 93 5000 3.6 350 07:23 22.11.2019
3725 Rain 8 1030 93 5000 8.2 350 06:57 22.11.2019
3726 Rain 8 1030 93 1408 5.1 330 06:37 22.11.2019
3727 Rain 8 1030 93 4500 7.2 340 05:49 22.11.2019
3728 Rain 8 1031 93 6000 7.2 350 04:51 22.11.2019
3729 Rain 7 1033 93 3500 6.2 330 02:55 22.11.2019
3730 Rain 7 1032 93 3500 3.1 330 02:32 22.11.2019
3731 Rain 7 1033 93 3500 7.2 330 01:46 22.11.2019
3732 Rain 8 1033 93 3500 3.1 330 01:20 22.11.2019
3733 Rain 8 1033 81 6000 2.6 340 00:54 22.11.2019
3734 Rain 8 1033 76 10000 7.2 360 00:25 22.11.2019
3735 Clouds 8 1033 76 10000 8.2 360 23:56 21.11.2019
3736 Clouds 9 1033 76 10000 8.2 360 23:38 21.11.2019
3737 Clouds 9 1032 66 10000 6.2 360 23:20 21.11.2019
3738 Rain 8 1032 66 10000 5.7 360 22:41 21.11.2019
3739 Rain 8 1032 57 10000 5.7 340 22:22 21.11.2019
3740 Rain 9 1033 61 10000 5.7 340 21:58 21.11.2019
3741 Rain 9 1033 61 10000 5.7 340 21:39 21.11.2019
3742 Rain 9 1032 61 10000 6.7 340 21:20 21.11.2019
3743 Clouds 9 1032 61 10000 6.2 340 20:59 21.11.2019
3744 Clouds 9 1031 61 10000 5.1 330 20:39 21.11.2019
3745 Clouds 9 1031 61 10000 5.1 330 20:19 21.11.2019
3746 Clouds 9 1032 57 10000 4.6 350 19:59 21.11.2019
3747 Clouds 9 1032 57 10000 4.6 350 19:59 21.11.2019
3748 Clouds 9 1032 57 10000 4.6 350 19:41 21.11.2019
3749 Clouds 9 1031 62 10000 5.1 360 19:23 21.11.2019
3750 Clouds 9 1032 62 10000 5.1 360 18:58 21.11.2019
3751 Clouds 9 1032 62 10000 4.6 10 18:40 21.11.2019
3752 Clouds 9 1032 62 10000 4.6 10 18:21 21.11.2019
3753 Clouds 9 1032 66 10000 4.1 10 17:58 21.11.2019
3754 Clouds 9 1032 66 10000 4.1 10 17:39 21.11.2019
3755 Clouds 9 1032 62 10000 4.1 10 17:21 21.11.2019
3756 Clouds 10 1032 62 10000 5.7 40 16:57 21.11.2019
3757 Clouds 10 1032 62 10000 5.7 40 16:39 21.11.2019
3758 Clouds 10 1032 62 10000 6.2 60 16:20 21.11.2019
3759 Clouds 10 1032 58 10000 5.1 70 15:43 21.11.2019
3760 Clouds 10 1032 58 10000 5.1 80 15:21 21.11.2019
3761 Clouds 11 1033 58 10000 5.7 80 14:58 21.11.2019
3762 Clouds 11 1033 50 10000 4.6 90 14:38 21.11.2019
3763 Clouds 11 1033 50 10000 4.6 90 14:20 21.11.2019
3764 Clouds 11 1034 54 10000 5.1 80 13:57 21.11.2019
3765 Clouds 11 1033 58 10000 4.6 100 13:37 21.11.2019
3766 Clouds 11 1033 58 10000 4.6 100 13:19 21.11.2019
3767 Clouds 11 1033 62 10000 5.1 100 12:42 21.11.2019
3768 Clouds 11 1033 66 10000 4.6 110 12:24 21.11.2019
3769 Clouds 11 1032 66 10000 4.6 120 11:56 21.11.2019
3770 Clouds 11 1032 58 10000 6.2 110 11:37 21.11.2019
3771 Clouds 11 1032 58 10000 6.2 110 11:37 21.11.2019
3772 Clouds 12 1032 58 10000 6.2 110 11:19 21.11.2019
3773 Clouds 12 1031 50 10000 4.1 120 10:43 21.11.2019
3774 Clouds 12 1031 54 10000 5.1 90 10:25 21.11.2019
3775 Clouds 12 1031 51 10000 4.6 90 09:59 21.11.2019
3776 Clouds 13 1031 51 10000 4.6 90 09:41 21.11.2019
3777 Clouds 13 1030 44 10000 2.1 70 09:23 21.11.2019
3778 Clouds 14 1030 44 10000 2.1 90 08:55 21.11.2019
3779 Clouds 14 1029 33 10000 1 0 08:37 21.11.2019
3780 Clouds 15 1029 33 10000 1 0 08:18 21.11.2019
3781 Clouds 15 1029 33 10000 2.1 40 07:39 21.11.2019
3782 Clouds 15 1029 33 10000 2.1 40 07:18 21.11.2019
3783 Clouds 16 1029 41 10000 3.1 60 06:45 21.11.2019
3784 Clouds 16 1028 33 10000 3.1 50 06:24 21.11.2019
3785 Clouds 15 1028 31 10000 2.1 310 05:27 21.11.2019
3786 Clouds 14 1030 27 10000 3.1 20 03:25 21.11.2019
3787 Clouds 13 1030 40 10000 3.6 10 02:35 21.11.2019
3788 Clouds 12 1031 30 10000 6.2 10 01:52 21.11.2019
3789 Clouds 11 1030 43 10000 3.6 360 01:23 21.11.2019
3790 Clouds 11 1030 43 10000 4.1 360 00:47 21.11.2019
3791 Clouds 10 1030 46 10000 8.2 340 00:20 21.11.2019
3792 Clouds 10 1030 46 10000 8.2 340 00:20 21.11.2019
3793 Clouds 9 1030 43 10000 7.7 340 23:51 20.11.2019
3794 Clouds 8 1029 43 10000 6.2 350 23:23 20.11.2019
3795 Clouds 7 1029 35 10000 6.2 350 22:59 20.11.2019
3796 Clouds 7 1028 43 10000 7.2 360 22:41 20.11.2019
3797 Clouds 7 1028 43 10000 7.2 360 22:20 20.11.2019
3798 Clouds 7 1028 43 10000 6.7 360 21:59 20.11.2019
3799 Clouds 7 1028 43 10000 6.7 360 21:59 20.11.2019
3800 Clouds 8 1027 43 10000 7.7 350 21:40 20.11.2019
3801 Clouds 8 1027 43 10000 7.7 350 21:22 20.11.2019
3802 Clouds 8 1027 43 10000 7.7 360 20:59 20.11.2019
3803 Clouds 8 1027 43 10000 7.7 360 20:41 20.11.2019
3804 Clouds 8 1027 36 10000 7.2 350 20:23 20.11.2019
3805 Clouds 9 1027 43 10000 6.7 350 19:59 20.11.2019
3806 Clouds 9 1026 36 10000 7.2 350 19:37 20.11.2019
3807 Clouds 9 1026 36 10000 7.2 350 19:37 20.11.2019
3808 Clouds 9 1026 36 10000 7.2 350 19:19 20.11.2019
3809 Clouds 9 1026 36 10000 7.2 350 19:19 20.11.2019
3810 Clouds 9 1027 36 10000 8.7 350 18:59 20.11.2019
3811 Clouds 9 1027 36 10000 2.6 320 18:40 20.11.2019
3812 Clouds 9 1026 43 10000 7.7 350 18:22 20.11.2019
3813 Clouds 9 1026 36 10000 8.2 350 17:59 20.11.2019
3814 Clouds 9 1026 49 10000 3.6 360 17:39 20.11.2019
3815 Clouds 9 1026 36 10000 8.2 350 17:21 20.11.2019
3816 Clouds 9 1026 50 10000 8.7 350 16:58 20.11.2019
3817 Clouds 9 1026 50 10000 8.7 350 16:39 20.11.2019
3818 Clouds 10 1026 50 10000 8.7 360 16:20 20.11.2019
3819 Clouds 10 1026 46 10000 6.7 340 15:57 20.11.2019
3820 Clouds 10 1025 43 10000 6.2 350 15:38 20.11.2019
3821 Clouds 10 1025 43 10000 6.2 350 15:19 20.11.2019
3822 Clouds 10 1025 50 10000 6.2 340 14:55 20.11.2019
3823 Clouds 10 1025 36 10000 6.7 10 14:37 20.11.2019
3824 Clouds 10 1025 34 10000 6.7 10 14:18 20.11.2019
3825 Clouds 10 1025 34 10000 5.7 10 13:55 20.11.2019
3826 Clouds 10 1025 34 10000 7.7 20 13:36 20.11.2019
3827 Clouds 10 1025 34 10000 7.7 20 13:18 20.11.2019
3828 Clouds 10 1024 46 10000 8.2 10 12:38 20.11.2019
3829 Clouds 10 1024 46 10000 8.2 10 12:19 20.11.2019
3830 Clouds 11 1024 37 10000 8.7 360 11:46 20.11.2019
3831 Clouds 11 1023 29 10000 7.7 350 11:23 20.11.2019
3832 Clouds 11 1023 40 10000 8.7 350 10:59 20.11.2019
3833 Clouds 11 1022 37 10000 9.3 350 10:39 20.11.2019
3834 Clouds 11 1022 37 10000 9.3 350 10:20 20.11.2019
3835 Clouds 12 1022 29 10000 9.3 350 09:59 20.11.2019
3836 Clouds 12 1022 29 10000 9.3 350 09:41 20.11.2019
3837 Clouds 12 1022 35 10000 8.2 350 09:20 20.11.2019
3838 Clouds 12 1022 29 10000 8.2 350 08:46 20.11.2019
3839 Clouds 13 1021 30 10000 5.7 330 08:28 20.11.2019
3840 Clouds 13 1020 44 10000 8.2 350 07:56 20.11.2019
3841 Clouds 14 1020 32 10000 5.1 350 07:36 20.11.2019
3842 Clouds 14 1020 32 10000 5.1 350 07:18 20.11.2019
3843 Clouds 15 1019 41 10000 9.3 360 06:43 20.11.2019
3844 Clouds 15 1019 33 10000 5.7 360 06:19 20.11.2019
3845 Clouds 16 1018 44 10000 10.8 350 04:43 20.11.2019
3846 Clouds 14 1018 30 10000 6.2 320 02:29 20.11.2019
3847 Clouds 14 1018 35 10000 10.3 340 01:38 20.11.2019
3848 Clouds 13 1017 35 10000 5.7 330 00:58 20.11.2019
3849 Clouds 12 1016 31 10000 10.3 340 00:22 20.11.2019
3850 Clouds 11 1016 40 10000 9.8 340 23:41 19.11.2019
3851 Clouds 11 1016 40 10000 9.3 330 23:23 19.11.2019
3852 Clouds 10 1016 40 10000 10.3 330 22:56 19.11.2019
3853 Clouds 10 1014 40 10000 11.3 340 22:38 19.11.2019
3854 Clouds 10 1014 40 10000 11.3 340 22:18 19.11.2019
3855 Clouds 10 1014 40 10000 10.8 330 21:55 19.11.2019
3856 Clouds 10 1014 40 10000 10.8 330 21:37 19.11.2019
3857 Clouds 11 1014 40 10000 10.8 330 21:18 19.11.2019
3858 Clouds 11 1013 36 10000 10.3 330 20:55 19.11.2019
3859 Clouds 11 1013 40 10000 10.3 330 20:36 19.11.2019
3860 Clouds 11 1013 40 10000 10.3 330 20:18 19.11.2019
3861 Clouds 11 1013 40 10000 10.3 330 20:18 19.11.2019
3862 Clouds 11 1013 40 10000 9.3 330 19:54 19.11.2019
3863 Clouds 11 1012 38 10000 9.8 340 19:36 19.11.2019
3864 Clouds 11 1012 38 10000 9.8 340 19:18 19.11.2019
3865 Clouds 11 1013 38 10000 8.7 330 18:41 19.11.2019
3866 Clouds 11 1012 38 10000 10.3 340 18:21 19.11.2019
3867 Clouds 11 1012 38 10000 10.3 340 18:21 19.11.2019
3868 Clouds 11 1012 43 10000 9.3 340 17:59 19.11.2019
3869 Clouds 12 1012 43 10000 9.3 340 17:41 19.11.2019
3870 Clouds 12 1012 43 10000 9.8 340 17:21 19.11.2019
3871 Clouds 12 1012 43 10000 11.3 340 16:59 19.11.2019
3872 Clouds 12 1011 43 10000 10.3 350 16:40 19.11.2019
3873 Clouds 13 1011 43 10000 10.3 350 16:21 19.11.2019
3874 Clouds 13 1011 47 10000 9.8 350 15:47 19.11.2019
3875 Clouds 13 1011 44 10000 8.7 350 15:27 19.11.2019
3876 Clouds 13 1011 44 10000 8.7 350 15:27 19.11.2019
3877 Clouds 13 1011 44 10000 9.8 340 14:58 19.11.2019
3878 Clouds 13 1011 62 10000 2.6 330 14:39 19.11.2019
3879 Clouds 14 1010 41 10000 9.3 350 14:21 19.11.2019
3880 Clouds 14 1011 44 10000 9.8 360 13:57 19.11.2019
3881 Clouds 14 1010 51 10000 9.3 360 13:38 19.11.2019
3882 Clouds 14 1010 51 10000 9.3 360 13:18 19.11.2019
3883 Clouds 15 1009 51 10000 7.2 340 12:39 19.11.2019
3884 Clouds 15 1009 51 10000 7.2 340 12:21 19.11.2019
3885 Clouds 16 1009 51 10000 6.2 340 11:56 19.11.2019
3886 Clouds 16 1008 51 10000 6.7 350 11:37 19.11.2019
3887 Clouds 16 1008 51 10000 6.7 350 11:37 19.11.2019
3888 Clouds 16 1008 51 10000 6.7 350 11:19 19.11.2019
3889 Clouds 16 1008 48 10000 6.2 350 10:44 19.11.2019
3890 Clouds 17 1007 59 10000 1.5 60 10:21 19.11.2019
3891 Clouds 17 1006 77 10000 1 0 09:56 19.11.2019
3892 Clouds 18 1006 77 10000 1.5 90 09:38 19.11.2019
3893 Clouds 18 1006 77 10000 1.5 90 09:18 19.11.2019
3894 Clouds 19 1006 72 10000 1.5 50 08:40 19.11.2019
3895 Clouds 19 1005 82 10000 1.5 140 08:22 19.11.2019
3896 Clouds 19 1005 82 10000 1.5 140 08:22 19.11.2019
3897 Clouds 20 1005 77 10000 2.1 100 07:57 19.11.2019
3898 Clouds 20 1005 77 10000 2.1 100 07:38 19.11.2019
3899 Clouds 20 1005 82 10000 3.1 120 07:19 19.11.2019
3900 Rain 20 1005 82 10000 2.6 100 06:45 19.11.2019
3901 Rain 20 1005 88 10000 3.6 150 06:27 19.11.2019
3902 Rain 20 1005 82 10000 3.1 140 05:24 19.11.2019
3903 Clouds 19 1006 88 10000 2.1 30 03:47 19.11.2019
3904 Clouds 19 1006 88 8000 1.5 60 03:29 19.11.2019
3905 Clouds 18 1006 88 10000 3.6 50 02:53 19.11.2019
3906 Clouds 17 1007 77 10000 4.6 20 01:58 19.11.2019
3907 Clouds 16 1006 82 10000 2.1 360 00:59 19.11.2019
3908 Clouds 16 1007 82 10000 5.1 20 00:21 19.11.2019
3909 Clouds 16 1007 82 10000 3.6 10 23:56 18.11.2019
3910 Clouds 15 1006 82 10000 3.1 360 23:37 18.11.2019
3911 Clouds 15 1006 82 10000 3.1 360 23:18 18.11.2019
3912 Clouds 15 1005 82 10000 3.1 20 22:42 18.11.2019
3913 Clouds 15 1006 87 10000 2.1 360 22:23 18.11.2019
3914 Rain 15 1006 87 10000 3.1 340 21:55 18.11.2019
3915 Rain 15 1006 87 10000 3.1 340 21:37 18.11.2019
3916 Rain 15 1005 87 10000 4.6 350 21:19 18.11.2019
3917 Rain 14 1006 87 10000 3.1 340 20:56 18.11.2019
3918 Rain 15 1005 87 10000 4.6 340 20:37 18.11.2019
3919 Rain 14 1005 87 10000 4.6 340 20:18 18.11.2019
3920 Rain 15 1006 87 10000 5.7 340 19:54 18.11.2019
3921 Rain 16 1005 82 10000 6.2 350 19:36 18.11.2019
3922 Rain 16 1005 82 10000 6.2 350 19:18 18.11.2019
3923 Rain 17 1006 82 10000 7.2 230 18:54 18.11.2019
3924 Rain 18 1005 88 10000 8.7 220 18:36 18.11.2019
3925 Rain 18 1005 88 10000 8.7 220 18:18 18.11.2019
3926 Rain 18 1005 93 6000 6.2 200 17:38 18.11.2019
3927 Rain 18 1005 88 9000 14.4 210 17:19 18.11.2019
3928 Rain 19 1005 83 10000 13.4 210 16:54 18.11.2019
3929 Rain 19 1005 83 10000 12.3 210 16:36 18.11.2019
3930 Rain 19 1005 83 10000 12.3 210 16:18 18.11.2019
3931 Rain 20 1006 83 10000 13.9 220 15:54 18.11.2019
3932 Rain 20 1006 83 10000 13.9 220 15:36 18.11.2019
3933 Rain 20 1006 83 10000 14.4 210 15:18 18.11.2019
3934 Rain 20 1007 83 10000 11.3 210 14:41 18.11.2019
3935 Rain 20 1007 83 10000 11.8 210 14:22 18.11.2019
3936 Rain 20 1009 77 10000 9.3 210 13:46 18.11.2019
3937 Rain 20 1009 73 10000 9.3 210 13:27 18.11.2019
3938 Clouds 20 1010 77 10000 10.3 200 12:57 18.11.2019
3939 Clouds 20 1010 77 10000 10.3 200 12:37 18.11.2019
3940 Clouds 20 1009 73 10000 10.8 200 12:18 18.11.2019
3941 Clouds 20 1009 73 10000 11.8 210 11:43 18.11.2019
3942 Clouds 20 1009 73 10000 12.3 210 11:25 18.11.2019
3943 Clouds 19 1010 68 10000 9.3 210 10:55 18.11.2019
3944 Clouds 19 1010 68 10000 12.3 210 10:37 18.11.2019
3945 Clouds 19 1010 68 10000 12.3 210 10:18 18.11.2019
3946 Clouds 20 1011 64 10000 11.3 210 09:54 18.11.2019
3947 Clouds 20 1010 64 10000 10.8 210 09:36 18.11.2019
3948 Clouds 20 1010 64 10000 10.8 210 09:18 18.11.2019
3949 Clouds 20 1011 60 10000 10.3 210 08:42 18.11.2019
3950 Clouds 20 1011 64 10000 6.2 210 08:20 18.11.2019
3951 Clouds 20 1011 56 10000 11.3 210 07:47 18.11.2019
3952 Clouds 21 1012 52 10000 8.2 210 07:27 18.11.2019
3953 Clouds 21 1012 43 10000 12.9 220 06:52 18.11.2019
3954 Clouds 21 1012 64 10000 7.2 200 06:32 18.11.2019
3955 Clouds 21 1013 68 10000 9.8 210 05:47 18.11.2019
3956 Clouds 19 1014 68 10000 5.1 190 04:46 18.11.2019
3957 Clouds 11 1020 76 10000 1 0 01:56 18.11.2019
3958 Rain 11 1020 76 8000 0.5 0 01:31 18.11.2019
3959 Rain 10 1022 76 8000 3.1 290 00:23 18.11.2019
3960 Rain 11 1022 66 10000 1 0 23:44 17.11.2019
3961 Rain 11 1022 66 3219 2.1 320 23:24 17.11.2019
3962 Clouds 11 1023 62 10000 4.1 320 22:58 17.11.2019
3963 Clouds 11 1023 62 10000 4.1 320 22:40 17.11.2019
3964 Clouds 11 1022 58 10000 4.1 330 22:22 17.11.2019
3965 Clouds 11 1022 62 10000 3.1 320 21:59 17.11.2019
3966 Clouds 11 1022 62 10000 3.1 320 21:40 17.11.2019
3967 Clouds 11 1022 58 10000 4.6 310 21:19 17.11.2019
3968 Clouds 12 1023 58 10000 3.1 320 20:57 17.11.2019
3969 Clouds 12 1022 81 10000 2.1 330 20:38 17.11.2019
3970 Clouds 12 1023 62 10000 3.1 360 20:38 17.11.2019
3971 Clouds 12 1023 62 10000 3.1 360 20:19 17.11.2019
3972 Clouds 12 1024 62 10000 2.6 10 19:56 17.11.2019
3973 Clouds 12 1024 62 10000 3.6 10 19:37 17.11.2019
3974 Clouds 12 1024 62 10000 3.6 10 19:19 17.11.2019
3975 Clouds 12 1025 62 10000 3.1 10 18:55 17.11.2019
3976 Clouds 12 1025 62 10000 3.1 10 18:55 17.11.2019
3977 Clouds 12 1025 67 10000 4.1 360 18:37 17.11.2019
3978 Clouds 12 1025 67 10000 4.1 360 18:37 17.11.2019
3979 Clouds 12 1025 67 10000 4.1 360 18:19 17.11.2019
3980 Clouds 11 1026 67 10000 4.1 40 17:57 17.11.2019
3981 Clouds 11 1026 67 10000 4.1 40 17:57 17.11.2019
3982 Clouds 12 1025 67 10000 4.1 70 17:39 17.11.2019
3983 Clouds 11 1025 67 10000 4.1 70 17:20 17.11.2019
3984 Clouds 11 1025 58 10000 4.6 90 16:57 17.11.2019
3985 Clouds 11 1025 58 10000 4.6 90 16:39 17.11.2019
3986 Clouds 12 1026 62 10000 4.6 100 16:21 17.11.2019
3987 Clouds 12 1026 67 10000 3.1 100 15:55 17.11.2019
3988 Clouds 12 1026 67 10000 3.1 100 15:37 17.11.2019
3989 Clouds 12 1026 62 10000 4.1 100 15:18 17.11.2019
3990 Clouds 12 1026 54 10000 2.1 10 14:55 17.11.2019
3991 Clouds 12 1026 54 10000 3.1 20 14:37 17.11.2019
3992 Clouds 12 1026 54 10000 3.1 20 14:19 17.11.2019
3993 Clouds 12 1026 47 10000 2.6 330 13:55 17.11.2019
3994 Clouds 12 1026 44 10000 2.1 310 13:37 17.11.2019
3995 Clouds 13 1026 44 10000 2.1 310 13:18 17.11.2019
3996 Clouds 13 1025 47 10000 2.6 310 12:42 17.11.2019
3997 Clouds 13 1025 38 10000 2.1 360 12:22 17.11.2019
3998 Clouds 13 1025 44 10000 2.6 340 11:57 17.11.2019
3999 Clouds 14 1026 76 10000 2.6 110 11:38 17.11.2019
4000 Clouds 14 1025 41 10000 2.6 320 11:20 17.11.2019
4001 Clouds 14 1025 41 10000 2.6 320 11:20 17.11.2019
4002 Clouds 14 1025 44 10000 3.6 350 10:44 17.11.2019
4003 Clouds 14 1025 44 10000 3.6 340 10:23 17.11.2019
4004 Clouds 15 1025 44 10000 4.1 330 09:57 17.11.2019
4005 Clouds 15 1023 44 10000 4.6 330 09:39 17.11.2019
4006 Clouds 15 1023 44 10000 4.6 330 09:20 17.11.2019
4007 Clouds 17 1022 36 10000 3.6 10 08:40 17.11.2019
4008 Clouds 17 1022 36 10000 3.6 10 08:20 17.11.2019
4009 Clouds 18 1022 39 10000 6.2 320 07:48 17.11.2019
4010 Clouds 18 1022 39 10000 6.2 320 07:48 17.11.2019
4011 Clouds 18 1021 32 10000 5.7 310 07:28 17.11.2019
4012 Clouds 19 1021 39 10000 5.7 350 06:59 17.11.2019
4013 Clouds 19 1020 34 10000 4.6 310 06:40 17.11.2019
4014 Clouds 19 1020 34 10000 4.6 310 06:21 17.11.2019
4015 Clouds 19 1019 32 10000 7.2 310 04:24 17.11.2019
4016 Clouds 18 1020 32 10000 6.7 340 03:51 17.11.2019
4017 Clouds 18 1020 27 10000 5.7 310 03:32 17.11.2019
4018 Clouds 17 1020 31 10000 5.1 320 02:28 17.11.2019
4019 Clouds 15 1020 44 10000 3.1 330 01:42 17.11.2019
4020 Clouds 13 1020 50 10000 2.6 340 00:55 17.11.2019
4021 Clouds 13 1020 62 10000 4.6 20 00:22 17.11.2019
4022 Clouds 12 1020 62 10000 4.6 20 23:48 16.11.2019
4023 Clouds 10 1019 62 10000 5.7 30 23:20 16.11.2019
4024 Clouds 9 1019 58 10000 4.1 20 22:59 16.11.2019
4025 Clouds 10 1019 58 10000 4.1 20 22:41 16.11.2019
4026 Clouds 10 1019 66 10000 3.6 20 22:19 16.11.2019
4027 Clear 9 1019 71 10000 3.1 320 21:56 16.11.2019
4028 Clear 9 1018 71 10000 1.5 280 21:38 16.11.2019
4029 Clear 9 1018 71 10000 1.5 280 21:19 16.11.2019
4030 Clouds 9 1019 76 10000 3.1 10 20:43 16.11.2019
4031 Clouds 10 1018 71 10000 3.6 20 20:21 16.11.2019
4032 Clouds 10 1018 76 10000 5.7 10 19:59 16.11.2019
4033 Clouds 10 1017 71 10000 4.1 340 19:40 16.11.2019
4034 Clouds 10 1017 71 10000 4.1 340 19:22 16.11.2019
4035 Clouds 10 1018 71 10000 5.7 350 18:47 16.11.2019
4036 Clouds 11 1017 76 10000 5.7 350 18:29 16.11.2019
4037 Clouds 11 1017 76 10000 5.1 330 17:58 16.11.2019
4038 Clouds 11 1017 100 10000 2.1 310 17:39 16.11.2019
4039 Clouds 11 1017 76 10000 4.6 310 17:21 16.11.2019
4040 Clouds 11 1017 71 10000 4.1 300 16:56 16.11.2019
4041 Clouds 11 1017 66 10000 3.1 280 16:37 16.11.2019
4042 Clouds 11 1017 66 10000 3.1 280 16:19 16.11.2019
4043 Clouds 12 1017 66 10000 2.6 310 15:41 16.11.2019
4044 Clouds 12 1017 71 10000 3.6 320 15:22 16.11.2019
4045 Clouds 12 1017 71 10000 2.6 290 14:58 16.11.2019
4046 Clouds 12 1017 71 10000 2.6 290 14:40 16.11.2019
4047 Clouds 12 1016 76 10000 2.1 210 14:21 16.11.2019
4048 Clouds 12 1016 76 10000 2.6 140 13:56 16.11.2019
4049 Clouds 12 1016 72 10000 3.1 140 13:38 16.11.2019
4050 Clouds 12 1016 72 10000 3.1 140 13:19 16.11.2019
4051 Clouds 13 1016 72 10000 3.6 140 12:56 16.11.2019
4052 Clouds 13 1016 72 10000 3.6 140 12:38 16.11.2019
4053 Clouds 13 1016 67 10000 4.6 130 12:19 16.11.2019
4054 Clouds 14 1016 67 10000 3.6 140 11:43 16.11.2019
4055 Clouds 14 1016 67 10000 3.1 140 11:25 16.11.2019
4056 Clouds 15 1016 55 10000 2.6 190 10:56 16.11.2019
4057 Clouds 15 1016 55 10000 2.6 190 10:38 16.11.2019
4058 Clouds 16 1016 48 10000 3.1 190 10:20 16.11.2019
4059 Clouds 16 1016 59 10000 2.6 190 09:43 16.11.2019
4060 Clouds 16 1015 59 10000 3.1 150 09:21 16.11.2019
4061 Clouds 17 1016 48 10000 2.1 130 08:58 16.11.2019
4062 Clouds 18 1015 45 10000 1 0 08:38 16.11.2019
4063 Clouds 18 1015 45 10000 1 0 08:18 16.11.2019
4064 Clouds 18 1015 45 10000 1 0 08:18 16.11.2019
4065 Clouds 19 1015 32 10000 1 0 07:42 16.11.2019
4066 Clouds 19 1015 32 10000 1 0 07:20 16.11.2019
4067 Clouds 19 1015 48 10000 1.5 70 06:51 16.11.2019
4068 Clouds 19 1014 39 10000 2.1 140 06:33 16.11.2019
4069 Clouds 19 1015 37 10000 2.1 130 05:28 16.11.2019
4070 Clouds 18 1015 59 10000 2.1 80 03:44 16.11.2019
4071 Clouds 18 1015 45 10000 1 0 03:25 16.11.2019
4072 Clouds 14 1017 54 10000 1.5 80 01:47 16.11.2019
4073 Clear 14 1016 50 10000 2.1 300 01:20 16.11.2019
4074 Clear 12 1016 66 10000 1.5 0 00:44 16.11.2019
4075 Clouds 12 1016 71 10000 0.5 0 00:25 16.11.2019
4076 Clouds 11 1016 81 10000 3.1 320 23:40 15.11.2019
4077 Clouds 9 1016 81 10000 3.1 320 23:21 15.11.2019
4078 Clouds 8 1016 81 10000 1 300 22:55 15.11.2019
4079 Clouds 8 1016 81 10000 1 300 22:37 15.11.2019
4080 Clouds 8 1015 76 10000 1.5 280 22:18 15.11.2019
4081 Clouds 8 1015 81 10000 3.1 280 21:42 15.11.2019
4082 Clouds 9 1015 76 10000 1.5 270 21:21 15.11.2019
4083 Clouds 9 1015 76 10000 2.6 260 20:59 15.11.2019
4084 Clouds 9 1015 76 10000 2.6 260 20:40 15.11.2019
4085 Clouds 9 1014 76 10000 2.1 280 20:22 15.11.2019
4086 Clouds 9 1015 76 10000 3.1 310 19:59 15.11.2019
4087 Clouds 9 1015 76 10000 3.1 310 19:41 15.11.2019
4088 Clouds 9 1014 76 10000 4.1 300 19:21 15.11.2019
4089 Clouds 10 1015 71 10000 2.6 280 18:59 15.11.2019
4090 Clouds 10 1015 71 10000 2.6 280 18:41 15.11.2019
4091 Clouds 10 1014 76 10000 3.1 300 18:23 15.11.2019
4092 Clouds 10 1014 76 10000 2.1 300 17:55 15.11.2019
4093 Clouds 10 1014 76 10000 1.5 290 17:37 15.11.2019
4094 Clouds 10 1014 76 10000 1.5 290 17:18 15.11.2019
4095 Clouds 10 1015 66 10000 2.6 300 16:40 15.11.2019
4096 Clouds 10 1014 66 10000 2.1 280 16:22 15.11.2019
4097 Clouds 10 1015 71 10000 1 270 15:59 15.11.2019
4098 Clouds 10 1015 66 10000 1.5 270 15:36 15.11.2019
4099 Clouds 10 1015 66 10000 1.5 270 15:18 15.11.2019
4100 Clouds 11 1015 66 10000 2.1 310 14:55 15.11.2019
4101 Clear 11 1015 100 10000 1 260 14:37 15.11.2019
4102 Clouds 12 1015 67 10000 2.1 310 14:18 15.11.2019
4103 Clouds 11 1016 67 10000 2.1 310 13:54 15.11.2019
4104 Clouds 12 1016 67 10000 2.1 310 13:54 15.11.2019
4105 Clouds 11 1015 76 10000 3.1 310 13:36 15.11.2019
4106 Clouds 11 1015 76 10000 3.1 310 13:18 15.11.2019
4107 Clouds 12 1015 67 10000 1 0 12:56 15.11.2019
4108 Clouds 12 1015 67 10000 1 330 12:37 15.11.2019
4109 Clouds 13 1015 67 10000 1 330 12:18 15.11.2019
4110 Clouds 13 1015 67 10000 2.1 10 11:40 15.11.2019
4111 Clouds 14 1015 67 10000 2.1 10 11:21 15.11.2019
4112 Clouds 13 1015 67 10000 1.5 100 10:59 15.11.2019
4113 Clouds 13 1015 67 10000 1.5 100 10:39 15.11.2019
4114 Clouds 14 1015 67 10000 1.5 110 10:20 15.11.2019
4115 Clouds 15 1015 62 10000 1.5 80 09:41 15.11.2019
4116 Clouds 15 1015 67 10000 2.1 140 09:21 15.11.2019
4117 Clouds 16 1014 67 10000 3.1 120 08:58 15.11.2019
4118 Clouds 16 1014 67 10000 3.1 120 08:40 15.11.2019
4119 Clouds 16 1014 59 10000 3.6 120 08:21 15.11.2019
4120 Clouds 17 1014 59 10000 2.6 100 07:44 15.11.2019
4121 Clouds 17 1014 55 10000 2.6 130 07:25 15.11.2019
4122 Clouds 17 1015 51 10000 2.1 150 06:36 15.11.2019
4123 Clouds 16 1015 54 10000 1.5 80 05:54 15.11.2019
4124 Clouds 16 1015 48 10000 1.5 140 05:35 15.11.2019
4125 Clouds 16 1016 58 10000 2.6 50 04:54 15.11.2019
4126 Clouds 16 1017 62 10000 2.6 50 03:43 15.11.2019
4127 Clouds 15 1018 58 10000 2.1 10 02:34 15.11.2019
4128 Clouds 14 1018 62 10000 3.1 30 01:57 15.11.2019
4129 Clouds 13 1018 54 10000 2.6 20 01:32 15.11.2019
4130 Clouds 12 1018 66 10000 5.1 30 00:41 15.11.2019
4131 Clouds 12 1018 66 10000 5.1 30 00:23 15.11.2019
4132 Clouds 11 1017 66 10000 4.1 20 23:46 14.11.2019
4133 Clouds 11 1017 66 10000 4.1 20 23:26 14.11.2019
4134 Clouds 12 1017 66 10000 4.1 30 22:42 14.11.2019
4135 Clouds 11 1017 66 10000 4.1 30 22:23 14.11.2019
4136 Clouds 11 1017 62 10000 4.6 30 21:59 14.11.2019
4137 Clouds 11 1017 62 10000 4.6 30 21:41 14.11.2019
4138 Clouds 11 1017 62 10000 4.1 30 21:22 14.11.2019
4139 Clouds 11 1017 62 10000 4.1 40 20:55 14.11.2019
4140 Clouds 11 1016 62 10000 4.1 40 20:37 14.11.2019
4141 Clouds 11 1016 62 10000 4.1 40 20:37 14.11.2019
4142 Clouds 11 1016 62 10000 4.1 40 20:19 14.11.2019
4143 Clouds 12 1016 62 10000 4.1 30 19:57 14.11.2019
4144 Clouds 12 1016 58 10000 3.1 10 19:38 14.11.2019
4145 Clouds 12 1016 58 10000 3.1 10 19:18 14.11.2019
4146 Clouds 12 1015 54 10000 4.6 20 18:43 14.11.2019
4147 Clouds 12 1015 54 10000 4.6 20 18:24 14.11.2019
4148 Clouds 12 1015 54 10000 4.6 20 17:58 14.11.2019
4149 Clouds 12 1015 54 10000 4.1 30 17:38 14.11.2019
4150 Clouds 12 1015 54 10000 4.1 30 17:20 14.11.2019
4151 Clouds 12 1015 62 10000 5.7 40 16:58 14.11.2019
4152 Clouds 12 1015 62 10000 5.7 40 16:58 14.11.2019
4153 Clouds 12 1015 62 10000 5.7 40 16:58 14.11.2019
4154 Clouds 12 1014 62 10000 5.7 50 16:37 14.11.2019
4155 Clouds 12 1014 62 10000 5.7 50 16:19 14.11.2019
4156 Clouds 12 1014 58 10000 5.1 50 15:58 14.11.2019
4157 Clouds 13 1014 58 10000 2.6 30 15:39 14.11.2019
4158 Clouds 13 1014 58 10000 5.7 50 15:20 14.11.2019
4159 Clouds 13 1014 58 10000 5.7 50 15:20 14.11.2019
4160 Clouds 13 1014 47 10000 5.7 10 14:58 14.11.2019
4161 Clouds 13 1013 44 10000 6.2 360 14:39 14.11.2019
4162 Clouds 13 1013 44 10000 6.2 360 14:39 14.11.2019
4163 Clouds 13 1013 44 10000 6.2 360 14:21 14.11.2019
4164 Clouds 14 1013 38 10000 6.7 360 13:42 14.11.2019
4165 Clouds 14 1012 44 10000 8.2 360 13:23 14.11.2019
4166 Clouds 14 1013 41 10000 7.7 360 12:59 14.11.2019
4167 Clouds 14 1013 41 10000 7.7 360 12:40 14.11.2019
4168 Clouds 15 1012 41 10000 9.3 350 12:21 14.11.2019
4169 Clouds 15 1012 41 10000 10.3 350 11:56 14.11.2019
4170 Clouds 16 1011 42 10000 11.3 360 11:37 14.11.2019
4171 Clouds 16 1011 42 10000 11.3 360 11:37 14.11.2019
4172 Clouds 16 1011 42 10000 11.3 360 11:19 14.11.2019
4173 Clouds 16 1011 42 10000 10.3 360 10:57 14.11.2019
4174 Clouds 17 1010 39 10000 10.8 350 10:37 14.11.2019
4175 Clouds 17 1010 39 10000 10.8 350 10:19 14.11.2019
4176 -273 0 0 0 0 0 09:54 14.11.2019
4177 Clouds 18 1007 45 10000 8.2 350 09:36 14.11.2019
4178 Clouds 19 1007 35 10000 4.1 330 09:18 14.11.2019
4179 Clouds 19 1007 35 10000 4.1 330 08:41 14.11.2019
4180 Clouds 19 1007 35 10000 4.1 330 08:23 14.11.2019
4181 Clouds 21 1006 37 10000 4.6 300 07:42 14.11.2019
4182 Clouds 21 1006 37 10000 4.6 300 07:24 14.11.2019
4183 Clouds 21 1005 60 10000 4.6 360 06:46 14.11.2019
4184 Clouds 21 1005 46 10000 2.6 340 06:21 14.11.2019
4185 Clouds 21 1005 53 10000 2.6 360 05:59 14.11.2019
4186 Clear 23 1007 42 0 0.75 52 04:38 14.11.2019
4187 Clouds 19 1005 67 10000 2.6 330 03:47 14.11.2019
4188 Clouds 18 1005 72 10000 2.1 360 02:39 14.11.2019
4189 Clouds 18 1005 68 10000 9.8 210 01:41 14.11.2019
4190 Clouds 16 1005 82 10000 2.6 230 00:58 14.11.2019
4191 Clouds 16 1005 82 10000 2.6 230 00:58 14.11.2019
4192 Clouds 16 1005 82 10000 2.6 230 00:39 14.11.2019
4193 Clouds 16 1005 82 10000 2.6 230 00:39 14.11.2019
4194 Clouds 16 1006 82 10000 7.7 220 00:20 14.11.2019
4195 Rain 15 1006 82 10000 7.7 200 23:39 13.11.2019
4196 Rain 15 1006 82 10000 7.7 200 23:20 13.11.2019
4197 Rain 13 1006 77 10000 8.7 210 22:55 13.11.2019
4198 Rain 13 1006 77 10000 8.7 210 22:55 13.11.2019
4199 Clouds 15 1006 77 10000 8.7 210 22:37 13.11.2019
4200 Clouds 18 1006 77 10000 8.7 210 22:19 13.11.2019
4201 Clouds 17 1007 77 10000 9.3 200 21:55 13.11.2019
4202 Clouds 17 1007 68 10000 10.8 210 21:36 13.11.2019
4203 Clouds 17 1007 68 10000 10.8 210 21:18 13.11.2019
4204 Clouds 17 1007 72 10000 10.8 220 20:55 13.11.2019
4205 Clouds 17 1007 72 10000 10.3 220 20:37 13.11.2019
4206 Clouds 17 1007 72 10000 10.3 220 20:37 13.11.2019
4207 Clouds 17 1007 72 10000 10.3 220 20:18 13.11.2019
4208 Clouds 17 1007 72 10000 10.3 220 20:18 13.11.2019
4209 Clouds 17 1008 72 10000 11.8 220 19:42 13.11.2019
4210 Rain 16 1008 72 10000 9.3 210 19:19 13.11.2019
4211 Rain 16 1009 72 10000 10.8 210 18:56 13.11.2019
4212 Clouds 16 1012 100 16093 8.93 219 18:38 13.11.2019
4213 Clouds 17 1009 64 10000 7.7 210 18:19 13.11.2019
4214 Clouds 17 1009 64 10000 7.7 210 18:19 13.11.2019
4215 Clouds 18 1011 64 10000 8.2 210 17:57 13.11.2019
4216 Clouds 18 1011 64 10000 8.2 210 17:57 13.11.2019
4217 Clouds 16 1010 68 10000 7.2 210 17:38 13.11.2019
4218 Clouds 16 1010 68 10000 7.2 210 17:20 13.11.2019
4219 Clouds 16 1011 68 10000 7.7 210 16:58 13.11.2019
4220 Clouds 16 1011 77 10000 5.1 220 16:39 13.11.2019
4221 Clouds 16 1011 77 10000 5.1 220 16:21 13.11.2019
4222 Clouds 14 1013 82 10000 3.6 200 15:58 13.11.2019
4223 Clouds 14 1013 82 10000 3.6 200 15:58 13.11.2019
4224 Clouds 14 1013 82 10000 4.6 170 15:39 13.11.2019
4225 Clouds 13 1013 82 10000 4.6 170 15:20 13.11.2019
4226 Mist 13 1015 93 3621 7.72 218 14:42 13.11.2019
4227 Mist 13 1015 93 3621 5.37 198 14:22 13.11.2019
4228 Clouds 12 1015 71 10000 2.1 230 13:58 13.11.2019
4229 Clouds 13 1015 67 10000 2.1 0 13:36 13.11.2019
4230 Clouds 13 1015 67 10000 2.1 0 13:18 13.11.2019
4231 Clouds 13 1016 67 10000 1.5 140 12:54 13.11.2019
4232 Clouds 13 1017 93 16093 5.26 202 12:36 13.11.2019
4233 Clouds 13 1017 93 16093 5.26 202 12:18 13.11.2019
4234 Clouds 13 1016 67 10000 2.1 40 11:40 13.11.2019
4235 Clouds 13 1016 67 10000 2.6 20 11:20 13.11.2019
4236 Clouds 13 1019 93 16093 1.5 20 10:58 13.11.2019
4237 Clouds 13 1017 67 10000 3.6 360 10:40 13.11.2019
4238 Clouds 14 1017 67 10000 3.6 360 10:19 13.11.2019
4239 Clouds 14 1017 67 10000 4.1 340 09:55 13.11.2019
4240 Clouds 14 1017 67 10000 4.6 330 09:37 13.11.2019
4241 Clouds 14 1017 67 10000 4.6 330 09:19 13.11.2019
4242 Clouds 15 1018 62 10000 4.1 340 08:39 13.11.2019
4243 Rain 15 1017 51 10000 1.5 350 08:20 13.11.2019
4244 Rain 16 1019 51 10000 3.1 330 07:42 13.11.2019
4245 Rain 16 1019 51 10000 3.1 330 07:42 13.11.2019
4246 Rain 16 1018 48 10000 2.1 350 07:20 13.11.2019
4247 Rain 16 1018 51 10000 3.6 340 06:46 13.11.2019
4248 Clouds 16 1018 45 10000 2.6 310 06:19 13.11.2019
4249 Clouds 16 1018 45 10000 2.6 310 06:19 13.11.2019
4250 Clouds 16 1018 45 10000 2.6 310 06:19 13.11.2019
4251 Clouds 16 1018 45 10000 2.6 310 06:19 13.11.2019
4252 Clouds 16 1021 71 16093 0.6 92 05:53 13.11.2019
4253 Clouds 16 1019 48 10000 1.5 350 05:34 13.11.2019
4254 Clouds 16 1020 55 10000 3.1 360 04:43 13.11.2019
4255 Clouds 15 1022 48 10000 1 0 02:19 13.11.2019
4256 Clouds 14 1023 51 10000 3.6 350 01:44 13.11.2019
4257 Clouds 14 1023 47 10000 2.1 350 00:45 13.11.2019
4258 Clouds 13 1023 51 10000 4.1 10 00:26 13.11.2019
4259 Clouds 13 1023 50 10000 4.6 360 23:42 12.11.2019
4260 Clouds 12 1023 47 10000 4.1 10 23:21 12.11.2019
4261 Clouds 12 1022 50 10000 4.1 360 22:56 12.11.2019
4262 Clouds 12 1022 47 10000 4.1 360 22:37 12.11.2019
4263 Clouds 12 1022 47 10000 4.1 360 22:18 12.11.2019
4264 Clouds 12 1021 47 10000 4.6 10 21:44 12.11.2019
4265 Clouds 12 1021 47 10000 4.6 10 21:25 12.11.2019
4266 Clouds 12 1022 47 10000 4.6 10 20:58 12.11.2019
4267 Clouds 12 1022 47 10000 4.6 10 20:38 12.11.2019
4268 Clouds 12 1021 47 10000 6.2 350 20:19 12.11.2019
4269 Clouds 12 1021 47 10000 6.2 10 19:57 12.11.2019
4270 Clouds 13 1021 41 10000 6.2 10 19:39 12.11.2019
4271 Clouds 13 1021 41 10000 6.2 10 19:19 12.11.2019
4272 Clouds 13 1021 44 10000 6.2 10 18:59 12.11.2019
4273 Clouds 13 1020 41 10000 6.7 10 18:40 12.11.2019
4274 Clouds 12 1020 41 10000 6.7 10 18:22 12.11.2019
4275 Clouds 12 1020 44 10000 5.7 360 17:57 12.11.2019
4276 Clouds 12 1020 41 10000 5.7 10 17:39 12.11.2019
4277 Clouds 12 1020 41 10000 5.7 10 17:21 12.11.2019
4278 Clouds 12 1020 41 10000 5.7 10 17:21 12.11.2019
4279 Clouds 13 1020 36 10000 7.2 10 16:57 12.11.2019
4280 Clouds 13 1020 36 10000 7.2 10 16:39 12.11.2019
4281 Clouds 13 1020 41 10000 7.2 10 16:20 12.11.2019
4282 Clouds 12 1019 41 10000 4.1 360 15:41 12.11.2019
4283 Clouds 12 1019 41 10000 4.1 360 15:21 12.11.2019
4284 Clouds 13 1020 41 10000 5.7 350 14:57 12.11.2019
4285 Clouds 13 1019 58 10000 2.6 20 14:37 12.11.2019
4286 Clouds 13 1019 48 10000 5.7 360 14:19 12.11.2019
4287 Clouds 13 1019 44 10000 4.6 10 13:56 12.11.2019
4288 Clouds 13 1019 44 10000 5.1 350 13:37 12.11.2019
4289 Clouds 13 1019 44 10000 5.1 350 13:37 12.11.2019
4290 Clouds 13 1019 44 10000 5.1 350 13:19 12.11.2019
4291 Clouds 14 1019 44 10000 5.1 350 12:43 12.11.2019
4292 Clouds 15 1018 44 10000 6.2 340 12:20 12.11.2019
4293 Clouds 15 1018 45 10000 6.2 350 11:59 12.11.2019
4294 Clear 15 1017 42 10000 5.7 340 11:41 12.11.2019
4295 Clear 15 1017 42 10000 5.7 340 11:22 12.11.2019
4296 Clear 15 1017 39 10000 5.7 330 10:57 12.11.2019
4297 Clear 15 1017 42 10000 6.2 320 10:38 12.11.2019
4298 Clear 16 1017 42 10000 6.2 320 10:20 12.11.2019
4299 Clouds 17 1016 36 10000 5.7 330 09:56 12.11.2019
4300 Clouds 17 1015 39 10000 7.7 330 09:37 12.11.2019
4301 Clouds 18 1015 39 10000 7.7 330 09:18 12.11.2019
4302 Clouds 19 1014 40 10000 7.2 340 08:41 12.11.2019
4303 Clouds 20 1014 40 10000 7.2 340 08:22 12.11.2019
4304 Clouds 21 1014 40 10000 7.2 340 07:41 12.11.2019
4305 Clouds 21 1013 35 10000 4.6 340 07:23 12.11.2019
4306 Clouds 21 1013 37 10000 7.7 340 06:45 12.11.2019
4307 Clouds 21 1013 33 10000 5.1 300 06:23 12.11.2019
4308 Rain 22 1013 37 10000 8.2 340 05:46 12.11.2019
4309 Rain 22 1013 35 10000 8.7 340 04:50 12.11.2019
4310 Clouds 21 1012 43 10000 9.8 350 03:49 12.11.2019
4311 Clouds 18 1013 42 10000 7.2 340 01:49 12.11.2019
4312 Clouds 17 1012 40 10000 5.1 310 01:22 12.11.2019
4313 Clouds 17 1012 40 10000 5.1 310 01:22 12.11.2019
4314 Rain 16 1012 45 10000 5.1 310 00:51 12.11.2019
4315 Rain 15 1011 67 10000 3.6 300 00:32 12.11.2019
4316 Clouds 13 1012 76 10000 3.6 270 23:47 11.11.2019
4317 Clouds 11 1010 76 10000 4.6 330 23:25 11.11.2019
4318 Clouds 10 1011 87 10000 3.6 320 22:58 11.11.2019
4319 Clouds 10 1011 87 10000 3.6 320 22:38 11.11.2019
4320 Clouds 10 1010 87 10000 4.1 280 22:19 11.11.2019
4321 Clouds 10 1009 87 10000 2.1 310 21:57 11.11.2019
4322 Clouds 10 1009 87 10000 2.1 310 21:38 11.11.2019
4323 Rain 10 1009 93 10000 3.1 280 21:19 11.11.2019
4324 Rain 10 1008 93 10000 3.1 270 20:55 11.11.2019
4325 Clouds 10 1008 93 10000 2.6 290 20:36 11.11.2019
4326 Clouds 10 1008 93 10000 2.6 290 20:18 11.11.2019
4327 Clouds 10 1008 93 10000 2.6 290 20:18 11.11.2019
4328 Clouds 11 1008 87 10000 1.5 270 19:41 11.11.2019
4329 Clouds 11 1008 87 10000 1.5 270 19:41 11.11.2019
4330 Clouds 11 1008 93 10000 2.6 260 19:19 11.11.2019
4331 Clouds 11 1007 93 10000 1 0 18:57 11.11.2019
4332 Clouds 11 1007 93 10000 1 0 18:39 11.11.2019
4333 Clouds 11 1007 93 10000 2.1 280 18:20 11.11.2019
4334 Clouds 11 1007 93 10000 2.6 260 17:44 11.11.2019
4335 Clouds 11 1007 87 10000 2.1 280 17:25 11.11.2019
4336 Clouds 11 1007 93 10000 1.5 290 16:55 11.11.2019
4337 Clouds 11 1006 87 10000 2.1 300 16:36 11.11.2019
4338 Clouds 12 1006 87 10000 2.1 300 16:18 11.11.2019
4339 Clouds 12 1006 87 10000 3.6 320 15:41 11.11.2019
4340 Clouds 12 1006 82 10000 3.1 310 15:20 11.11.2019
4341 Clouds 12 1006 93 10000 3.1 330 14:55 11.11.2019
4342 Clouds 12 1006 93 10000 3.1 330 14:54 11.11.2019
4343 Clouds 12 1006 93 10000 3.1 330 14:36 11.11.2019
4344 Clouds 12 1006 93 10000 3.6 310 14:18 11.11.2019
4345 Clouds 12 1006 93 10000 2.6 320 13:39 11.11.2019
4346 Clouds 12 1006 93 10000 1 0 13:21 11.11.2019
4347 Clouds 13 1005 82 10000 0.5 0 12:58 11.11.2019
4348 Clouds 13 1005 82 10000 0.5 0 12:58 11.11.2019
4349 Clouds 13 1005 82 10000 0.5 0 12:40 11.11.2019
4350 Clouds 13 1005 82 10000 1 0 12:22 11.11.2019
4351 Clouds 13 1005 82 10000 2.1 30 11:57 11.11.2019
4352 Clouds 13 1005 82 10000 2.1 30 11:39 11.11.2019
4353 Clouds 13 1005 82 10000 4.1 20 11:21 11.11.2019
4354 Clouds 14 1005 87 10000 4.1 20 10:43 11.11.2019
4355 Clouds 14 1005 82 10000 3.1 360 10:19 11.11.2019
4356 Rain 15 1006 87 10000 2.6 340 09:58 11.11.2019
4357 Rain 15 1006 87 10000 2.6 340 09:58 11.11.2019
4358 Rain 15 1006 87 10000 2.6 340 09:39 11.11.2019
4359 Rain 15 1006 82 10000 5.1 310 09:19 11.11.2019
4360 Rain 16 1005 68 10000 1 0 08:41 11.11.2019
4361 Clouds 16 1006 72 8000 0.5 0 08:22 11.11.2019
4362 Clouds 17 1006 77 10000 2.1 110 07:57 11.11.2019
4363 Clouds 17 1006 68 10000 2.6 200 07:37 11.11.2019
4364 Clouds 17 1006 68 10000 2.6 200 07:19 11.11.2019
4365 Rain 17 1006 82 10000 2.1 110 06:48 11.11.2019
4366 Clouds 18 1006 72 10000 2.6 150 06:23 11.11.2019
4367 Clouds 17 1006 77 10000 1.5 50 05:51 11.11.2019
4368 Clouds 16 1007 77 10000 2.6 40 04:43 11.11.2019
4369 Clouds 15 1009 82 8000 1.5 280 03:25 11.11.2019
4370 Clouds 14 1010 82 8000 1 0 02:30 11.11.2019
4371 Clouds 13 1011 87 10000 1 0 01:57 11.11.2019
4372 Clouds 13 1011 87 7000 2.1 310 01:35 11.11.2019
4373 Clouds 13 1011 87 6000 3.1 300 00:51 11.11.2019
4374 Clouds 12 1011 87 10000 4.1 350 00:26 11.11.2019
4375 Rain 12 1011 87 10000 4.1 10 23:56 10.11.2019
4376 Rain 12 1011 87 10000 7.2 50 23:36 10.11.2019
4377 Rain 12 1011 87 10000 7.2 50 23:36 10.11.2019
4378 Rain 12 1011 87 10000 7.2 50 23:18 10.11.2019
4379 Rain 12 1011 87 10000 7.2 10 22:55 10.11.2019
4380 Rain 12 1011 87 10000 7.2 10 22:36 10.11.2019
4381 Rain 11 1011 100 4500 7.7 340 22:18 10.11.2019
4382 Rain 12 1012 93 6000 5.7 340 21:54 10.11.2019
4383 Rain 11 1012 93 6000 5.7 340 21:36 10.11.2019
4384 Rain 12 1012 93 7000 4.6 340 21:18 10.11.2019
4385 Rain 12 1012 87 8000 4.6 330 20:40 10.11.2019
4386 Rain 12 1012 76 10000 4.6 360 20:21 10.11.2019
4387 Rain 13 1012 72 10000 4.6 360 19:56 10.11.2019
4388 Rain 13 1012 72 10000 4.6 360 19:37 10.11.2019
4389 Clouds 13 1012 72 10000 4.6 360 19:18 10.11.2019
4390 Clouds 13 1013 72 10000 4.1 20 18:57 10.11.2019
4391 Clouds 13 1013 72 10000 4.1 20 18:38 10.11.2019
4392 Clouds 13 1012 77 10000 3.6 10 18:19 10.11.2019
4393 Clouds 13 1013 77 10000 2.6 50 17:56 10.11.2019
4394 Clouds 13 1013 77 10000 4.1 80 17:38 10.11.2019
4395 Clouds 13 1013 77 10000 4.1 80 17:19 10.11.2019
4396 Clouds 13 1014 77 10000 4.1 80 16:57 10.11.2019
4397 Clouds 13 1013 77 10000 5.1 80 16:38 10.11.2019
4398 Clouds 13 1013 77 10000 5.1 80 16:19 10.11.2019
4399 Clouds 14 1014 77 10000 4.1 80 15:55 10.11.2019
4400 Clouds 14 1014 77 10000 4.1 80 15:36 10.11.2019
4401 Clouds 14 1014 77 10000 5.1 90 15:18 10.11.2019
4402 Clouds 14 1015 77 10000 5.1 80 14:41 10.11.2019
4403 Clouds 14 1014 77 10000 4.6 90 14:22 10.11.2019
4404 Clouds 14 1015 77 10000 4.6 100 13:58 10.11.2019
4405 Clouds 13 1014 77 10000 5.7 100 13:40 10.11.2019
4406 Clouds 13 1014 77 10000 5.7 100 13:20 10.11.2019
4407 Clouds 14 1014 77 10000 5.7 110 12:44 10.11.2019
4408 Clouds 14 1014 72 10000 6.2 110 12:21 10.11.2019
4409 Clouds 14 1015 72 10000 5.1 120 11:57 10.11.2019
4410 Clouds 14 1015 72 10000 5.1 120 11:57 10.11.2019
4411 Clouds 14 1015 72 10000 5.7 130 11:39 10.11.2019
4412 Clouds 14 1015 72 10000 5.7 130 11:21 10.11.2019
4413 Clouds 14 1015 72 10000 6.2 130 11:00 10.11.2019
4414 Clouds 14 1015 72 10000 6.2 130 10:40 10.11.2019
4415 Clouds 14 1014 72 10000 5.7 130 10:20 10.11.2019
4416 Clouds 16 1014 59 10000 2.6 110 09:44 10.11.2019
4417 Clouds 16 1013 51 10000 2.1 80 09:24 10.11.2019
4418 Clouds 17 1013 51 10000 1.5 70 08:59 10.11.2019
4419 Clouds 17 1013 51 10000 1.5 70 08:37 10.11.2019
4420 Clouds 17 1013 45 10000 1.5 140 08:18 10.11.2019
4421 Clouds 18 1013 51 10000 1.5 70 07:42 10.11.2019
4422 Clouds 19 1012 48 10000 2.6 130 07:24 10.11.2019
4423 Clouds 19 1012 52 10000 3.6 140 06:33 10.11.2019
4424 Clouds 18 1013 55 10000 3.1 90 05:40 10.11.2019
4425 Clouds 17 1014 51 10000 2.6 40 03:22 10.11.2019
4426 Clouds 15 1016 58 10000 5.7 10 01:53 10.11.2019
4427 Clouds 15 1015 54 10000 2.1 330 01:19 10.11.2019
4428 Clouds 15 1015 54 10000 2.1 330 01:19 10.11.2019
4429 Clouds 13 1015 62 10000 4.1 340 00:41 10.11.2019
4430 Clouds 13 1015 62 10000 7.2 350 23:58 09.11.2019
4431 Clouds 11 1015 62 10000 6.2 340 23:37 09.11.2019
4432 Clouds 10 1015 62 10000 6.2 340 23:18 09.11.2019
4433 Clouds 9 1015 66 10000 6.2 350 22:41 09.11.2019
4434 Clouds 9 1014 62 10000 5.7 350 22:21 09.11.2019
4435 Clouds 10 1014 62 10000 5.1 360 21:56 09.11.2019
4436 Clouds 10 1014 62 10000 5.1 360 21:37 09.11.2019
4437 Clouds 10 1014 66 10000 5.1 10 21:19 09.11.2019
4438 Clouds 10 1014 66 10000 5.7 10 20:43 09.11.2019
4439 Clouds 10 1014 66 10000 5.7 360 20:23 09.11.2019
4440 Clouds 10 1014 66 10000 6.2 360 19:58 09.11.2019
4441 Clouds 10 1014 66 10000 6.2 360 19:40 09.11.2019
4442 Clouds 10 1014 66 10000 6.2 360 19:40 09.11.2019
4443 Clouds 10 1014 66 10000 5.7 10 19:21 09.11.2019
4444 Clouds 11 1014 66 10000 5.7 10 18:57 09.11.2019
4445 Clouds 11 1014 66 10000 5.7 10 18:38 09.11.2019
4446 Clouds 11 1014 71 10000 5.7 10 18:18 09.11.2019
4447 Clouds 11 1014 71 10000 6.7 360 17:41 09.11.2019
4448 Clouds 12 1014 62 10000 5.7 10 17:22 09.11.2019
4449 Clouds 12 1014 62 10000 5.1 10 16:56 09.11.2019
4450 Clouds 12 1014 62 10000 5.1 10 16:37 09.11.2019
4451 Clouds 12 1014 62 10000 4.6 30 16:18 09.11.2019
4452 Clouds 12 1014 54 10000 3.1 10 15:42 09.11.2019
4453 Clouds 12 1014 54 10000 3.1 10 15:23 09.11.2019
4454 Clouds 12 1015 54 10000 4.1 360 14:46 09.11.2019
4455 Clear 12 1015 62 10000 4.1 30 14:23 09.11.2019
4456 Clear 12 1015 54 10000 4.1 20 13:58 09.11.2019
4457 Clear 12 1015 54 10000 4.1 20 13:40 09.11.2019
4458 Clear 12 1015 54 10000 4.6 20 13:21 09.11.2019
4459 Clear 12 1015 58 10000 4.1 30 12:59 09.11.2019
4460 Clear 12 1015 58 10000 4.1 30 12:40 09.11.2019
4461 Clear 12 1014 54 10000 4.1 20 12:22 09.11.2019
4462 Clouds 13 1015 58 10000 5.1 30 11:55 09.11.2019
4463 Clear 13 1015 58 10000 5.1 60 11:37 09.11.2019
4464 Clear 13 1015 58 10000 5.1 60 11:18 09.11.2019
4465 Clouds 13 1015 59 10000 4.6 80 10:40 09.11.2019
4466 Clouds 14 1014 59 10000 3.6 80 10:19 09.11.2019
4467 Clouds 14 1014 63 10000 4.6 80 10:19 09.11.2019
4468 Clouds 14 1014 59 10000 3.6 80 09:47 09.11.2019
4469 Clouds 14 1014 59 10000 3.6 90 09:28 09.11.2019
4470 Clouds 15 1014 55 10000 3.1 80 08:59 09.11.2019
4471 Clouds 16 1014 55 10000 3.1 80 08:40 09.11.2019
4472 Clouds 16 1014 55 10000 2.6 120 08:19 09.11.2019
4473 Clouds 17 1015 59 10000 1.5 90 07:46 09.11.2019
4474 Clouds 17 1014 55 10000 4.1 140 07:23 09.11.2019
4475 Clouds 17 1015 59 10000 2.6 90 06:49 09.11.2019
4476 Clouds 17 1014 55 10000 4.1 140 06:31 09.11.2019
4477 Clouds 17 1015 58 10000 3.1 80 05:45 09.11.2019
4478 Clouds 16 1015 59 10000 3.1 60 04:58 09.11.2019
4479 Clouds 16 1017 58 10000 4.6 50 03:57 09.11.2019
4480 Clouds 15 1018 67 10000 4.1 50 02:44 09.11.2019
4481 Clouds 14 1018 67 10000 5.1 30 01:55 09.11.2019
4482 Clouds 13 1019 62 10000 3.6 30 00:54 09.11.2019
4483 Clouds 13 1019 71 10000 6.2 40 00:36 09.11.2019
4484 Clouds 13 1018 71 10000 5.7 50 23:58 08.11.2019
4485 Clouds 12 1018 71 10000 5.7 50 23:39 08.11.2019
4486 Clouds 12 1018 71 10000 6.7 40 23:20 08.11.2019
4487 Clouds 11 1018 66 10000 6.2 30 22:48 08.11.2019
4488 Clouds 12 1018 66 10000 6.2 30 22:48 08.11.2019
4489 Clouds 12 1018 71 10000 5.7 20 22:22 08.11.2019
4490 Clouds 12 1018 66 10000 5.7 10 21:57 08.11.2019
4491 Clouds 12 1018 66 10000 5.7 10 21:39 08.11.2019
4492 Clouds 12 1017 66 10000 6.7 10 21:19 08.11.2019
4493 Clouds 12 1017 66 10000 6.7 20 20:54 08.11.2019
4494 Clouds 12 1017 66 10000 7.2 30 20:36 08.11.2019
4495 Clouds 12 1017 66 10000 7.2 30 20:18 08.11.2019
4496 Clouds 12 1017 71 10000 7.2 20 19:39 08.11.2019
4497 Clouds 12 1017 66 10000 6.2 20 19:19 08.11.2019
4498 Clouds 12 1017 66 10000 6.2 20 19:19 08.11.2019
4499 Clouds 12 1017 66 10000 6.2 10 18:56 08.11.2019
4500 Clouds 12 1017 66 10000 6.2 10 18:38 08.11.2019
4501 Clouds 12 1017 66 10000 6.2 10 18:20 08.11.2019
4502 Clouds 13 1016 67 10000 6.2 10 17:56 08.11.2019
4503 Clouds 13 1016 67 10000 6.2 10 17:56 08.11.2019
4504 Clouds 13 1016 67 10000 6.2 10 17:56 08.11.2019
4505 Clouds 13 1017 71 10000 5.7 10 17:37 08.11.2019
4506 Clouds 13 1017 71 10000 5.7 10 17:19 08.11.2019
4507 Clouds 13 1017 71 10000 5.7 10 17:19 08.11.2019
4508 Clouds 13 1017 71 10000 5.7 20 16:58 08.11.2019
4509 Clouds 13 1017 71 10000 5.7 20 16:39 08.11.2019
4510 Clouds 13 1017 71 10000 5.7 20 16:39 08.11.2019
4511 Clouds 13 1016 71 10000 6.7 30 16:20 08.11.2019
4512 Clouds 14 1017 62 10000 7.2 50 15:59 08.11.2019
4513 Clouds 14 1017 67 10000 8.2 50 15:40 08.11.2019
4514 Clouds 14 1017 67 10000 8.2 50 15:22 08.11.2019
4515 Clouds 14 1017 72 10000 7.2 60 14:56 08.11.2019
4516 Clouds 14 1017 67 10000 7.2 60 14:37 08.11.2019
4517 Clouds 14 1017 67 10000 7.2 60 14:18 08.11.2019
4518 Clouds 14 1017 72 10000 6.7 70 13:57 08.11.2019
4519 Clouds 14 1017 72 10000 6.7 70 13:38 08.11.2019
4520 Clouds 14 1017 67 10000 6.7 60 13:19 08.11.2019
4521 Clouds 14 1017 67 10000 7.2 60 12:43 08.11.2019
4522 Clouds 15 1017 67 10000 6.7 70 12:24 08.11.2019
4523 Clouds 15 1017 67 10000 6.7 70 12:24 08.11.2019
4524 Clouds 15 1017 67 10000 6.7 80 11:57 08.11.2019
4525 Clouds 15 1017 67 10000 6.7 80 11:39 08.11.2019
4526 Clouds 15 1017 67 10000 6.7 80 11:20 08.11.2019
4527 Clouds 15 1017 67 10000 6.7 80 11:20 08.11.2019
4528 Clouds 15 1017 63 10000 6.7 80 10:57 08.11.2019
4529 Clouds 15 1017 63 10000 6.7 80 10:39 08.11.2019
4530 Clouds 16 1016 67 10000 6.2 90 10:20 08.11.2019
4531 Clouds 15 1016 67 10000 5.7 100 09:42 08.11.2019
4532 Clouds 16 1016 63 10000 6.2 110 09:24 08.11.2019
4533 Clouds 16 1016 67 10000 6.2 120 08:59 08.11.2019
4534 Clouds 16 1016 67 10000 6.2 120 08:38 08.11.2019
4535 Clouds 16 1015 55 10000 5.1 100 08:19 08.11.2019
4536 Clouds 17 1015 63 10000 6.2 90 07:41 08.11.2019
4537 Clouds 17 1014 59 10000 6.2 120 07:22 08.11.2019
4538 Clouds 17 1014 55 10000 4.1 80 06:41 08.11.2019
4539 Clouds 17 1014 48 10000 1 0 06:23 08.11.2019
4540 Clouds 17 1014 52 10000 1.5 20 05:56 08.11.2019
4541 Clouds 17 1014 52 10000 4.1 160 05:24 08.11.2019
4542 Clouds 17 1015 51 10000 2.6 50 03:58 08.11.2019
4543 Clouds 17 1015 51 10000 2.6 50 03:58 08.11.2019
4544 Clouds 17 1015 51 10000 2.6 50 03:58 08.11.2019
4545 Clouds 17 1015 45 10000 1.5 40 03:36 08.11.2019
4546 Clouds 16 1016 51 10000 2.6 20 02:54 08.11.2019
4547 Clouds 15 1016 58 10000 3.6 20 01:49 08.11.2019
4548 Clouds 15 1016 51 10000 2.6 30 01:31 08.11.2019
4549 Clouds 14 1016 51 10000 4.6 20 00:37 08.11.2019
4550 Clouds 14 1016 51 10000 4.6 20 00:19 08.11.2019
4551 Clouds 13 1016 58 10000 5.7 30 23:43 07.11.2019
4552 Clouds 13 1015 54 10000 4.1 20 23:24 07.11.2019
4553 Clouds 13 1015 62 10000 5.7 350 22:55 07.11.2019
4554 Clouds 13 1014 62 10000 5.7 360 22:37 07.11.2019
4555 Clouds 13 1014 62 10000 5.7 360 22:19 07.11.2019
4556 Clouds 13 1013 58 10000 7.7 360 21:38 07.11.2019
4557 Clouds 13 1012 51 10000 8.7 350 21:20 07.11.2019
4558 Clouds 14 1012 55 10000 9.8 350 20:58 07.11.2019
4559 Clouds 14 1012 55 10000 9.8 350 20:40 07.11.2019
4560 Clouds 14 1012 55 10000 7.2 360 20:21 07.11.2019
4561 Clouds 14 1012 59 10000 9.8 350 19:57 07.11.2019
4562 Clouds 14 1012 59 10000 9.8 350 19:57 07.11.2019
4563 Clouds 14 1012 55 10000 8.7 350 19:38 07.11.2019
4564 Clouds 14 1012 55 10000 8.7 350 19:20 07.11.2019
4565 Clouds 15 1012 51 10000 8.2 350 18:57 07.11.2019
4566 Clouds 15 1012 51 10000 8.2 350 18:38 07.11.2019
4567 Clouds 14 1011 51 10000 9.3 350 18:19 07.11.2019
4568 Clouds 14 1010 48 10000 7.7 350 17:54 07.11.2019
4569 Clouds 14 1010 48 10000 7.7 350 17:36 07.11.2019
4570 Clouds 14 1010 52 10000 8.2 350 17:18 07.11.2019
4571 Clouds 15 1010 55 10000 3.6 360 16:54 07.11.2019
4572 Clouds 15 1010 55 10000 3.6 360 16:36 07.11.2019
4573 Clouds 15 1010 59 10000 5.1 360 16:18 07.11.2019
4574 Clouds 15 1010 59 10000 3.6 340 15:40 07.11.2019
4575 Clouds 15 1010 59 10000 3.6 340 15:20 07.11.2019
4576 Clouds 16 1010 55 10000 2.1 360 14:56 07.11.2019
4577 Clouds 16 1010 55 10000 2.1 360 14:37 07.11.2019
4578 Clouds 16 1011 55 10000 3.6 350 14:19 07.11.2019
4579 Clouds 16 1011 55 10000 3.6 350 13:54 07.11.2019
4580 Clouds 17 1010 55 10000 5.7 350 13:36 07.11.2019
4581 Clouds 17 1010 55 10000 5.7 350 13:18 07.11.2019
4582 Clouds 17 1010 55 10000 5.1 310 12:54 07.11.2019
4583 Clouds 18 1009 45 10000 5.1 260 12:36 07.11.2019
4584 Clouds 18 1009 45 10000 5.1 260 12:36 07.11.2019
4585 Clouds 18 1009 45 10000 6.2 240 12:18 07.11.2019
4586 Clouds 19 1009 45 10000 6.7 230 11:41 07.11.2019
4587 Clouds 19 1009 45 10000 6.7 230 11:22 07.11.2019
4588 Clouds 20 1009 49 10000 10.3 230 10:42 07.11.2019
4589 Clouds 20 1009 52 10000 9.3 230 10:19 07.11.2019
4590 Clouds 20 1008 52 10000 7.7 220 09:45 07.11.2019
4591 Clouds 20 1008 52 10000 7.7 220 09:26 07.11.2019
4592 Clouds 20 1008 52 10000 7.7 220 09:25 07.11.2019
4593 Clouds 20 1008 52 10000 7.7 220 09:24 07.11.2019
4594 Clouds 20 1009 49 10000 9.3 210 08:59 07.11.2019
4595 Clouds 20 1008 60 10000 5.7 200 08:40 07.11.2019
4596 Clouds 20 1008 60 10000 5.7 200 08:22 07.11.2019
4597 -273 0 0 0 0 0 07:56 07.11.2019
4598 Clouds 21 1009 72 10000 6.2 180 07:37 07.11.2019
4599 Clouds 21 1009 56 10000 8.7 190 07:19 07.11.2019
4600 Clouds 22 1009 68 10000 4.6 180 06:44 07.11.2019
4601 Clouds 22 1009 68 10000 4.6 180 06:23 07.11.2019
4602 Clouds 22 1009 68 10000 4.6 180 06:23 07.11.2019
4603 Clouds 22 1009 68 10000 4.1 150 05:48 07.11.2019
4604 Clouds 22 1009 68 10000 4.1 150 05:30 07.11.2019
4605 Clouds 22 1010 60 10000 5.7 170 04:50 07.11.2019
4606 Clouds 22 1010 60 10000 5.7 170 04:50 07.11.2019
4607 Clouds 21 1010 68 10000 3.1 150 04:28 07.11.2019
4608 Clouds 16 1014 62 10000 2.1 40 01:27 07.11.2019
4609 Clouds 14 1014 71 10000 1 0 00:27 07.11.2019
4610 Clouds 13 1014 67 10000 0.5 0 23:54 06.11.2019
4611 Clouds 11 1014 76 10000 2.1 290 23:36 06.11.2019
4612 Clouds 11 1014 76 10000 2.1 290 23:18 06.11.2019
4613 Clouds 9 1014 81 10000 1 0 22:39 06.11.2019
4614 Clouds 10 1014 81 10000 1 0 22:20 06.11.2019
4615 Clouds 10 1015 66 10000 0.5 0 21:57 06.11.2019
4616 Clouds 10 1015 71 10000 2.6 270 21:39 06.11.2019
4617 Clouds 10 1015 71 10000 2.6 270 21:39 06.11.2019
4618 Clouds 11 1015 76 10000 2.6 300 21:19 06.11.2019
4619 Clouds 11 1015 76 10000 2.6 300 20:56 06.11.2019
4620 Clouds 11 1014 71 10000 2.1 310 20:38 06.11.2019
4621 Clouds 11 1014 71 10000 2.1 310 20:20 06.11.2019
4622 Clouds 11 1015 71 10000 2.6 300 19:56 06.11.2019
4623 Clouds 11 1015 71 10000 3.6 300 19:36 06.11.2019
4624 Clouds 11 1017 81 16093 2.1 300 19:18 06.11.2019
4625 Clouds 11 1017 81 16093 2.1 300 18:54 06.11.2019
4626 Clouds 12 1015 62 10000 2.6 320 18:36 06.11.2019
4627 Clouds 12 1015 62 10000 2.6 320 18:18 06.11.2019
4628 Clouds 12 1015 67 10000 3.6 20 17:41 06.11.2019
4629 Clouds 12 1014 59 10000 2.6 10 17:23 06.11.2019
4630 Clouds 12 1015 62 10000 3.1 10 16:57 06.11.2019
4631 Clouds 12 1014 67 10000 2.6 330 16:39 06.11.2019
4632 Clouds 12 1014 67 10000 2.6 330 16:20 06.11.2019
4633 Clouds 12 1015 72 10000 2.6 300 15:57 06.11.2019
4634 Clouds 12 1015 72 10000 2.6 300 15:37 06.11.2019
4635 Clouds 12 1015 72 10000 1.5 340 15:19 06.11.2019
4636 Clouds 13 1015 67 10000 1.5 340 14:57 06.11.2019
4637 Clouds 12 1015 63 10000 1.5 310 14:39 06.11.2019
4638 Clouds 12 1015 63 10000 1.5 310 14:20 06.11.2019
4639 Clouds 12 1015 72 10000 1.5 320 13:58 06.11.2019
4640 Clouds 12 1015 67 10000 1 0 13:37 06.11.2019
4641 Clouds 13 1015 67 10000 1 0 13:18 06.11.2019
4642 Clouds 13 1015 67 10000 2.1 240 12:55 06.11.2019
4643 Clouds 14 1015 63 10000 2.6 220 12:37 06.11.2019
4644 Clouds 14 1015 63 10000 2.6 220 12:18 06.11.2019
4645 Clouds 14 1015 63 10000 3.1 190 11:55 06.11.2019
4646 Clouds 14 1014 59 10000 3.1 190 11:36 06.11.2019
4647 Clouds 15 1015 81 10000 1.5 140 11:18 06.11.2019
4648 Clouds 15 1014 55 10000 3.1 200 10:42 06.11.2019
4649 Clouds 15 1014 55 10000 3.1 180 10:24 06.11.2019
4650 Clouds 16 1014 52 10000 3.6 180 09:58 06.11.2019
4651 Clouds 16 1014 52 10000 3.6 180 09:58 06.11.2019
4652 Clouds 16 1014 52 10000 3.6 180 09:58 06.11.2019
4653 Clouds 17 1013 52 10000 3.6 170 09:40 06.11.2019
4654 Clouds 18 1013 52 10000 3.6 170 09:20 06.11.2019
4655 Clouds 19 1014 48 10000 3.1 170 08:56 06.11.2019
4656 Clouds 19 1013 59 10000 2.1 160 08:37 06.11.2019
4657 Clouds 20 1013 59 10000 2.1 160 08:18 06.11.2019
4658 Clouds 20 1013 63 10000 2.6 140 07:46 06.11.2019
4659 Clouds 21 1013 48 10000 3.6 160 07:28 06.11.2019
4660 Clouds 21 1013 55 10000 3.1 150 06:53 06.11.2019
4661 Clouds 21 1012 48 10000 3.1 150 06:34 06.11.2019
4662 Clouds 21 1013 55 10000 2.6 100 05:51 06.11.2019
4663 Clouds 20 1014 67 10000 2.6 80 03:48 06.11.2019
4664 Clouds 16 1015 67 10000 2.1 40 01:59 06.11.2019
4665 Clouds 14 1015 58 10000 0.5 0 00:48 06.11.2019
4666 Clouds 13 1015 62 10000 0.5 0 00:26 06.11.2019
4667 Clouds 13 1015 66 10000 1.5 310 23:56 05.11.2019
4668 Clouds 12 1015 66 10000 1 0 23:37 05.11.2019
4669 Clouds 10 1015 66 10000 1 0 23:18 05.11.2019
4670 Clouds 9 1014 66 10000 1 280 22:42 05.11.2019
4671 Clouds 9 1014 66 10000 2.6 320 22:19 05.11.2019
4672 Clouds 9 1014 66 10000 2.6 320 22:19 05.11.2019
4673 Clouds 9 1014 58 10000 2.1 320 21:57 05.11.2019
4674 Clouds 9 1014 58 10000 2.1 320 21:39 05.11.2019
4675 Clouds 10 1014 66 10000 3.1 330 21:20 05.11.2019
4676 Clouds 10 1014 62 10000 4.1 330 20:56 05.11.2019
4677 Clouds 10 1014 62 10000 4.1 350 20:38 05.11.2019
4678 Clouds 10 1014 62 10000 4.1 350 20:20 05.11.2019
4679 Clouds 10 1014 62 10000 4.6 340 19:54 05.11.2019
4680 Clouds 10 1013 71 10000 3.6 330 19:36 05.11.2019
4681 Clouds 10 1013 71 10000 3.6 330 19:18 05.11.2019
4682 Clouds 11 1014 66 10000 3.1 320 18:55 05.11.2019
4683 Clouds 11 1014 66 10000 3.6 320 18:37 05.11.2019
4684 Clouds 11 1014 66 10000 3.6 320 18:18 05.11.2019
4685 Clouds 11 1014 66 10000 3.6 320 17:54 05.11.2019
4686 Clouds 11 1014 66 10000 3.6 320 17:54 05.11.2019
4687 Clouds 11 1014 71 10000 3.1 300 17:36 05.11.2019
4688 Clouds 11 1014 71 10000 3.1 300 17:18 05.11.2019
4689 Clouds 12 1014 67 10000 2.6 290 16:41 05.11.2019
4690 Clouds 12 1014 67 10000 3.6 300 16:20 05.11.2019
4691 Clouds 11 1014 62 10000 2.6 320 15:55 05.11.2019
4692 Clouds 12 1014 55 10000 2.1 320 15:36 05.11.2019
4693 Clouds 12 1014 55 10000 2.1 320 15:18 05.11.2019
4694 Clouds 11 1015 58 10000 1.5 330 14:54 05.11.2019
4695 Rain 12 1015 93 10000 0.5 0 14:36 05.11.2019
4696 Clouds 12 1014 59 10000 2.1 160 14:18 05.11.2019
4697 Clouds 12 1015 59 10000 2.1 180 13:42 05.11.2019
4698 Clouds 13 1014 59 10000 3.1 150 13:23 05.11.2019
4699 Clouds 13 1015 67 10000 2.6 160 12:41 05.11.2019
4700 Clouds 13 1014 63 10000 2.6 150 12:22 05.11.2019
4701 Clouds 13 1015 67 10000 5.1 150 11:58 05.11.2019
4702 Clouds 14 1015 62 10000 5.1 160 11:39 05.11.2019
4703 Clouds 14 1015 62 10000 5.1 160 11:20 05.11.2019
4704 Clouds 14 1015 42 10000 2.6 170 10:56 05.11.2019
4705 Clouds 14 1015 42 10000 2.6 170 10:56 05.11.2019
4706 Clouds 14 1015 42 10000 2.1 200 10:38 05.11.2019
4707 Clouds 15 1015 42 10000 2.1 200 10:19 05.11.2019
4708 Clouds 16 1015 45 10000 2.1 200 09:55 05.11.2019
4709 Clouds 16 1014 47 10000 2.1 150 09:36 05.11.2019
4710 Clouds 16 1014 47 10000 2.1 150 09:18 05.11.2019
4711 Clouds 16 1014 47 10000 2.1 150 09:18 05.11.2019
4712 Clouds 17 1013 45 10000 4.6 120 08:38 05.11.2019
4713 Clouds 18 1013 45 10000 4.6 120 08:19 05.11.2019
4714 Clouds 18 1014 48 10000 3.6 130 07:57 05.11.2019
4715 Clouds 19 1013 48 10000 5.1 130 07:38 05.11.2019
4716 Clouds 19 1013 48 10000 5.1 130 07:19 05.11.2019
4717 Clouds 19 1014 48 10000 4.6 110 06:46 05.11.2019
4718 Clouds 19 1014 48 10000 4.6 120 05:51 05.11.2019
4719 Clouds 18 1013 34 10000 4.1 50 05:22 05.11.2019
4720 Clouds 18 1014 37 10000 2.6 10 04:25 05.11.2019
4721 Clouds 18 1015 48 10000 3.1 70 03:49 05.11.2019
4722 Clouds 17 1016 48 10000 2.1 80 02:44 05.11.2019
4723 Clouds 16 1017 47 10000 2.1 40 01:59 05.11.2019
4724 Clouds 14 1017 50 10000 1.5 30 00:52 05.11.2019
4725 Clouds 13 1017 54 10000 2.1 30 00:30 05.11.2019
4726 Clouds 12 1017 62 10000 3.6 30 23:56 04.11.2019
4727 Clouds 11 1017 71 10000 0.5 0 23:37 04.11.2019
4728 Clouds 10 1016 66 10000 4.1 50 23:18 04.11.2019
4729 Clouds 8 1016 66 10000 3.6 30 22:42 04.11.2019
4730 Clouds 8 1016 71 10000 3.6 40 22:23 04.11.2019
4731 Clouds 8 1015 62 10000 4.6 30 21:56 04.11.2019
4732 Clouds 8 1015 62 10000 4.6 30 21:56 04.11.2019
4733 Clouds 8 1015 62 10000 4.6 30 21:56 04.11.2019
4734 Clear 9 1015 62 10000 2.1 330 21:38 04.11.2019
4735 Clear 9 1015 62 10000 2.1 330 21:19 04.11.2019
4736 Clear 9 1016 66 10000 2.6 280 20:59 04.11.2019
4737 Clear 9 1015 58 10000 2.1 280 20:39 04.11.2019
4738 Clouds 9 1015 58 10000 2.1 280 20:21 04.11.2019
4739 Clouds 9 1015 54 10000 3.1 350 19:59 04.11.2019
4740 Clouds 9 1015 54 10000 3.1 350 19:40 04.11.2019
4741 Clouds 10 1015 50 10000 3.6 10 19:21 04.11.2019
4742 Clouds 10 1015 54 10000 3.6 20 18:57 04.11.2019
4743 Clouds 11 1015 54 10000 4.1 30 18:39 04.11.2019
4744 Clouds 11 1015 54 10000 4.1 30 18:19 04.11.2019
4745 Clouds 11 1015 50 10000 4.6 30 17:40 04.11.2019
4746 Clouds 11 1015 51 10000 4.1 40 17:21 04.11.2019
4747 Clouds 12 1016 54 10000 4.6 30 16:59 04.11.2019
4748 Clouds 12 1016 54 10000 4.6 30 16:40 04.11.2019
4749 Clouds 12 1015 54 10000 3.6 20 16:22 04.11.2019
4750 Clouds 13 1016 67 10000 4.1 50 15:56 04.11.2019
4751 Clouds 13 1015 67 10000 3.6 70 15:38 04.11.2019
4752 Clouds 13 1015 67 10000 3.6 70 15:19 04.11.2019
4753 Clouds 13 1016 62 10000 3.1 40 14:56 04.11.2019
4754 Clouds 13 1016 67 10000 4.6 50 14:37 04.11.2019
4755 Clouds 13 1016 67 10000 4.6 50 14:18 04.11.2019
4756 Clouds 13 1016 63 10000 3.6 60 13:54 04.11.2019
4757 Clouds 13 1016 67 10000 3.6 20 13:36 04.11.2019
4758 Clouds 14 1016 67 10000 3.6 20 13:18 04.11.2019
4759 Clouds 14 1015 72 10000 5.1 60 12:41 04.11.2019
4760 Clouds 14 1015 67 10000 4.1 80 12:23 04.11.2019
4761 Clouds 15 1015 67 10000 5.1 70 11:57 04.11.2019
4762 Clouds 15 1015 72 10000 6.7 70 11:39 04.11.2019
4763 Clouds 15 1015 72 10000 6.7 70 11:21 04.11.2019
4764 Clouds 15 1015 77 10000 6.7 50 10:45 04.11.2019
4765 Clouds 16 1014 77 10000 7.2 60 10:26 04.11.2019
4766 Clouds 16 1014 42 10000 4.6 340 09:55 04.11.2019
4767 Clouds 17 1013 55 10000 1 110 09:37 04.11.2019
4768 Clouds 17 1013 55 10000 1 110 09:18 04.11.2019
4769 Clouds 18 1013 59 10000 1 0 08:41 04.11.2019
4770 Clouds 18 1012 42 10000 2.1 340 08:21 04.11.2019
4771 Clouds 18 1012 42 10000 2.1 340 08:21 04.11.2019
4772 Clouds 20 1012 42 10000 2.6 360 07:45 04.11.2019
4773 Clouds 20 1012 42 10000 2.6 360 07:25 04.11.2019
4774 Clouds 20 1012 63 10000 3.6 100 06:59 04.11.2019
4775 Clouds 20 1012 49 10000 2.6 30 06:36 04.11.2019
4776 Clouds 20 1013 63 10000 3.6 100 05:59 04.11.2019
4777 Clouds 19 1012 52 10000 3.6 60 05:23 04.11.2019
4778 Clouds 19 1013 48 10000 2.6 30 04:25 04.11.2019
4779 Clouds 18 1014 55 10000 3.6 30 03:23 04.11.2019
4780 Clouds 17 1014 72 10000 3.1 20 01:23 04.11.2019
4781 Clouds 15 1014 72 10000 2.6 10 00:52 04.11.2019
4782 Clouds 15 1014 72 10000 5.1 360 00:21 04.11.2019
4783 Clouds 15 1014 77 10000 4.6 360 23:58 03.11.2019
4784 Clouds 15 1014 77 10000 4.6 360 23:58 03.11.2019
4785 Clouds 13 1013 82 10000 5.1 360 23:37 03.11.2019
4786 Clouds 13 1013 82 10000 5.1 360 23:18 03.11.2019
4787 Clouds 13 1013 82 10000 5.1 360 23:18 03.11.2019
4788 Clouds 13 1013 82 10000 5.1 360 23:18 03.11.2019
4789 Clouds 13 1013 82 10000 5.1 360 23:18 03.11.2019
4790 Clouds 12 1014 87 10000 5.1 340 22:56 03.11.2019
4791 Clouds 12 1014 82 10000 4.6 350 22:38 03.11.2019
4792 Clouds 12 1014 82 10000 4.6 350 22:18 03.11.2019
4793 Clouds 13 1014 82 10000 5.1 360 21:42 03.11.2019
4794 Clouds 13 1013 82 10000 4.6 10 21:21 03.11.2019
4795 Clouds 13 1014 82 10000 4.6 360 20:57 03.11.2019
4796 Clouds 13 1013 82 10000 4.1 360 20:37 03.11.2019
4797 Clouds 13 1013 82 10000 4.1 360 20:19 03.11.2019
4798 Clouds 13 1013 82 10000 4.1 10 19:57 03.11.2019
4799 Clouds 13 1012 93 10000 2.6 20 19:38 03.11.2019
4800 Clouds 13 1013 87 10000 5.1 20 19:20 03.11.2019
4801 Rain 13 1013 87 10000 5.7 40 18:55 03.11.2019
4802 Rain 13 1013 93 10000 6.2 10 18:36 03.11.2019
4803 Rain 13 1013 93 10000 6.2 10 18:18 03.11.2019
4804 Rain 13 1013 87 10000 6.7 20 17:42 03.11.2019
4805 Rain 13 1013 93 10000 7.7 30 17:20 03.11.2019
4806 Rain 13 1012 93 10000 6.7 30 16:57 03.11.2019
4807 Rain 14 1012 93 5000 8.2 10 16:39 03.11.2019
4808 Rain 14 1012 93 5000 8.2 10 16:21 03.11.2019
4809 Rain 14 1012 87 10000 9.3 360 15:57 03.11.2019
4810 Rain 14 1012 87 10000 6.7 340 15:39 03.11.2019
4811 Rain 14 1012 87 10000 6.7 340 15:39 03.11.2019
4812 Rain 15 1013 82 10000 6.7 330 15:21 03.11.2019
4813 Rain 15 1013 82 10000 5.1 350 14:42 03.11.2019
4814 Rain 16 1012 88 10000 4.6 360 14:20 03.11.2019
4815 Rain 16 1015 93 9656 3.13 39 13:59 03.11.2019
4816 Rain 16 1015 93 9656 3.13 39 13:40 03.11.2019
4817 Rain 17 1013 88 10000 3.6 10 13:18 03.11.2019
4818 Rain 17 1014 88 10000 4.1 30 12:54 03.11.2019
4819 Rain 17 1013 88 10000 4.6 40 12:36 03.11.2019
4820 Rain 17 1013 88 10000 4.6 40 12:36 03.11.2019
4821 Rain 17 1014 88 10000 4.1 40 12:18 03.11.2019
4822 Rain 17 1014 88 10000 4.1 40 11:42 03.11.2019
4823 Rain 17 1013 82 10000 3.6 30 11:21 03.11.2019
4824 Clouds 17 1013 77 10000 3.1 40 10:55 03.11.2019
4825 Clouds 17 1013 82 10000 4.1 30 10:37 03.11.2019
4826 Clouds 17 1013 82 10000 4.1 30 10:19 03.11.2019
4827 Clouds 17 1013 82 10000 2.6 20 09:43 03.11.2019
4828 Clouds 17 1013 82 10000 1.5 40 09:25 03.11.2019
4829 Rain 18 1014 82 10000 1.5 90 08:56 03.11.2019
4830 Clouds 18 1013 77 10000 1 0 08:37 03.11.2019
4831 Clouds 18 1013 77 10000 1 0 08:19 03.11.2019
4832 Clouds 18 1014 82 10000 3.6 80 07:45 03.11.2019
4833 Clouds 18 1014 82 10000 3.6 80 07:45 03.11.2019
4834 Clouds 18 1013 72 10000 2.6 60 07:22 03.11.2019
4835 Clouds 18 1014 77 10000 3.6 70 06:39 03.11.2019
4836 Clouds 18 1014 72 10000 3.1 80 05:55 03.11.2019
4837 Clouds 18 1013 63 10000 1 0 05:37 03.11.2019
4838 Rain 18 1014 63 10000 2.1 40 04:55 03.11.2019
4839 Clouds 18 1014 59 10000 2.1 20 04:26 03.11.2019
4840 Clouds 18 1015 59 10000 1.5 360 03:23 03.11.2019
4841 Clouds 17 1016 63 10000 2.1 20 02:29 03.11.2019
4842 Clouds 16 1017 67 10000 4.1 350 01:57 03.11.2019
4843 Clouds 16 1017 62 10000 3.6 330 01:36 03.11.2019
4844 Clouds 16 1017 62 10000 3.6 330 01:18 03.11.2019
4845 Clouds 16 1017 67 10000 4.1 360 00:40 03.11.2019
4846 Clouds 15 1017 67 10000 4.1 360 00:21 03.11.2019
4847 Clouds 15 1017 67 10000 4.6 10 23:56 02.11.2019
4848 Clouds 14 1017 72 10000 3.1 360 23:37 02.11.2019
4849 Clouds 14 1017 72 10000 3.1 360 23:18 02.11.2019
4850 Clouds 13 1017 72 10000 3.6 360 22:55 02.11.2019
4851 Clouds 13 1017 72 10000 4.1 10 22:37 02.11.2019
4852 Clouds 13 1017 72 10000 4.1 10 22:18 02.11.2019
4853 Clouds 13 1017 72 10000 4.1 10 22:18 02.11.2019
4854 Clouds 13 1017 72 10000 4.1 20 21:55 02.11.2019
4855 Clouds 13 1016 77 10000 3.1 20 21:37 02.11.2019
4856 Clouds 13 1016 77 10000 3.1 20 21:18 02.11.2019
4857 Clouds 13 1017 76 10000 2.6 20 20:56 02.11.2019
4858 Clouds 13 1017 76 10000 2.6 20 20:56 02.11.2019
4859 Clouds 13 1017 76 10000 2.6 20 20:38 02.11.2019
4860 Clouds 13 1016 72 10000 2.6 360 20:19 02.11.2019
4861 Clouds 14 1017 72 10000 3.6 320 19:40 02.11.2019
4862 Clouds 14 1017 72 10000 3.6 320 19:21 02.11.2019
4863 Clouds 14 1017 77 10000 3.1 320 18:56 02.11.2019
4864 Clouds 14 1017 77 10000 3.1 320 18:56 02.11.2019
4865 Clouds 14 1017 77 10000 3.1 320 18:37 02.11.2019
4866 Clouds 14 1017 77 10000 2.1 310 18:19 02.11.2019
4867 Clouds 14 1017 72 10000 3.1 300 17:56 02.11.2019
4868 Clouds 14 1018 77 10000 2.6 360 17:37 02.11.2019
4869 Clouds 14 1018 77 10000 2.6 360 17:19 02.11.2019
4870 Clouds 15 1017 67 10000 2.6 40 16:56 02.11.2019
4871 Clouds 15 1018 67 10000 2.6 30 16:36 02.11.2019
4872 Clouds 15 1018 67 10000 2.6 30 16:18 02.11.2019
4873 Clouds 15 1018 67 10000 2.6 30 16:18 02.11.2019
4874 Clouds 15 1018 67 10000 3.1 20 15:41 02.11.2019
4875 Clouds 15 1018 67 10000 1.5 20 15:19 02.11.2019
4876 Clouds 15 1019 67 10000 2.1 10 14:42 02.11.2019
4877 Clouds 15 1019 72 10000 2.6 70 14:23 02.11.2019
4878 Clouds 15 1019 72 10000 2.6 60 13:57 02.11.2019
4879 Clouds 15 1019 72 10000 3.1 30 13:38 02.11.2019
4880 Clouds 15 1019 72 10000 3.1 50 13:18 02.11.2019
4881 Clouds 16 1019 72 10000 3.6 70 12:41 02.11.2019
4882 Clouds 16 1019 68 10000 3.1 80 12:23 02.11.2019
4883 Clouds 16 1019 68 10000 3.1 80 12:23 02.11.2019
4884 Clouds 16 1019 68 10000 3.1 110 11:58 02.11.2019
4885 Clouds 16 1019 68 10000 3.1 110 11:39 02.11.2019
4886 Clouds 16 1019 68 10000 3.1 110 11:21 02.11.2019
4887 Clouds 17 1019 68 10000 3.6 130 10:50 02.11.2019
4888 Clouds 16 1019 72 10000 4.1 130 10:28 02.11.2019
4889 Clouds 17 1019 72 10000 4.6 130 09:59 02.11.2019
4890 Clouds 17 1019 72 10000 4.6 130 09:39 02.11.2019
4891 Clouds 17 1019 68 10000 4.1 130 09:19 02.11.2019
4892 Clouds 19 1019 68 10000 3.6 120 08:46 02.11.2019
4893 Clouds 19 1018 59 10000 3.1 130 08:22 02.11.2019
4894 Clouds 19 1019 63 10000 2.1 60 07:50 02.11.2019
4895 Clouds 19 1018 56 10000 2.6 110 07:32 02.11.2019
4896 Clouds 20 1019 59 10000 2.6 50 06:58 02.11.2019
4897 Clouds 20 1019 59 10000 2.6 50 06:39 02.11.2019
4898 Clouds 19 1019 59 10000 2.6 70 05:59 02.11.2019
4899 Clouds 19 1019 55 10000 5.1 130 05:25 02.11.2019
4900 Clouds 19 1019 49 10000 2.1 100 04:23 02.11.2019
4901 Clouds 18 1020 55 10000 3.6 70 03:50 02.11.2019
4902 Clouds 17 1021 55 10000 3.1 40 02:44 02.11.2019
4903 Clouds 17 1022 59 10000 4.1 40 01:57 02.11.2019
4904 Clouds 16 1022 48 10000 2.1 20 01:25 02.11.2019
4905 Clouds 16 1022 44 10000 3.1 10 00:54 02.11.2019
4906 Clouds 15 1021 51 10000 5.1 360 00:27 02.11.2019
4907 Clouds 14 1022 51 10000 3.6 10 23:48 01.11.2019
4908 Clouds 13 1021 51 10000 3.6 20 23:23 01.11.2019
4909 Clouds 12 1021 58 10000 3.1 10 22:59 01.11.2019
4910 Clouds 12 1021 58 10000 3.1 10 22:40 01.11.2019
4911 Clouds 12 1021 58 10000 3.6 10 22:20 01.11.2019
4912 Clouds 12 1020 54 10000 4.1 10 21:42 01.11.2019
4913 Clouds 13 1020 54 10000 4.6 10 21:23 01.11.2019
4914 Clouds 12 1020 54 10000 5.1 10 20:58 01.11.2019
4915 Clouds 12 1020 54 10000 5.1 10 20:40 01.11.2019
4916 Clouds 13 1020 58 10000 5.1 10 20:20 01.11.2019
4917 Clouds 13 1019 58 10000 5.7 10 19:56 01.11.2019
4918 Clouds 13 1019 58 10000 4.6 10 19:38 01.11.2019
4919 Clouds 14 1019 58 10000 4.6 10 19:20 01.11.2019
4920 Clouds 14 1019 55 10000 5.7 360 18:40 01.11.2019
4921 Clouds 14 1019 55 10000 5.7 360 18:21 01.11.2019
4922 Clouds 14 1019 55 10000 7.2 10 17:56 01.11.2019
4923 Clouds 15 1018 51 10000 7.7 340 17:38 01.11.2019
4924 Clouds 15 1018 51 10000 7.7 340 17:19 01.11.2019
4925 Clouds 15 1018 51 10000 8.7 350 16:38 01.11.2019
4926 Clouds 16 1018 51 10000 8.7 350 16:20 01.11.2019
4927 Clouds 16 1018 51 10000 8.7 350 15:55 01.11.2019
4928 Clouds 16 1017 52 10000 9.3 360 15:37 01.11.2019
4929 Clouds 16 1017 52 10000 9.3 360 15:19 01.11.2019
4930 Clouds 16 1017 52 10000 8.2 10 14:43 01.11.2019
4931 Clouds 17 1017 48 10000 9.3 20 14:24 01.11.2019
4932 Clouds 17 1017 52 10000 9.3 10 13:57 01.11.2019
4933 Clouds 17 1017 52 10000 9.3 10 13:39 01.11.2019
4934 Clear 17 1016 45 10000 10.3 360 13:20 01.11.2019
4935 Clear 18 1016 45 10000 9.8 350 12:44 01.11.2019
4936 Clear 18 1015 52 10000 7.2 340 12:26 01.11.2019
4937 Clear 18 1015 49 10000 6.7 330 11:59 01.11.2019
4938 Clear 18 1014 60 10000 3.6 360 11:40 01.11.2019
4939 Clear 18 1014 60 10000 3.6 360 11:22 01.11.2019
4940 Clouds 19 1014 52 10000 0.5 0 10:42 01.11.2019
4941 Clouds 19 1014 52 10000 0.5 0 10:22 01.11.2019
4942 Clouds 19 1013 55 10000 0.5 0 09:57 01.11.2019
4943 Clouds 20 1012 49 10000 1.5 220 09:39 01.11.2019
4944 Clouds 20 1012 49 10000 1.5 220 09:20 01.11.2019
4945 Clouds 21 1012 56 10000 2.1 190 08:44 01.11.2019
4946 Clouds 22 1012 73 10000 1 0 08:22 01.11.2019
4947 Clouds 22 1013 64 10000 2.1 150 07:56 01.11.2019
4948 Clouds 23 1012 68 10000 2.6 160 07:37 01.11.2019
4949 Clouds 23 1012 68 10000 2.6 160 07:19 01.11.2019
4950 Rain 24 1013 56 10000 2.1 150 06:46 01.11.2019
4951 Rain 23 1012 73 10000 3.1 150 06:22 01.11.2019
4952 Rain 23 1012 64 9000 2.6 120 05:43 01.11.2019
4953 Clouds 22 1013 77 9000 2.6 120 03:57 01.11.2019
4954 Clouds 21 1015 88 9000 2.6 120 02:49 01.11.2019
4955 Clouds 18 1015 82 8000 1.5 120 01:35 01.11.2019
4956 Clouds 17 1015 82 8000 1 0 00:42 01.11.2019
4957 Clouds 16 1015 82 9000 1.5 330 00:18 01.11.2019
4958 Clouds 15 1016 87 10000 1.5 280 23:43 31.10.2019
4959 Clouds 13 1015 87 10000 2.1 260 23:23 31.10.2019
4960 Clouds 12 1016 87 10000 1.5 270 22:57 31.10.2019
4961 Clouds 12 1016 87 10000 1.5 270 22:39 31.10.2019
4962 Clear 12 1015 93 10000 1.5 290 22:20 31.10.2019
4963 Clouds 12 1015 93 10000 2.1 280 21:44 31.10.2019
4964 Clouds 12 1015 87 10000 2.1 270 21:21 31.10.2019
4965 Clouds 12 1015 82 10000 2.6 310 20:57 31.10.2019
4966 Clouds 12 1015 87 9000 3.1 320 20:39 31.10.2019
4967 Clouds 13 1015 87 9000 3.1 320 20:21 31.10.2019
4968 Clouds 13 1016 87 9000 2.6 320 19:42 31.10.2019
4969 Clouds 13 1015 87 9000 3.6 320 19:22 31.10.2019
4970 Clouds 13 1016 87 9000 2.6 310 18:58 31.10.2019
4971 Clear 13 1016 87 8000 3.1 300 18:39 31.10.2019
4972 Clear 13 1016 87 8000 3.1 300 18:20 31.10.2019
4973 Clear 13 1016 87 8000 3.1 290 17:42 31.10.2019
4974 Clear 13 1016 87 9000 3.6 280 17:22 31.10.2019
4975 Clear 13 1016 93 9000 2.6 270 16:59 31.10.2019
4976 Clear 14 1016 93 9000 2.6 270 16:40 31.10.2019
4977 Clear 14 1016 87 10000 1 300 16:20 31.10.2019
4978 Clear 14 1017 87 10000 2.6 300 15:56 31.10.2019
4979 Clouds 14 1016 88 10000 1.5 330 15:38 31.10.2019
4980 Clouds 14 1016 88 10000 1.5 330 15:19 31.10.2019
4981 Clouds 15 1017 82 10000 1 0 14:56 31.10.2019
4982 Clouds 15 1017 82 10000 1.5 200 14:38 31.10.2019
4983 Clouds 15 1017 82 10000 1.5 200 14:20 31.10.2019
4984 Clouds 15 1017 77 10000 1 0 13:55 31.10.2019
4985 Clouds 15 1017 77 10000 2.6 240 13:37 31.10.2019
4986 Clouds 15 1017 77 10000 2.6 240 13:19 31.10.2019
4987 Clouds 16 1017 72 10000 3.6 190 12:43 31.10.2019
4988 Clouds 16 1017 72 10000 3.6 190 12:24 31.10.2019
4989 Clouds 17 1017 72 10000 3.6 200 11:58 31.10.2019
4990 Clouds 17 1018 72 10000 3.1 200 11:40 31.10.2019
4991 Clouds 17 1018 72 10000 3.1 200 11:19 31.10.2019
4992 Clouds 18 1018 72 10000 4.1 200 10:57 31.10.2019
4993 Clouds 18 1017 68 10000 4.1 200 10:38 31.10.2019
4994 Clouds 18 1017 68 10000 4.1 200 10:19 31.10.2019
4995 Clouds 19 1017 72 10000 4.6 200 09:43 31.10.2019
4996 Clouds 19 1017 72 10000 3.6 200 09:19 31.10.2019
4997 Clouds 20 1017 68 10000 3.1 180 08:55 31.10.2019
4998 Clouds 20 1016 72 10000 2.1 170 08:36 31.10.2019
4999 Clouds 21 1016 72 10000 2.1 120 08:18 31.10.2019
5000 Clouds 21 1016 72 10000 2.1 120 07:42 31.10.2019
5001 Clouds 21 1016 72 10000 2.1 120 07:42 31.10.2019
5002 Clouds 21 1016 64 10000 2.1 140 07:23 31.10.2019
5003 Clouds 22 1017 60 10000 1 0 06:39 31.10.2019
5004 Clouds 22 1017 60 10000 1 0 06:20 31.10.2019
5005 Clouds 21 1018 64 10000 1.5 150 04:35 31.10.2019
5006 Clouds 19 1020 77 10000 2.1 30 02:46 31.10.2019
5007 Clouds 18 1020 77 10000 2.1 30 01:53 31.10.2019
5008 Clouds 18 1020 77 10000 2.1 30 01:53 31.10.2019
5009 Clouds 17 1020 77 10000 2.1 30 00:42 31.10.2019
5010 Clouds 17 1020 77 10000 3.1 50 00:23 31.10.2019
5011 Clouds 16 1020 77 10000 3.1 20 23:34 30.10.2019
5012 Clouds 15 1020 77 10000 3.1 20 22:59 30.10.2019
5013 Clouds 14 1020 77 10000 3.1 20 22:39 30.10.2019
5014 Clouds 14 1020 77 10000 3.1 10 22:19 30.10.2019
5015 Clouds 15 1020 77 10000 3.1 360 21:54 30.10.2019
5016 Fog 15 1020 100 8000 2.6 340 21:36 30.10.2019
5017 Clouds 15 1019 77 10000 3.1 10 21:18 30.10.2019
5018 Clouds 15 1019 77 10000 3.1 10 21:18 30.10.2019
5019 Clouds 15 1019 82 10000 3.1 20 20:56 30.10.2019
5020 Clouds 15 1019 82 10000 3.1 20 20:56 30.10.2019
5021 Clouds 15 1019 82 10000 3.6 20 20:36 30.10.2019
5022 Clouds 15 1019 82 10000 3.6 20 20:36 30.10.2019
5023 Clouds 15 1019 82 10000 3.6 20 20:18 30.10.2019
5024 Clouds 15 1019 77 10000 3.1 20 19:42 30.10.2019
5025 Clouds 15 1019 77 10000 3.1 20 19:23 30.10.2019
5026 Clouds 15 1019 82 10000 3.1 20 18:59 30.10.2019
5027 Clouds 15 1019 88 10000 3.6 10 18:38 30.10.2019
5028 Clouds 15 1019 88 10000 3.6 10 18:38 30.10.2019
5029 Clouds 15 1019 88 10000 3.6 10 18:19 30.10.2019
5030 Clouds 15 1019 88 10000 3.1 10 17:55 30.10.2019
5031 Fog 15 1019 93 7000 3.1 10 17:37 30.10.2019
5032 Fog 15 1019 93 7000 3.1 10 17:37 30.10.2019
5033 Clouds 16 1019 88 10000 2.6 10 17:18 30.10.2019
5034 Clouds 16 1018 88 10000 3.1 70 16:54 30.10.2019
5035 Clouds 16 1019 82 10000 2.1 60 16:36 30.10.2019
5036 Clouds 15 1019 82 10000 2.1 60 16:18 30.10.2019
5037 Clouds 16 1019 82 10000 3.1 50 15:40 30.10.2019
5038 Clouds 16 1019 82 10000 3.1 50 15:21 30.10.2019
5039 Clouds 16 1019 88 10000 4.1 60 14:59 30.10.2019
5040 Clouds 16 1019 88 10000 4.1 60 14:41 30.10.2019
5041 Clouds 16 1019 88 10000 4.1 70 14:22 30.10.2019
5042 Clouds 16 1019 82 10000 4.6 20 13:57 30.10.2019
5043 Clouds 16 1019 82 10000 4.6 20 13:39 30.10.2019
5044 Clouds 16 1019 77 10000 3.6 10 13:19 30.10.2019
5045 Clouds 16 1018 77 10000 2.6 350 12:54 30.10.2019
5046 Clouds 17 1018 72 10000 2.1 340 12:36 30.10.2019
5047 Clouds 17 1018 72 10000 2.1 340 12:18 30.10.2019
5048 Clouds 17 1018 68 10000 1.5 360 11:41 30.10.2019
5049 Clouds 18 1017 64 10000 2.1 20 11:21 30.10.2019
5050 Clouds 18 1017 68 10000 1.5 240 10:44 30.10.2019
5051 Clouds 18 1017 60 10000 1.5 150 10:23 30.10.2019
5052 Clouds 19 1016 56 10000 1 130 09:57 30.10.2019
5053 Clouds 20 1016 68 10000 1.5 150 09:38 30.10.2019
5054 Clouds 20 1016 68 10000 1.5 150 09:19 30.10.2019
5055 Clouds 21 1016 68 10000 1 170 08:40 30.10.2019
5056 Clouds 21 1016 68 10000 1 170 08:21 30.10.2019
5057 Clouds 22 1016 68 10000 2.1 110 07:51 30.10.2019
5058 Clouds 23 1015 68 10000 2.1 140 07:32 30.10.2019
5059 Clouds 23 1016 68 10000 2.1 110 06:43 30.10.2019
5060 Clouds 23 1015 68 10000 2.6 140 06:22 30.10.2019
5061 Clouds 22 1015 72 10000 2.1 100 05:46 30.10.2019
5062 Clouds 22 1016 82 7000 3.6 140 05:24 30.10.2019
5063 Mist 19 1017 88 4000 2.6 140 03:46 30.10.2019
5064 Rain 20 1017 88 4000 2.6 140 03:18 30.10.2019
5065 Rain 18 1017 82 4500 1.5 70 02:19 30.10.2019
5066 Mist 16 1018 100 4000 1 0 01:34 30.10.2019
5067 Clouds 15 1018 93 9000 1.5 10 00:31 30.10.2019
5068 Clouds 14 1018 93 9000 0.5 0 23:47 29.10.2019
5069 Clouds 14 1017 93 8000 1.5 320 23:28 29.10.2019
5070 Clouds 13 1016 93 7000 1.5 340 22:57 29.10.2019
5071 Clouds 12 1016 100 7000 0.5 70 22:38 29.10.2019
5072 Clouds 12 1016 100 7000 0.5 70 22:18 29.10.2019
5073 Clouds 12 1016 100 8000 0.5 80 21:54 29.10.2019
5074 Clouds 12 1016 100 8000 0.5 360 21:36 29.10.2019
5075 Clouds 12 1016 100 8000 0.5 360 21:18 29.10.2019
5076 Clouds 12 1015 93 10000 1 320 20:41 29.10.2019
5077 Clouds 12 1015 93 10000 0.47 342 20:21 29.10.2019
5078 Rain 12 1015 93 10000 0.5 0 19:58 29.10.2019
5079 Rain 12 1015 93 10000 0.5 0 19:39 29.10.2019
5080 Rain 12 1015 100 10000 1.5 310 19:20 29.10.2019
5081 Rain 12 1015 93 10000 1.5 290 18:57 29.10.2019
5082 Rain 13 1014 93 10000 1.5 280 18:38 29.10.2019
5083 Rain 13 1014 93 10000 1.5 280 18:19 29.10.2019
5084 Clouds 13 1015 93 10000 2.1 280 17:56 29.10.2019
5085 Clouds 13 1014 100 10000 1 290 17:37 29.10.2019
5086 Clouds 13 1014 100 10000 1 290 17:37 29.10.2019
5087 Clouds 13 1014 100 10000 1 290 17:19 29.10.2019
5088 Clouds 13 1015 93 10000 1.5 290 16:41 29.10.2019
5089 Clouds 13 1014 93 10000 2.6 300 16:22 29.10.2019
5090 Clouds 13 1015 93 10000 1.5 280 15:58 29.10.2019
5091 Clouds 13 1015 93 10000 1.5 280 15:39 29.10.2019
5092 Clouds 13 1014 93 10000 2.1 280 15:20 29.10.2019
5093 Clouds 13 1015 100 10000 1.5 290 14:56 29.10.2019
5094 Clouds 13 1014 100 10000 1.5 280 14:38 29.10.2019
5095 Clouds 13 1014 100 10000 1.5 280 14:20 29.10.2019
5096 Clouds 14 1014 93 10000 0.5 0 13:40 29.10.2019
5097 Clouds 14 1014 93 10000 0.5 0 13:40 29.10.2019
5098 Clouds 14 1014 93 10000 1 0 13:22 29.10.2019
5099 Clouds 14 1014 93 10000 1 0 12:56 29.10.2019
5100 Clouds 14 1014 93 10000 1 0 12:37 29.10.2019
5101 Clouds 14 1014 93 10000 2.6 350 12:19 29.10.2019
5102 Clouds 15 1013 93 10000 2.6 330 11:43 29.10.2019
5103 Clouds 15 1013 93 10000 2.6 330 11:23 29.10.2019
5104 Rain 15 1013 93 10000 6.7 320 10:59 29.10.2019
5105 Rain 15 1013 93 10000 6.7 320 10:41 29.10.2019
5106 Rain 15 1013 93 10000 2.6 330 10:20 29.10.2019
5107 Rain 15 1013 100 10000 4.6 320 09:59 29.10.2019
5108 Rain 15 1013 100 10000 4.6 320 09:41 29.10.2019
5109 Rain 15 1012 93 9000 2.6 50 09:22 29.10.2019
5110 Rain 15 1011 93 8000 3.6 60 08:55 29.10.2019
5111 Rain 15 1013 93 6000 2.1 50 08:36 29.10.2019
5112 Rain 15 1013 93 6000 2.1 50 08:18 29.10.2019
5113 Rain 15 1014 93 5000 2.1 330 07:47 29.10.2019
5114 Rain 15 1014 93 6000 3.1 300 07:19 29.10.2019
5115 Rain 15 1014 87 10000 3.1 360 06:46 29.10.2019
5116 Rain 15 1014 93 6000 3.1 300 06:26 29.10.2019
5117 Rain 15 1013 93 8000 4.6 350 05:52 29.10.2019
5118 Rain 15 1013 93 6000 2.6 10 05:34 29.10.2019
5119 Rain 15 1015 93 5000 3.1 320 04:33 29.10.2019
5120 Rain 15 1016 87 10000 3.1 340 02:34 29.10.2019
5121 Rain 15 1017 82 10000 6.7 350 01:55 29.10.2019
5122 Rain 15 1017 87 6000 4.1 330 01:33 29.10.2019
5123 Rain 15 1018 87 6000 2.6 320 00:52 29.10.2019
5124 Rain 15 1017 72 10000 6.2 360 23:58 28.10.2019
5125 Rain 15 1017 77 10000 5.1 10 23:37 28.10.2019
5126 Rain 15 1017 77 10000 5.1 10 23:19 28.10.2019
5127 Rain 15 1018 72 10000 3.6 10 22:39 28.10.2019
5128 Rain 15 1017 77 10000 3.6 350 22:20 28.10.2019
5129 Clouds 15 1018 72 10000 3.1 330 21:57 28.10.2019
5130 Clouds 15 1018 72 10000 3.1 330 21:39 28.10.2019
5131 Rain 15 1018 77 10000 4.6 340 21:21 28.10.2019
5132 Rain 15 1019 72 10000 3.6 10 20:57 28.10.2019
5133 Rain 15 1018 72 10000 4.1 10 20:39 28.10.2019
5134 Rain 15 1018 72 10000 4.1 10 20:20 28.10.2019
5135 Rain 16 1019 72 10000 4.6 360 19:54 28.10.2019
5136 Clouds 16 1019 72 10000 4.6 350 19:36 28.10.2019
5137 Clouds 16 1019 72 10000 4.6 350 19:36 28.10.2019
5138 Clouds 16 1019 72 10000 4.6 350 19:18 28.10.2019
5139 Clouds 16 1019 72 10000 4.6 360 18:56 28.10.2019
5140 Rain 16 1019 77 10000 5.1 360 18:38 28.10.2019
5141 Rain 16 1019 77 10000 5.1 360 18:20 28.10.2019
5142 Clouds 16 1019 72 10000 4.6 10 17:55 28.10.2019
5143 Clouds 16 1019 72 10000 4.6 10 17:55 28.10.2019
5144 Clouds 16 1019 77 10000 4.6 360 17:36 28.10.2019
5145 Clouds 16 1019 77 10000 4.6 360 17:18 28.10.2019
5146 Clouds 16 1019 77 10000 4.6 360 17:18 28.10.2019
5147 Clouds 16 1019 77 10000 4.6 360 17:18 28.10.2019
5148 Clouds 16 1019 72 10000 3.6 10 16:54 28.10.2019
5149 Clouds 16 1019 72 10000 3.6 360 16:36 28.10.2019
5150 Clouds 16 1019 72 10000 3.6 360 16:18 28.10.2019
5151 Clouds 16 1020 72 10000 4.1 360 15:55 28.10.2019
5152 Clouds 16 1019 72 10000 2.6 10 15:37 28.10.2019
5153 Clouds 16 1019 72 10000 2.6 10 15:18 28.10.2019
5154 Clouds 16 1020 72 10000 4.6 40 14:54 28.10.2019
5155 Clouds 16 1020 77 10000 4.6 50 14:36 28.10.2019
5156 Clouds 16 1020 77 10000 4.6 50 14:18 28.10.2019
5157 Clouds 16 1020 72 10000 5.1 70 13:41 28.10.2019
5158 Clouds 16 1020 77 10000 5.7 60 13:18 28.10.2019
5159 Clouds 17 1020 72 10000 4.6 70 12:58 28.10.2019
5160 Clouds 17 1020 72 10000 4.6 70 12:40 28.10.2019
5161 Clouds 17 1019 72 10000 5.1 70 12:19 28.10.2019
5162 Clouds 17 1019 72 10000 6.2 100 11:38 28.10.2019
5163 Clouds 17 1019 72 10000 6.2 100 11:38 28.10.2019
5164 Clouds 17 1019 72 10000 6.2 100 11:19 28.10.2019
5165 Clouds 18 1019 68 10000 5.7 100 10:42 28.10.2019
5166 Clouds 18 1019 68 10000 5.7 100 10:24 28.10.2019
5167 Clouds 18 1019 68 10000 5.7 100 09:58 28.10.2019
5168 Clouds 18 1019 68 10000 5.7 100 09:39 28.10.2019
5169 Clouds 18 1019 68 10000 5.7 100 09:39 28.10.2019
5170 Clouds 19 1019 63 10000 5.7 110 09:20 28.10.2019
5171 Clouds 19 1018 68 10000 6.2 110 08:57 28.10.2019
5172 Clouds 20 1018 68 10000 7.2 120 08:39 28.10.2019
5173 Clouds 20 1018 68 10000 7.2 120 08:19 28.10.2019
5174 Clouds 20 1019 63 10000 5.7 120 07:59 28.10.2019
5175 Clouds 20 1019 63 10000 5.7 120 07:40 28.10.2019
5176 Clouds 20 1018 64 10000 5.1 120 07:20 28.10.2019
5177 Clouds 21 1018 64 10000 4.6 80 06:40 28.10.2019
5178 Clouds 21 1017 60 10000 5.1 110 06:19 28.10.2019
5179 Clouds 20 1018 52 10000 4.6 100 04:29 28.10.2019
5180 Clouds 20 1019 63 10000 4.6 70 03:41 28.10.2019
5181 Clouds 19 1019 63 10000 5.1 50 02:45 28.10.2019
5182 Clouds 18 1018 59 10000 3.6 40 01:27 28.10.2019
5183 Clouds 17 1018 72 10000 5.1 30 00:46 28.10.2019
5184 Clouds 16 1018 72 10000 5.1 30 00:22 28.10.2019
5185 Clouds 16 1018 72 10000 5.1 20 23:43 27.10.2019
5186 Clouds 16 1017 67 10000 6.2 20 23:21 27.10.2019
5187 Clouds 15 1018 67 10000 5.1 20 22:56 27.10.2019
5188 Clouds 15 1017 67 10000 5.1 20 22:37 27.10.2019
5189 Clouds 15 1017 67 10000 5.1 20 22:18 27.10.2019
5190 Clouds 15 1016 67 10000 4.6 20 21:40 27.10.2019
5191 Clouds 15 1016 87 10000 6.7 30 21:22 27.10.2019
5192 Clouds 15 1016 68 10000 4.1 20 20:59 27.10.2019
5193 Clouds 16 1016 68 10000 4.1 20 20:40 27.10.2019
5194 Clouds 16 1015 72 10000 4.1 10 20:22 27.10.2019
5195 Clouds 16 1016 77 10000 3.6 10 19:57 27.10.2019
5196 Clouds 16 1016 77 10000 3.6 10 19:37 27.10.2019
5197 Clouds 16 1015 82 10000 3.6 30 19:37 27.10.2019
5198 Clouds 16 1015 82 10000 3.6 30 19:19 27.10.2019
5199 Clouds 16 1016 77 10000 4.1 20 18:56 27.10.2019
5200 Clouds 16 1015 82 10000 4.6 360 18:38 27.10.2019
5201 Clouds 16 1015 82 10000 4.6 360 18:20 27.10.2019
5202 Clouds 16 1015 77 10000 4.1 20 17:55 27.10.2019
5203 Clouds 16 1014 77 10000 4.6 30 17:36 27.10.2019
5204 Clouds 17 1015 77 10000 4.1 10 17:18 27.10.2019
5205 Clouds 17 1015 77 10000 4.1 10 16:55 27.10.2019
5206 Clouds 17 1015 77 10000 3.6 20 16:37 27.10.2019
5207 Clouds 17 1015 77 10000 3.6 20 16:18 27.10.2019
5208 Clouds 17 1015 77 10000 4.1 10 15:55 27.10.2019
5209 Clouds 17 1014 82 10000 4.6 20 15:36 27.10.2019
5210 Clouds 17 1014 82 10000 4.6 20 15:18 27.10.2019
5211 Clouds 17 1014 82 10000 5.1 40 14:41 27.10.2019
5212 Clouds 17 1014 82 10000 5.1 40 14:19 27.10.2019
5213 Rain 18 1014 82 10000 6.7 50 13:55 27.10.2019
5214 Rain 18 1014 82 10000 6.2 60 13:37 27.10.2019
5215 Rain 18 1014 82 10000 6.2 60 13:18 27.10.2019
5216 Rain 18 1013 77 10000 7.2 50 12:42 27.10.2019
5217 Rain 18 1013 82 10000 6.7 50 12:23 27.10.2019
5218 Clouds 18 1013 82 10000 6.2 60 11:55 27.10.2019
5219 Rain 18 1013 82 10000 6.2 70 11:37 27.10.2019
5220 Rain 18 1013 82 10000 6.2 70 11:18 27.10.2019
5221 Clouds 18 1012 82 10000 7.2 70 10:42 27.10.2019
5222 Clouds 19 1012 82 10000 6.7 60 10:23 27.10.2019
5223 Clouds 19 1011 88 10000 6.2 80 09:44 27.10.2019
5224 Clouds 20 1011 88 10000 2.1 100 09:20 27.10.2019
5225 Clouds 20 1011 93 10000 1.5 100 08:59 27.10.2019
5226 Clouds 21 1011 93 10000 1.5 100 08:40 27.10.2019
5227 Clouds 21 1011 88 10000 2.1 140 08:20 27.10.2019
5228 Clouds 22 1011 56 10000 2.6 130 07:50 27.10.2019
5229 Clouds 22 1010 73 10000 2.6 150 07:29 27.10.2019
5230 Clouds 22 1010 77 10000 3.1 130 06:56 27.10.2019
5231 Clouds 22 1010 73 10000 4.1 140 06:37 27.10.2019
5232 Clouds 22 1010 73 10000 4.1 140 06:18 27.10.2019
5233 Clouds 22 1010 60 10000 2.6 60 05:38 27.10.2019
5234 Clouds 21 1010 60 10000 2.1 50 04:35 27.10.2019
5235 Clouds 19 1012 68 10000 1.5 340 02:46 27.10.2019
5236 Clouds 18 1012 63 10000 3.6 300 01:49 27.10.2019
5237 Clouds 18 1012 77 10000 2.6 330 01:20 27.10.2019
5238 Clouds 17 1013 72 10000 2.1 300 00:43 27.10.2019
5239 Clouds 17 1012 77 10000 2.1 280 00:18 27.10.2019
5240 Clouds 16 1012 77 10000 2.1 320 23:55 26.10.2019
5241 Clouds 15 1011 82 10000 3.1 330 23:36 26.10.2019
5242 Clouds 15 1011 82 10000 3.1 330 23:18 26.10.2019
5243 Clouds 16 1011 77 10000 3.6 10 22:40 26.10.2019
5244 Clouds 16 1011 77 10000 3.6 10 22:20 26.10.2019
5245 Clouds 16 1010 82 10000 3.6 60 21:59 26.10.2019
5246 Clouds 16 1011 82 10000 1.5 130 21:41 26.10.2019
5247 Clouds 16 1011 82 10000 1.5 130 21:21 26.10.2019
5248 Clouds 17 1011 77 10000 2.1 340 20:46 26.10.2019
5249 Clouds 17 1011 72 10000 4.1 320 20:20 26.10.2019
5250 Clouds 16 1010 72 10000 4.6 320 19:59 26.10.2019
5251 Clouds 17 1010 72 10000 2.1 360 19:40 26.10.2019
5252 Clouds 17 1010 72 10000 2.1 360 19:20 26.10.2019
5253 Clouds 17 1011 68 10000 2.1 350 18:56 26.10.2019
5254 Clouds 17 1011 68 10000 2.1 350 18:56 26.10.2019
5255 Clouds 17 1010 77 10000 1.5 350 18:37 26.10.2019
5256 Clouds 17 1010 77 10000 1.5 350 18:18 26.10.2019
5257 Clouds 17 1010 72 10000 3.1 350 17:56 26.10.2019
5258 Clouds 17 1010 68 10000 4.1 340 17:36 26.10.2019
5259 Clouds 17 1010 68 10000 4.1 340 17:18 26.10.2019
5260 Clouds 17 1011 68 10000 4.1 330 16:43 26.10.2019
5261 Clouds 17 1011 68 10000 3.1 310 16:24 26.10.2019
5262 Clouds 18 1010 72 10000 4.1 330 15:43 26.10.2019
5263 Clouds 18 1010 77 10000 2.6 330 15:21 26.10.2019
5264 Clouds 18 1010 88 10000 2.6 350 14:58 26.10.2019
5265 Clouds 18 1012 72 10000 2.1 330 14:37 26.10.2019
5266 Clouds 19 1012 72 10000 2.1 330 14:18 26.10.2019
5267 Clouds 21 1012 64 0 1.16 280 13:42 26.10.2019
5268 Clouds 19 1011 68 10000 2.1 340 13:22 26.10.2019
5269 Clouds 19 1011 72 10000 2.1 350 12:50 26.10.2019
5270 Rain 20 1009 88 10000 2.1 100 12:27 26.10.2019
5271 Rain 20 1009 88 10000 2.1 100 11:58 26.10.2019
5272 Rain 20 1009 88 10000 2.1 100 11:40 26.10.2019
5273 Rain 20 1009 88 10000 2.1 100 11:22 26.10.2019
5274 Rain 20 1010 82 10000 0.5 150 10:46 26.10.2019
5275 Clouds 21 1009 73 10000 3.1 150 10:25 26.10.2019
5276 Clouds 21 1009 56 10000 3.1 170 09:48 26.10.2019
5277 Clouds 22 1008 60 10000 2.1 180 09:29 26.10.2019
5278 Clouds 22 1009 56 10000 3.1 180 08:48 26.10.2019
5279 Clouds 22 1008 60 10000 3.1 200 08:27 26.10.2019
5280 Clouds 23 1008 53 10000 5.7 200 07:57 26.10.2019
5281 Clouds 23 1008 53 10000 5.7 200 07:57 26.10.2019
5282 Clouds 23 1008 64 10000 4.6 200 07:39 26.10.2019
5283 Clouds 23 1008 64 10000 4.6 200 07:19 26.10.2019
5284 Clouds 24 1008 53 10000 4.1 210 06:39 26.10.2019
5285 Clouds 23 1009 83 10000 2.1 150 05:24 26.10.2019
5286 Clouds 23 1009 60 10000 2.6 190 04:59 26.10.2019
5287 Clouds 22 1010 88 10000 2.6 170 03:45 26.10.2019
5288 Clouds 20 1010 82 10000 1 0 02:29 26.10.2019
5289 Clouds 19 1011 77 10000 2.1 210 01:46 26.10.2019
5290 Clouds 18 1010 88 10000 0.5 50 00:52 26.10.2019
5291 Clouds 14 1009 93 10000 1 0 23:56 25.10.2019
5292 Clouds 14 1009 93 10000 1 0 23:37 25.10.2019
5293 Clouds 14 1008 87 10000 1.5 310 23:18 25.10.2019
5294 Clouds 14 1008 93 10000 3.1 270 22:39 25.10.2019
5295 Clouds 14 1008 93 10000 2.6 270 22:21 25.10.2019
5296 Clouds 14 1007 93 10000 0.5 280 21:56 25.10.2019
5297 Clouds 14 1007 87 10000 2.1 280 21:38 25.10.2019
5298 Clouds 14 1007 87 10000 2.1 280 21:19 25.10.2019
5299 Clouds 15 1007 93 10000 3.6 260 20:44 25.10.2019
5300 Clouds 15 1006 93 10000 2.6 270 20:20 25.10.2019
5301 Clouds 15 1007 87 10000 2.6 260 19:56 25.10.2019
5302 Clouds 15 1006 87 10000 2.1 240 19:38 25.10.2019
5303 Clouds 15 1006 87 10000 2.1 240 19:19 25.10.2019
5304 Clouds 15 1006 93 10000 2.1 300 18:43 25.10.2019
5305 Clouds 15 1006 87 10000 4.6 260 18:20 25.10.2019
5306 Rain 15 1003 93 10000 6.7 310 17:41 25.10.2019
5307 Clouds 15 1004 87 10000 3.6 300 17:20 25.10.2019
5308 Clouds 16 1005 87 10000 4.6 310 16:47 25.10.2019
5309 Rain 16 1006 93 10000 4.6 250 16:24 25.10.2019
5310 Rain 16 1006 93 10000 4.6 260 15:58 25.10.2019
5311 Rain 16 1006 93 10000 4.6 260 15:40 25.10.2019
5312 Rain 16 1006 82 10000 6.2 320 15:21 25.10.2019
5313 Rain 16 1006 88 10000 4.6 310 14:43 25.10.2019
5314 Clouds 16 1006 88 10000 6.7 320 14:23 25.10.2019
5315 Rain 16 1006 82 10000 6.2 330 13:59 25.10.2019
5316 Rain 16 1006 82 10000 6.2 330 13:41 25.10.2019
5317 Rain 15 1005 93 10000 7.2 320 13:22 25.10.2019
5318 Rain 16 1006 87 10000 6.7 310 12:55 25.10.2019
5319 Rain 16 1006 93 10000 7.2 310 12:37 25.10.2019
5320 Rain 16 1006 93 10000 7.2 310 12:18 25.10.2019
5321 Clouds 16 1006 93 10000 9.3 330 11:40 25.10.2019
5322 Rain 16 1006 93 10000 9.3 330 11:22 25.10.2019
5323 Rain 16 1006 93 10000 8.2 330 10:55 25.10.2019
5324 Rain 15 1006 93 10000 9.8 320 10:36 25.10.2019
5325 Rain 15 1006 93 10000 9.8 320 10:18 25.10.2019
5326 Rain 15 1006 100 10000 9.3 310 09:41 25.10.2019
5327 Rain 16 1007 100 6000 6.2 290 09:20 25.10.2019
5328 Rain 16 1006 93 5000 9.3 310 08:56 25.10.2019
5329 Rain 16 1006 93 4500 8.7 30 08:38 25.10.2019
5330 Rain 16 1006 93 4500 8.7 30 08:19 25.10.2019
5331 Rain 16 1006 100 2000 11.3 30 07:44 25.10.2019
5332 Rain 16 1007 93 3000 7.7 30 07:26 25.10.2019
5333 Rain 16 1008 93 5000 8.7 20 06:37 25.10.2019
5334 Rain 15 1007 93 3000 18.5 30 05:48 25.10.2019
5335 Rain 15 1011 93 2500 7.2 10 05:28 25.10.2019
5336 Rain 15 1013 100 3000 4.6 340 04:30 25.10.2019
5337 Rain 15 1015 93 3500 6.2 330 02:35 25.10.2019
5338 Rain 15 1016 100 2000 5.1 340 01:52 25.10.2019
5339 Rain 15 1016 93 3000 10.3 340 00:34 25.10.2019
5340 Rain 15 1016 93 3500 10.3 340 23:43 24.10.2019
5341 Rain 15 1016 93 3500 9.8 350 23:24 24.10.2019
5342 Rain 15 1016 93 5000 9.8 360 22:59 24.10.2019
5343 Rain 15 1016 93 6000 10.3 360 22:39 24.10.2019
5344 Rain 15 1016 93 6000 10.3 360 22:19 24.10.2019
5345 Rain 15 1016 93 6000 10.3 360 22:19 24.10.2019
5346 Rain 15 1017 93 8000 10.3 360 21:57 24.10.2019
5347 Rain 15 1017 93 8000 10.3 360 21:57 24.10.2019
5348 Rain 15 1017 93 8000 10.3 360 21:38 24.10.2019
5349 Rain 16 1017 88 10000 10.3 360 21:20 24.10.2019
5350 Rain 16 1017 88 10000 10.8 360 20:59 24.10.2019
5351 Rain 16 1018 88 10000 10.3 360 20:39 24.10.2019
5352 Rain 16 1018 88 10000 10.3 360 20:21 24.10.2019
5353 Rain 15 1018 93 10000 10.8 360 19:56 24.10.2019
5354 Rain 15 1022 93 16093 6.7 10 19:37 24.10.2019
5355 Rain 15 1022 93 16093 6.7 10 19:19 24.10.2019
5356 Rain 15 1019 93 10000 9.3 350 18:55 24.10.2019
5357 Clouds 15 1019 88 10000 8.7 340 18:37 24.10.2019
5358 Clouds 15 1019 88 10000 8.7 340 18:18 24.10.2019
5359 Rain 15 1020 88 10000 7.7 340 17:42 24.10.2019
5360 Rain 15 1019 88 10000 9.3 360 17:20 24.10.2019
5361 Rain 16 1020 88 10000 9.3 360 16:58 24.10.2019
5362 Rain 16 1020 88 10000 9.3 360 16:39 24.10.2019
5363 Rain 16 1023 93 16093 5.1 350 16:21 24.10.2019
5364 Rain 16 1021 88 10000 7.2 350 15:58 24.10.2019
5365 Rain 16 1021 88 10000 7.2 350 15:40 24.10.2019
5366 Rain 16 1021 82 10000 8.2 360 15:21 24.10.2019
5367 Rain 17 1022 82 10000 8.7 10 14:57 24.10.2019
5368 Rain 17 1021 82 10000 8.7 20 14:38 24.10.2019
5369 Rain 17 1021 82 10000 8.7 20 14:20 24.10.2019
5370 Clouds 17 1022 82 10000 7.7 20 13:41 24.10.2019
5371 Rain 17 1022 77 10000 8.7 20 13:20 24.10.2019
5372 Rain 17 1022 82 10000 7.7 20 12:58 24.10.2019
5373 Rain 17 1022 82 10000 9.3 20 12:39 24.10.2019
5374 Rain 18 1022 82 10000 9.3 20 12:19 24.10.2019
5375 Clouds 18 1022 82 10000 9.8 30 11:57 24.10.2019
5376 Clouds 18 1023 72 10000 7.7 20 11:38 24.10.2019
5377 Clouds 18 1023 72 10000 7.7 20 11:19 24.10.2019
5378 Clouds 18 1023 72 10000 7.7 20 10:57 24.10.2019
5379 Clouds 18 1023 77 10000 8.2 30 10:38 24.10.2019
5380 Clouds 18 1023 77 10000 8.2 30 10:20 24.10.2019
5381 Clouds 19 1022 72 10000 7.2 40 09:38 24.10.2019
5382 Clouds 19 1022 72 10000 7.2 40 09:38 24.10.2019
5383 Clouds 19 1022 72 10000 7.2 40 09:18 24.10.2019
5384 Clouds 19 1023 68 10000 8.7 40 08:54 24.10.2019
5385 Clouds 20 1022 68 10000 7.2 50 08:36 24.10.2019
5386 Clouds 20 1022 68 10000 7.2 50 08:18 24.10.2019
5387 Clouds 20 1022 72 10000 9.3 30 07:42 24.10.2019
5388 Clouds 20 1022 64 10000 6.7 50 07:21 24.10.2019
5389 Clouds 20 1022 60 10000 6.7 50 06:40 24.10.2019
5390 Clouds 20 1022 60 10000 6.7 50 06:20 24.10.2019
5391 Clouds 20 1022 73 10000 7.7 50 05:48 24.10.2019
5392 Clouds 20 1022 64 10000 7.2 70 05:28 24.10.2019
5393 Clouds 20 1023 68 10000 7.2 50 03:37 24.10.2019
5394 Clouds 20 1024 77 10000 7.2 50 02:56 24.10.2019
5395 Clouds 19 1024 77 10000 5.1 40 02:25 24.10.2019
5396 Clouds 19 1024 77 10000 5.1 30 01:51 24.10.2019
5397 Clouds 19 1024 77 10000 5.7 20 01:27 24.10.2019
5398 Clouds 18 1023 82 10000 5.1 20 00:41 24.10.2019
5399 Clouds 18 1023 82 10000 5.1 20 00:23 24.10.2019
5400 Clouds 17 1022 82 10000 5.7 20 23:43 23.10.2019
5401 Clouds 17 1022 82 10000 5.1 20 23:23 23.10.2019
5402 Clouds 17 1022 88 10000 5.1 20 22:57 23.10.2019
5403 Clouds 17 1022 82 10000 4.6 10 22:38 23.10.2019
5404 Clouds 18 1022 82 10000 4.6 10 22:19 23.10.2019
5405 Clouds 18 1022 88 10000 4.1 20 21:57 23.10.2019
5406 Clouds 18 1021 88 10000 4.6 20 21:38 23.10.2019
5407 Clouds 18 1021 88 10000 4.6 20 21:38 23.10.2019
5408 Clouds 18 1021 88 10000 4.6 20 21:20 23.10.2019
5409 Clouds 18 1022 88 10000 4.6 20 20:57 23.10.2019
5410 Clouds 18 1022 88 10000 4.6 20 20:39 23.10.2019
5411 Clouds 18 1021 88 10000 3.6 30 20:20 23.10.2019
5412 Clouds 18 1022 88 10000 4.6 20 19:57 23.10.2019
5413 Clouds 18 1022 88 10000 4.6 20 19:38 23.10.2019
5414 Clouds 18 1022 77 10000 2.6 20 19:18 23.10.2019
5415 Clouds 18 1022 77 10000 2.6 20 18:55 23.10.2019
5416 Clouds 18 1021 77 10000 2.6 20 18:36 23.10.2019
5417 Clouds 18 1021 77 10000 2.6 20 18:18 23.10.2019
5418 Clouds 18 1022 82 10000 3.6 40 17:43 23.10.2019
5419 Clouds 18 1021 82 10000 3.1 40 17:20 23.10.2019
5420 Clouds 19 1021 82 10000 2.6 60 16:56 23.10.2019
5421 Clouds 19 1021 82 10000 3.6 80 16:38 23.10.2019
5422 Clouds 19 1021 82 10000 3.6 80 16:19 23.10.2019
5423 Clouds 19 1022 82 10000 3.1 90 15:42 23.10.2019
5424 Clouds 19 1021 82 10000 3.6 90 15:22 23.10.2019
5425 Clouds 19 1021 82 10000 3.1 100 14:58 23.10.2019
5426 Clouds 19 1021 82 10000 4.6 100 14:38 23.10.2019
5427 Clouds 19 1021 82 10000 4.6 100 14:20 23.10.2019
5428 Clouds 19 1021 82 10000 4.6 100 14:20 23.10.2019
5429 Clouds 19 1021 82 10000 4.6 90 13:58 23.10.2019
5430 Clouds 19 1021 82 10000 4.6 90 13:40 23.10.2019
5431 Clouds 19 1020 77 10000 4.1 100 13:22 23.10.2019
5432 Clouds 20 1020 72 10000 4.1 90 12:56 23.10.2019
5433 Clouds 20 1020 72 10000 4.6 90 12:37 23.10.2019
5434 Clouds 20 1020 72 10000 4.6 90 12:18 23.10.2019
5435 Clouds 20 1019 77 10000 5.1 100 11:56 23.10.2019
5436 Clouds 20 1019 77 10000 5.1 100 11:56 23.10.2019
5437 Clouds 20 1019 77 10000 6.2 110 11:37 23.10.2019
5438 Clouds 20 1019 77 10000 6.2 110 11:37 23.10.2019
5439 Clouds 20 1019 77 10000 6.2 110 11:19 23.10.2019
5440 Clouds 21 1018 77 10000 6.7 120 10:45 23.10.2019
5441 Clouds 21 1018 77 10000 6.7 120 10:25 23.10.2019
5442 Clouds 22 1017 77 10000 6.7 120 09:55 23.10.2019
5443 Clouds 22 1017 68 10000 1.5 160 09:36 23.10.2019
5444 Clouds 22 1017 68 10000 1.5 160 09:18 23.10.2019
5445 Clouds 23 1016 60 10000 3.1 170 08:41 23.10.2019
5446 Clouds 23 1015 68 10000 3.6 150 08:23 23.10.2019
5447 Clouds 24 1016 68 10000 3.1 140 07:46 23.10.2019
5448 Rain 24 1015 68 10000 3.6 150 07:22 23.10.2019
5449 Rain 23 1015 73 10000 3.1 110 06:47 23.10.2019
5450 Clouds 23 1015 68 10000 3.6 140 06:22 23.10.2019
5451 Clouds 23 1015 68 10000 2.6 130 05:47 23.10.2019
5452 Clouds 23 1015 73 10000 2.6 120 04:57 23.10.2019
5453 Clouds 21 1015 77 10000 2.6 140 03:35 23.10.2019
5454 Clouds 20 1016 77 10000 2.1 80 02:41 23.10.2019
5455 Clouds 18 1016 82 10000 2.1 260 01:33 23.10.2019
5456 Clouds 16 1016 87 10000 3.6 270 00:56 23.10.2019
5457 Clouds 15 1015 93 10000 4.1 260 00:28 23.10.2019
5458 Clouds 13 1014 93 10000 2.1 270 23:40 22.10.2019
5459 Clouds 13 1014 93 10000 2.1 300 23:18 22.10.2019
5460 Clouds 13 1014 93 10000 3.1 280 22:57 22.10.2019
5461 Clouds 13 1014 93 10000 3.6 270 22:39 22.10.2019
5462 Clouds 13 1014 93 10000 3.6 270 22:20 22.10.2019
5463 Clouds 13 1013 93 10000 2.6 270 21:56 22.10.2019
5464 Clouds 13 1012 93 10000 1.5 280 21:37 22.10.2019
5465 Clouds 13 1012 93 10000 1.5 280 21:18 22.10.2019
5466 Clouds 13 1012 93 10000 1.5 280 21:18 22.10.2019
5467 Clouds 14 1013 87 10000 3.1 300 20:56 22.10.2019
5468 Clouds 14 1013 87 10000 3.1 300 20:56 22.10.2019
5469 Clouds 14 1013 87 10000 3.1 280 20:38 22.10.2019
5470 Clouds 14 1013 87 10000 3.1 280 20:20 22.10.2019
5471 Clouds 14 1012 87 10000 2.6 300 19:55 22.10.2019
5472 Clouds 14 1012 82 10000 2.6 290 19:37 22.10.2019
5473 Clouds 14 1012 82 10000 3.1 290 19:19 22.10.2019
5474 Clouds 14 1012 77 10000 3.6 310 18:41 22.10.2019
5475 Clouds 14 1012 77 10000 3.6 310 18:22 22.10.2019
5476 Clouds 15 1012 72 10000 2.6 340 17:58 22.10.2019
5477 Clouds 15 1012 72 10000 2.6 340 17:39 22.10.2019
5478 Clouds 15 1012 77 10000 3.6 10 17:20 22.10.2019
5479 Clouds 15 1012 77 10000 4.6 20 16:57 22.10.2019
5480 Clouds 15 1012 77 10000 5.7 10 16:38 22.10.2019
5481 Clouds 15 1012 77 10000 5.7 10 16:19 22.10.2019
5482 Clouds 15 1012 77 10000 5.7 10 16:19 22.10.2019
5483 Clouds 15 1012 77 10000 7.2 10 15:58 22.10.2019
5484 Clouds 16 1012 72 10000 7.7 10 15:39 22.10.2019
5485 Clouds 16 1012 72 10000 7.7 10 15:18 22.10.2019
5486 Clouds 16 1012 72 10000 7.2 360 14:43 22.10.2019
5487 Clouds 16 1011 72 10000 8.7 10 14:20 22.10.2019
5488 Clouds 16 1012 72 10000 8.2 10 13:43 22.10.2019
5489 Clouds 16 1011 72 10000 8.2 360 13:22 22.10.2019
5490 Clouds 16 1012 72 10000 9.8 360 12:59 22.10.2019
5491 Clouds 17 1012 72 10000 9.8 360 12:40 22.10.2019
5492 Clouds 17 1011 72 10000 8.2 360 12:21 22.10.2019
5493 Clouds 17 1012 77 10000 9.3 350 11:57 22.10.2019
5494 Clouds 16 1012 77 10000 9.3 350 11:38 22.10.2019
5495 Clouds 17 1011 82 10000 10.3 350 11:20 22.10.2019
5496 Rain 17 1010 77 10000 10.8 350 10:57 22.10.2019
5497 Rain 17 1011 77 10000 9.8 350 10:37 22.10.2019
5498 Rain 17 1011 77 10000 9.8 350 10:18 22.10.2019
5499 Rain 17 1011 77 10000 9.8 350 10:18 22.10.2019
5500 Rain 17 1011 82 10000 10.3 340 09:55 22.10.2019
5501 Clouds 16 1010 77 10000 5.1 330 09:36 22.10.2019
5502 Clouds 16 1010 77 10000 5.1 330 09:18 22.10.2019
5503 Rain 16 1010 82 10000 5.1 330 08:42 22.10.2019
5504 Rain 16 1010 82 10000 5.1 330 08:21 22.10.2019
5505 Rain 16 1011 77 10000 11.3 350 07:49 22.10.2019
5506 Rain 16 1010 82 10000 6.2 350 07:27 22.10.2019
5507 Rain 16 1012 87 16093 6.7 10 06:52 22.10.2019
5508 Rain 16 1010 93 6000 7.7 360 06:31 22.10.2019
5509 Rain 15 1012 93 8000 11.8 340 05:58 22.10.2019
5510 Rain 15 1012 87 7000 5.1 330 05:24 22.10.2019
5511 Rain 15 1013 93 3500 5.7 330 03:19 22.10.2019
5512 Rain 15 1013 93 10000 5.1 340 02:28 22.10.2019
5513 Rain 15 1013 93 10000 11.3 350 01:29 22.10.2019
5514 Rain 15 1013 93 10000 11.3 360 00:58 22.10.2019
5515 Rain 15 1013 93 10000 11.3 360 00:40 22.10.2019
5516 Rain 15 1012 93 10000 11.3 360 00:21 22.10.2019
5517 Rain 15 1012 93 10000 10.8 360 23:56 21.10.2019
5518 Rain 15 1012 93 10000 10.8 360 23:37 21.10.2019
5519 Rain 15 1013 93 6000 11.8 10 23:18 21.10.2019
5520 Rain 15 1013 93 2816 6.7 340 22:56 21.10.2019
5521 Rain 15 1013 93 2816 6.7 340 22:38 21.10.2019
5522 Rain 15 1012 93 6000 11.3 360 22:19 21.10.2019
5523 Rain 15 1014 100 6000 11.3 360 21:54 21.10.2019
5524 Rain 15 1017 100 8047 5.1 10 21:36 21.10.2019
5525 Rain 15 1014 93 5000 10.8 360 21:18 21.10.2019
5526 Rain 15 1014 100 5000 10.3 350 20:55 21.10.2019
5527 Rain 15 1017 100 11265 6.7 350 20:37 21.10.2019
5528 Rain 15 1014 93 5000 10.3 360 20:18 21.10.2019
5529 Rain 15 1014 93 6000 11.8 10 19:41 21.10.2019
5530 Rain 15 1015 93 6000 9.8 360 19:22 21.10.2019
5531 Rain 15 1015 93 6000 11.3 360 18:57 21.10.2019
5532 Rain 15 1015 93 6000 11.3 360 18:57 21.10.2019
5533 Rain 15 1015 93 6000 11.3 360 18:38 21.10.2019
5534 Rain 15 1015 93 9000 10.8 360 18:38 21.10.2019
5535 Rain 15 1015 93 9000 10.8 360 18:19 21.10.2019
5536 Rain 15 1018 93 5000 9.3 360 17:59 21.10.2019
5537 Rain 15 1018 93 5000 9.3 360 17:38 21.10.2019
5538 Rain 15 1017 93 6000 9.8 350 17:19 21.10.2019
5539 Rain 16 1020 93 4828 5.1 360 16:57 21.10.2019
5540 Rain 16 1020 93 4828 5.1 360 16:39 21.10.2019
5541 Rain 16 1018 82 10000 9.3 360 16:20 21.10.2019
5542 Rain 16 1017 88 10000 9.8 10 15:47 21.10.2019
5543 Rain 16 1018 82 10000 8.2 10 15:27 21.10.2019
5544 Rain 16 1019 88 10000 8.2 360 14:59 21.10.2019
5545 Rain 16 1019 88 10000 8.2 360 14:40 21.10.2019
5546 Rain 16 1018 82 10000 8.7 10 14:21 21.10.2019
5547 Rain 17 1019 77 10000 8.2 10 13:57 21.10.2019
5548 Rain 17 1019 77 10000 7.2 10 13:39 21.10.2019
5549 Rain 17 1019 77 10000 7.2 10 13:20 21.10.2019
5550 Rain 17 1018 72 10000 7.2 20 12:42 21.10.2019
5551 Rain 17 1018 72 10000 7.2 20 12:23 21.10.2019
5552 Rain 17 1018 77 10000 8.2 30 11:58 21.10.2019
5553 Rain 17 1018 77 10000 8.2 30 11:39 21.10.2019
5554 Rain 18 1018 72 10000 7.7 30 11:21 21.10.2019
5555 Rain 18 1019 72 10000 7.2 30 10:57 21.10.2019
5556 Rain 18 1019 68 10000 7.2 40 10:38 21.10.2019
5557 Rain 18 1019 68 10000 7.2 40 10:19 21.10.2019
5558 Rain 19 1019 72 10000 7.2 40 09:54 21.10.2019
5559 Clouds 19 1019 68 10000 4.1 30 09:36 21.10.2019
5560 Clouds 19 1019 68 10000 4.1 30 09:18 21.10.2019
5561 Clouds 20 1019 72 10000 6.7 30 08:40 21.10.2019
5562 Clouds 20 1019 68 10000 5.7 40 08:22 21.10.2019
5563 Clouds 20 1018 68 10000 6.2 40 07:45 21.10.2019
5564 Clouds 20 1018 68 10000 4.6 30 07:23 21.10.2019
5565 Rain 20 1018 68 10000 5.7 40 06:58 21.10.2019
5566 Clouds 20 1018 64 10000 4.6 50 06:40 21.10.2019
5567 Clouds 20 1018 64 10000 4.6 50 06:18 21.10.2019
5568 Clouds 20 1019 60 10000 4.6 50 05:21 21.10.2019
5569 Clouds 21 1020 72 10000 6.2 20 03:39 21.10.2019
5570 Clouds 20 1021 77 10000 4.6 30 02:39 21.10.2019
5571 Clouds 20 1021 77 10000 4.6 30 02:19 21.10.2019
5572 Clouds 20 1021 77 10000 4.6 30 02:19 21.10.2019
5573 Rain 19 1021 77 10000 4.1 20 01:44 21.10.2019
5574 Rain 19 1021 77 10000 6.2 20 00:52 21.10.2019
5575 Clouds 18 1020 77 10000 6.2 20 00:28 21.10.2019
5576 Rain 18 1020 77 10000 6.2 20 23:58 20.10.2019
5577 Rain 18 1020 77 10000 6.2 20 23:39 20.10.2019
5578 Clouds 17 1020 77 10000 6.2 10 23:21 20.10.2019
5579 Rain 18 1020 77 10000 6.2 10 22:42 20.10.2019
5580 Rain 18 1020 77 10000 5.1 10 22:24 20.10.2019
5581 Rain 18 1020 77 10000 5.1 10 22:24 20.10.2019
5582 Rain 18 1019 77 10000 4.6 20 21:59 20.10.2019
5583 Rain 18 1019 77 10000 4.6 20 21:40 20.10.2019
5584 Rain 18 1019 77 10000 5.7 20 21:22 20.10.2019
5585 Rain 18 1019 77 10000 5.7 30 20:56 20.10.2019
5586 Rain 18 1019 77 10000 5.7 30 20:38 20.10.2019
5587 Rain 18 1019 77 10000 5.7 30 20:18 20.10.2019
5588 Rain 19 1019 77 10000 5.1 30 19:55 20.10.2019
5589 Rain 18 1019 77 10000 2.6 10 19:37 20.10.2019
5590 Rain 19 1019 82 10000 5.1 20 19:18 20.10.2019
5591 Rain 19 1019 77 10000 4.6 20 18:40 20.10.2019
5592 Rain 19 1019 77 10000 4.6 20 18:22 20.10.2019
5593 Rain 19 1019 77 10000 4.1 30 17:57 20.10.2019
5594 Rain 19 1019 77 10000 4.1 30 17:38 20.10.2019
5595 Rain 19 1019 77 10000 4.6 30 17:20 20.10.2019
5596 Rain 20 1020 77 10000 4.6 50 16:43 20.10.2019
5597 Rain 20 1019 82 10000 5.1 60 16:24 20.10.2019
5598 Rain 20 1019 82 10000 5.1 70 15:59 20.10.2019
5599 Rain 20 1019 82 10000 5.1 70 15:40 20.10.2019
5600 Rain 20 1020 82 10000 5.1 70 15:21 20.10.2019
5601 Clouds 20 1019 82 10000 5.1 70 14:59 20.10.2019
5602 Clouds 20 1019 82 10000 5.1 70 14:38 20.10.2019
5603 Clouds 20 1019 82 10000 5.1 60 14:19 20.10.2019
5604 Rain 20 1019 77 10000 5.1 60 13:56 20.10.2019
5605 Rain 20 1019 77 10000 5.1 60 13:37 20.10.2019
5606 Rain 20 1019 77 10000 6.2 70 13:18 20.10.2019
5607 Rain 21 1019 77 10000 5.7 80 12:57 20.10.2019
5608 Rain 21 1019 77 10000 5.7 80 12:39 20.10.2019
5609 Rain 21 1019 83 10000 5.1 100 12:21 20.10.2019
5610 Clouds 21 1019 77 10000 5.7 90 11:57 20.10.2019
5611 Clouds 21 1019 77 10000 5.7 90 11:39 20.10.2019
5612 Clouds 21 1018 83 10000 5.7 80 11:21 20.10.2019
5613 Rain 21 1018 83 10000 5.1 90 10:57 20.10.2019
5614 Rain 21 1018 83 10000 5.1 90 10:37 20.10.2019
5615 Rain 22 1017 83 10000 3.6 80 10:18 20.10.2019
5616 Rain 22 1017 83 10000 3.6 80 09:43 20.10.2019
5617 Rain 23 1017 73 10000 5.1 80 09:22 20.10.2019
5618 Rain 23 1017 83 10000 3.1 70 08:56 20.10.2019
5619 Rain 23 1017 83 10000 3.1 70 08:37 20.10.2019
5620 Rain 23 1016 69 10000 4.1 80 08:18 20.10.2019
5621 Clouds 23 1016 78 10000 2.6 40 07:43 20.10.2019
5622 Clouds 23 1016 69 10000 4.1 70 07:24 20.10.2019
5623 Rain 24 1016 69 10000 4.1 70 06:26 20.10.2019
5624 Clouds 23 1017 73 10000 5.1 50 04:28 20.10.2019
5625 Rain 22 1018 78 10000 4.6 40 03:49 20.10.2019
5626 Rain 22 1017 78 10000 4.1 40 03:21 20.10.2019
5627 Rain 21 1017 83 10000 3.6 20 02:45 20.10.2019
5628 Mist 21 1017 83 10000 2.6 20 02:18 20.10.2019
5629 Mist 20 1016 88 10000 3.1 20 01:45 20.10.2019
5630 Mist 20 1016 83 10000 4.6 20 01:19 20.10.2019
5631 Mist 19 1016 88 10000 3.6 350 00:47 20.10.2019
5632 Fog 19 1015 88 10000 4.6 360 00:20 20.10.2019
5633 Fog 19 1014 88 10000 1.5 340 23:44 19.10.2019
5634 Fog 19 1014 100 10000 0.5 80 23:24 19.10.2019
5635 Fog 19 1014 100 10000 3.75 332.369 22:58 19.10.2019
5636 Fog 19 1014 100 10000 3.75 332.369 22:40 19.10.2019
5637 Fog 19 1014 100 10000 1 80 22:20 19.10.2019
5638 Fog 18 1014 100 10000 1.5 80 21:46 19.10.2019
5639 Fog 18 1014 100 10000 1.5 80 21:46 19.10.2019
5640 Mist 19 1013 94 10000 1.5 50 21:25 19.10.2019
5641 Mist 19 1013 94 10000 2.1 50 20:57 19.10.2019
5642 Mist 19 1013 94 10000 2.1 50 20:57 19.10.2019
5643 Mist 19 1013 94 10000 2.1 50 20:39 19.10.2019
5644 Mist 19 1013 94 10000 2.1 360 20:20 19.10.2019
5645 Fog 19 1013 94 10000 3.1 360 19:41 19.10.2019
5646 Fog 19 1013 94 9000 3.1 360 19:23 19.10.2019
5647 Fog 19 1013 94 7000 2.6 10 18:54 19.10.2019
5648 Fog 19 1013 94 7000 2.6 360 18:36 19.10.2019
5649 Fog 19 1013 94 7000 2.6 360 18:18 19.10.2019
5650 Fog 19 1013 94 7000 2.6 360 18:18 19.10.2019
5651 Fog 19 1013 94 7000 2.6 360 18:18 19.10.2019
5652 Fog 19 1013 94 6000 1.5 10 17:40 19.10.2019
5653 Mist 19 1013 100 8000 2.1 360 17:21 19.10.2019
5654 Mist 19 1013 100 10000 1 360 16:55 19.10.2019
5655 Rain 19 1013 94 10000 1.5 10 16:37 19.10.2019
5656 Rain 19 1013 94 10000 1.5 10 16:18 19.10.2019
5657 Rain 19 1013 94 10000 1.5 10 16:18 19.10.2019
5658 Rain 19 1013 94 10000 1 0 15:40 19.10.2019
5659 Rain 19 1014 94 10000 1.5 140 15:22 19.10.2019
5660 Rain 19 1014 94 10000 1.5 130 14:39 19.10.2019
5661 Rain 19 1014 94 10000 0.5 60 14:20 19.10.2019
5662 Rain 19 1014 94 10000 0.5 50 13:57 19.10.2019
5663 Rain 19 1014 94 10000 0.5 50 13:39 19.10.2019
5664 Rain 19 1014 94 10000 2.6 360 13:19 19.10.2019
5665 Rain 20 1014 94 10000 4.1 10 12:56 19.10.2019
5666 Rain 20 1014 88 10000 4.6 10 12:37 19.10.2019
5667 Rain 20 1014 88 10000 4.6 10 12:18 19.10.2019
5668 Rain 20 1016 93 16093 1.28 169.912 11:41 19.10.2019
5669 Rain 20 1013 94 10000 5.7 190 11:23 19.10.2019
5670 Rain 21 1013 94 10000 6.2 200 10:56 19.10.2019
5671 Rain 21 1013 88 10000 5.1 190 10:38 19.10.2019
5672 Mist 21 1013 88 10000 5.1 190 10:19 19.10.2019
5673 Mist 21 1013 88 5000 2.1 170 09:42 19.10.2019
5674 Mist 21 1013 88 5000 2.1 170 09:24 19.10.2019
5675 Rain 21 1013 88 10000 4.6 170 08:59 19.10.2019
5676 Clouds 21 1013 88 10000 3.6 140 08:40 19.10.2019
5677 Clouds 21 1013 88 10000 3.6 140 08:21 19.10.2019
5678 Rain 21 1014 83 8000 4.1 190 07:44 19.10.2019
5679 Clouds 21 1013 88 10000 3.1 180 07:25 19.10.2019
5680 Rain 21 1015 83 16093 3.1 160 06:47 19.10.2019
5681 Rain 21 1014 82 10000 1 0 05:58 19.10.2019
5682 Rain 20 1014 82 10000 2.6 280 05:32 19.10.2019
5683 Rain 19 1016 93 10000 5.1 300 04:21 19.10.2019
5684 Rain 17 1017 100 10000 6.2 310 02:46 19.10.2019
5685 Rain 17 1017 100 4500 4.1 320 01:53 19.10.2019
5686 Rain 16 1017 100 10000 6.7 320 01:20 19.10.2019
5687 Rain 16 1017 100 10000 6.7 320 01:20 19.10.2019
5688 Rain 16 1018 100 7000 7.2 330 00:48 19.10.2019
5689 Rain 16 1017 93 4500 8.2 310 00:26 19.10.2019
5690 Rain 16 1017 100 4500 8.2 330 23:45 18.10.2019
5691 Rain 16 1017 100 4500 7.2 360 23:26 18.10.2019
5692 Rain 16 1018 93 5000 8.2 360 22:58 18.10.2019
5693 Rain 16 1018 93 5000 8.2 360 22:40 18.10.2019
5694 Rain 15 1019 100 7000 8.2 350 22:20 18.10.2019
5695 Rain 16 1020 100 5000 8.7 330 21:59 18.10.2019
5696 Rain 16 1020 100 5000 8.7 330 21:39 18.10.2019
5697 Rain 15 1020 93 4500 9.3 340 21:20 18.10.2019
5698 Rain 15 1020 100 5000 7.7 340 20:56 18.10.2019
5699 Rain 15 1020 100 5000 7.7 340 20:56 18.10.2019
5700 Rain 15 1020 100 5000 7.7 340 20:38 18.10.2019
5701 Rain 15 1020 100 8000 7.7 340 20:20 18.10.2019
5702 Rain 15 1020 93 7000 7.2 350 19:57 18.10.2019
5703 Rain 15 1020 93 7000 7.2 350 19:57 18.10.2019
5704 Rain 15 1020 93 7000 7.2 350 19:38 18.10.2019
5705 Rain 15 1020 93 7000 7.2 350 19:38 18.10.2019
5706 Rain 15 1021 93 7000 7.2 350 19:20 18.10.2019
5707 Rain 15 1021 93 8000 5.1 330 18:56 18.10.2019
5708 Rain 15 1021 100 4000 4.6 10 18:38 18.10.2019
5709 Rain 15 1022 93 7000 6.2 330 18:20 18.10.2019
5710 Rain 15 1023 93 10000 6.2 330 17:39 18.10.2019
5711 Rain 15 1023 93 10000 6.2 330 17:20 18.10.2019
5712 Rain 15 1023 93 8000 7.2 340 16:58 18.10.2019
5713 Rain 15 1023 93 8000 7.2 340 16:37 18.10.2019
5714 Rain 15 1024 93 8000 6.2 350 16:19 18.10.2019
5715 Rain 15 1025 93 10000 6.2 350 15:41 18.10.2019
5716 Rain 15 1025 93 10000 6.2 350 15:21 18.10.2019
5717 Rain 16 1025 93 10000 6.7 360 14:59 18.10.2019
5718 Rain 15 1025 93 10000 6.7 360 14:41 18.10.2019
5719 Rain 15 1025 93 10000 5.1 340 14:22 18.10.2019
5720 Rain 16 1026 88 10000 6.2 350 13:59 18.10.2019
5721 Rain 16 1026 88 10000 6.2 350 13:41 18.10.2019
5722 Rain 16 1026 88 10000 4.6 350 13:23 18.10.2019
5723 Rain 16 1026 88 10000 6.2 360 12:57 18.10.2019
5724 Rain 16 1026 88 10000 6.2 360 12:38 18.10.2019
5725 Rain 16 1027 93 6437 3.6 320 12:20 18.10.2019
5726 Rain 16 1026 82 10000 6.7 10 11:56 18.10.2019
5727 Rain 17 1026 82 10000 6.7 10 11:38 18.10.2019
5728 Rain 16 1026 88 10000 7.2 360 11:19 18.10.2019
5729 Rain 16 1026 88 10000 6.7 10 10:55 18.10.2019
5730 Rain 17 1026 82 10000 5.7 30 10:37 18.10.2019
5731 Rain 17 1026 88 10000 6.7 20 10:18 18.10.2019
5732 Rain 17 1027 77 10000 5.7 40 09:55 18.10.2019
5733 Rain 17 1026 72 10000 4.1 20 09:37 18.10.2019
5734 Rain 18 1026 72 10000 4.1 20 09:18 18.10.2019
5735 Rain 18 1026 68 10000 5.1 40 08:42 18.10.2019
5736 Rain 18 1026 68 10000 5.1 40 08:23 18.10.2019
5737 Rain 18 1026 68 10000 5.1 40 08:23 18.10.2019
5738 Rain 18 1026 72 10000 6.2 20 07:48 18.10.2019
5739 Rain 18 1027 68 10000 3.1 30 07:29 18.10.2019
5740 Rain 18 1027 72 10000 5.1 20 06:41 18.10.2019
5741 Rain 19 1026 68 10000 4.1 20 06:23 18.10.2019
5742 Rain 19 1027 72 10000 6.7 30 05:59 18.10.2019
5743 Rain 19 1027 72 10000 5.1 30 05:24 18.10.2019
5744 Rain 18 1028 77 10000 6.7 360 04:49 18.10.2019
5745 Rain 17 1027 72 10000 5.1 30 03:34 18.10.2019
5746 Rain 17 1028 77 10000 6.7 20 02:50 18.10.2019
5747 Rain 17 1028 82 10000 5.1 40 02:32 18.10.2019
5748 Rain 17 1028 82 10000 4.6 30 01:38 18.10.2019
5749 Rain 16 1028 82 10000 6.7 20 00:56 18.10.2019
5750 Rain 16 1027 88 10000 7.7 20 00:38 18.10.2019
5751 Rain 16 1027 88 10000 7.7 20 00:18 18.10.2019
5752 Rain 16 1027 88 10000 7.2 20 23:38 17.10.2019
5753 Rain 16 1027 88 10000 7.2 20 23:19 17.10.2019
5754 Rain 16 1027 88 10000 7.7 20 22:55 17.10.2019
5755 Rain 16 1027 88 10000 7.2 20 22:37 17.10.2019
5756 Rain 16 1027 88 10000 7.2 20 22:19 17.10.2019
5757 Rain 16 1026 88 10000 7.2 20 21:56 17.10.2019
5758 Rain 16 1026 88 10000 8.2 10 21:38 17.10.2019
5759 Rain 16 1026 88 10000 8.2 10 21:20 17.10.2019
5760 Rain 16 1026 88 10000 8.2 10 21:20 17.10.2019
5761 -273 0 0 0 0 0 20:57 17.10.2019
5762 Rain 16 1026 82 10000 7.7 360 20:38 17.10.2019
5763 Rain 16 1026 82 10000 7.7 360 20:19 17.10.2019
5764 Rain 16 1025 82 10000 7.2 10 19:56 17.10.2019
5765 Rain 16 1025 82 10000 7.2 10 19:38 17.10.2019
5766 Rain 16 1026 88 10000 6.7 360 19:18 17.10.2019
5767 Rain 16 1026 82 10000 6.7 360 18:43 17.10.2019
5768 Rain 16 1026 82 10000 5.7 360 18:21 17.10.2019
5769 Rain 16 1026 82 10000 5.7 360 17:58 17.10.2019
5770 Clouds 16 1026 88 10000 3.6 20 17:40 17.10.2019
5771 Rain 16 1026 88 10000 7.2 10 17:22 17.10.2019
5772 Rain 16 1026 88 10000 5.7 10 16:55 17.10.2019
5773 Rain 16 1026 88 10000 6.2 20 16:37 17.10.2019
5774 Rain 16 1026 88 10000 6.2 20 16:18 17.10.2019
5775 Rain 16 1026 88 10000 5.7 350 15:55 17.10.2019
5776 Rain 16 1026 88 10000 5.7 350 15:37 17.10.2019
5777 Rain 16 1026 88 10000 3.6 350 15:18 17.10.2019
5778 Rain 16 1026 88 10000 2.6 360 14:42 17.10.2019
5779 Rain 16 1025 88 10000 4.6 20 14:23 17.10.2019
5780 Rain 16 1025 88 10000 6.2 50 13:54 17.10.2019
5781 Rain 16 1025 93 10000 4.6 30 13:36 17.10.2019
5782 Rain 16 1025 93 10000 4.6 30 13:18 17.10.2019
5783 Clouds 16 1025 93 10000 5.1 30 12:41 17.10.2019
5784 Rain 16 1025 93 3017 2.1 330 12:20 17.10.2019
5785 Rain 16 1025 93 10000 5.7 20 11:58 17.10.2019
5786 Rain 16 1025 93 8000 5.7 20 11:40 17.10.2019
5787 Rain 16 1025 93 8000 5.7 20 11:19 17.10.2019
5788 Rain 16 1025 93 6000 4.6 10 10:54 17.10.2019
5789 Rain 16 1024 93 9000 4.6 350 10:36 17.10.2019
5790 Rain 16 1024 93 9000 4.6 350 10:18 17.10.2019
5791 Rain 17 1024 88 10000 5.1 360 09:41 17.10.2019
5792 Rain 17 1024 93 4500 2.6 10 09:22 17.10.2019
5793 Rain 17 1024 88 8000 5.1 360 08:58 17.10.2019
5794 Rain 17 1024 88 8000 5.1 360 08:39 17.10.2019
5795 Rain 17 1024 82 5000 3.1 350 08:21 17.10.2019
5796 Rain 18 1026 93 3621 2.236 115 07:55 17.10.2019
5797 Rain 18 1023 68 10000 2.1 10 07:37 17.10.2019
5798 Rain 18 1023 68 10000 2.1 10 07:18 17.10.2019
5799 Rain 18 1023 68 10000 2.1 10 07:18 17.10.2019
5800 Clouds 19 1024 68 10000 3.6 10 06:40 17.10.2019
5801 Clouds 19 1023 63 10000 2.6 20 06:21 17.10.2019
5802 Clouds 18 1024 72 10000 3.6 360 05:52 17.10.2019
5803 Clouds 18 1024 68 10000 3.1 10 05:32 17.10.2019
5804 Clouds 18 1024 72 10000 4.1 360 04:55 17.10.2019
5805 Clouds 18 1025 77 10000 4.6 360 03:55 17.10.2019
5806 Clouds 17 1025 77 10000 2.1 360 02:37 17.10.2019
5807 Clouds 16 1026 77 10000 5.7 360 01:31 17.10.2019
5808 Clouds 16 1026 77 10000 5.1 360 00:40 17.10.2019
5809 Clouds 16 1025 77 10000 5.1 360 00:19 17.10.2019
5810 Clouds 16 1025 77 10000 5.1 360 23:42 16.10.2019
5811 Clouds 16 1025 77 10000 4.1 10 23:21 16.10.2019
5812 -273 0 0 0 0 0 22:56 16.10.2019
5813 Clouds 16 1025 77 10000 5.7 360 22:56 16.10.2019
5814 Clouds 16 1025 77 10000 5.7 360 22:37 16.10.2019
5815 Rain 16 1024 77 10000 5.1 20 22:19 16.10.2019
5816 Rain 16 1024 77 10000 5.1 20 22:19 16.10.2019
5817 Clouds 16 1024 77 10000 5.1 10 21:57 16.10.2019
5818 Clouds 16 1024 77 10000 4.1 10 21:37 16.10.2019
5819 Clouds 16 1024 77 10000 4.1 10 21:19 16.10.2019
5820 Rain 16 1025 77 10000 3.6 10 20:58 16.10.2019
5821 Rain 16 1025 77 10000 3.6 10 20:58 16.10.2019
5822 Rain 16 1025 77 10000 3.6 10 20:39 16.10.2019
5823 Clouds 16 1024 72 10000 3.6 10 20:21 16.10.2019
5824 Clouds 16 1025 77 10000 3.6 10 19:59 16.10.2019
5825 Clouds 16 1025 77 10000 3.6 10 19:39 16.10.2019
5826 Clouds 16 1024 72 10000 2.6 20 19:39 16.10.2019
5827 Clouds 16 1024 72 10000 2.6 20 19:20 16.10.2019
5828 Clouds 16 1025 77 10000 3.6 40 18:54 16.10.2019
5829 Clouds 16 1025 77 10000 3.6 40 18:54 16.10.2019
5830 Clouds 16 1024 72 10000 3.6 20 18:36 16.10.2019
5831 Clouds 16 1024 72 10000 3.6 20 18:18 16.10.2019
5832 Clouds 16 1025 77 10000 3.1 30 17:54 16.10.2019
5833 Clouds 16 1024 77 10000 3.6 40 17:36 16.10.2019
5834 Clouds 16 1024 77 10000 3.6 40 17:18 16.10.2019
5835 Clouds 16 1024 72 10000 2.6 20 16:42 16.10.2019
5836 Clouds 16 1024 72 10000 2.6 20 16:42 16.10.2019
5837 Clouds 16 1024 77 10000 3.6 40 16:21 16.10.2019
5838 Clouds 16 1024 72 10000 3.6 30 15:58 16.10.2019
5839 Clouds 16 1024 72 10000 3.6 30 15:39 16.10.2019
5840 Clouds 16 1024 72 10000 3.6 30 15:39 16.10.2019
5841 Clouds 16 1024 72 10000 3.6 30 15:39 16.10.2019
5842 Clouds 16 1025 82 10000 2.6 20 15:19 16.10.2019
5843 Clouds 16 1025 82 10000 2.6 20 14:58 16.10.2019
5844 Clouds 16 1025 82 10000 2.6 20 14:38 16.10.2019
5845 Clouds 16 1025 67 10000 3.1 30 14:19 16.10.2019
5846 Clouds 16 1025 67 10000 3.6 10 13:57 16.10.2019
5847 Clouds 16 1025 67 10000 3.6 10 13:56 16.10.2019
5848 Clouds 16 1024 67 10000 4.6 20 13:38 16.10.2019
5849 Clouds 16 1025 67 10000 3.6 10 13:38 16.10.2019
5850 Clouds 17 1024 67 10000 4.6 20 13:19 16.10.2019
5851 Clouds 16 1024 67 10000 4.1 30 12:42 16.10.2019
5852 Clouds 17 1024 67 10000 4.1 40 12:19 16.10.2019
5853 Clouds 17 1024 63 10000 3.6 60 11:45 16.10.2019
5854 Clouds 17 1024 63 10000 4.1 50 11:19 16.10.2019
5855 Clouds 17 1026 72 16093 2.1 280 10:55 16.10.2019
5856 Clouds 17 1024 68 10000 4.1 50 10:36 16.10.2019
5857 Clouds 17 1024 68 10000 4.1 50 10:18 16.10.2019
5858 Clouds 18 1023 59 10000 3.6 30 09:40 16.10.2019
5859 Clouds 18 1023 59 10000 3.6 30 09:21 16.10.2019
5860 Clouds 18 1023 68 10000 4.6 30 08:46 16.10.2019
5861 Clouds 18 1023 63 10000 4.1 30 08:26 16.10.2019
5862 Clouds 18 1025 63 16093 3.214 84 07:59 16.10.2019
5863 Clouds 18 1023 68 10000 4.6 40 07:41 16.10.2019
5864 Clouds 18 1023 63 10000 4.1 30 07:22 16.10.2019
5865 Clouds 18 1023 68 10000 5.1 40 06:46 16.10.2019
5866 Clouds 18 1023 63 10000 3.6 60 06:27 16.10.2019
5867 Clouds 17 1025 67 10000 4.1 20 04:25 16.10.2019
5868 Clouds 16 1026 72 10000 6.2 10 02:51 16.10.2019
5869 Rain 15 1025 72 10000 5.7 360 01:20 16.10.2019
5870 Clouds 15 1028 71 16093 2.1 360 00:59 16.10.2019
5871 Rain 15 1025 77 10000 6.7 10 00:39 16.10.2019
5872 Clouds 14 1027 71 16093 3.1 330 23:58 15.10.2019
5873 Rain 15 1024 72 10000 7.2 10 23:38 15.10.2019
5874 Rain 15 1025 72 10000 6.7 360 23:19 15.10.2019
5875 Clouds 15 1027 71 16093 3.1 330 22:55 15.10.2019
5876 Clouds 15 1025 72 10000 6.2 360 22:37 15.10.2019
5877 Clouds 15 1024 67 10000 7.7 360 22:18 15.10.2019
5878 Clouds 15 1026 76 16093 4.1 350 21:54 15.10.2019
5879 Clouds 15 1024 72 10000 6.7 360 21:36 15.10.2019
5880 Clouds 15 1024 72 10000 6.7 360 21:18 15.10.2019
5881 Clouds 15 1024 72 10000 6.7 360 20:54 15.10.2019
5882 Clouds 15 1024 77 10000 4.1 30 20:36 15.10.2019
5883 Clouds 15 1024 72 10000 6.2 360 20:18 15.10.2019
5884 Clouds 16 1024 67 10000 6.2 10 19:55 15.10.2019
5885 Clouds 16 1024 67 10000 6.7 10 19:36 15.10.2019
5886 Clouds 16 1024 67 10000 6.7 10 19:18 15.10.2019
5887 Clouds 16 1024 72 10000 6.2 20 18:41 15.10.2019
5888 Clouds 16 1024 72 10000 5.7 10 18:23 15.10.2019
5889 Clouds 16 1027 87 16093 4.1 20 17:54 15.10.2019
5890 Rain 16 1024 72 10000 5.1 20 17:36 15.10.2019
5891 Rain 17 1024 72 10000 5.1 20 17:18 15.10.2019
5892 Clouds 17 1024 77 10000 6.2 40 16:42 15.10.2019
5893 Clouds 17 1024 72 10000 6.2 40 16:22 15.10.2019
5894 Clouds 17 1026 93 16093 2.6 340 15:57 15.10.2019
5895 -273 0 0 0 0 0 15:57 15.10.2019
5896 Clouds 17 1024 72 10000 7.2 50 15:39 15.10.2019
5897 Rain 17 1024 68 10000 7.7 50 15:19 15.10.2019
5898 Clouds 17 1024 72 10000 7.7 60 14:55 15.10.2019
5899 Clouds 17 1024 72 10000 7.7 60 14:37 15.10.2019
5900 Clouds 17 1023 72 10000 8.2 50 14:18 15.10.2019
5901 Clouds 17 1023 77 10000 8.2 60 13:43 15.10.2019
5902 Rain 17 1023 82 10000 7.7 60 13:20 15.10.2019
5903 Drizzle 18 1025 93 11265 2.1 20 12:56 15.10.2019
5904 Drizzle 18 1025 93 11265 2.1 20 12:56 15.10.2019
5905 Clouds 18 1023 77 10000 7.7 70 12:38 15.10.2019
5906 Rain 18 1023 77 10000 7.7 70 12:19 15.10.2019
5907 Rain 18 1023 77 10000 7.7 70 12:19 15.10.2019
5908 Clouds 18 1023 72 10000 8.2 70 11:43 15.10.2019
5909 Clouds 18 1022 77 10000 8.2 70 11:20 15.10.2019
5910 Clouds 19 1022 77 10000 8.2 80 10:56 15.10.2019
5911 Rain 19 1021 77 10000 7.2 80 10:38 15.10.2019
5912 Rain 19 1021 77 10000 7.2 80 10:18 15.10.2019
5913 Rain 19 1021 72 10000 7.7 70 09:55 15.10.2019
5914 Rain 19 1023 72 16093 5.55 96.137 09:36 15.10.2019
5915 Rain 19 1021 68 10000 5.7 80 09:18 15.10.2019
5916 Rain 20 1021 72 10000 7.7 70 08:41 15.10.2019
5917 Rain 20 1020 64 10000 6.2 80 08:21 15.10.2019
5918 Clouds 21 1020 64 10000 6.2 70 07:55 15.10.2019
5919 Clouds 21 1020 64 10000 5.7 80 07:36 15.10.2019
5920 Clouds 21 1020 64 10000 5.7 80 07:18 15.10.2019
5921 Rain 21 1021 68 10000 6.2 70 06:43 15.10.2019
5922 Clouds 21 1020 64 10000 5.7 80 06:20 15.10.2019
5923 Rain 21 1022 56 10000 3.6 60 05:37 15.10.2019
5924 Rain 21 1021 77 10000 5.1 50 04:54 15.10.2019
5925 Rain 20 1021 72 10000 5.1 70 04:23 15.10.2019
5926 Clouds 20 1021 72 10000 4.6 60 03:36 15.10.2019
5927 Clouds 19 1021 82 10000 4.1 80 02:22 15.10.2019
5928 Clouds 19 1021 82 10000 3.1 80 01:47 15.10.2019
5929 Rain 18 1021 88 10000 5.1 70 01:19 15.10.2019
5930 Clouds 18 1021 88 10000 4.6 70 00:47 15.10.2019
5931 Mist 17 1020 93 10000 5.1 70 00:20 15.10.2019
5932 Mist 17 1020 93 10000 1.79 336.898 23:40 14.10.2019
5933 Rain 17 1019 93 9656 1.79 336.898 23:20 14.10.2019
5934 Rain 17 1019 88 10000 5.1 50 22:55 14.10.2019
5935 Rain 17 1019 93 10000 3.6 30 22:37 14.10.2019
5936 Rain 17 1019 93 10000 3.6 30 22:18 14.10.2019
5937 Rain 17 1018 88 10000 3.6 50 21:41 14.10.2019
5938 Rain 17 1018 93 10000 3.1 20 21:22 14.10.2019
5939 Rain 17 1018 100 10000 3.6 40 20:59 14.10.2019
5940 Rain 17 1017 100 10000 3.6 50 20:40 14.10.2019
5941 Rain 17 1017 100 10000 3.6 50 20:21 14.10.2019
5942 Rain 17 1017 100 5000 2.6 90 19:59 14.10.2019
5943 Rain 17 1017 100 10000 4.1 60 19:40 14.10.2019
5944 Rain 17 1017 100 10000 5.1 60 19:22 14.10.2019
5945 Rain 17 1017 100 10000 4.6 60 18:58 14.10.2019
5946 Rain 17 1017 100 10000 4.6 60 18:58 14.10.2019
5947 Rain 17 1017 100 10000 4.1 70 18:38 14.10.2019
5948 Rain 17 1017 100 10000 4.1 70 18:19 14.10.2019
5949 Rain 16 1017 100 4500 2.1 30 17:56 14.10.2019
5950 Rain 16 1017 93 4500 2.1 350 17:37 14.10.2019
5951 Rain 16 1017 93 4500 2.1 350 17:19 14.10.2019
5952 Rain 16 1017 93 10000 3.6 10 16:40 14.10.2019
5953 Rain 16 1017 93 10000 3.6 10 16:21 14.10.2019
5954 Rain 16 1018 93 7000 4.1 10 15:42 14.10.2019
5955 Rain 16 1018 93 4000 5.1 360 15:23 14.10.2019
5956 Rain 16 1018 93 7000 6.2 350 14:57 14.10.2019
5957 Rain 16 1018 93 7000 6.2 350 14:57 14.10.2019
5958 Rain 16 1018 93 7000 6.2 350 14:39 14.10.2019
5959 Rain 16 1018 93 4500 6.7 340 14:20 14.10.2019
5960 Rain 16 1018 93 10000 6.2 330 13:44 14.10.2019
5961 Rain 16 1018 93 10000 8.2 340 13:21 14.10.2019
5962 Rain 16 1018 93 10000 7.2 330 12:55 14.10.2019
5963 Rain 16 1018 88 6000 9.8 340 12:37 14.10.2019
5964 Rain 16 1018 88 6000 9.8 340 12:18 14.10.2019
5965 Rain 16 1018 93 9000 8.7 340 11:44 14.10.2019
5966 Rain 16 1017 93 7000 7.7 350 11:26 14.10.2019
5967 -273 0 0 0 0 0 11:26 14.10.2019
5968 Rain 17 1018 93 10000 8.2 350 10:57 14.10.2019
5969 Rain 17 1017 88 10000 7.2 360 10:38 14.10.2019
5970 Rain 17 1017 88 10000 7.2 360 10:20 14.10.2019
5971 Rain 17 1018 88 10000 7.7 360 09:54 14.10.2019
5972 Rain 17 1017 93 7000 3.1 350 09:36 14.10.2019
5973 Rain 17 1017 93 7000 3.1 350 09:18 14.10.2019
5974 Rain 17 1018 93 10000 6.7 350 08:42 14.10.2019
5975 Rain 17 1018 93 6000 3.1 340 08:20 14.10.2019
5976 Rain 17 1019 93 1810 4.1 320 07:41 14.10.2019
5977 Rain 17 1019 93 1810 4.1 320 07:41 14.10.2019
5978 Rain 17 1019 93 1810 4.1 320 07:18 14.10.2019
5979 Rain 17 1019 88 8000 6.2 340 06:38 14.10.2019
5980 Rain 17 1019 88 9000 3.6 330 06:20 14.10.2019
5981 Rain 17 1019 88 10000 6.2 350 05:46 14.10.2019
5982 Rain 17 1020 93 7000 5.7 340 04:42 14.10.2019
5983 Rain 16 1022 88 5000 6.7 330 03:27 14.10.2019
5984 Rain 17 1022 77 10000 7.2 330 02:42 14.10.2019
5985 Rain 17 1022 77 10000 6.2 360 01:23 14.10.2019
5986 Rain 18 1022 77 10000 6.2 350 00:56 14.10.2019
5987 Rain 18 1022 72 10000 6.7 360 00:20 14.10.2019
5988 Rain 18 1021 77 10000 7.2 10 23:45 13.10.2019
5989 Rain 18 1022 77 10000 6.7 10 23:20 13.10.2019
5990 Rain 18 1022 72 10000 6.7 10 22:58 13.10.2019
5991 Clouds 18 1021 72 10000 6.7 20 22:40 13.10.2019
5992 Clouds 18 1021 72 10000 6.7 20 22:21 13.10.2019
5993 Clouds 18 1021 72 10000 6.2 10 21:58 13.10.2019
5994 Clouds 18 1021 72 10000 6.7 20 21:38 13.10.2019
5995 Clouds 18 1021 72 10000 6.7 20 21:19 13.10.2019
5996 Clouds 19 1021 72 10000 7.7 30 20:58 13.10.2019
5997 Clouds 19 1021 72 10000 7.7 30 20:39 13.10.2019
5998 Clouds 19 1021 68 10000 8.7 30 20:21 13.10.2019
5999 Clouds 19 1021 72 10000 8.2 30 19:59 13.10.2019
6000 Clouds 19 1021 72 10000 8.2 30 19:39 13.10.2019
6001 Clouds 19 1021 64 10000 7.7 20 19:21 13.10.2019
6002 -273 0 0 0 0 0 18:57 13.10.2019
6003 Clouds 19 1021 64 10000 8.2 20 18:55 13.10.2019
6004 Clouds 20 1021 64 10000 7.7 30 18:36 13.10.2019
6005 Clouds 20 1021 60 10000 7.2 30 18:18 13.10.2019
6006 Clouds 20 1021 60 10000 7.2 30 17:43 13.10.2019
6007 Clouds 20 1021 60 10000 6.7 30 17:25 13.10.2019
6008 Clouds 20 1021 60 10000 5.7 30 16:58 13.10.2019
6009 Clouds 20 1020 56 10000 5.7 20 16:40 13.10.2019
6010 Clouds 20 1020 56 10000 5.7 20 16:18 13.10.2019
6011 Clouds 20 1021 56 10000 5.1 20 15:56 13.10.2019
6012 Clouds 20 1021 56 10000 5.1 20 15:56 13.10.2019
6013 Clouds 21 1021 60 10000 6.2 30 15:36 13.10.2019
6014 Clouds 21 1021 60 10000 6.2 30 15:18 13.10.2019
6015 Clouds 21 1020 64 10000 6.2 40 14:56 13.10.2019
6016 Clouds 21 1020 64 10000 6.2 40 14:56 13.10.2019
6017 Clouds 21 1020 73 10000 6.2 40 14:37 13.10.2019
6018 Clouds 21 1020 73 10000 6.2 40 14:18 13.10.2019
6019 Clouds 22 1020 68 10000 7.2 50 13:39 13.10.2019
6020 Clouds 22 1019 64 10000 7.2 40 13:21 13.10.2019
6021 Clouds 22 1019 53 10000 6.7 40 12:57 13.10.2019
6022 Clouds 22 1018 49 10000 7.2 10 12:39 13.10.2019
6023 Clouds 22 1018 49 10000 7.2 10 12:20 13.10.2019
6024 Clouds 23 1018 41 10000 6.7 10 11:58 13.10.2019
6025 Clouds 23 1017 53 10000 5.7 10 11:39 13.10.2019
6026 Clouds 23 1017 53 10000 5.7 10 11:20 13.10.2019
6027 Clouds 24 1016 53 10000 6.2 10 10:56 13.10.2019
6028 Clouds 25 1015 50 10000 7.7 360 10:38 13.10.2019
6029 Clouds 25 1015 50 10000 7.7 360 10:19 13.10.2019
6030 Clouds 26 1014 39 10000 3.6 350 09:39 13.10.2019
6031 Clouds 27 1014 39 10000 3.6 350 09:21 13.10.2019
6032 Clouds 28 1014 44 10000 7.7 350 08:44 13.10.2019
6033 Clouds 28 1012 39 10000 5.1 330 08:25 13.10.2019
6034 Clouds 28 1012 51 10000 7.7 350 07:52 13.10.2019
6035 Clouds 28 1011 39 10000 4.1 350 07:33 13.10.2019
6036 Clouds 28 1011 39 10000 4.1 350 07:33 13.10.2019
6037 Clouds 29 1011 44 10000 9.8 350 06:54 13.10.2019
6038 Clouds 29 1011 44 10000 9.8 350 06:54 13.10.2019
6039 Clouds 29 1010 39 10000 5.7 330 06:24 13.10.2019
6040 Clouds 29 1010 39 10000 5.7 330 06:24 13.10.2019
6041 Clouds 29 1010 39 10000 5.7 330 06:24 13.10.2019
6042 Clouds 29 1010 39 10000 5.7 320 05:27 13.10.2019
6043 Clouds 28 1009 42 10000 7.2 310 04:35 13.10.2019
6044 Rain 28 1008 42 10000 9.3 300 03:34 13.10.2019
6045 Rain 27 1006 44 10000 10.3 310 02:31 13.10.2019
6046 Rain 27 1006 44 10000 10.3 310 02:31 13.10.2019
6047 Clouds 27 1004 47 10000 10.8 320 01:37 13.10.2019
6048 Clouds 27 1004 47 10000 10.8 320 01:18 13.10.2019
6049 Clouds 26 1003 50 10000 6.7 300 00:42 13.10.2019
6050 Clouds 25 1003 50 10000 6.7 300 00:19 13.10.2019
6051 Clouds 24 1001 73 10000 4.1 290 23:42 12.10.2019
6052 Clouds 24 1001 73 10000 4.1 290 23:23 12.10.2019
6053 Clouds 23 1000 69 10000 4.1 280 22:59 12.10.2019
6054 Clouds 23 1000 69 10000 4.1 280 22:40 12.10.2019
6055 Clear 24 998 64 10000 4.1 300 22:22 12.10.2019
6056 Clear 24 998 61 10000 4.6 260 21:59 12.10.2019
6057 Clouds 24 995 57 10000 6.2 290 21:40 12.10.2019
6058 Clouds 24 995 60 10000 6.2 270 21:22 12.10.2019
6059 -273 0 0 0 0 0 20:55 12.10.2019
6060 Clouds 24 992 54 10000 6.2 270 20:36 12.10.2019
6061 Clouds 24 992 54 10000 6.2 270 20:18 12.10.2019
6062 Clouds 24 990 73 10000 6.7 240 19:36 12.10.2019
6063 Clouds 24 990 73 10000 6.7 240 19:18 12.10.2019
6064 Clouds 24 990 78 10000 4.6 220 18:44 12.10.2019
6065 Clouds 24 989 88 10000 5.1 210 18:26 12.10.2019
6066 Rain 24 987 88 10000 6.2 200 17:46 12.10.2019
6067 Rain 23 985 88 10000 6.2 170 17:25 12.10.2019
6068 Rain 23 984 73 10000 5.7 250 16:59 12.10.2019
6069 Rain 23 984 88 10000 7.2 280 16:40 12.10.2019
6070 Rain 23 984 88 10000 7.2 280 16:21 12.10.2019
6071 Rain 23 981 88 6000 10.8 240 15:57 12.10.2019
6072 Rain 23 981 88 6000 10.8 240 15:57 12.10.2019
6073 Rain 22 978 94 3000 14.4 240 15:38 12.10.2019
6074 Rain 22 978 94 3000 14.4 240 15:18 12.10.2019
6075 Rain 23 969 100 2000 32.9 170 14:40 12.10.2019
6076 Rain 23 969 100 2000 32.9 170 14:20 12.10.2019
6077 Rain 23 970 94 2500 23.1 160 13:51 12.10.2019
6078 Rain 24 972 94 4000 18 140 13:32 12.10.2019
6079 Rain 24 975 94 6000 16.5 130 12:57 12.10.2019
6080 Rain 24 975 94 6000 16.5 130 12:38 12.10.2019
6081 Rain 24 978 100 2012 7.7 100 12:20 12.10.2019
6082 Rain 24 979 100 5000 18 130 11:47 12.10.2019
6083 Rain 24 981 100 4000 14.4 120 11:24 12.10.2019
6084 Rain 25 982 94 5000 15.4 120 10:58 12.10.2019
6085 Rain 25 982 94 5000 15.4 120 10:40 12.10.2019
6086 Rain 25 984 94 3500 15.9 130 10:20 12.10.2019
6087 -273 0 0 0 0 0 09:57 12.10.2019
6088 Rain 25 984 94 3500 13.9 120 09:38 12.10.2019
6089 Rain 25 986 94 2000 16.5 120 09:20 12.10.2019
6090 Rain 25 986 94 2000 16.5 120 09:20 12.10.2019
6091 Rain 25 987 94 4500 16.5 130 08:54 12.10.2019
6092 Rain 25 988 94 2000 15.9 110 08:36 12.10.2019
6093 Rain 25 988 94 2000 15.9 110 08:18 12.10.2019
6094 Rain 25 990 100 2000 13.9 100 07:32 12.10.2019
6095 Rain 25 993 100 1000 13.4 90 06:38 12.10.2019
6096 Rain 25 994 94 2500 13.4 80 05:44 12.10.2019
6097 Rain 24 997 100 2000 11.3 100 04:43 12.10.2019
6098 Rain 24 999 100 3000 9.3 90 03:56 12.10.2019
6099 Rain 24 1000 100 2500 10.3 70 02:54 12.10.2019
6100 Rain 23 1002 100 1000 10.8 60 01:35 12.10.2019
6101 Rain 23 1002 94 1500 11.3 60 00:57 12.10.2019
6102 Rain 23 1002 94 1500 11.3 60 00:38 12.10.2019
6103 Rain 22 1002 100 4000 13.9 50 23:56 11.10.2019
6104 Rain 22 1003 94 3000 13.9 50 23:37 11.10.2019
6105 Rain 22 1004 94 4000 10.3 40 23:19 11.10.2019
6106 Rain 22 1004 94 4000 10.3 40 22:39 11.10.2019
6107 Rain 22 1004 94 7000 11.3 40 22:21 11.10.2019
6108 Rain 22 1004 94 10000 10.8 30 21:55 11.10.2019
6109 Rain 22 1005 94 10000 10.8 30 21:36 11.10.2019
6110 Rain 22 1005 94 10000 10.8 30 21:18 11.10.2019
6111 Rain 22 1006 100 10000 9.8 30 20:43 11.10.2019
6112 Rain 22 1007 100 3000 10.3 30 20:25 11.10.2019
6113 Rain 22 1007 100 6000 10.3 30 19:56 11.10.2019
6114 Rain 22 1007 100 10000 8.7 30 19:38 11.10.2019
6115 Rain 22 1007 100 10000 8.7 30 19:38 11.10.2019
6116 Rain 22 1007 100 10000 8.7 30 19:18 11.10.2019
6117 Rain 22 1008 100 10000 8.7 30 18:57 11.10.2019
6118 Rain 22 1008 100 10000 9.8 20 18:37 11.10.2019
6119 Rain 22 1008 100 10000 9.8 20 18:19 11.10.2019
6120 Rain 22 1008 100 9000 9.3 20 17:58 11.10.2019
6121 Rain 21 1009 94 6000 8.7 20 17:37 11.10.2019
6122 Rain 21 1009 94 6000 8.7 20 17:19 11.10.2019
6123 Rain 21 1010 94 7000 7.7 20 16:55 11.10.2019
6124 Rain 21 1010 94 4000 7.2 20 16:37 11.10.2019
6125 Rain 21 1010 94 4000 7.2 20 16:18 11.10.2019
6126 Rain 21 1011 94 8000 7.2 20 15:39 11.10.2019
6127 Rain 21 1011 94 8000 7.2 20 15:19 11.10.2019
6128 Rain 21 1011 94 10000 7.2 20 14:49 11.10.2019
6129 Rain 21 1011 94 10000 8.2 20 14:30 11.10.2019
6130 Rain 21 1011 94 10000 7.7 20 13:58 11.10.2019
6131 Rain 21 1011 94 10000 7.7 20 13:40 11.10.2019
6132 Rain 21 1012 94 10000 7.2 30 13:22 11.10.2019
6133 Rain 21 1011 94 9000 6.7 20 12:56 11.10.2019
6134 Rain 21 1014 94 16093 2.6 10 12:38 11.10.2019
6135 Rain 21 1014 94 16093 2.6 10 12:20 11.10.2019
6136 Rain 21 1014 94 6437 3.1 350 11:55 11.10.2019
6137 Rain 21 1014 94 6437 3.1 350 11:55 11.10.2019
6138 Rain 21 1012 94 4000 6.2 30 11:36 11.10.2019
6139 Rain 21 1012 94 4000 6.2 30 11:18 11.10.2019
6140 Rain 21 1012 100 7000 6.2 20 10:41 11.10.2019
6141 Rain 21 1011 100 7000 6.2 10 10:23 11.10.2019
6142 Rain 21 1011 94 8000 7.2 10 09:59 11.10.2019
6143 Rain 21 1011 94 8000 7.2 10 09:40 11.10.2019
6144 Rain 21 1011 94 8000 4.1 10 09:20 11.10.2019
6145 Rain 21 1011 94 10000 6.2 360 08:56 11.10.2019
6146 Rain 21 1011 94 9000 3.6 360 08:37 11.10.2019
6147 Rain 21 1011 94 9000 3.6 360 08:19 11.10.2019
6148 Rain 21 1013 88 8000 1 60 07:51 11.10.2019
6149 Rain 21 1013 88 3500 1 20 07:33 11.10.2019
6150 Rain 21 1012 88 10000 6.2 360 06:49 11.10.2019
6151 Rain 21 1013 88 10000 3.6 20 06:24 11.10.2019
6152 Rain 21 1013 83 10000 6.2 10 05:41 11.10.2019
6153 Rain 21 1013 88 10000 3.1 360 05:23 11.10.2019
6154 Rain 21 1013 88 10000 4.6 350 04:47 11.10.2019
6155 Clouds 20 1015 83 10000 6.7 350 02:59 11.10.2019
6156 Rain 19 1015 82 10000 5.7 350 00:54 11.10.2019
6157 Rain 18 1017 100 16093 2.1 10 00:30 11.10.2019
6158 Rain 18 1015 88 10000 6.7 340 23:57 10.10.2019
6159 Mist 18 1015 82 10000 7.2 340 23:38 10.10.2019
6160 Mist 18 1015 82 10000 7.2 340 23:18 10.10.2019
6161 Mist 17 1015 93 10000 7.7 340 22:54 10.10.2019
6162 Mist 17 1015 93 10000 6.7 340 22:36 10.10.2019
6163 Mist 17 1015 93 10000 6.7 340 22:18 10.10.2019
6164 Mist 17 1015 93 10000 7.2 340 21:42 10.10.2019
6165 Drizzle 17 1015 88 10000 5.7 330 21:22 10.10.2019
6166 Rain 17 1015 93 10000 5.7 330 20:58 10.10.2019
6167 Rain 17 1015 93 10000 5.7 330 20:39 10.10.2019
6168 Rain 17 1015 88 10000 7.2 340 20:19 10.10.2019
6169 Rain 17 1015 88 10000 8.2 340 19:56 10.10.2019
6170 Rain 17 1016 93 10000 6.7 330 19:38 10.10.2019
6171 Rain 17 1016 93 10000 6.7 330 19:19 10.10.2019
6172 Rain 17 1016 93 6000 7.2 340 18:42 10.10.2019
6173 Rain 17 1016 93 6000 7.2 340 18:21 10.10.2019
6174 Rain 17 1016 93 7000 7.7 340 17:58 10.10.2019
6175 Rain 17 1017 93 3500 5.7 330 17:39 10.10.2019
6176 Rain 18 1017 93 4800 7.7 340 17:18 10.10.2019
6177 Rain 18 1017 93 4800 7.7 340 16:56 10.10.2019
6178 Rain 18 1019 88 12874 2.6 340 16:37 10.10.2019
6179 Rain 18 1019 88 12874 2.6 340 16:18 10.10.2019
6180 Rain 18 1017 93 4000 7.2 360 15:40 10.10.2019
6181 Rain 18 1017 93 4000 6.2 10 15:22 10.10.2019
6182 Rain 18 1018 93 4500 7.2 10 14:57 10.10.2019
6183 Rain 18 1018 93 4500 7.2 10 14:37 10.10.2019
6184 Rain 19 1017 93 5000 7.2 20 14:19 10.10.2019
6185 Rain 19 1017 93 10000 6.7 10 13:57 10.10.2019
6186 Rain 19 1017 93 7000 7.7 10 13:39 10.10.2019
6187 Rain 19 1017 93 7000 7.7 10 13:18 10.10.2019
6188 Rain 20 1017 82 7000 7.2 20 12:42 10.10.2019
6189 Rain 20 1017 82 7000 7.2 20 12:21 10.10.2019
6190 Rain 21 1017 73 8000 6.7 20 11:58 10.10.2019
6191 Rain 21 1017 73 8000 6.7 20 11:40 10.10.2019
6192 Rain 22 1017 64 10000 6.2 30 11:19 10.10.2019
6193 Rain 23 1017 64 10000 6.7 20 10:47 10.10.2019
6194 Rain 23 1017 64 10000 6.2 30 10:28 10.10.2019
6195 Clouds 23 1017 69 10000 6.2 40 09:59 10.10.2019
6196 Clouds 23 1017 60 10000 4.6 40 09:41 10.10.2019
6197 Clouds 23 1017 60 10000 4.6 40 09:23 10.10.2019
6198 Clouds 23 1017 69 10000 5.7 40 08:59 10.10.2019
6199 Clouds 24 1017 57 10000 5.7 60 08:40 10.10.2019
6200 Clouds 24 1017 57 10000 5.7 60 08:21 10.10.2019
6201 Clouds 24 1017 60 10000 4.1 70 07:47 10.10.2019
6202 Clouds 24 1017 57 10000 4.1 80 07:26 10.10.2019
6203 Clouds 24 1018 69 10000 4.1 50 06:56 10.10.2019
6204 Clouds 24 1017 57 10000 4.1 50 06:38 10.10.2019
6205 Clouds 23 1018 64 10000 4.6 40 05:50 10.10.2019
6206 Clouds 23 1018 57 10000 4.1 40 05:19 10.10.2019
6207 Clouds 23 1019 53 10000 4.1 20 04:35 10.10.2019
6208 Clouds 21 1020 64 10000 6.2 360 02:42 10.10.2019
6209 Clouds 19 1020 60 10000 6.2 360 01:38 10.10.2019
6210 Clouds 19 1020 60 10000 6.2 360 01:18 10.10.2019
6211 Clouds 18 1020 68 10000 6.7 350 00:39 10.10.2019
6212 Clouds 16 1020 68 10000 6.7 350 23:55 09.10.2019
6213 Clouds 16 1020 72 10000 5.7 360 23:36 09.10.2019
6214 Clouds 15 1019 72 10000 6.2 350 23:18 09.10.2019
6215 Clouds 16 1019 72 10000 6.2 350 22:41 09.10.2019
6216 Clouds 15 1019 72 10000 5.7 350 22:22 09.10.2019
6217 Clear 15 1019 72 10000 6.2 350 21:58 09.10.2019
6218 Clouds 15 1019 68 10000 6.2 350 21:39 09.10.2019
6219 Clouds 15 1019 68 10000 6.2 350 21:39 09.10.2019
6220 Clouds 15 1019 68 10000 6.2 350 21:19 09.10.2019
6221 Clear 16 1019 68 10000 6.2 360 20:55 09.10.2019
6222 Clear 16 1019 68 10000 5.7 360 20:37 09.10.2019
6223 Clear 16 1019 68 10000 5.7 360 20:18 09.10.2019
6224 Clear 16 1019 87 10000 3.6 340 20:18 09.10.2019
6225 Clear 17 1019 64 10000 5.1 360 19:45 09.10.2019
6226 Clear 17 1019 64 10000 5.1 360 19:23 09.10.2019
6227 Clear 17 1019 63 10000 4.6 10 18:57 09.10.2019
6228 Clouds 17 1019 64 10000 4.1 10 18:37 09.10.2019
6229 Clouds 18 1019 64 10000 4.1 10 18:18 09.10.2019
6230 Clouds 17 1019 64 10000 4.6 30 17:54 09.10.2019
6231 Clouds 18 1019 68 10000 4.1 20 17:36 09.10.2019
6232 Clouds 19 1019 68 10000 4.1 20 17:18 09.10.2019
6233 Clouds 19 1019 64 10000 4.6 70 16:40 09.10.2019
6234 Clouds 19 1019 64 10000 5.1 90 16:22 09.10.2019
6235 Clouds 19 1019 68 10000 4.6 100 15:58 09.10.2019
6236 Clouds 19 1019 64 10000 5.1 100 15:39 09.10.2019
6237 Clouds 19 1019 64 10000 5.1 100 15:20 09.10.2019
6238 Rain 19 1019 60 10000 5.1 100 14:56 09.10.2019
6239 Rain 19 1019 60 10000 5.1 100 14:37 09.10.2019
6240 Rain 19 1019 64 10000 5.7 100 14:18 09.10.2019
6241 Rain 20 1018 64 10000 6.7 110 13:39 09.10.2019
6242 Rain 20 1018 64 10000 6.7 110 13:21 09.10.2019
6243 Clouds 20 1018 68 10000 6.2 110 12:59 09.10.2019
6244 Clear 20 1017 64 10000 6.7 100 12:40 09.10.2019
6245 Clear 20 1017 64 10000 6.7 100 12:21 09.10.2019
6246 Clouds 20 1017 60 10000 6.7 110 11:55 09.10.2019
6247 Clouds 20 1017 64 10000 6.2 110 11:36 09.10.2019
6248 Clouds 20 1017 64 10000 6.2 110 11:18 09.10.2019
6249 Clouds 20 1017 64 10000 6.2 110 11:18 09.10.2019
6250 Clouds 22 1016 68 10000 6.7 110 10:43 09.10.2019
6251 Clouds 22 1015 64 10000 6.2 110 10:21 09.10.2019
6252 Clouds 23 1015 64 10000 6.7 110 09:57 09.10.2019
6253 Clouds 23 1015 64 10000 6.7 110 09:57 09.10.2019
6254 Clouds 24 1015 36 10000 3.6 130 09:38 09.10.2019
6255 Clouds 24 1015 36 10000 3.6 130 09:18 09.10.2019
6256 Clouds 25 1015 36 10000 3.6 100 08:41 09.10.2019
6257 Clouds 25 1014 25 10000 2.6 60 08:21 09.10.2019
6258 Clouds 25 1014 25 10000 2.6 60 08:21 09.10.2019
6259 Clouds 25 1014 31 10000 4.1 20 07:56 09.10.2019
6260 Clouds 25 1014 23 10000 3.1 40 07:37 09.10.2019
6261 Clouds 25 1014 23 10000 3.1 40 07:19 09.10.2019
6262 Clouds 25 1014 23 10000 3.1 40 07:19 09.10.2019
6263 Clouds 25 1015 31 10000 3.6 60 06:49 09.10.2019
6264 Clouds 24 1015 35 10000 5.7 30 05:55 09.10.2019
6265 Clouds 24 1015 29 10000 5.1 30 05:28 09.10.2019
6266 Clouds 23 1015 36 10000 5.1 30 04:24 09.10.2019
6267 Clouds 22 1016 46 10000 8.2 350 02:52 09.10.2019
6268 Clouds 20 1015 43 10000 4.6 340 01:43 09.10.2019
6269 Clouds 20 1015 49 10000 8.7 10 01:20 09.10.2019
6270 Clouds 20 1014 52 10000 9.8 10 00:57 09.10.2019
6271 Clouds 19 1014 52 10000 9.8 360 00:38 09.10.2019
6272 Clouds 19 1014 52 10000 9.8 360 00:20 09.10.2019
6273 Clouds 19 1013 52 10000 11.8 350 23:39 08.10.2019
6274 Clouds 19 1012 52 10000 11.8 340 23:19 08.10.2019
6275 Clouds 19 1012 52 10000 13.4 340 22:56 08.10.2019
6276 Clouds 19 1011 49 10000 13.4 340 22:38 08.10.2019
6277 Clouds 19 1011 49 10000 13.4 340 22:19 08.10.2019
6278 Clouds 20 1010 46 10000 13.9 340 21:57 08.10.2019
6279 Clouds 20 1010 49 10000 10.8 340 21:39 08.10.2019
6280 Clouds 20 1010 49 10000 10.8 340 21:19 08.10.2019
6281 Clouds 21 1010 53 10000 8.7 350 20:56 08.10.2019
6282 Mist 20 1009 49 10000 8.2 350 20:37 08.10.2019
6283 Mist 21 1009 49 10000 8.2 350 20:19 08.10.2019
6284 Mist 20 1009 53 10000 9.8 350 19:58 08.10.2019
6285 Mist 21 1009 49 10000 9.8 340 19:39 08.10.2019
6286 Rain 21 1009 49 10000 9.8 340 19:20 08.10.2019
6287 Mist 21 1009 49 10000 9.8 340 19:20 08.10.2019
6288 Rain 21 1009 49 10000 11.3 340 18:54 08.10.2019
6289 Rain 21 1009 53 10000 7.7 340 18:36 08.10.2019
6290 Rain 21 1008 94 5000 2.6 310 18:18 08.10.2019
6291 Rain 22 1008 78 10000 4.1 340 17:40 08.10.2019
6292 Rain 22 1008 78 10000 4.1 340 17:20 08.10.2019
6293 Mist 22 1009 83 10000 4.1 350 16:58 08.10.2019
6294 Mist 22 1008 94 5000 3.1 310 16:39 08.10.2019
6295 Clouds 22 1008 78 10000 4.1 300 16:21 08.10.2019
6296 Clouds 22 1008 78 10000 3.1 300 15:41 08.10.2019
6297 Clouds 22 1008 78 10000 3.1 300 15:21 08.10.2019
6298 Clouds 22 1008 78 10000 2.6 270 14:58 08.10.2019
6299 Clouds 22 1008 78 10000 2.6 270 14:58 08.10.2019
6300 Clouds 22 1008 78 10000 3.6 300 14:39 08.10.2019
6301 Clouds 22 1008 78 10000 3.6 300 14:20 08.10.2019
6302 Clouds 22 1007 83 10000 2.6 340 13:57 08.10.2019
6303 Clouds 22 1007 83 10000 3.1 350 13:38 08.10.2019
6304 Clouds 23 1007 83 10000 3.1 350 13:19 08.10.2019
6305 Clouds 23 1007 83 10000 3.6 10 12:58 08.10.2019
6306 Clouds 23 1007 78 10000 4.6 290 12:37 08.10.2019
6307 Clouds 23 1007 78 10000 4.6 290 12:18 08.10.2019
6308 Clouds 24 1006 69 10000 8.2 230 11:42 08.10.2019
6309 Clouds 24 1006 69 10000 7.2 210 11:24 08.10.2019
6310 Clouds 24 1006 69 10000 7.2 240 10:58 08.10.2019
6311 Clouds 24 1006 69 10000 7.2 210 10:37 08.10.2019
6312 Clouds 25 1006 69 10000 7.2 210 10:19 08.10.2019
6313 Clouds 26 1006 69 10000 6.7 200 09:55 08.10.2019
6314 Clouds 26 1005 69 10000 4.6 190 09:37 08.10.2019
6315 Clouds 26 1005 69 10000 4.6 190 09:19 08.10.2019
6316 Rain 26 1005 61 10000 10.3 200 08:42 08.10.2019
6317 Rain 26 1005 69 10000 4.6 220 08:23 08.10.2019
6318 Rain 26 1005 69 10000 4.6 220 08:23 08.10.2019
6319 Rain 27 1005 61 10000 10.8 210 07:45 08.10.2019
6320 Clouds 27 1005 65 10000 6.2 220 07:21 08.10.2019
6321 Clouds 27 1006 61 10000 10.8 210 06:53 08.10.2019
6322 Clouds 27 1006 69 10000 5.1 220 06:29 08.10.2019
6323 Clouds 26 1007 69 10000 8.2 210 05:55 08.10.2019
6324 Clouds 26 1007 78 10000 5.1 200 05:36 08.10.2019
6325 Clouds 25 1008 83 10000 4.6 210 04:33 08.10.2019
6326 Clouds 23 1010 94 10000 3.6 170 03:29 08.10.2019
6327 Clouds 22 1011 94 10000 3.1 190 02:39 08.10.2019
6328 Mist 21 1011 94 10000 1.5 190 01:49 08.10.2019
6329 Mist 21 1011 94 10000 4.1 180 01:31 08.10.2019
6330 Mist 20 1012 94 10000 0.5 120 00:50 08.10.2019
6331 Rain 19 1012 94 10000 0.5 120 00:21 08.10.2019
6332 Rain 19 1012 94 10000 1.5 110 23:41 07.10.2019
6333 Rain 19 1012 100 10000 1 20 23:20 07.10.2019
6334 Rain 19 1012 100 10000 1 20 23:20 07.10.2019
6335 Rain 19 1013 100 10000 1 350 22:58 07.10.2019
6336 Rain 19 1013 100 10000 1 350 22:40 07.10.2019
6337 Rain 19 1013 100 10000 2.6 360 22:20 07.10.2019
6338 Rain 19 1013 100 6000 2.6 20 21:57 07.10.2019
6339 Rain 19 1013 100 5000 3.6 360 21:39 07.10.2019
6340 Rain 19 1013 100 5000 3.6 360 21:20 07.10.2019
6341 Rain 18 1013 93 4000 4.1 360 20:58 07.10.2019
6342 Rain 18 1014 100 7000 3.6 360 20:39 07.10.2019
6343 Rain 18 1014 100 7000 3.6 360 20:20 07.10.2019
6344 Rain 18 1014 100 6000 4.1 360 19:58 07.10.2019
6345 Rain 18 1015 100 6000 2.6 320 19:40 07.10.2019
6346 Rain 18 1015 100 6000 2.6 320 19:19 07.10.2019
6347 Rain 18 1015 100 8000 3.1 320 18:57 07.10.2019
6348 Rain 19 1016 100 6000 2.1 320 18:38 07.10.2019
6349 Rain 18 1016 100 6000 2.1 320 18:18 07.10.2019
6350 Rain 19 1016 100 6000 4.6 310 17:43 07.10.2019
6351 Rain 19 1017 100 4500 4.6 320 17:22 07.10.2019
6352 Rain 19 1017 100 5000 5.1 330 16:58 07.10.2019
6353 Rain 19 1017 100 5000 5.1 330 16:39 07.10.2019
6354 Rain 19 1017 93 4000 4.6 330 16:39 07.10.2019
6355 Rain 19 1017 93 4000 4.6 330 16:20 07.10.2019
6356 Rain 19 1019 88 7000 5.1 340 15:45 07.10.2019
6357 Rain 19 1019 88 7000 5.1 340 15:26 07.10.2019
6358 Rain 19 1019 88 7000 5.1 340 15:26 07.10.2019
6359 Rain 19 1019 88 7000 5.1 340 15:26 07.10.2019
6360 Rain 19 1019 88 10000 5.1 350 14:56 07.10.2019
6361 Rain 19 1019 88 10000 5.1 10 14:38 07.10.2019
6362 Rain 19 1019 88 10000 5.1 10 14:20 07.10.2019
6363 Rain 20 1019 88 10000 4.6 10 13:43 07.10.2019
6364 Rain 20 1019 88 10000 4.6 10 13:21 07.10.2019
6365 Rain 20 1020 88 10000 3.6 30 12:57 07.10.2019
6366 Rain 20 1020 88 10000 4.1 50 12:39 07.10.2019
6367 Rain 20 1020 88 10000 4.1 50 12:19 07.10.2019
6368 Rain 21 1020 83 10000 4.6 60 11:57 07.10.2019
6369 Rain 21 1020 83 10000 4.6 60 11:38 07.10.2019
6370 Rain 21 1022 64 16093 4.81 116.123 11:20 07.10.2019
6371 Rain 21 1022 64 16093 4.81 116.123 11:20 07.10.2019
6372 Rain 22 1019 73 10000 4.6 70 10:42 07.10.2019
6373 Rain 23 1019 73 10000 5.1 60 10:21 07.10.2019
6374 Rain 23 1019 73 10000 5.1 60 09:55 07.10.2019
6375 Rain 23 1019 73 10000 5.1 60 09:54 07.10.2019
6376 Rain 23 1019 69 10000 3.6 40 09:36 07.10.2019
6377 Rain 23 1019 69 10000 3.6 40 09:18 07.10.2019
6378 Clouds 24 1019 69 10000 4.1 40 08:41 07.10.2019
6379 Clouds 24 1019 64 10000 3.1 40 08:20 07.10.2019
6380 Clouds 24 1020 64 10000 4.1 40 07:44 07.10.2019
6381 Clouds 24 1019 64 10000 3.6 30 07:25 07.10.2019
6382 Clouds 24 1020 60 10000 4.1 20 06:56 07.10.2019
6383 Clouds 24 1020 60 10000 3.1 10 06:37 07.10.2019
6384 Clouds 24 1020 69 10000 5.1 30 05:54 07.10.2019
6385 Clouds 24 1020 64 10000 3.1 10 05:25 07.10.2019
6386 Rain 22 1021 68 10000 5.7 360 04:44 07.10.2019
6387 Rain 22 1022 73 10000 6.2 360 03:45 07.10.2019
6388 Rain 21 1022 64 10000 2.6 330 03:23 07.10.2019
6389 Rain 21 1023 72 10000 3.6 20 02:23 07.10.2019
6390 Rain 21 1023 72 10000 3.6 20 02:23 07.10.2019
6391 Drizzle 20 1023 77 10000 2.6 360 01:58 07.10.2019
6392 Drizzle 19 1023 77 10000 5.7 360 01:23 07.10.2019
6393 Clouds 19 1023 77 10000 6.2 10 00:45 07.10.2019
6394 Clouds 18 1023 77 10000 6.2 360 00:23 07.10.2019
6395 Clouds 18 1023 77 10000 6.2 360 23:59 06.10.2019
6396 Clouds 18 1023 77 10000 6.2 360 23:39 06.10.2019
6397 Clouds 18 1023 77 10000 6.2 360 23:18 06.10.2019
6398 Clouds 18 1023 77 10000 6.7 360 22:54 06.10.2019
6399 Clouds 18 1022 77 10000 7.7 10 22:36 06.10.2019
6400 Clouds 18 1022 77 10000 7.7 10 22:18 06.10.2019
6401 Clouds 18 1022 77 10000 7.7 10 21:54 06.10.2019
6402 Clouds 18 1022 77 10000 7.2 360 21:36 06.10.2019
6403 Clouds 18 1022 77 10000 7.2 360 21:36 06.10.2019
6404 Clouds 18 1022 77 10000 7.2 360 21:18 06.10.2019
6405 Clouds 18 1022 77 10000 8.2 10 20:54 06.10.2019
6406 -273 0 0 0 0 0 20:54 06.10.2019
6407 Clouds 19 1023 77 10000 7.2 10 20:36 06.10.2019
6408 Clouds 18 1023 77 10000 7.2 10 20:18 06.10.2019
6409 Clouds 19 1022 72 10000 6.7 10 19:54 06.10.2019
6410 Clouds 19 1023 77 10000 7.2 10 19:36 06.10.2019
6411 Clouds 19 1023 77 10000 7.2 10 19:18 06.10.2019
6412 Clouds 19 1023 82 10000 6.7 10 18:54 06.10.2019
6413 Clouds 19 1023 82 10000 6.7 10 18:54 06.10.2019
6414 Clouds 19 1022 82 10000 5.7 20 18:36 06.10.2019
6415 Clouds 19 1023 77 10000 6.2 10 18:18 06.10.2019
6416 Clouds 19 1023 77 10000 6.2 10 17:42 06.10.2019
6417 Clouds 19 1022 77 10000 6.2 10 17:20 06.10.2019
6418 Clouds 19 1023 77 10000 4.6 30 16:55 06.10.2019
6419 Clouds 19 1022 77 10000 5.7 30 16:37 06.10.2019
6420 Clouds 19 1022 77 10000 5.7 30 16:18 06.10.2019
6421 Clouds 19 1023 77 10000 6.2 30 15:42 06.10.2019
6422 Clouds 19 1022 77 10000 7.7 30 15:21 06.10.2019
6423 Clouds 19 1022 82 10000 8.2 50 14:44 06.10.2019
6424 Clouds 19 1022 82 10000 8.2 50 14:26 06.10.2019
6425 Clouds 20 1022 77 10000 8.7 40 13:59 06.10.2019
6426 Clouds 20 1022 82 10000 5.7 40 13:40 06.10.2019
6427 Clouds 20 1022 77 10000 8.2 40 13:21 06.10.2019
6428 Clouds 20 1022 82 10000 7.7 50 12:58 06.10.2019
6429 Clouds 20 1021 82 10000 5.1 40 12:39 06.10.2019
6430 Clouds 20 1021 82 10000 8.7 50 12:21 06.10.2019
6431 Clouds 20 1020 82 10000 9.3 60 11:58 06.10.2019
6432 Clouds 20 1020 73 10000 9.8 60 11:39 06.10.2019
6433 Clouds 20 1020 73 10000 9.8 60 11:21 06.10.2019
6434 Clouds 20 1020 77 10000 9.8 50 10:54 06.10.2019
6435 Clouds 21 1019 73 10000 8.2 60 10:36 06.10.2019
6436 Clouds 21 1019 73 10000 8.2 60 10:18 06.10.2019
6437 Clouds 21 1018 77 10000 7.2 60 09:41 06.10.2019
6438 Clouds 21 1018 77 10000 7.2 60 09:19 06.10.2019
6439 Clouds 21 1019 83 10000 7.7 40 08:48 06.10.2019
6440 Clouds 21 1018 77 10000 7.2 50 08:21 06.10.2019
6441 Clouds 21 1018 83 10000 8.2 50 07:57 06.10.2019
6442 Clouds 21 1017 82 10000 5.7 40 07:38 06.10.2019
6443 Rain 21 1018 88 10000 9.3 30 06:49 06.10.2019
6444 Rain 21 1017 94 6000 3.6 20 05:36 06.10.2019
6445 Rain 21 1017 94 10000 5.1 10 04:29 06.10.2019
6446 Rain 22 1017 88 10000 7.2 360 02:52 06.10.2019
6447 Rain 22 1016 83 10000 3.1 350 02:29 06.10.2019
6448 Clouds 22 1016 78 10000 4.6 360 01:46 06.10.2019
6449 Rain 22 1016 83 10000 7.2 360 01:28 06.10.2019
6450 Rain 22 1016 83 10000 6.7 360 00:59 06.10.2019
6451 Rain 22 1016 83 10000 6.7 360 00:59 06.10.2019
6452 Rain 22 1015 83 10000 7.2 360 00:31 06.10.2019
6453 -273 0 0 0 0 0 23:54 05.10.2019
6454 Rain 22 1014 83 10000 6.2 10 23:36 05.10.2019
6455 Rain 22 1014 83 10000 6.2 10 23:18 05.10.2019
6456 Rain 22 1014 78 10000 6.7 20 22:54 05.10.2019
6457 Rain 22 1013 83 10000 6.7 10 22:36 05.10.2019
6458 Rain 22 1013 83 10000 6.7 10 22:18 05.10.2019
6459 Rain 22 1013 83 10000 5.1 20 21:40 05.10.2019
6460 Rain 22 1013 83 10000 5.1 20 21:21 05.10.2019
6461 Rain 22 1013 78 10000 5.1 20 20:57 05.10.2019
6462 Rain 23 1012 78 10000 4.6 30 20:39 05.10.2019
6463 Rain 23 1012 78 10000 4.6 30 20:19 05.10.2019
6464 Rain 23 1012 78 10000 5.7 40 19:41 05.10.2019
6465 Rain 23 1012 83 10000 4.1 50 19:22 05.10.2019
6466 Clouds 23 1013 78 10000 4.1 50 18:58 05.10.2019
6467 Clouds 23 1012 78 10000 4.6 50 18:39 05.10.2019
6468 Clouds 23 1012 78 10000 4.6 50 18:21 05.10.2019
6469 Clouds 23 1013 78 10000 5.1 50 17:56 05.10.2019
6470 Clouds 23 1012 78 10000 5.7 50 17:37 05.10.2019
6471 Clouds 23 1012 78 10000 5.7 50 17:19 05.10.2019
6472 Clouds 23 1012 83 10000 4.1 70 16:42 05.10.2019
6473 Clouds 23 1012 83 10000 4.1 70 16:23 05.10.2019
6474 Clear 24 1012 83 10000 3.6 80 15:59 05.10.2019
6475 Clear 23 1012 83 10000 3.6 80 15:40 05.10.2019
6476 Clear 24 1012 83 10000 1.5 110 15:21 05.10.2019
6477 Clouds 24 1012 78 10000 1 0 14:59 05.10.2019
6478 Clouds 24 1012 78 10000 1 0 14:41 05.10.2019
6479 Clouds 24 1012 78 10000 1 0 14:41 05.10.2019
6480 Clouds 24 1012 78 10000 1 0 14:41 05.10.2019
6481 Clouds 24 1012 78 10000 3.1 130 14:20 05.10.2019
6482 Clouds 24 1012 83 10000 3.6 140 13:43 05.10.2019
6483 Clouds 24 1011 78 10000 3.6 140 13:24 05.10.2019
6484 Clouds 25 1012 83 10000 4.1 120 12:57 05.10.2019
6485 Clouds 25 1011 78 10000 4.6 140 12:39 05.10.2019
6486 Clouds 25 1011 78 10000 4.6 140 12:39 05.10.2019
6487 Clouds 25 1010 65 10000 5.7 160 12:18 05.10.2019
6488 Clouds 26 1009 61 10000 5.1 160 11:39 05.10.2019
6489 Clouds 26 1009 61 10000 5.1 160 11:20 05.10.2019
6490 Clouds 26 1009 57 10000 5.1 190 10:55 05.10.2019
6491 Clouds 27 1009 57 10000 5.7 190 10:37 05.10.2019
6492 Clouds 27 1009 57 10000 5.7 190 10:18 05.10.2019
6493 Clouds 28 1009 54 10000 4.6 180 09:39 05.10.2019
6494 Clouds 29 1008 58 10000 4.1 140 09:21 05.10.2019
6495 Clouds 30 1008 54 10000 1 90 08:41 05.10.2019
6496 Clouds 30 1008 48 10000 2.1 150 08:22 05.10.2019
6497 Clouds 30 1008 51 10000 2.6 150 07:59 05.10.2019
6498 Clouds 30 1008 61 10000 5.1 150 07:38 05.10.2019
6499 Clouds 30 1008 61 10000 5.1 150 07:19 05.10.2019
6500 Clouds 30 1008 51 10000 4.1 130 06:50 05.10.2019
6501 Clouds 30 1008 40 10000 1 0 06:18 05.10.2019
6502 Clouds 30 1009 45 10000 3.1 30 04:44 05.10.2019
6503 Clouds 29 1009 42 10000 3.6 340 03:30 05.10.2019
6504 Clear 26 1009 50 10000 6.7 320 01:59 05.10.2019
6505 Clouds 26 1008 51 10000 10.3 340 01:24 05.10.2019
6506 Clouds 25 1008 54 10000 8.7 340 00:46 05.10.2019
6507 Clouds 25 1008 54 10000 6.7 340 00:27 05.10.2019
6508 Clouds 24 1007 50 10000 4.6 320 23:55 04.10.2019
6509 Clouds 23 1007 50 10000 3.6 280 23:37 04.10.2019
6510 Clouds 23 1007 50 10000 3.6 280 23:18 04.10.2019
6511 Clouds 22 1006 47 10000 6.2 310 22:41 04.10.2019
6512 Clouds 23 1005 44 10000 8.7 320 22:23 04.10.2019
6513 Clouds 23 1005 47 10000 7.7 330 21:58 04.10.2019
6514 Clouds 23 1005 57 10000 3.1 310 21:40 04.10.2019
6515 Clouds 23 1005 57 10000 3.1 310 21:21 04.10.2019
6516 Clouds 23 1005 57 10000 3.1 300 20:57 04.10.2019
6517 Clouds 23 1005 57 10000 5.1 280 20:39 04.10.2019
6518 Clouds 23 1005 57 10000 5.1 280 20:21 04.10.2019
6519 Clouds 23 1005 57 10000 5.7 260 19:55 04.10.2019
6520 Clouds 23 1004 64 10000 5.7 260 19:37 04.10.2019
6521 Clouds 23 1004 64 10000 5.7 260 19:18 04.10.2019
6522 Clouds 23 1004 65 10000 5.1 240 18:39 04.10.2019
6523 Clouds 23 1004 65 10000 5.1 240 18:20 04.10.2019
6524 Clouds 23 1004 65 10000 5.1 240 18:20 04.10.2019
6525 Clouds 23 1004 69 10000 3.1 220 17:58 04.10.2019
6526 Clouds 23 1003 69 10000 4.1 230 17:39 04.10.2019
6527 Clouds 23 1003 69 10000 4.1 230 17:20 04.10.2019
6528 Clouds 23 1003 69 10000 5.1 200 16:55 04.10.2019
6529 Clouds 23 1003 78 10000 5.1 180 16:37 04.10.2019
6530 Clouds 24 1003 78 10000 5.1 180 16:18 04.10.2019
6531 Clouds 24 1003 65 10000 5.1 210 15:55 04.10.2019
6532 Clouds 24 1003 65 10000 5.1 210 15:55 04.10.2019
6533 Clouds 24 1003 65 10000 4.1 200 15:37 04.10.2019
6534 Clouds 24 1003 65 10000 4.1 200 15:19 04.10.2019
6535 Clouds 24 1002 61 10000 5.1 230 14:54 04.10.2019
6536 Clouds 25 1002 57 10000 3.1 230 14:36 04.10.2019
6537 Clouds 25 1002 57 10000 3.1 230 14:18 04.10.2019
6538 Clouds 25 1002 61 10000 4.1 200 13:42 04.10.2019
6539 Clouds 25 1002 61 10000 4.1 200 13:20 04.10.2019
6540 Clouds 25 1002 65 10000 6.2 200 12:46 04.10.2019
6541 Clouds 25 1002 65 10000 6.2 200 12:46 04.10.2019
6542 Clouds 26 1001 61 10000 7.2 200 12:28 04.10.2019
6543 Clouds 26 1001 57 10000 4.6 200 11:59 04.10.2019
6544 Clouds 26 1001 57 10000 4.6 200 11:40 04.10.2019
6545 Clouds 26 1001 57 10000 4.6 200 11:40 04.10.2019
6546 Clouds 26 1001 57 10000 4.6 200 11:40 04.10.2019
6547 Clouds 26 1000 54 10000 6.7 200 11:20 04.10.2019
6548 Clouds 27 1000 54 10000 6.7 200 10:40 04.10.2019
6549 Clouds 27 1000 58 10000 8.7 200 10:21 04.10.2019
6550 Clouds 27 999 54 10000 9.3 210 09:48 04.10.2019
6551 Clouds 28 999 78 10000 7.2 190 09:30 04.10.2019
6552 Clouds 29 999 62 10000 9.3 200 08:57 04.10.2019
6553 Clouds 29 999 69 10000 8.7 200 08:38 04.10.2019
6554 Clouds 29 999 69 10000 8.7 200 08:20 04.10.2019
6555 Clouds 29 1000 61 10000 9.8 190 07:45 04.10.2019
6556 Clouds 29 1000 69 10000 7.7 190 07:22 04.10.2019
6557 Clouds 29 1000 58 10000 10.8 180 06:47 04.10.2019
6558 Clouds 29 1000 78 10000 9.8 190 06:27 04.10.2019
6559 Rain 28 1001 69 10000 11.8 180 05:52 04.10.2019
6560 Rain 28 1002 78 10000 8.7 180 05:19 04.10.2019
6561 Clouds 25 1003 83 10000 9.3 180 03:50 04.10.2019
6562 Rain 24 1004 83 10000 10.8 150 02:54 04.10.2019
6563 Rain 24 1004 83 10000 10.8 150 02:54 04.10.2019
6564 Rain 23 1005 94 10000 8.2 170 02:18 04.10.2019
6565 Rain 23 1006 94 2000 9.3 180 01:42 04.10.2019
6566 Rain 23 1006 88 10000 11.8 180 01:23 04.10.2019
6567 Rain 23 1007 83 10000 8.2 170 23:59 03.10.2019
6568 Rain 23 1007 83 10000 8.2 170 23:37 03.10.2019
6569 Rain 23 1006 78 10000 8.7 170 23:18 03.10.2019
6570 Rain 24 1007 73 10000 9.3 170 22:57 03.10.2019
6571 Rain 24 1007 73 10000 9.3 170 22:38 03.10.2019
6572 Rain 24 1007 69 10000 9.8 170 22:38 03.10.2019
6573 Rain 24 1007 69 10000 9.8 170 22:20 03.10.2019
6574 Clouds 24 1007 69 10000 10.8 170 21:56 03.10.2019
6575 Rain 24 1008 65 10000 9.8 170 21:37 03.10.2019
6576 Rain 24 1008 65 10000 9.8 170 21:19 03.10.2019
6577 Rain 24 1008 69 10000 8.2 170 20:56 03.10.2019
6578 Rain 24 1008 69 10000 8.2 160 20:37 03.10.2019
6579 Rain 24 1008 69 10000 8.2 160 20:19 03.10.2019
6580 Rain 24 1009 69 10000 9.3 160 19:55 03.10.2019
6581 Rain 24 1009 69 10000 9.3 160 19:54 03.10.2019
6582 Rain 24 1009 69 10000 9.3 160 19:36 03.10.2019
6583 Rain 24 1009 69 10000 9.3 160 19:18 03.10.2019
6584 Clouds 24 1010 73 10000 7.2 150 18:40 03.10.2019
6585 Clouds 24 1010 73 10000 7.2 150 18:19 03.10.2019
6586 Clouds 24 1010 69 10000 9.3 160 17:59 03.10.2019
6587 Clouds 24 1011 78 10000 4.6 170 17:41 03.10.2019
6588 Clouds 24 1011 69 10000 8.7 160 17:20 03.10.2019
6589 Clouds 24 1011 69 10000 8.2 160 16:54 03.10.2019
6590 Clouds 24 1011 73 10000 9.3 170 16:36 03.10.2019
6591 Clouds 25 1011 73 10000 9.3 170 16:18 03.10.2019
6592 Rain 24 1012 73 10000 8.7 170 15:41 03.10.2019
6593 Clouds 25 1012 73 10000 8.7 170 15:23 03.10.2019
6594 Clouds 25 1013 73 10000 7.2 170 14:54 03.10.2019
6595 Clouds 25 1012 69 10000 8.2 170 14:36 03.10.2019
6596 Clouds 25 1012 69 10000 8.2 170 14:18 03.10.2019
6597 Clouds 25 1013 69 10000 7.7 170 13:41 03.10.2019
6598 Clouds 25 1013 69 10000 7.2 170 13:19 03.10.2019
6599 Clouds 25 1013 69 10000 7.2 160 12:57 03.10.2019
6600 Clouds 25 1013 69 10000 7.2 170 12:38 03.10.2019
6601 Clouds 25 1013 69 10000 7.2 170 12:19 03.10.2019
6602 Clouds 25 1013 69 10000 7.2 170 12:19 03.10.2019
6603 Rain 25 1014 69 10000 7.2 170 11:55 03.10.2019
6604 Clouds 25 1013 65 10000 7.7 170 11:37 03.10.2019
6605 Clouds 25 1013 65 10000 7.7 170 11:18 03.10.2019
6606 Rain 25 1013 65 10000 7.2 180 10:41 03.10.2019
6607 Rain 26 1013 65 10000 7.2 180 10:19 03.10.2019
6608 Drizzle 26 1014 65 10000 7.2 190 09:59 03.10.2019
6609 Clouds 26 1013 69 10000 4.6 190 09:40 03.10.2019
6610 Clouds 26 1013 69 10000 4.6 190 09:21 03.10.2019
6611 Clouds 27 1013 54 10000 6.7 190 08:55 03.10.2019
6612 Clouds 27 1013 61 10000 5.1 200 08:36 03.10.2019
6613 Clouds 27 1013 61 10000 5.1 200 08:18 03.10.2019
6614 Clouds 28 1013 58 10000 5.1 180 07:41 03.10.2019
6615 Clouds 28 1013 58 10000 5.1 180 07:19 03.10.2019
6616 Clouds 28 1013 58 10000 5.1 180 07:19 03.10.2019
6617 Clouds 28 1014 48 10000 7.2 200 06:51 03.10.2019
6618 Clouds 28 1014 61 10000 4.6 190 06:25 03.10.2019
6619 Clouds 28 1014 58 10000 6.7 190 05:47 03.10.2019
6620 Clouds 28 1014 65 10000 3.6 170 05:20 03.10.2019
6621 Clouds 28 1015 54 10000 5.7 200 04:39 03.10.2019
6622 Clouds 27 1016 69 10000 4.1 150 03:26 03.10.2019
6623 Clouds 26 1016 74 10000 3.6 150 02:45 03.10.2019
6624 Clouds 26 1016 78 10000 4.1 150 02:19 03.10.2019
6625 Clouds 25 1017 73 10000 3.6 160 01:37 03.10.2019
6626 Clouds 23 1018 78 10000 4.1 160 00:51 03.10.2019
6627 Clouds 22 1017 83 10000 3.6 150 00:28 03.10.2019
6628 Clouds 21 1018 83 10000 3.6 150 23:44 02.10.2019
6629 Clouds 21 1017 88 10000 3.6 150 23:24 02.10.2019
6630 Clouds 21 1017 88 10000 3.6 140 22:57 02.10.2019
6631 Fog 21 1017 88 10000 3.6 140 22:38 02.10.2019
6632 Fog 21 1017 88 10000 3.6 140 22:18 02.10.2019
6633 Fog 21 1017 88 10000 3.6 140 21:55 02.10.2019
6634 Fog 21 1017 88 10000 3.6 140 21:54 02.10.2019
6635 Fog 21 1017 88 10000 3.6 140 21:54 02.10.2019
6636 Fog 21 1017 88 10000 3.6 140 21:36 02.10.2019
6637 Fog 21 1017 88 10000 3.6 140 21:18 02.10.2019
6638 Clouds 21 1017 88 10000 3.6 150 20:54 02.10.2019
6639 Fog 21 1017 88 10000 3.1 150 20:36 02.10.2019
6640 Fog 21 1017 88 10000 3.1 150 20:18 02.10.2019
6641 Fog 21 1017 88 10000 3.1 150 20:18 02.10.2019
6642 Clouds 21 1017 88 10000 3.6 150 19:42 02.10.2019
6643 Clouds 22 1017 83 10000 4.6 180 19:21 02.10.2019
6644 Clouds 21 1018 83 10000 3.1 170 18:57 02.10.2019
6645 Clouds 22 1018 83 10000 3.1 180 18:38 02.10.2019
6646 Clouds 21 1018 83 10000 3.1 180 18:20 02.10.2019
6647 Clouds 22 1018 73 10000 3.6 180 17:56 02.10.2019
6648 Clouds 22 1017 83 10000 3.6 170 17:37 02.10.2019
6649 Clouds 22 1017 83 10000 3.6 170 17:19 02.10.2019
6650 Clouds 22 1018 78 10000 4.1 180 16:42 02.10.2019
6651 Clouds 22 1019 73 10000 4.1 190 16:22 02.10.2019
6652 Clouds 22 1019 73 10000 4.1 190 15:59 02.10.2019
6653 Clouds 22 1018 78 10000 3.6 180 15:40 02.10.2019
6654 Clouds 22 1018 78 10000 3.6 180 15:22 02.10.2019
6655 Clouds 22 1018 78 10000 3.6 180 15:22 02.10.2019
6656 Clouds 23 1019 73 10000 4.1 190 14:57 02.10.2019
6657 Clouds 23 1019 69 10000 4.1 190 14:39 02.10.2019
6658 Clouds 23 1019 69 10000 4.1 190 14:39 02.10.2019
6659 Clouds 23 1019 69 10000 4.1 170 14:20 02.10.2019
6660 Clouds 24 1019 69 10000 5.1 190 13:45 02.10.2019
6661 Clouds 24 1019 69 10000 5.1 190 13:25 02.10.2019
6662 Clouds 24 1019 69 10000 5.7 190 12:58 02.10.2019
6663 Clouds 24 1019 73 10000 5.7 200 12:38 02.10.2019
6664 Clouds 24 1019 73 10000 5.7 200 12:20 02.10.2019
6665 Clouds 25 1018 69 10000 6.2 200 11:44 02.10.2019
6666 Clouds 25 1018 69 10000 6.2 200 11:23 02.10.2019
6667 Clouds 26 1018 69 10000 6.7 190 10:42 02.10.2019
6668 Clouds 27 1018 69 10000 6.7 190 10:20 02.10.2019
6669 Clouds 27 1018 65 10000 6.7 190 09:59 02.10.2019
6670 Clear 28 1017 57 10000 2.1 160 09:38 02.10.2019
6671 Clear 28 1017 57 10000 2.1 160 09:20 02.10.2019
6672 Clouds 29 1018 51 10000 2.1 160 08:45 02.10.2019
6673 Clouds 29 1018 51 10000 2.1 160 08:25 02.10.2019
6674 Clouds 29 1018 57 10000 1.5 70 07:59 02.10.2019
6675 Clouds 29 1018 58 10000 2.6 160 07:39 02.10.2019
6676 Clouds 29 1018 65 10000 1.5 70 07:20 02.10.2019
6677 Clouds 29 1018 69 10000 3.1 160 06:40 02.10.2019
6678 Clouds 29 1019 74 10000 2.1 100 05:56 02.10.2019
6679 Clouds 28 1019 78 8000 4.1 140 05:24 02.10.2019
6680 Clouds 29 1020 78 10000 2.1 90 04:53 02.10.2019
6681 Clouds 27 1021 88 9000 2.6 90 03:52 02.10.2019
6682 Clouds 25 1021 78 7000 3.1 50 02:43 02.10.2019
6683 Clouds 24 1021 78 7000 3.1 50 02:24 02.10.2019
6684 Mist 24 1021 88 10000 1.5 40 01:46 02.10.2019
6685 Mist 22 1021 88 7000 1.5 90 00:51 02.10.2019
6686 Mist 22 1021 94 3200 1 0 00:27 02.10.2019
6687 Fog 20 1022 88 10000 2.1 30 23:45 01.10.2019
6688 Fog 20 1022 88 10000 2.1 30 23:26 01.10.2019
6689 Fog 20 1023 93 16093 1.37 138.684 22:59 01.10.2019
6690 Fog 20 1021 94 10000 2.1 50 22:41 01.10.2019
6691 Fog 20 1021 94 10000 2.1 50 22:20 01.10.2019
6692 Fog 20 1021 94 10000 2.1 50 21:58 01.10.2019
6693 Fog 20 1023 93 8047 3.1 10 21:40 01.10.2019
6694 Fog 20 1023 93 8047 3.1 10 21:22 01.10.2019
6695 Fog 20 1023 93 12874 2.6 10 20:57 01.10.2019
6696 Fog 20 1020 88 10000 3.1 70 20:38 01.10.2019
6697 Fog 20 1020 88 10000 3.1 70 20:20 01.10.2019
6698 Fog 20 1021 93 4900 1 0 19:56 01.10.2019
6699 Fog 21 1020